<?xml version="1.0" encoding="UTF-8" standalone="no" ?>
<gpx xmlns="http://www.topografix.com/GPX/1/1" xmlns:xsi="http://www.w3.org/2001/XMLSchema-instance" xsi:schemaLocation="http://www.topografix.com/GPX/1/1 http://www.topografix.com/GPX/1/1/gpx.xsd" version="1.1" creator="VisuGPX - https://www.visugpx.com">
  <metadata>
    <name>Champagnat Cyclisme sur route</name>
  </metadata>
  <trk>
    <name><![CDATA[Champagnat Cyclisme sur route_1]]></name>
    <trkseg>
      <trkpt lat="46.48256" lon="5.36822">
        <ele>276.4</ele>
        <time>2022-04-30T11:17:58Z</time>
      </trkpt>
      <trkpt lat="46.48246" lon="5.36812">
        <ele>275.8</ele>
        <time>2022-04-30T11:17:59Z</time>
      </trkpt>
      <trkpt lat="46.48235" lon="5.36802">
        <ele>275</ele>
        <time>2022-04-30T11:18:00Z</time>
      </trkpt>
      <trkpt lat="46.48213" lon="5.36784">
        <ele>273.4</ele>
        <time>2022-04-30T11:18:02Z</time>
      </trkpt>
      <trkpt lat="46.48191" lon="5.36766">
        <ele>272.2</ele>
        <time>2022-04-30T11:18:04Z</time>
      </trkpt>
      <trkpt lat="46.48169" lon="5.36748">
        <ele>270.6</ele>
        <time>2022-04-30T11:18:06Z</time>
      </trkpt>
      <trkpt lat="46.48147" lon="5.36731">
        <ele>269.2</ele>
        <time>2022-04-30T11:18:08Z</time>
      </trkpt>
      <trkpt lat="46.48137" lon="5.36723">
        <ele>268.2</ele>
        <time>2022-04-30T11:18:09Z</time>
      </trkpt>
      <trkpt lat="46.48128" lon="5.36717">
        <ele>267.6</ele>
        <time>2022-04-30T11:18:10Z</time>
      </trkpt>
      <trkpt lat="46.48119" lon="5.36711">
        <ele>266.8</ele>
        <time>2022-04-30T11:18:11Z</time>
      </trkpt>
      <trkpt lat="46.48113" lon="5.36704">
        <ele>266.2</ele>
        <time>2022-04-30T11:18:12Z</time>
      </trkpt>
      <trkpt lat="46.48108" lon="5.36696">
        <ele>264.8</ele>
        <time>2022-04-30T11:18:13Z</time>
      </trkpt>
      <trkpt lat="46.48104" lon="5.36688">
        <ele>264.2</ele>
        <time>2022-04-30T11:18:14Z</time>
      </trkpt>
      <trkpt lat="46.48101" lon="5.36681">
        <ele>263.6</ele>
        <time>2022-04-30T11:18:15Z</time>
      </trkpt>
      <trkpt lat="46.48098" lon="5.36673">
        <ele>262.8</ele>
        <time>2022-04-30T11:18:16Z</time>
      </trkpt>
      <trkpt lat="46.48097" lon="5.36663">
        <ele>262.4</ele>
        <time>2022-04-30T11:18:17Z</time>
      </trkpt>
      <trkpt lat="46.48097" lon="5.36641">
        <ele>261.4</ele>
        <time>2022-04-30T11:18:19Z</time>
      </trkpt>
      <trkpt lat="46.481" lon="5.36631">
        <ele>260.8</ele>
        <time>2022-04-30T11:18:20Z</time>
      </trkpt>
      <trkpt lat="46.48102" lon="5.36623">
        <ele>260.2</ele>
        <time>2022-04-30T11:18:21Z</time>
      </trkpt>
      <trkpt lat="46.48106" lon="5.36614">
        <ele>259.8</ele>
        <time>2022-04-30T11:18:22Z</time>
      </trkpt>
      <trkpt lat="46.48127" lon="5.36607">
        <ele>259.4</ele>
        <time>2022-04-30T11:18:24Z</time>
      </trkpt>
      <trkpt lat="46.48148" lon="5.36604">
        <ele>259.2</ele>
        <time>2022-04-30T11:18:26Z</time>
      </trkpt>
      <trkpt lat="46.48159" lon="5.36601">
        <ele>259</ele>
        <time>2022-04-30T11:18:27Z</time>
      </trkpt>
      <trkpt lat="46.4817" lon="5.366">
        <ele>259</ele>
        <time>2022-04-30T11:18:28Z</time>
      </trkpt>
      <trkpt lat="46.4818" lon="5.36597">
        <ele>258.8</ele>
        <time>2022-04-30T11:18:29Z</time>
      </trkpt>
      <trkpt lat="46.48195" lon="5.36586">
        <ele>259</ele>
        <time>2022-04-30T11:18:31Z</time>
      </trkpt>
      <trkpt lat="46.48211" lon="5.36559">
        <ele>258.8</ele>
        <time>2022-04-30T11:18:34Z</time>
      </trkpt>
      <trkpt lat="46.48219" lon="5.36553">
        <ele>258.6</ele>
        <time>2022-04-30T11:18:35Z</time>
      </trkpt>
      <trkpt lat="46.48226" lon="5.36547">
        <ele>258.4</ele>
        <time>2022-04-30T11:18:36Z</time>
      </trkpt>
      <trkpt lat="46.48233" lon="5.36541">
        <ele>258.4</ele>
        <time>2022-04-30T11:18:37Z</time>
      </trkpt>
      <trkpt lat="46.48247" lon="5.36527">
        <ele>258</ele>
        <time>2022-04-30T11:18:39Z</time>
      </trkpt>
      <trkpt lat="46.48282" lon="5.36495">
        <ele>256.8</ele>
        <time>2022-04-30T11:18:44Z</time>
      </trkpt>
      <trkpt lat="46.48295" lon="5.36481">
        <ele>256.4</ele>
        <time>2022-04-30T11:18:46Z</time>
      </trkpt>
      <trkpt lat="46.48328" lon="5.36445">
        <ele>255.8</ele>
        <time>2022-04-30T11:18:51Z</time>
      </trkpt>
      <trkpt lat="46.48354" lon="5.36418">
        <ele>254.8</ele>
        <time>2022-04-30T11:18:55Z</time>
      </trkpt>
      <trkpt lat="46.4838" lon="5.36391">
        <ele>253.6</ele>
        <time>2022-04-30T11:18:59Z</time>
      </trkpt>
      <trkpt lat="46.48412" lon="5.3636">
        <ele>252.6</ele>
        <time>2022-04-30T11:19:04Z</time>
      </trkpt>
      <trkpt lat="46.48419" lon="5.36356">
        <ele>252.4</ele>
        <time>2022-04-30T11:19:05Z</time>
      </trkpt>
      <trkpt lat="46.48434" lon="5.36351">
        <ele>252.2</ele>
        <time>2022-04-30T11:19:07Z</time>
      </trkpt>
      <trkpt lat="46.48441" lon="5.36349">
        <ele>252</ele>
        <time>2022-04-30T11:19:08Z</time>
      </trkpt>
      <trkpt lat="46.48497" lon="5.3634">
        <ele>251.8</ele>
        <time>2022-04-30T11:19:16Z</time>
      </trkpt>
      <trkpt lat="46.48504" lon="5.36339">
        <ele>251.8</ele>
        <time>2022-04-30T11:19:17Z</time>
      </trkpt>
      <trkpt lat="46.48563" lon="5.36329">
        <ele>251.8</ele>
        <time>2022-04-30T11:19:26Z</time>
      </trkpt>
      <trkpt lat="46.4857" lon="5.36328">
        <ele>251.6</ele>
        <time>2022-04-30T11:19:27Z</time>
      </trkpt>
      <trkpt lat="46.48614" lon="5.36319">
        <ele>250.8</ele>
        <time>2022-04-30T11:19:33Z</time>
      </trkpt>
      <trkpt lat="46.48621" lon="5.36314">
        <ele>250.2</ele>
        <time>2022-04-30T11:19:34Z</time>
      </trkpt>
      <trkpt lat="46.48627" lon="5.36305">
        <ele>249.8</ele>
        <time>2022-04-30T11:19:35Z</time>
      </trkpt>
      <trkpt lat="46.48631" lon="5.36295">
        <ele>249.8</ele>
        <time>2022-04-30T11:19:36Z</time>
      </trkpt>
      <trkpt lat="46.48633" lon="5.36283">
        <ele>249.4</ele>
        <time>2022-04-30T11:19:37Z</time>
      </trkpt>
      <trkpt lat="46.48635" lon="5.3627">
        <ele>249.2</ele>
        <time>2022-04-30T11:19:38Z</time>
      </trkpt>
      <trkpt lat="46.4864" lon="5.36232">
        <ele>247.8</ele>
        <time>2022-04-30T11:19:41Z</time>
      </trkpt>
      <trkpt lat="46.48644" lon="5.36183">
        <ele>247</ele>
        <time>2022-04-30T11:19:45Z</time>
      </trkpt>
      <trkpt lat="46.48645" lon="5.36159">
        <ele>246.2</ele>
        <time>2022-04-30T11:19:47Z</time>
      </trkpt>
      <trkpt lat="46.48649" lon="5.36135">
        <ele>245.6</ele>
        <time>2022-04-30T11:19:49Z</time>
      </trkpt>
      <trkpt lat="46.48656" lon="5.361">
        <ele>245.4</ele>
        <time>2022-04-30T11:19:52Z</time>
      </trkpt>
      <trkpt lat="46.4867" lon="5.36039">
        <ele>245.2</ele>
        <time>2022-04-30T11:19:58Z</time>
      </trkpt>
      <trkpt lat="46.48672" lon="5.3603">
        <ele>245.2</ele>
        <time>2022-04-30T11:19:59Z</time>
      </trkpt>
      <trkpt lat="46.48675" lon="5.36012">
        <ele>245.2</ele>
        <time>2022-04-30T11:20:01Z</time>
      </trkpt>
      <trkpt lat="46.48676" lon="5.36003">
        <ele>245.4</ele>
        <time>2022-04-30T11:20:02Z</time>
      </trkpt>
      <trkpt lat="46.48678" lon="5.35986">
        <ele>245.6</ele>
        <time>2022-04-30T11:20:04Z</time>
      </trkpt>
      <trkpt lat="46.48682" lon="5.35962">
        <ele>246.2</ele>
        <time>2022-04-30T11:20:07Z</time>
      </trkpt>
      <trkpt lat="46.4869" lon="5.35913">
        <ele>246.6</ele>
        <time>2022-04-30T11:20:12Z</time>
      </trkpt>
      <trkpt lat="46.48706" lon="5.35865">
        <ele>246</ele>
        <time>2022-04-30T11:20:17Z</time>
      </trkpt>
      <trkpt lat="46.4871" lon="5.35855">
        <ele>245.8</ele>
        <time>2022-04-30T11:20:18Z</time>
      </trkpt>
      <trkpt lat="46.48722" lon="5.35826">
        <ele>245</ele>
        <time>2022-04-30T11:20:21Z</time>
      </trkpt>
      <trkpt lat="46.48731" lon="5.35808">
        <ele>244.8</ele>
        <time>2022-04-30T11:20:23Z</time>
      </trkpt>
      <trkpt lat="46.4875" lon="5.35763">
        <ele>244</ele>
        <time>2022-04-30T11:20:28Z</time>
      </trkpt>
      <trkpt lat="46.48759" lon="5.35745">
        <ele>244</ele>
        <time>2022-04-30T11:20:30Z</time>
      </trkpt>
      <trkpt lat="46.48786" lon="5.35684">
        <ele>243</ele>
        <time>2022-04-30T11:20:37Z</time>
      </trkpt>
      <trkpt lat="46.48798" lon="5.3566">
        <ele>243</ele>
        <time>2022-04-30T11:20:40Z</time>
      </trkpt>
      <trkpt lat="46.48806" lon="5.35644">
        <ele>243</ele>
        <time>2022-04-30T11:20:42Z</time>
      </trkpt>
      <trkpt lat="46.48827" lon="5.35594">
        <ele>243.4</ele>
        <time>2022-04-30T11:20:48Z</time>
      </trkpt>
      <trkpt lat="46.48838" lon="5.3557">
        <ele>243.4</ele>
        <time>2022-04-30T11:20:51Z</time>
      </trkpt>
      <trkpt lat="46.48844" lon="5.35565">
        <ele>243.4</ele>
        <time>2022-04-30T11:20:52Z</time>
      </trkpt>
      <trkpt lat="46.4885" lon="5.35562">
        <ele>243.4</ele>
        <time>2022-04-30T11:20:53Z</time>
      </trkpt>
      <trkpt lat="46.48871" lon="5.35559">
        <ele>243.2</ele>
        <time>2022-04-30T11:20:56Z</time>
      </trkpt>
      <trkpt lat="46.48901" lon="5.35556">
        <ele>243</ele>
        <time>2022-04-30T11:21:00Z</time>
      </trkpt>
      <trkpt lat="46.48916" lon="5.35556">
        <ele>242.8</ele>
        <time>2022-04-30T11:21:02Z</time>
      </trkpt>
      <trkpt lat="46.48962" lon="5.35554">
        <ele>242</ele>
        <time>2022-04-30T11:21:08Z</time>
      </trkpt>
      <trkpt lat="46.48993" lon="5.35552">
        <ele>241</ele>
        <time>2022-04-30T11:21:12Z</time>
      </trkpt>
      <trkpt lat="46.49" lon="5.35552">
        <ele>241</ele>
        <time>2022-04-30T11:21:13Z</time>
      </trkpt>
      <trkpt lat="46.49057" lon="5.3555">
        <ele>240.6</ele>
        <time>2022-04-30T11:21:21Z</time>
      </trkpt>
      <trkpt lat="46.4909" lon="5.35547">
        <ele>241</ele>
        <time>2022-04-30T11:21:27Z</time>
      </trkpt>
      <trkpt lat="46.49095" lon="5.35547">
        <ele>241.2</ele>
        <time>2022-04-30T11:21:28Z</time>
      </trkpt>
      <trkpt lat="46.49116" lon="5.35547">
        <ele>241.6</ele>
        <time>2022-04-30T11:21:32Z</time>
      </trkpt>
      <trkpt lat="46.49121" lon="5.35547">
        <ele>242</ele>
        <time>2022-04-30T11:21:33Z</time>
      </trkpt>
      <trkpt lat="46.49126" lon="5.35548">
        <ele>242</ele>
        <time>2022-04-30T11:21:34Z</time>
      </trkpt>
      <trkpt lat="46.49147" lon="5.35548">
        <ele>242.6</ele>
        <time>2022-04-30T11:21:38Z</time>
      </trkpt>
      <trkpt lat="46.49153" lon="5.35548">
        <ele>242.8</ele>
        <time>2022-04-30T11:21:39Z</time>
      </trkpt>
      <trkpt lat="46.49158" lon="5.35547">
        <ele>242.8</ele>
        <time>2022-04-30T11:21:40Z</time>
      </trkpt>
      <trkpt lat="46.49166" lon="5.35547">
        <ele>243.2</ele>
        <time>2022-04-30T11:21:42Z</time>
      </trkpt>
      <trkpt lat="46.49174" lon="5.35547">
        <ele>243.4</ele>
        <time>2022-04-30T11:21:44Z</time>
      </trkpt>
      <trkpt lat="46.492" lon="5.35543">
        <ele>244.2</ele>
        <time>2022-04-30T11:21:49Z</time>
      </trkpt>
      <trkpt lat="46.49205" lon="5.35543">
        <ele>244.4</ele>
        <time>2022-04-30T11:21:50Z</time>
      </trkpt>
      <trkpt lat="46.49226" lon="5.3554">
        <ele>244.6</ele>
        <time>2022-04-30T11:21:54Z</time>
      </trkpt>
      <trkpt lat="46.49268" lon="5.35537">
        <ele>244.8</ele>
        <time>2022-04-30T11:22:00Z</time>
      </trkpt>
      <trkpt lat="46.493" lon="5.35538">
        <ele>244.8</ele>
        <time>2022-04-30T11:22:05Z</time>
      </trkpt>
      <trkpt lat="46.49311" lon="5.35536">
        <ele>244.8</ele>
        <time>2022-04-30T11:22:07Z</time>
      </trkpt>
      <trkpt lat="46.49325" lon="5.35534">
        <ele>244.6</ele>
        <time>2022-04-30T11:22:09Z</time>
      </trkpt>
      <trkpt lat="46.4937" lon="5.35534">
        <ele>243.8</ele>
        <time>2022-04-30T11:22:15Z</time>
      </trkpt>
      <trkpt lat="46.49393" lon="5.3554">
        <ele>243.2</ele>
        <time>2022-04-30T11:22:18Z</time>
      </trkpt>
      <trkpt lat="46.49407" lon="5.35543">
        <ele>243</ele>
        <time>2022-04-30T11:22:20Z</time>
      </trkpt>
      <trkpt lat="46.49414" lon="5.35545">
        <ele>242.8</ele>
        <time>2022-04-30T11:22:21Z</time>
      </trkpt>
      <trkpt lat="46.49427" lon="5.35552">
        <ele>242.2</ele>
        <time>2022-04-30T11:22:23Z</time>
      </trkpt>
      <trkpt lat="46.49435" lon="5.35555">
        <ele>242.2</ele>
        <time>2022-04-30T11:22:24Z</time>
      </trkpt>
      <trkpt lat="46.49455" lon="5.35564">
        <ele>242</ele>
        <time>2022-04-30T11:22:27Z</time>
      </trkpt>
      <trkpt lat="46.495" lon="5.35581">
        <ele>241.4</ele>
        <time>2022-04-30T11:22:34Z</time>
      </trkpt>
      <trkpt lat="46.49507" lon="5.35584">
        <ele>241.4</ele>
        <time>2022-04-30T11:22:35Z</time>
      </trkpt>
      <trkpt lat="46.49561" lon="5.35606">
        <ele>240.6</ele>
        <time>2022-04-30T11:22:43Z</time>
      </trkpt>
      <trkpt lat="46.49568" lon="5.35608">
        <ele>240.4</ele>
        <time>2022-04-30T11:22:44Z</time>
      </trkpt>
      <trkpt lat="46.49582" lon="5.35613">
        <ele>240.2</ele>
        <time>2022-04-30T11:22:46Z</time>
      </trkpt>
      <trkpt lat="46.49638" lon="5.35629">
        <ele>239.2</ele>
        <time>2022-04-30T11:22:54Z</time>
      </trkpt>
      <trkpt lat="46.49645" lon="5.35631">
        <ele>239</ele>
        <time>2022-04-30T11:22:55Z</time>
      </trkpt>
      <trkpt lat="46.4969" lon="5.35645">
        <ele>238.4</ele>
        <time>2022-04-30T11:23:02Z</time>
      </trkpt>
      <trkpt lat="46.497" lon="5.35637">
        <ele>238.2</ele>
        <time>2022-04-30T11:23:05Z</time>
      </trkpt>
      <trkpt lat="46.49702" lon="5.35632">
        <ele>238.2</ele>
        <time>2022-04-30T11:23:06Z</time>
      </trkpt>
      <trkpt lat="46.49706" lon="5.3561">
        <ele>237.2</ele>
        <time>2022-04-30T11:23:09Z</time>
      </trkpt>
      <trkpt lat="46.49707" lon="5.35601">
        <ele>237.2</ele>
        <time>2022-04-30T11:23:10Z</time>
      </trkpt>
      <trkpt lat="46.49713" lon="5.35557">
        <ele>237</ele>
        <time>2022-04-30T11:23:15Z</time>
      </trkpt>
      <trkpt lat="46.49722" lon="5.35484">
        <ele>236.4</ele>
        <time>2022-04-30T11:23:23Z</time>
      </trkpt>
      <trkpt lat="46.49725" lon="5.35464">
        <ele>236.4</ele>
        <time>2022-04-30T11:23:25Z</time>
      </trkpt>
      <trkpt lat="46.49732" lon="5.35402">
        <ele>235.4</ele>
        <time>2022-04-30T11:23:31Z</time>
      </trkpt>
      <trkpt lat="46.49734" lon="5.3538">
        <ele>235</ele>
        <time>2022-04-30T11:23:33Z</time>
      </trkpt>
      <trkpt lat="46.49734" lon="5.35336">
        <ele>234.2</ele>
        <time>2022-04-30T11:23:37Z</time>
      </trkpt>
      <trkpt lat="46.49727" lon="5.35288">
        <ele>234.2</ele>
        <time>2022-04-30T11:23:42Z</time>
      </trkpt>
      <trkpt lat="46.49715" lon="5.3523">
        <ele>235.4</ele>
        <time>2022-04-30T11:23:49Z</time>
      </trkpt>
      <trkpt lat="46.49698" lon="5.3515">
        <ele>235.4</ele>
        <time>2022-04-30T11:23:58Z</time>
      </trkpt>
      <trkpt lat="46.49683" lon="5.35072">
        <ele>235</ele>
        <time>2022-04-30T11:24:06Z</time>
      </trkpt>
      <trkpt lat="46.49669" lon="5.35001">
        <ele>234.8</ele>
        <time>2022-04-30T11:24:14Z</time>
      </trkpt>
      <trkpt lat="46.49657" lon="5.34944">
        <ele>236</ele>
        <time>2022-04-30T11:24:21Z</time>
      </trkpt>
      <trkpt lat="46.49654" lon="5.34928">
        <ele>236.4</ele>
        <time>2022-04-30T11:24:23Z</time>
      </trkpt>
      <trkpt lat="46.49645" lon="5.34877">
        <ele>237</ele>
        <time>2022-04-30T11:24:29Z</time>
      </trkpt>
      <trkpt lat="46.49632" lon="5.34804">
        <ele>237.2</ele>
        <time>2022-04-30T11:24:37Z</time>
      </trkpt>
      <trkpt lat="46.49627" lon="5.34748">
        <ele>236.6</ele>
        <time>2022-04-30T11:24:42Z</time>
      </trkpt>
      <trkpt lat="46.49629" lon="5.34699">
        <ele>235.4</ele>
        <time>2022-04-30T11:24:46Z</time>
      </trkpt>
      <trkpt lat="46.49632" lon="5.34673">
        <ele>234.8</ele>
        <time>2022-04-30T11:24:48Z</time>
      </trkpt>
      <trkpt lat="46.49633" lon="5.34659">
        <ele>234.2</ele>
        <time>2022-04-30T11:24:49Z</time>
      </trkpt>
      <trkpt lat="46.49637" lon="5.34618">
        <ele>232.6</ele>
        <time>2022-04-30T11:24:52Z</time>
      </trkpt>
      <trkpt lat="46.49643" lon="5.34577">
        <ele>231.8</ele>
        <time>2022-04-30T11:24:55Z</time>
      </trkpt>
      <trkpt lat="46.49647" lon="5.3455">
        <ele>231.2</ele>
        <time>2022-04-30T11:24:56Z</time>
      </trkpt>
      <trkpt lat="46.49652" lon="5.34526">
        <ele>230.4</ele>
        <time>2022-04-30T11:24:59Z</time>
      </trkpt>
      <trkpt lat="46.49655" lon="5.34514">
        <ele>230</ele>
        <time>2022-04-30T11:25:00Z</time>
      </trkpt>
      <trkpt lat="46.49659" lon="5.34503">
        <ele>230</ele>
        <time>2022-04-30T11:25:01Z</time>
      </trkpt>
      <trkpt lat="46.49672" lon="5.34454">
        <ele>229.8</ele>
        <time>2022-04-30T11:25:06Z</time>
      </trkpt>
      <trkpt lat="46.49685" lon="5.34401">
        <ele>231</ele>
        <time>2022-04-30T11:25:12Z</time>
      </trkpt>
      <trkpt lat="46.4969" lon="5.34384">
        <ele>231.6</ele>
        <time>2022-04-30T11:25:14Z</time>
      </trkpt>
      <trkpt lat="46.49702" lon="5.34346">
        <ele>232.8</ele>
        <time>2022-04-30T11:25:19Z</time>
      </trkpt>
      <trkpt lat="46.49706" lon="5.34332">
        <ele>233</ele>
        <time>2022-04-30T11:25:20Z</time>
      </trkpt>
      <trkpt lat="46.49717" lon="5.34305">
        <ele>234.2</ele>
        <time>2022-04-30T11:25:24Z</time>
      </trkpt>
      <trkpt lat="46.49721" lon="5.34297">
        <ele>234.4</ele>
        <time>2022-04-30T11:25:25Z</time>
      </trkpt>
      <trkpt lat="46.4974" lon="5.3426">
        <ele>234.8</ele>
        <time>2022-04-30T11:25:30Z</time>
      </trkpt>
      <trkpt lat="46.49749" lon="5.34247">
        <ele>234.8</ele>
        <time>2022-04-30T11:25:32Z</time>
      </trkpt>
      <trkpt lat="46.49788" lon="5.34185">
        <ele>234.6</ele>
        <time>2022-04-30T11:25:41Z</time>
      </trkpt>
      <trkpt lat="46.49808" lon="5.34152">
        <ele>235</ele>
        <time>2022-04-30T11:25:46Z</time>
      </trkpt>
      <trkpt lat="46.49812" lon="5.34145">
        <ele>235</ele>
        <time>2022-04-30T11:25:47Z</time>
      </trkpt>
      <trkpt lat="46.4982" lon="5.34131">
        <ele>235.2</ele>
        <time>2022-04-30T11:25:49Z</time>
      </trkpt>
      <trkpt lat="46.49842" lon="5.34096">
        <ele>235.6</ele>
        <time>2022-04-30T11:25:54Z</time>
      </trkpt>
      <trkpt lat="46.49882" lon="5.34042">
        <ele>235.2</ele>
        <time>2022-04-30T11:26:02Z</time>
      </trkpt>
      <trkpt lat="46.49913" lon="5.34008">
        <ele>235.2</ele>
        <time>2022-04-30T11:26:08Z</time>
      </trkpt>
      <trkpt lat="46.49917" lon="5.34004">
        <ele>235.2</ele>
        <time>2022-04-30T11:26:09Z</time>
      </trkpt>
      <trkpt lat="46.49929" lon="5.3399">
        <ele>235.6</ele>
        <time>2022-04-30T11:26:12Z</time>
      </trkpt>
      <trkpt lat="46.4994" lon="5.33976">
        <ele>236.2</ele>
        <time>2022-04-30T11:26:15Z</time>
      </trkpt>
      <trkpt lat="46.49949" lon="5.33966">
        <ele>236.8</ele>
        <time>2022-04-30T11:26:17Z</time>
      </trkpt>
      <trkpt lat="46.49966" lon="5.33948">
        <ele>237.4</ele>
        <time>2022-04-30T11:26:21Z</time>
      </trkpt>
      <trkpt lat="46.49974" lon="5.33938">
        <ele>237.6</ele>
        <time>2022-04-30T11:26:23Z</time>
      </trkpt>
      <trkpt lat="46.49991" lon="5.33919">
        <ele>237.8</ele>
        <time>2022-04-30T11:26:27Z</time>
      </trkpt>
      <trkpt lat="46.50024" lon="5.33885">
        <ele>238.6</ele>
        <time>2022-04-30T11:26:34Z</time>
      </trkpt>
      <trkpt lat="46.50053" lon="5.33853">
        <ele>238.2</ele>
        <time>2022-04-30T11:26:40Z</time>
      </trkpt>
      <trkpt lat="46.50064" lon="5.33841">
        <ele>237.6</ele>
        <time>2022-04-30T11:26:42Z</time>
      </trkpt>
      <trkpt lat="46.50091" lon="5.33812">
        <ele>236.8</ele>
        <time>2022-04-30T11:26:47Z</time>
      </trkpt>
      <trkpt lat="46.50107" lon="5.33794">
        <ele>236.2</ele>
        <time>2022-04-30T11:26:50Z</time>
      </trkpt>
      <trkpt lat="46.50122" lon="5.33776">
        <ele>235.8</ele>
        <time>2022-04-30T11:26:53Z</time>
      </trkpt>
      <trkpt lat="46.50138" lon="5.3376">
        <ele>235.2</ele>
        <time>2022-04-30T11:26:56Z</time>
      </trkpt>
      <trkpt lat="46.50171" lon="5.33725">
        <ele>235.6</ele>
        <time>2022-04-30T11:27:03Z</time>
      </trkpt>
      <trkpt lat="46.50199" lon="5.33695">
        <ele>236.2</ele>
        <time>2022-04-30T11:27:09Z</time>
      </trkpt>
      <trkpt lat="46.5023" lon="5.33663">
        <ele>236.4</ele>
        <time>2022-04-30T11:27:15Z</time>
      </trkpt>
      <trkpt lat="46.50273" lon="5.33618">
        <ele>236.2</ele>
        <time>2022-04-30T11:27:23Z</time>
      </trkpt>
      <trkpt lat="46.50315" lon="5.33573">
        <ele>235.4</ele>
        <time>2022-04-30T11:27:31Z</time>
      </trkpt>
      <trkpt lat="46.50349" lon="5.33539">
        <ele>235.6</ele>
        <time>2022-04-30T11:27:37Z</time>
      </trkpt>
      <trkpt lat="46.50392" lon="5.33491">
        <ele>235.2</ele>
        <time>2022-04-30T11:27:45Z</time>
      </trkpt>
      <trkpt lat="46.50404" lon="5.33479">
        <ele>234.8</ele>
        <time>2022-04-30T11:27:47Z</time>
      </trkpt>
      <trkpt lat="46.50438" lon="5.3344">
        <ele>234.4</ele>
        <time>2022-04-30T11:27:53Z</time>
      </trkpt>
      <trkpt lat="46.50452" lon="5.33416">
        <ele>233.8</ele>
        <time>2022-04-30T11:27:56Z</time>
      </trkpt>
      <trkpt lat="46.50458" lon="5.33396">
        <ele>233.4</ele>
        <time>2022-04-30T11:27:58Z</time>
      </trkpt>
      <trkpt lat="46.50466" lon="5.33342">
        <ele>232.6</ele>
        <time>2022-04-30T11:28:03Z</time>
      </trkpt>
      <trkpt lat="46.50467" lon="5.33261">
        <ele>232.2</ele>
        <time>2022-04-30T11:28:11Z</time>
      </trkpt>
      <trkpt lat="46.50466" lon="5.33195">
        <ele>232.4</ele>
        <time>2022-04-30T11:28:18Z</time>
      </trkpt>
      <trkpt lat="46.50466" lon="5.33165">
        <ele>232.6</ele>
        <time>2022-04-30T11:28:21Z</time>
      </trkpt>
      <trkpt lat="46.50467" lon="5.33135">
        <ele>232.6</ele>
        <time>2022-04-30T11:28:24Z</time>
      </trkpt>
      <trkpt lat="46.50468" lon="5.33063">
        <ele>232</ele>
        <time>2022-04-30T11:28:30Z</time>
      </trkpt>
      <trkpt lat="46.5047" lon="5.33023">
        <ele>231.6</ele>
        <time>2022-04-30T11:28:33Z</time>
      </trkpt>
      <trkpt lat="46.50471" lon="5.32981">
        <ele>230.4</ele>
        <time>2022-04-30T11:28:36Z</time>
      </trkpt>
      <trkpt lat="46.50472" lon="5.32938">
        <ele>229.2</ele>
        <time>2022-04-30T11:28:39Z</time>
      </trkpt>
      <trkpt lat="46.50473" lon="5.32909">
        <ele>227.6</ele>
        <time>2022-04-30T11:28:41Z</time>
      </trkpt>
      <trkpt lat="46.50473" lon="5.32879">
        <ele>226.8</ele>
        <time>2022-04-30T11:28:43Z</time>
      </trkpt>
      <trkpt lat="46.50473" lon="5.32864">
        <ele>226.4</ele>
        <time>2022-04-30T11:28:44Z</time>
      </trkpt>
      <trkpt lat="46.50474" lon="5.3282">
        <ele>225</ele>
        <time>2022-04-30T11:28:47Z</time>
      </trkpt>
      <trkpt lat="46.50475" lon="5.3279">
        <ele>223.8</ele>
        <time>2022-04-30T11:28:49Z</time>
      </trkpt>
      <trkpt lat="46.50475" lon="5.32776">
        <ele>222.8</ele>
        <time>2022-04-30T11:28:50Z</time>
      </trkpt>
      <trkpt lat="46.50476" lon="5.32762">
        <ele>222.6</ele>
        <time>2022-04-30T11:28:51Z</time>
      </trkpt>
      <trkpt lat="46.50476" lon="5.32735">
        <ele>221.4</ele>
        <time>2022-04-30T11:28:53Z</time>
      </trkpt>
      <trkpt lat="46.50477" lon="5.32682">
        <ele>220.6</ele>
        <time>2022-04-30T11:28:57Z</time>
      </trkpt>
      <trkpt lat="46.50478" lon="5.32656">
        <ele>220.4</ele>
        <time>2022-04-30T11:28:59Z</time>
      </trkpt>
      <trkpt lat="46.50477" lon="5.32578">
        <ele>219.6</ele>
        <time>2022-04-30T11:29:05Z</time>
      </trkpt>
      <trkpt lat="46.50472" lon="5.32488">
        <ele>218.6</ele>
        <time>2022-04-30T11:29:12Z</time>
      </trkpt>
      <trkpt lat="46.50471" lon="5.32476">
        <ele>218.4</ele>
        <time>2022-04-30T11:29:13Z</time>
      </trkpt>
      <trkpt lat="46.50469" lon="5.32451">
        <ele>217.8</ele>
        <time>2022-04-30T11:29:15Z</time>
      </trkpt>
      <trkpt lat="46.50463" lon="5.32415">
        <ele>217.4</ele>
        <time>2022-04-30T11:29:18Z</time>
      </trkpt>
      <trkpt lat="46.50456" lon="5.3238">
        <ele>217</ele>
        <time>2022-04-30T11:29:21Z</time>
      </trkpt>
      <trkpt lat="46.50439" lon="5.32304">
        <ele>216.6</ele>
        <time>2022-04-30T11:29:28Z</time>
      </trkpt>
      <trkpt lat="46.50437" lon="5.32294">
        <ele>216.6</ele>
        <time>2022-04-30T11:29:29Z</time>
      </trkpt>
      <trkpt lat="46.50434" lon="5.32273">
        <ele>216.6</ele>
        <time>2022-04-30T11:29:31Z</time>
      </trkpt>
      <trkpt lat="46.50431" lon="5.3223">
        <ele>216.4</ele>
        <time>2022-04-30T11:29:35Z</time>
      </trkpt>
      <trkpt lat="46.50431" lon="5.32219">
        <ele>216.6</ele>
        <time>2022-04-30T11:29:36Z</time>
      </trkpt>
      <trkpt lat="46.50435" lon="5.32198">
        <ele>216.6</ele>
        <time>2022-04-30T11:29:38Z</time>
      </trkpt>
      <trkpt lat="46.50446" lon="5.32183">
        <ele>216.8</ele>
        <time>2022-04-30T11:29:40Z</time>
      </trkpt>
      <trkpt lat="46.50452" lon="5.32178">
        <ele>216.8</ele>
        <time>2022-04-30T11:29:41Z</time>
      </trkpt>
      <trkpt lat="46.50457" lon="5.32172">
        <ele>216.8</ele>
        <time>2022-04-30T11:29:42Z</time>
      </trkpt>
      <trkpt lat="46.50466" lon="5.32155">
        <ele>216.8</ele>
        <time>2022-04-30T11:29:44Z</time>
      </trkpt>
      <trkpt lat="46.50469" lon="5.32146">
        <ele>216.8</ele>
        <time>2022-04-30T11:29:45Z</time>
      </trkpt>
      <trkpt lat="46.5048" lon="5.32109">
        <ele>216.8</ele>
        <time>2022-04-30T11:29:49Z</time>
      </trkpt>
      <trkpt lat="46.50508" lon="5.32052">
        <ele>217</ele>
        <time>2022-04-30T11:29:56Z</time>
      </trkpt>
      <trkpt lat="46.50541" lon="5.32003">
        <ele>217.2</ele>
        <time>2022-04-30T11:30:03Z</time>
      </trkpt>
      <trkpt lat="46.50558" lon="5.31971">
        <ele>217.6</ele>
        <time>2022-04-30T11:30:08Z</time>
      </trkpt>
      <trkpt lat="46.50572" lon="5.31932">
        <ele>218.8</ele>
        <time>2022-04-30T11:30:14Z</time>
      </trkpt>
      <trkpt lat="46.50574" lon="5.31926">
        <ele>219.4</ele>
        <time>2022-04-30T11:30:15Z</time>
      </trkpt>
      <trkpt lat="46.5058" lon="5.3191">
        <ele>220</ele>
        <time>2022-04-30T11:30:18Z</time>
      </trkpt>
      <trkpt lat="46.50584" lon="5.319">
        <ele>220.6</ele>
        <time>2022-04-30T11:30:20Z</time>
      </trkpt>
      <trkpt lat="46.50586" lon="5.31895">
        <ele>220.6</ele>
        <time>2022-04-30T11:30:21Z</time>
      </trkpt>
      <trkpt lat="46.50588" lon="5.3189">
        <ele>221</ele>
        <time>2022-04-30T11:30:22Z</time>
      </trkpt>
      <trkpt lat="46.5059" lon="5.31885">
        <ele>221.2</ele>
        <time>2022-04-30T11:30:23Z</time>
      </trkpt>
      <trkpt lat="46.50592" lon="5.3188">
        <ele>221.6</ele>
        <time>2022-04-30T11:30:24Z</time>
      </trkpt>
      <trkpt lat="46.50596" lon="5.31868">
        <ele>222</ele>
        <time>2022-04-30T11:30:26Z</time>
      </trkpt>
      <trkpt lat="46.50601" lon="5.31852">
        <ele>222.4</ele>
        <time>2022-04-30T11:30:29Z</time>
      </trkpt>
      <trkpt lat="46.50607" lon="5.3183">
        <ele>223.4</ele>
        <time>2022-04-30T11:30:33Z</time>
      </trkpt>
      <trkpt lat="46.50609" lon="5.31824">
        <ele>223.6</ele>
        <time>2022-04-30T11:30:34Z</time>
      </trkpt>
      <trkpt lat="46.50617" lon="5.31802">
        <ele>224.4</ele>
        <time>2022-04-30T11:30:38Z</time>
      </trkpt>
      <trkpt lat="46.50622" lon="5.31793">
        <ele>224.6</ele>
        <time>2022-04-30T11:30:40Z</time>
      </trkpt>
      <trkpt lat="46.50626" lon="5.31781">
        <ele>224.8</ele>
        <time>2022-04-30T11:30:42Z</time>
      </trkpt>
      <trkpt lat="46.50631" lon="5.31767">
        <ele>225</ele>
        <time>2022-04-30T11:30:44Z</time>
      </trkpt>
      <trkpt lat="46.50642" lon="5.3174">
        <ele>225.2</ele>
        <time>2022-04-30T11:30:48Z</time>
      </trkpt>
      <trkpt lat="46.50649" lon="5.31729">
        <ele>225.4</ele>
        <time>2022-04-30T11:30:50Z</time>
      </trkpt>
      <trkpt lat="46.50653" lon="5.31724">
        <ele>225.4</ele>
        <time>2022-04-30T11:30:51Z</time>
      </trkpt>
      <trkpt lat="46.50658" lon="5.3172">
        <ele>225.4</ele>
        <time>2022-04-30T11:30:52Z</time>
      </trkpt>
      <trkpt lat="46.50673" lon="5.31712">
        <ele>225.4</ele>
        <time>2022-04-30T11:30:55Z</time>
      </trkpt>
      <trkpt lat="46.50678" lon="5.31711">
        <ele>225.4</ele>
        <time>2022-04-30T11:30:56Z</time>
      </trkpt>
      <trkpt lat="46.50713" lon="5.31707">
        <ele>225.6</ele>
        <time>2022-04-30T11:31:02Z</time>
      </trkpt>
      <trkpt lat="46.50719" lon="5.31707">
        <ele>225.6</ele>
        <time>2022-04-30T11:31:03Z</time>
      </trkpt>
      <trkpt lat="46.50766" lon="5.31703">
        <ele>225.6</ele>
        <time>2022-04-30T11:31:11Z</time>
      </trkpt>
      <trkpt lat="46.50772" lon="5.31705">
        <ele>225.6</ele>
        <time>2022-04-30T11:31:12Z</time>
      </trkpt>
      <trkpt lat="46.50788" lon="5.31715">
        <ele>225.6</ele>
        <time>2022-04-30T11:31:15Z</time>
      </trkpt>
      <trkpt lat="46.50813" lon="5.31735">
        <ele>225.8</ele>
        <time>2022-04-30T11:31:21Z</time>
      </trkpt>
      <trkpt lat="46.50824" lon="5.31743">
        <ele>225.8</ele>
        <time>2022-04-30T11:31:22Z</time>
      </trkpt>
      <trkpt lat="46.50829" lon="5.31745">
        <ele>226</ele>
        <time>2022-04-30T11:31:23Z</time>
      </trkpt>
      <trkpt lat="46.50839" lon="5.31747">
        <ele>226</ele>
        <time>2022-04-30T11:31:25Z</time>
      </trkpt>
      <trkpt lat="46.50848" lon="5.31744">
        <ele>226.4</ele>
        <time>2022-04-30T11:31:27Z</time>
      </trkpt>
      <trkpt lat="46.50866" lon="5.31727">
        <ele>227</ele>
        <time>2022-04-30T11:31:31Z</time>
      </trkpt>
      <trkpt lat="46.50875" lon="5.31717">
        <ele>227</ele>
        <time>2022-04-30T11:31:33Z</time>
      </trkpt>
      <trkpt lat="46.5091" lon="5.3168">
        <ele>227.4</ele>
        <time>2022-04-30T11:31:40Z</time>
      </trkpt>
      <trkpt lat="46.5094" lon="5.31649">
        <ele>227.2</ele>
        <time>2022-04-30T11:31:45Z</time>
      </trkpt>
      <trkpt lat="46.50981" lon="5.31606">
        <ele>225.8</ele>
        <time>2022-04-30T11:31:52Z</time>
      </trkpt>
      <trkpt lat="46.51017" lon="5.31569">
        <ele>225.6</ele>
        <time>2022-04-30T11:31:59Z</time>
      </trkpt>
      <trkpt lat="46.51031" lon="5.31551">
        <ele>226</ele>
        <time>2022-04-30T11:32:02Z</time>
      </trkpt>
      <trkpt lat="46.51038" lon="5.31536">
        <ele>226.2</ele>
        <time>2022-04-30T11:32:04Z</time>
      </trkpt>
      <trkpt lat="46.5104" lon="5.31528">
        <ele>226.2</ele>
        <time>2022-04-30T11:32:05Z</time>
      </trkpt>
      <trkpt lat="46.51047" lon="5.31499">
        <ele>226.2</ele>
        <time>2022-04-30T11:32:08Z</time>
      </trkpt>
      <trkpt lat="46.51061" lon="5.31437">
        <ele>225.2</ele>
        <time>2022-04-30T11:32:14Z</time>
      </trkpt>
      <trkpt lat="46.51071" lon="5.31393">
        <ele>224.4</ele>
        <time>2022-04-30T11:32:18Z</time>
      </trkpt>
      <trkpt lat="46.51072" lon="5.31369">
        <ele>224</ele>
        <time>2022-04-30T11:32:20Z</time>
      </trkpt>
      <trkpt lat="46.5107" lon="5.31335">
        <ele>223.2</ele>
        <time>2022-04-30T11:32:23Z</time>
      </trkpt>
      <trkpt lat="46.51071" lon="5.3131">
        <ele>222.6</ele>
        <time>2022-04-30T11:32:25Z</time>
      </trkpt>
      <trkpt lat="46.5108" lon="5.31289">
        <ele>222.4</ele>
        <time>2022-04-30T11:32:27Z</time>
      </trkpt>
      <trkpt lat="46.51086" lon="5.31281">
        <ele>222.2</ele>
        <time>2022-04-30T11:32:28Z</time>
      </trkpt>
      <trkpt lat="46.51093" lon="5.31272">
        <ele>222</ele>
        <time>2022-04-30T11:32:29Z</time>
      </trkpt>
      <trkpt lat="46.511" lon="5.31264">
        <ele>221.6</ele>
        <time>2022-04-30T11:32:30Z</time>
      </trkpt>
      <trkpt lat="46.51114" lon="5.31247">
        <ele>221</ele>
        <time>2022-04-30T11:32:32Z</time>
      </trkpt>
      <trkpt lat="46.51136" lon="5.31221">
        <ele>219.6</ele>
        <time>2022-04-30T11:32:35Z</time>
      </trkpt>
      <trkpt lat="46.5115" lon="5.31204">
        <ele>218.8</ele>
        <time>2022-04-30T11:32:37Z</time>
      </trkpt>
      <trkpt lat="46.51163" lon="5.31189">
        <ele>218.4</ele>
        <time>2022-04-30T11:32:39Z</time>
      </trkpt>
      <trkpt lat="46.51182" lon="5.31166">
        <ele>217.8</ele>
        <time>2022-04-30T11:32:42Z</time>
      </trkpt>
      <trkpt lat="46.51193" lon="5.31151">
        <ele>217.4</ele>
        <time>2022-04-30T11:32:44Z</time>
      </trkpt>
      <trkpt lat="46.51199" lon="5.31143">
        <ele>217.4</ele>
        <time>2022-04-30T11:32:45Z</time>
      </trkpt>
      <trkpt lat="46.51205" lon="5.31137">
        <ele>217.2</ele>
        <time>2022-04-30T11:32:46Z</time>
      </trkpt>
      <trkpt lat="46.51212" lon="5.31131">
        <ele>217.2</ele>
        <time>2022-04-30T11:32:47Z</time>
      </trkpt>
      <trkpt lat="46.5123" lon="5.31107">
        <ele>216.8</ele>
        <time>2022-04-30T11:32:50Z</time>
      </trkpt>
      <trkpt lat="46.51244" lon="5.31092">
        <ele>216.6</ele>
        <time>2022-04-30T11:32:52Z</time>
      </trkpt>
      <trkpt lat="46.51251" lon="5.31087">
        <ele>216.4</ele>
        <time>2022-04-30T11:32:53Z</time>
      </trkpt>
      <trkpt lat="46.51259" lon="5.31082">
        <ele>216.2</ele>
        <time>2022-04-30T11:32:54Z</time>
      </trkpt>
      <trkpt lat="46.51291" lon="5.31078">
        <ele>215.2</ele>
        <time>2022-04-30T11:32:58Z</time>
      </trkpt>
      <trkpt lat="46.51349" lon="5.31073">
        <ele>214.6</ele>
        <time>2022-04-30T11:33:06Z</time>
      </trkpt>
      <trkpt lat="46.51387" lon="5.31071">
        <ele>215</ele>
        <time>2022-04-30T11:33:12Z</time>
      </trkpt>
      <trkpt lat="46.51444" lon="5.31068">
        <ele>215.2</ele>
        <time>2022-04-30T11:33:21Z</time>
      </trkpt>
      <trkpt lat="46.51451" lon="5.31068">
        <ele>215.2</ele>
        <time>2022-04-30T11:33:22Z</time>
      </trkpt>
      <trkpt lat="46.51507" lon="5.3107">
        <ele>215</ele>
        <time>2022-04-30T11:33:31Z</time>
      </trkpt>
      <trkpt lat="46.51513" lon="5.31071">
        <ele>215</ele>
        <time>2022-04-30T11:33:32Z</time>
      </trkpt>
      <trkpt lat="46.51565" lon="5.31075">
        <ele>215.2</ele>
        <time>2022-04-30T11:33:41Z</time>
      </trkpt>
      <trkpt lat="46.51604" lon="5.31086">
        <ele>215.6</ele>
        <time>2022-04-30T11:33:48Z</time>
      </trkpt>
      <trkpt lat="46.51633" lon="5.311">
        <ele>215.6</ele>
        <time>2022-04-30T11:33:54Z</time>
      </trkpt>
      <trkpt lat="46.51638" lon="5.31102">
        <ele>215.6</ele>
        <time>2022-04-30T11:33:55Z</time>
      </trkpt>
      <trkpt lat="46.51647" lon="5.31102">
        <ele>215.8</ele>
        <time>2022-04-30T11:33:57Z</time>
      </trkpt>
      <trkpt lat="46.51656" lon="5.31101">
        <ele>216</ele>
        <time>2022-04-30T11:33:59Z</time>
      </trkpt>
      <trkpt lat="46.51665" lon="5.31102">
        <ele>216.2</ele>
        <time>2022-04-30T11:34:01Z</time>
      </trkpt>
      <trkpt lat="46.51669" lon="5.31103">
        <ele>216.6</ele>
        <time>2022-04-30T11:34:02Z</time>
      </trkpt>
      <trkpt lat="46.51673" lon="5.31107">
        <ele>216.8</ele>
        <time>2022-04-30T11:34:03Z</time>
      </trkpt>
      <trkpt lat="46.51686" lon="5.31131">
        <ele>217.4</ele>
        <time>2022-04-30T11:34:07Z</time>
      </trkpt>
      <trkpt lat="46.51699" lon="5.3115">
        <ele>217.6</ele>
        <time>2022-04-30T11:34:10Z</time>
      </trkpt>
      <trkpt lat="46.51709" lon="5.3116">
        <ele>217.6</ele>
        <time>2022-04-30T11:34:12Z</time>
      </trkpt>
      <trkpt lat="46.51721" lon="5.31169">
        <ele>217.2</ele>
        <time>2022-04-30T11:34:14Z</time>
      </trkpt>
      <trkpt lat="46.5174" lon="5.31177">
        <ele>216.4</ele>
        <time>2022-04-30T11:34:17Z</time>
      </trkpt>
      <trkpt lat="46.51771" lon="5.31179">
        <ele>215.8</ele>
        <time>2022-04-30T11:34:21Z</time>
      </trkpt>
      <trkpt lat="46.51779" lon="5.3118">
        <ele>215.6</ele>
        <time>2022-04-30T11:34:22Z</time>
      </trkpt>
      <trkpt lat="46.51814" lon="5.31181">
        <ele>214.2</ele>
        <time>2022-04-30T11:34:26Z</time>
      </trkpt>
      <trkpt lat="46.51823" lon="5.31183">
        <ele>214</ele>
        <time>2022-04-30T11:34:27Z</time>
      </trkpt>
      <trkpt lat="46.51841" lon="5.31189">
        <ele>213</ele>
        <time>2022-04-30T11:34:29Z</time>
      </trkpt>
      <trkpt lat="46.5185" lon="5.31195">
        <ele>212.6</ele>
        <time>2022-04-30T11:34:30Z</time>
      </trkpt>
      <trkpt lat="46.51857" lon="5.31201">
        <ele>212.4</ele>
        <time>2022-04-30T11:34:31Z</time>
      </trkpt>
      <trkpt lat="46.51864" lon="5.31208">
        <ele>212</ele>
        <time>2022-04-30T11:34:32Z</time>
      </trkpt>
      <trkpt lat="46.51883" lon="5.31232">
        <ele>210.8</ele>
        <time>2022-04-30T11:34:35Z</time>
      </trkpt>
      <trkpt lat="46.51909" lon="5.31273">
        <ele>209.8</ele>
        <time>2022-04-30T11:34:40Z</time>
      </trkpt>
      <trkpt lat="46.51945" lon="5.31325">
        <ele>209.4</ele>
        <time>2022-04-30T11:34:47Z</time>
      </trkpt>
      <trkpt lat="46.51977" lon="5.31373">
        <ele>209.6</ele>
        <time>2022-04-30T11:34:54Z</time>
      </trkpt>
      <trkpt lat="46.52016" lon="5.31431">
        <ele>210.2</ele>
        <time>2022-04-30T11:35:03Z</time>
      </trkpt>
      <trkpt lat="46.52048" lon="5.31478">
        <ele>210.8</ele>
        <time>2022-04-30T11:35:11Z</time>
      </trkpt>
      <trkpt lat="46.52059" lon="5.31495">
        <ele>211.2</ele>
        <time>2022-04-30T11:35:14Z</time>
      </trkpt>
      <trkpt lat="46.52062" lon="5.315">
        <ele>211.6</ele>
        <time>2022-04-30T11:35:15Z</time>
      </trkpt>
      <trkpt lat="46.52071" lon="5.3151">
        <ele>212</ele>
        <time>2022-04-30T11:35:17Z</time>
      </trkpt>
      <trkpt lat="46.52079" lon="5.31521">
        <ele>212.4</ele>
        <time>2022-04-30T11:35:19Z</time>
      </trkpt>
      <trkpt lat="46.52087" lon="5.3153">
        <ele>212.4</ele>
        <time>2022-04-30T11:35:21Z</time>
      </trkpt>
      <trkpt lat="46.52094" lon="5.3154">
        <ele>212.8</ele>
        <time>2022-04-30T11:35:23Z</time>
      </trkpt>
      <trkpt lat="46.52108" lon="5.31559">
        <ele>213.4</ele>
        <time>2022-04-30T11:35:27Z</time>
      </trkpt>
      <trkpt lat="46.52115" lon="5.31569">
        <ele>213.8</ele>
        <time>2022-04-30T11:35:29Z</time>
      </trkpt>
      <trkpt lat="46.52129" lon="5.3159">
        <ele>214.6</ele>
        <time>2022-04-30T11:35:33Z</time>
      </trkpt>
      <trkpt lat="46.52142" lon="5.3161">
        <ele>215.2</ele>
        <time>2022-04-30T11:35:37Z</time>
      </trkpt>
      <trkpt lat="46.52159" lon="5.31635">
        <ele>215.8</ele>
        <time>2022-04-30T11:35:42Z</time>
      </trkpt>
      <trkpt lat="46.52168" lon="5.31649">
        <ele>216.2</ele>
        <time>2022-04-30T11:35:45Z</time>
      </trkpt>
      <trkpt lat="46.52178" lon="5.31663">
        <ele>216.8</ele>
        <time>2022-04-30T11:35:48Z</time>
      </trkpt>
      <trkpt lat="46.52194" lon="5.31686">
        <ele>217.4</ele>
        <time>2022-04-30T11:35:53Z</time>
      </trkpt>
      <trkpt lat="46.52207" lon="5.31705">
        <ele>218</ele>
        <time>2022-04-30T11:35:57Z</time>
      </trkpt>
      <trkpt lat="46.52232" lon="5.31741">
        <ele>218.8</ele>
        <time>2022-04-30T11:36:05Z</time>
      </trkpt>
      <trkpt lat="46.52241" lon="5.31756">
        <ele>219</ele>
        <time>2022-04-30T11:36:08Z</time>
      </trkpt>
      <trkpt lat="46.52264" lon="5.31787">
        <ele>220.2</ele>
        <time>2022-04-30T11:36:15Z</time>
      </trkpt>
      <trkpt lat="46.5227" lon="5.31796">
        <ele>220.6</ele>
        <time>2022-04-30T11:36:17Z</time>
      </trkpt>
      <trkpt lat="46.52286" lon="5.31818">
        <ele>221.2</ele>
        <time>2022-04-30T11:36:22Z</time>
      </trkpt>
      <trkpt lat="46.52301" lon="5.31841">
        <ele>221.8</ele>
        <time>2022-04-30T11:36:27Z</time>
      </trkpt>
      <trkpt lat="46.52313" lon="5.31858">
        <ele>222.6</ele>
        <time>2022-04-30T11:36:31Z</time>
      </trkpt>
      <trkpt lat="46.52325" lon="5.31875">
        <ele>223.4</ele>
        <time>2022-04-30T11:36:35Z</time>
      </trkpt>
      <trkpt lat="46.52328" lon="5.3188">
        <ele>223.8</ele>
        <time>2022-04-30T11:36:36Z</time>
      </trkpt>
      <trkpt lat="46.52337" lon="5.31892">
        <ele>224</ele>
        <time>2022-04-30T11:36:39Z</time>
      </trkpt>
      <trkpt lat="46.52345" lon="5.31905">
        <ele>224.2</ele>
        <time>2022-04-30T11:36:42Z</time>
      </trkpt>
      <trkpt lat="46.52359" lon="5.31924">
        <ele>224.8</ele>
        <time>2022-04-30T11:36:46Z</time>
      </trkpt>
      <trkpt lat="46.52377" lon="5.31949">
        <ele>225.2</ele>
        <time>2022-04-30T11:36:51Z</time>
      </trkpt>
      <trkpt lat="46.52404" lon="5.31987">
        <ele>224.6</ele>
        <time>2022-04-30T11:36:57Z</time>
      </trkpt>
      <trkpt lat="46.52422" lon="5.32015">
        <ele>223.8</ele>
        <time>2022-04-30T11:37:01Z</time>
      </trkpt>
      <trkpt lat="46.52432" lon="5.32029">
        <ele>223.2</ele>
        <time>2022-04-30T11:37:03Z</time>
      </trkpt>
      <trkpt lat="46.52442" lon="5.32044">
        <ele>222.6</ele>
        <time>2022-04-30T11:37:05Z</time>
      </trkpt>
      <trkpt lat="46.52459" lon="5.32066">
        <ele>222</ele>
        <time>2022-04-30T11:37:08Z</time>
      </trkpt>
      <trkpt lat="46.5247" lon="5.32082">
        <ele>221.6</ele>
        <time>2022-04-30T11:37:10Z</time>
      </trkpt>
      <trkpt lat="46.52493" lon="5.32114">
        <ele>220.8</ele>
        <time>2022-04-30T11:37:14Z</time>
      </trkpt>
      <trkpt lat="46.52504" lon="5.3213">
        <ele>220.4</ele>
        <time>2022-04-30T11:37:16Z</time>
      </trkpt>
      <trkpt lat="46.52529" lon="5.32162">
        <ele>219.4</ele>
        <time>2022-04-30T11:37:20Z</time>
      </trkpt>
      <trkpt lat="46.52536" lon="5.32169">
        <ele>219.2</ele>
        <time>2022-04-30T11:37:21Z</time>
      </trkpt>
      <trkpt lat="46.52557" lon="5.32188">
        <ele>218.2</ele>
        <time>2022-04-30T11:37:24Z</time>
      </trkpt>
      <trkpt lat="46.52572" lon="5.32198">
        <ele>217.6</ele>
        <time>2022-04-30T11:37:26Z</time>
      </trkpt>
      <trkpt lat="46.5259" lon="5.32206">
        <ele>217.2</ele>
        <time>2022-04-30T11:37:28Z</time>
      </trkpt>
      <trkpt lat="46.52617" lon="5.32218">
        <ele>215.6</ele>
        <time>2022-04-30T11:37:31Z</time>
      </trkpt>
      <trkpt lat="46.52653" lon="5.3224">
        <ele>214.4</ele>
        <time>2022-04-30T11:37:35Z</time>
      </trkpt>
      <trkpt lat="46.52661" lon="5.32247">
        <ele>213.6</ele>
        <time>2022-04-30T11:37:36Z</time>
      </trkpt>
      <trkpt lat="46.5267" lon="5.32254">
        <ele>213.2</ele>
        <time>2022-04-30T11:37:37Z</time>
      </trkpt>
      <trkpt lat="46.52685" lon="5.32269">
        <ele>212</ele>
        <time>2022-04-30T11:37:39Z</time>
      </trkpt>
      <trkpt lat="46.527" lon="5.32286">
        <ele>210.6</ele>
        <time>2022-04-30T11:37:41Z</time>
      </trkpt>
      <trkpt lat="46.52724" lon="5.32316">
        <ele>209.6</ele>
        <time>2022-04-30T11:37:45Z</time>
      </trkpt>
      <trkpt lat="46.52736" lon="5.32331">
        <ele>209.4</ele>
        <time>2022-04-30T11:37:47Z</time>
      </trkpt>
      <trkpt lat="46.52775" lon="5.32378">
        <ele>209.4</ele>
        <time>2022-04-30T11:37:54Z</time>
      </trkpt>
      <trkpt lat="46.52813" lon="5.3242">
        <ele>209.8</ele>
        <time>2022-04-30T11:38:01Z</time>
      </trkpt>
      <trkpt lat="46.52859" lon="5.32468">
        <ele>209.6</ele>
        <time>2022-04-30T11:38:10Z</time>
      </trkpt>
      <trkpt lat="46.52904" lon="5.32514">
        <ele>209.6</ele>
        <time>2022-04-30T11:38:19Z</time>
      </trkpt>
      <trkpt lat="46.52909" lon="5.32519">
        <ele>209.6</ele>
        <time>2022-04-30T11:38:20Z</time>
      </trkpt>
      <trkpt lat="46.52958" lon="5.32568">
        <ele>209.6</ele>
        <time>2022-04-30T11:38:30Z</time>
      </trkpt>
      <trkpt lat="46.52996" lon="5.32607">
        <ele>210.4</ele>
        <time>2022-04-30T11:38:39Z</time>
      </trkpt>
      <trkpt lat="46.53014" lon="5.32626">
        <ele>211</ele>
        <time>2022-04-30T11:38:44Z</time>
      </trkpt>
      <trkpt lat="46.5302" lon="5.32633">
        <ele>211.6</ele>
        <time>2022-04-30T11:38:46Z</time>
      </trkpt>
      <trkpt lat="46.53026" lon="5.32639">
        <ele>212.2</ele>
        <time>2022-04-30T11:38:48Z</time>
      </trkpt>
      <trkpt lat="46.53029" lon="5.32643">
        <ele>212.2</ele>
        <time>2022-04-30T11:38:49Z</time>
      </trkpt>
      <trkpt lat="46.53044" lon="5.32659">
        <ele>213.6</ele>
        <time>2022-04-30T11:38:54Z</time>
      </trkpt>
      <trkpt lat="46.53056" lon="5.32672">
        <ele>214.4</ele>
        <time>2022-04-30T11:38:58Z</time>
      </trkpt>
      <trkpt lat="46.53058" lon="5.32675">
        <ele>214.6</ele>
        <time>2022-04-30T11:38:59Z</time>
      </trkpt>
      <trkpt lat="46.53075" lon="5.32694">
        <ele>215.8</ele>
        <time>2022-04-30T11:39:05Z</time>
      </trkpt>
      <trkpt lat="46.53081" lon="5.327">
        <ele>216.2</ele>
        <time>2022-04-30T11:39:07Z</time>
      </trkpt>
      <trkpt lat="46.53092" lon="5.32713">
        <ele>217.2</ele>
        <time>2022-04-30T11:39:11Z</time>
      </trkpt>
      <trkpt lat="46.53106" lon="5.32729">
        <ele>218.2</ele>
        <time>2022-04-30T11:39:16Z</time>
      </trkpt>
      <trkpt lat="46.53109" lon="5.32732">
        <ele>218.4</ele>
        <time>2022-04-30T11:39:17Z</time>
      </trkpt>
      <trkpt lat="46.53126" lon="5.32749">
        <ele>219.6</ele>
        <time>2022-04-30T11:39:23Z</time>
      </trkpt>
      <trkpt lat="46.53133" lon="5.32759">
        <ele>220.4</ele>
        <time>2022-04-30T11:39:26Z</time>
      </trkpt>
      <trkpt lat="46.53138" lon="5.32765">
        <ele>221</ele>
        <time>2022-04-30T11:39:28Z</time>
      </trkpt>
      <trkpt lat="46.53149" lon="5.32781">
        <ele>222</ele>
        <time>2022-04-30T11:39:33Z</time>
      </trkpt>
      <trkpt lat="46.53156" lon="5.32791">
        <ele>222.6</ele>
        <time>2022-04-30T11:39:36Z</time>
      </trkpt>
      <trkpt lat="46.53163" lon="5.32801">
        <ele>223.2</ele>
        <time>2022-04-30T11:39:39Z</time>
      </trkpt>
      <trkpt lat="46.53178" lon="5.32828">
        <ele>224.2</ele>
        <time>2022-04-30T11:39:46Z</time>
      </trkpt>
      <trkpt lat="46.5318" lon="5.32832">
        <ele>224.2</ele>
        <time>2022-04-30T11:39:47Z</time>
      </trkpt>
      <trkpt lat="46.53185" lon="5.32839">
        <ele>224.6</ele>
        <time>2022-04-30T11:39:49Z</time>
      </trkpt>
      <trkpt lat="46.53192" lon="5.32855">
        <ele>225.2</ele>
        <time>2022-04-30T11:39:53Z</time>
      </trkpt>
      <trkpt lat="46.53197" lon="5.32867">
        <ele>225.6</ele>
        <time>2022-04-30T11:39:56Z</time>
      </trkpt>
      <trkpt lat="46.53203" lon="5.32878">
        <ele>226.6</ele>
        <time>2022-04-30T11:39:59Z</time>
      </trkpt>
      <trkpt lat="46.53216" lon="5.32903">
        <ele>227.6</ele>
        <time>2022-04-30T11:40:05Z</time>
      </trkpt>
      <trkpt lat="46.53218" lon="5.32907">
        <ele>227.8</ele>
        <time>2022-04-30T11:40:06Z</time>
      </trkpt>
      <trkpt lat="46.53229" lon="5.32927">
        <ele>228.6</ele>
        <time>2022-04-30T11:40:11Z</time>
      </trkpt>
      <trkpt lat="46.53237" lon="5.32943">
        <ele>229.2</ele>
        <time>2022-04-30T11:40:15Z</time>
      </trkpt>
      <trkpt lat="46.53244" lon="5.32957">
        <ele>229.6</ele>
        <time>2022-04-30T11:40:18Z</time>
      </trkpt>
      <trkpt lat="46.5326" lon="5.32988">
        <ele>231</ele>
        <time>2022-04-30T11:40:25Z</time>
      </trkpt>
      <trkpt lat="46.53274" lon="5.33015">
        <ele>231.6</ele>
        <time>2022-04-30T11:40:31Z</time>
      </trkpt>
      <trkpt lat="46.53286" lon="5.33038">
        <ele>232</ele>
        <time>2022-04-30T11:40:36Z</time>
      </trkpt>
      <trkpt lat="46.53289" lon="5.33042">
        <ele>232</ele>
        <time>2022-04-30T11:40:37Z</time>
      </trkpt>
      <trkpt lat="46.53311" lon="5.33075">
        <ele>232.6</ele>
        <time>2022-04-30T11:40:44Z</time>
      </trkpt>
      <trkpt lat="46.53329" lon="5.33098">
        <ele>233.2</ele>
        <time>2022-04-30T11:40:49Z</time>
      </trkpt>
      <trkpt lat="46.53353" lon="5.3313">
        <ele>233.2</ele>
        <time>2022-04-30T11:40:55Z</time>
      </trkpt>
      <trkpt lat="46.5338" lon="5.33167">
        <ele>233.2</ele>
        <time>2022-04-30T11:41:02Z</time>
      </trkpt>
      <trkpt lat="46.53419" lon="5.33221">
        <ele>233.4</ele>
        <time>2022-04-30T11:41:12Z</time>
      </trkpt>
      <trkpt lat="46.53457" lon="5.33275">
        <ele>233.4</ele>
        <time>2022-04-30T11:41:22Z</time>
      </trkpt>
      <trkpt lat="46.53486" lon="5.33317">
        <ele>233.4</ele>
        <time>2022-04-30T11:41:30Z</time>
      </trkpt>
      <trkpt lat="46.53523" lon="5.33367">
        <ele>233.4</ele>
        <time>2022-04-30T11:41:39Z</time>
      </trkpt>
      <trkpt lat="46.53532" lon="5.33379">
        <ele>233.2</ele>
        <time>2022-04-30T11:41:41Z</time>
      </trkpt>
      <trkpt lat="46.53561" lon="5.33419">
        <ele>232.8</ele>
        <time>2022-04-30T11:41:47Z</time>
      </trkpt>
      <trkpt lat="46.53576" lon="5.33441">
        <ele>232.4</ele>
        <time>2022-04-30T11:41:50Z</time>
      </trkpt>
      <trkpt lat="46.53607" lon="5.33484">
        <ele>231.6</ele>
        <time>2022-04-30T11:41:56Z</time>
      </trkpt>
      <trkpt lat="46.53617" lon="5.33497">
        <ele>231.2</ele>
        <time>2022-04-30T11:41:58Z</time>
      </trkpt>
      <trkpt lat="46.53626" lon="5.33509">
        <ele>231</ele>
        <time>2022-04-30T11:42:00Z</time>
      </trkpt>
      <trkpt lat="46.53628" lon="5.33515">
        <ele>230.8</ele>
        <time>2022-04-30T11:42:01Z</time>
      </trkpt>
      <trkpt lat="46.53628" lon="5.33525">
        <ele>230.6</ele>
        <time>2022-04-30T11:42:03Z</time>
      </trkpt>
      <trkpt lat="46.53626" lon="5.3353">
        <ele>230.4</ele>
        <time>2022-04-30T11:42:04Z</time>
      </trkpt>
      <trkpt lat="46.53623" lon="5.33535">
        <ele>230.4</ele>
        <time>2022-04-30T11:42:05Z</time>
      </trkpt>
      <trkpt lat="46.53613" lon="5.33544">
        <ele>230</ele>
        <time>2022-04-30T11:42:07Z</time>
      </trkpt>
      <trkpt lat="46.53602" lon="5.33555">
        <ele>229.2</ele>
        <time>2022-04-30T11:42:09Z</time>
      </trkpt>
      <trkpt lat="46.53574" lon="5.33582">
        <ele>228.4</ele>
        <time>2022-04-30T11:42:14Z</time>
      </trkpt>
      <trkpt lat="46.53568" lon="5.33588">
        <ele>228.2</ele>
        <time>2022-04-30T11:42:15Z</time>
      </trkpt>
      <trkpt lat="46.53532" lon="5.33622">
        <ele>227.4</ele>
        <time>2022-04-30T11:42:21Z</time>
      </trkpt>
      <trkpt lat="46.53519" lon="5.33633">
        <ele>227.2</ele>
        <time>2022-04-30T11:42:23Z</time>
      </trkpt>
      <trkpt lat="46.53494" lon="5.33657">
        <ele>226.6</ele>
        <time>2022-04-30T11:42:27Z</time>
      </trkpt>
      <trkpt lat="46.53488" lon="5.33663">
        <ele>226.4</ele>
        <time>2022-04-30T11:42:28Z</time>
      </trkpt>
      <trkpt lat="46.53469" lon="5.33681">
        <ele>226</ele>
        <time>2022-04-30T11:42:31Z</time>
      </trkpt>
      <trkpt lat="46.53459" lon="5.33692">
        <ele>225.8</ele>
        <time>2022-04-30T11:42:33Z</time>
      </trkpt>
      <trkpt lat="46.53458" lon="5.33708">
        <ele>225.2</ele>
        <time>2022-04-30T11:42:35Z</time>
      </trkpt>
      <trkpt lat="46.53461" lon="5.33716">
        <ele>224.8</ele>
        <time>2022-04-30T11:42:36Z</time>
      </trkpt>
      <trkpt lat="46.53469" lon="5.33727">
        <ele>224.2</ele>
        <time>2022-04-30T11:42:38Z</time>
      </trkpt>
      <trkpt lat="46.5348" lon="5.33732">
        <ele>223.8</ele>
        <time>2022-04-30T11:42:40Z</time>
      </trkpt>
      <trkpt lat="46.53491" lon="5.33735">
        <ele>223.8</ele>
        <time>2022-04-30T11:42:42Z</time>
      </trkpt>
      <trkpt lat="46.53511" lon="5.33741">
        <ele>224</ele>
        <time>2022-04-30T11:42:46Z</time>
      </trkpt>
      <trkpt lat="46.53516" lon="5.33744">
        <ele>224.4</ele>
        <time>2022-04-30T11:42:47Z</time>
      </trkpt>
      <trkpt lat="46.53526" lon="5.33751">
        <ele>225.2</ele>
        <time>2022-04-30T11:42:49Z</time>
      </trkpt>
      <trkpt lat="46.5355" lon="5.3377">
        <ele>226.4</ele>
        <time>2022-04-30T11:42:54Z</time>
      </trkpt>
      <trkpt lat="46.53554" lon="5.33774">
        <ele>226.4</ele>
        <time>2022-04-30T11:42:55Z</time>
      </trkpt>
      <trkpt lat="46.53568" lon="5.33785">
        <ele>226.6</ele>
        <time>2022-04-30T11:42:58Z</time>
      </trkpt>
      <trkpt lat="46.53584" lon="5.33805">
        <ele>227.4</ele>
        <time>2022-04-30T11:43:02Z</time>
      </trkpt>
      <trkpt lat="46.53616" lon="5.33846">
        <ele>228.6</ele>
        <time>2022-04-30T11:43:10Z</time>
      </trkpt>
      <trkpt lat="46.53651" lon="5.33896">
        <ele>230</ele>
        <time>2022-04-30T11:43:19Z</time>
      </trkpt>
      <trkpt lat="46.53668" lon="5.33927">
        <ele>230.4</ele>
        <time>2022-04-30T11:43:24Z</time>
      </trkpt>
      <trkpt lat="46.53672" lon="5.33932">
        <ele>230.6</ele>
        <time>2022-04-30T11:43:25Z</time>
      </trkpt>
      <trkpt lat="46.53703" lon="5.33958">
        <ele>231</ele>
        <time>2022-04-30T11:43:31Z</time>
      </trkpt>
      <trkpt lat="46.53707" lon="5.33962">
        <ele>231</ele>
        <time>2022-04-30T11:43:32Z</time>
      </trkpt>
      <trkpt lat="46.53738" lon="5.33998">
        <ele>231.4</ele>
        <time>2022-04-30T11:43:38Z</time>
      </trkpt>
      <trkpt lat="46.53774" lon="5.3405">
        <ele>230.2</ele>
        <time>2022-04-30T11:43:44Z</time>
      </trkpt>
      <trkpt lat="46.53781" lon="5.34059">
        <ele>229.8</ele>
        <time>2022-04-30T11:43:45Z</time>
      </trkpt>
      <trkpt lat="46.53808" lon="5.34096">
        <ele>228.6</ele>
        <time>2022-04-30T11:43:49Z</time>
      </trkpt>
      <trkpt lat="46.53815" lon="5.34106">
        <ele>228.2</ele>
        <time>2022-04-30T11:43:50Z</time>
      </trkpt>
      <trkpt lat="46.53829" lon="5.34122">
        <ele>227.2</ele>
        <time>2022-04-30T11:43:52Z</time>
      </trkpt>
      <trkpt lat="46.53846" lon="5.34131">
        <ele>226.4</ele>
        <time>2022-04-30T11:43:54Z</time>
      </trkpt>
      <trkpt lat="46.53864" lon="5.34136">
        <ele>225.8</ele>
        <time>2022-04-30T11:43:56Z</time>
      </trkpt>
      <trkpt lat="46.5389" lon="5.34143">
        <ele>225</ele>
        <time>2022-04-30T11:43:59Z</time>
      </trkpt>
      <trkpt lat="46.53898" lon="5.34147">
        <ele>225</ele>
        <time>2022-04-30T11:44:00Z</time>
      </trkpt>
      <trkpt lat="46.53906" lon="5.34153">
        <ele>224.8</ele>
        <time>2022-04-30T11:44:01Z</time>
      </trkpt>
      <trkpt lat="46.53913" lon="5.34158">
        <ele>224.8</ele>
        <time>2022-04-30T11:44:02Z</time>
      </trkpt>
      <trkpt lat="46.53919" lon="5.34165">
        <ele>224.8</ele>
        <time>2022-04-30T11:44:03Z</time>
      </trkpt>
      <trkpt lat="46.53925" lon="5.34172">
        <ele>224.6</ele>
        <time>2022-04-30T11:44:04Z</time>
      </trkpt>
      <trkpt lat="46.5395" lon="5.34205">
        <ele>224.8</ele>
        <time>2022-04-30T11:44:09Z</time>
      </trkpt>
      <trkpt lat="46.53973" lon="5.34236">
        <ele>226</ele>
        <time>2022-04-30T11:44:14Z</time>
      </trkpt>
      <trkpt lat="46.53978" lon="5.34243">
        <ele>226.2</ele>
        <time>2022-04-30T11:44:15Z</time>
      </trkpt>
      <trkpt lat="46.54008" lon="5.34283">
        <ele>226.8</ele>
        <time>2022-04-30T11:44:22Z</time>
      </trkpt>
      <trkpt lat="46.54012" lon="5.34288">
        <ele>227</ele>
        <time>2022-04-30T11:44:23Z</time>
      </trkpt>
      <trkpt lat="46.54026" lon="5.34306">
        <ele>227.6</ele>
        <time>2022-04-30T11:44:27Z</time>
      </trkpt>
      <trkpt lat="46.54032" lon="5.34317">
        <ele>228.2</ele>
        <time>2022-04-30T11:44:29Z</time>
      </trkpt>
      <trkpt lat="46.54056" lon="5.34351">
        <ele>229.2</ele>
        <time>2022-04-30T11:44:36Z</time>
      </trkpt>
      <trkpt lat="46.54066" lon="5.34362">
        <ele>230</ele>
        <time>2022-04-30T11:44:39Z</time>
      </trkpt>
      <trkpt lat="46.54075" lon="5.34375">
        <ele>230.8</ele>
        <time>2022-04-30T11:44:42Z</time>
      </trkpt>
      <trkpt lat="46.54086" lon="5.34389">
        <ele>231.6</ele>
        <time>2022-04-30T11:44:46Z</time>
      </trkpt>
      <trkpt lat="46.54089" lon="5.34394">
        <ele>231.8</ele>
        <time>2022-04-30T11:44:47Z</time>
      </trkpt>
      <trkpt lat="46.54095" lon="5.34402">
        <ele>232.4</ele>
        <time>2022-04-30T11:44:49Z</time>
      </trkpt>
      <trkpt lat="46.54103" lon="5.34413">
        <ele>233</ele>
        <time>2022-04-30T11:44:52Z</time>
      </trkpt>
      <trkpt lat="46.54114" lon="5.34429">
        <ele>233.4</ele>
        <time>2022-04-30T11:44:56Z</time>
      </trkpt>
      <trkpt lat="46.54128" lon="5.34459">
        <ele>234.2</ele>
        <time>2022-04-30T11:45:02Z</time>
      </trkpt>
      <trkpt lat="46.54129" lon="5.34466">
        <ele>234.4</ele>
        <time>2022-04-30T11:45:03Z</time>
      </trkpt>
      <trkpt lat="46.54132" lon="5.34506">
        <ele>235</ele>
        <time>2022-04-30T11:45:09Z</time>
      </trkpt>
      <trkpt lat="46.54132" lon="5.34532">
        <ele>235.4</ele>
        <time>2022-04-30T11:45:13Z</time>
      </trkpt>
      <trkpt lat="46.54128" lon="5.34574">
        <ele>235.4</ele>
        <time>2022-04-30T11:45:19Z</time>
      </trkpt>
      <trkpt lat="46.54124" lon="5.34594">
        <ele>235.6</ele>
        <time>2022-04-30T11:45:22Z</time>
      </trkpt>
      <trkpt lat="46.54117" lon="5.34612">
        <ele>235.6</ele>
        <time>2022-04-30T11:45:25Z</time>
      </trkpt>
      <trkpt lat="46.541" lon="5.34647">
        <ele>235.4</ele>
        <time>2022-04-30T11:45:30Z</time>
      </trkpt>
      <trkpt lat="46.54071" lon="5.34696">
        <ele>235.2</ele>
        <time>2022-04-30T11:45:37Z</time>
      </trkpt>
      <trkpt lat="46.54032" lon="5.34752">
        <ele>235.2</ele>
        <time>2022-04-30T11:45:46Z</time>
      </trkpt>
      <trkpt lat="46.54024" lon="5.34763">
        <ele>235.4</ele>
        <time>2022-04-30T11:45:48Z</time>
      </trkpt>
      <trkpt lat="46.53989" lon="5.34798">
        <ele>236</ele>
        <time>2022-04-30T11:45:56Z</time>
      </trkpt>
      <trkpt lat="46.53985" lon="5.34803">
        <ele>236.2</ele>
        <time>2022-04-30T11:45:57Z</time>
      </trkpt>
      <trkpt lat="46.53978" lon="5.34814">
        <ele>236</ele>
        <time>2022-04-30T11:45:59Z</time>
      </trkpt>
      <trkpt lat="46.53971" lon="5.34827">
        <ele>236</ele>
        <time>2022-04-30T11:46:01Z</time>
      </trkpt>
      <trkpt lat="46.53969" lon="5.34833">
        <ele>236</ele>
        <time>2022-04-30T11:46:02Z</time>
      </trkpt>
      <trkpt lat="46.5396" lon="5.34864">
        <ele>236.2</ele>
        <time>2022-04-30T11:46:06Z</time>
      </trkpt>
      <trkpt lat="46.5394" lon="5.34922">
        <ele>236</ele>
        <time>2022-04-30T11:46:14Z</time>
      </trkpt>
      <trkpt lat="46.53927" lon="5.34946">
        <ele>236</ele>
        <time>2022-04-30T11:46:19Z</time>
      </trkpt>
      <trkpt lat="46.53914" lon="5.34973">
        <ele>236.4</ele>
        <time>2022-04-30T11:46:24Z</time>
      </trkpt>
      <trkpt lat="46.53911" lon="5.3498">
        <ele>236.4</ele>
        <time>2022-04-30T11:46:25Z</time>
      </trkpt>
      <trkpt lat="46.539" lon="5.35031">
        <ele>236.4</ele>
        <time>2022-04-30T11:46:31Z</time>
      </trkpt>
      <trkpt lat="46.53884" lon="5.35098">
        <ele>235.8</ele>
        <time>2022-04-30T11:46:38Z</time>
      </trkpt>
      <trkpt lat="46.53887" lon="5.35116">
        <ele>235.4</ele>
        <time>2022-04-30T11:46:40Z</time>
      </trkpt>
      <trkpt lat="46.5389" lon="5.35124">
        <ele>235.2</ele>
        <time>2022-04-30T11:46:41Z</time>
      </trkpt>
      <trkpt lat="46.53906" lon="5.35145">
        <ele>235.2</ele>
        <time>2022-04-30T11:46:45Z</time>
      </trkpt>
      <trkpt lat="46.53913" lon="5.35153">
        <ele>235.2</ele>
        <time>2022-04-30T11:46:47Z</time>
      </trkpt>
      <trkpt lat="46.53922" lon="5.35155">
        <ele>235.4</ele>
        <time>2022-04-30T11:46:49Z</time>
      </trkpt>
      <trkpt lat="46.53937" lon="5.35144">
        <ele>235.6</ele>
        <time>2022-04-30T11:46:52Z</time>
      </trkpt>
      <trkpt lat="46.53942" lon="5.35139">
        <ele>235.8</ele>
        <time>2022-04-30T11:46:53Z</time>
      </trkpt>
      <trkpt lat="46.53977" lon="5.35099">
        <ele>226.4</ele>
        <time>2022-04-30T11:47:00Z</time>
      </trkpt>
      <trkpt lat="46.54017" lon="5.35055">
        <ele>235.2</ele>
        <time>2022-04-30T11:47:07Z</time>
      </trkpt>
      <trkpt lat="46.54048" lon="5.35027">
        <ele>234.4</ele>
        <time>2022-04-30T11:47:12Z</time>
      </trkpt>
      <trkpt lat="46.54094" lon="5.35007">
        <ele>233.4</ele>
        <time>2022-04-30T11:47:18Z</time>
      </trkpt>
      <trkpt lat="46.54101" lon="5.35004">
        <ele>233.4</ele>
        <time>2022-04-30T11:47:19Z</time>
      </trkpt>
      <trkpt lat="46.54131" lon="5.34989">
        <ele>232.4</ele>
        <time>2022-04-30T11:47:23Z</time>
      </trkpt>
      <trkpt lat="46.54145" lon="5.34977">
        <ele>231.8</ele>
        <time>2022-04-30T11:47:25Z</time>
      </trkpt>
      <trkpt lat="46.5417" lon="5.34948">
        <ele>231.2</ele>
        <time>2022-04-30T11:47:29Z</time>
      </trkpt>
      <trkpt lat="46.5419" lon="5.34927">
        <ele>230.2</ele>
        <time>2022-04-30T11:47:32Z</time>
      </trkpt>
      <trkpt lat="46.54196" lon="5.34921">
        <ele>230.2</ele>
        <time>2022-04-30T11:47:33Z</time>
      </trkpt>
      <trkpt lat="46.54223" lon="5.34896">
        <ele>229.4</ele>
        <time>2022-04-30T11:47:37Z</time>
      </trkpt>
      <trkpt lat="46.54234" lon="5.34881">
        <ele>229.4</ele>
        <time>2022-04-30T11:47:39Z</time>
      </trkpt>
      <trkpt lat="46.54239" lon="5.34873">
        <ele>229</ele>
        <time>2022-04-30T11:47:40Z</time>
      </trkpt>
      <trkpt lat="46.54258" lon="5.34838">
        <ele>228.6</ele>
        <time>2022-04-30T11:47:44Z</time>
      </trkpt>
      <trkpt lat="46.54275" lon="5.34815">
        <ele>228.2</ele>
        <time>2022-04-30T11:47:47Z</time>
      </trkpt>
      <trkpt lat="46.54287" lon="5.34802">
        <ele>228</ele>
        <time>2022-04-30T11:47:49Z</time>
      </trkpt>
      <trkpt lat="46.54335" lon="5.34756">
        <ele>227.2</ele>
        <time>2022-04-30T11:47:57Z</time>
      </trkpt>
      <trkpt lat="46.54341" lon="5.34752">
        <ele>227.2</ele>
        <time>2022-04-30T11:47:58Z</time>
      </trkpt>
      <trkpt lat="46.54371" lon="5.3474">
        <ele>227.4</ele>
        <time>2022-04-30T11:48:03Z</time>
      </trkpt>
      <trkpt lat="46.54412" lon="5.34722">
        <ele>228.2</ele>
        <time>2022-04-30T11:48:10Z</time>
      </trkpt>
      <trkpt lat="46.54465" lon="5.3469">
        <ele>228.6</ele>
        <time>2022-04-30T11:48:19Z</time>
      </trkpt>
      <trkpt lat="46.54486" lon="5.34671">
        <ele>228.6</ele>
        <time>2022-04-30T11:48:23Z</time>
      </trkpt>
      <trkpt lat="46.54491" lon="5.34665">
        <ele>228.6</ele>
        <time>2022-04-30T11:48:24Z</time>
      </trkpt>
      <trkpt lat="46.54531" lon="5.34609">
        <ele>229</ele>
        <time>2022-04-30T11:48:33Z</time>
      </trkpt>
      <trkpt lat="46.54555" lon="5.34588">
        <ele>229.4</ele>
        <time>2022-04-30T11:48:38Z</time>
      </trkpt>
      <trkpt lat="46.54559" lon="5.34584">
        <ele>229.6</ele>
        <time>2022-04-30T11:48:39Z</time>
      </trkpt>
      <trkpt lat="46.54587" lon="5.34561">
        <ele>230.6</ele>
        <time>2022-04-30T11:48:46Z</time>
      </trkpt>
      <trkpt lat="46.54591" lon="5.34558">
        <ele>231</ele>
        <time>2022-04-30T11:48:47Z</time>
      </trkpt>
      <trkpt lat="46.54599" lon="5.34548">
        <ele>231.8</ele>
        <time>2022-04-30T11:48:50Z</time>
      </trkpt>
      <trkpt lat="46.54606" lon="5.34542">
        <ele>232.6</ele>
        <time>2022-04-30T11:48:52Z</time>
      </trkpt>
      <trkpt lat="46.54612" lon="5.34538">
        <ele>233.2</ele>
        <time>2022-04-30T11:48:54Z</time>
      </trkpt>
      <trkpt lat="46.5463" lon="5.34521">
        <ele>234.4</ele>
        <time>2022-04-30T11:48:59Z</time>
      </trkpt>
      <trkpt lat="46.54649" lon="5.34507">
        <ele>234.8</ele>
        <time>2022-04-30T11:49:03Z</time>
      </trkpt>
      <trkpt lat="46.54658" lon="5.34499">
        <ele>235</ele>
        <time>2022-04-30T11:49:05Z</time>
      </trkpt>
      <trkpt lat="46.54679" lon="5.34484">
        <ele>235.4</ele>
        <time>2022-04-30T11:49:09Z</time>
      </trkpt>
      <trkpt lat="46.5469" lon="5.34478">
        <ele>235.4</ele>
        <time>2022-04-30T11:49:11Z</time>
      </trkpt>
      <trkpt lat="46.54725" lon="5.34466">
        <ele>235.4</ele>
        <time>2022-04-30T11:49:17Z</time>
      </trkpt>
      <trkpt lat="46.54764" lon="5.34456">
        <ele>235</ele>
        <time>2022-04-30T11:49:23Z</time>
      </trkpt>
      <trkpt lat="46.54814" lon="5.34437">
        <ele>234.8</ele>
        <time>2022-04-30T11:49:31Z</time>
      </trkpt>
      <trkpt lat="46.54852" lon="5.34417">
        <ele>234.8</ele>
        <time>2022-04-30T11:49:38Z</time>
      </trkpt>
      <trkpt lat="46.54877" lon="5.344">
        <ele>235.2</ele>
        <time>2022-04-30T11:49:43Z</time>
      </trkpt>
      <trkpt lat="46.54882" lon="5.34395">
        <ele>235.2</ele>
        <time>2022-04-30T11:49:44Z</time>
      </trkpt>
      <trkpt lat="46.5493" lon="5.34354">
        <ele>235.8</ele>
        <time>2022-04-30T11:49:54Z</time>
      </trkpt>
      <trkpt lat="46.5497" lon="5.34313">
        <ele>235.6</ele>
        <time>2022-04-30T11:50:02Z</time>
      </trkpt>
      <trkpt lat="46.55013" lon="5.34256">
        <ele>235.4</ele>
        <time>2022-04-30T11:50:11Z</time>
      </trkpt>
      <trkpt lat="46.55056" lon="5.34207">
        <ele>235.2</ele>
        <time>2022-04-30T11:50:19Z</time>
      </trkpt>
      <trkpt lat="46.55066" lon="5.34195">
        <ele>235.2</ele>
        <time>2022-04-30T11:50:21Z</time>
      </trkpt>
      <trkpt lat="46.55114" lon="5.34142">
        <ele>234.8</ele>
        <time>2022-04-30T11:50:30Z</time>
      </trkpt>
      <trkpt lat="46.55124" lon="5.3413">
        <ele>234.8</ele>
        <time>2022-04-30T11:50:32Z</time>
      </trkpt>
      <trkpt lat="46.55152" lon="5.34096">
        <ele>234</ele>
        <time>2022-04-30T11:50:38Z</time>
      </trkpt>
      <trkpt lat="46.55181" lon="5.34059">
        <ele>233.8</ele>
        <time>2022-04-30T11:50:45Z</time>
      </trkpt>
      <trkpt lat="46.55185" lon="5.34056">
        <ele>233.8</ele>
        <time>2022-04-30T11:50:46Z</time>
      </trkpt>
      <trkpt lat="46.55188" lon="5.34056">
        <ele>233.6</ele>
        <time>2022-04-30T11:50:47Z</time>
      </trkpt>
      <trkpt lat="46.55191" lon="5.34059">
        <ele>233.6</ele>
        <time>2022-04-30T11:50:48Z</time>
      </trkpt>
      <trkpt lat="46.55196" lon="5.34068">
        <ele>233.6</ele>
        <time>2022-04-30T11:50:50Z</time>
      </trkpt>
      <trkpt lat="46.55211" lon="5.34113">
        <ele>233.8</ele>
        <time>2022-04-30T11:50:57Z</time>
      </trkpt>
      <trkpt lat="46.55223" lon="5.3415">
        <ele>234.8</ele>
        <time>2022-04-30T11:51:02Z</time>
      </trkpt>
      <trkpt lat="46.55224" lon="5.34158">
        <ele>234.8</ele>
        <time>2022-04-30T11:51:03Z</time>
      </trkpt>
      <trkpt lat="46.55231" lon="5.34214">
        <ele>234.8</ele>
        <time>2022-04-30T11:51:09Z</time>
      </trkpt>
      <trkpt lat="46.55238" lon="5.34243">
        <ele>234.8</ele>
        <time>2022-04-30T11:51:12Z</time>
      </trkpt>
      <trkpt lat="46.55246" lon="5.34258">
        <ele>234.6</ele>
        <time>2022-04-30T11:51:14Z</time>
      </trkpt>
      <trkpt lat="46.55258" lon="5.34269">
        <ele>234.2</ele>
        <time>2022-04-30T11:51:16Z</time>
      </trkpt>
      <trkpt lat="46.55271" lon="5.3428">
        <ele>233.8</ele>
        <time>2022-04-30T11:51:18Z</time>
      </trkpt>
      <trkpt lat="46.55277" lon="5.34286">
        <ele>233.8</ele>
        <time>2022-04-30T11:51:19Z</time>
      </trkpt>
      <trkpt lat="46.55283" lon="5.34293">
        <ele>233.6</ele>
        <time>2022-04-30T11:51:20Z</time>
      </trkpt>
      <trkpt lat="46.55298" lon="5.34305">
        <ele>233.6</ele>
        <time>2022-04-30T11:51:22Z</time>
      </trkpt>
      <trkpt lat="46.55331" lon="5.34346">
        <ele>232.6</ele>
        <time>2022-04-30T11:51:27Z</time>
      </trkpt>
      <trkpt lat="46.55339" lon="5.34353">
        <ele>232.2</ele>
        <time>2022-04-30T11:51:28Z</time>
      </trkpt>
      <trkpt lat="46.55353" lon="5.34366">
        <ele>231.4</ele>
        <time>2022-04-30T11:51:30Z</time>
      </trkpt>
      <trkpt lat="46.55386" lon="5.34401">
        <ele>230.6</ele>
        <time>2022-04-30T11:51:35Z</time>
      </trkpt>
      <trkpt lat="46.55407" lon="5.34421">
        <ele>230.4</ele>
        <time>2022-04-30T11:51:38Z</time>
      </trkpt>
      <trkpt lat="46.55449" lon="5.34464">
        <ele>229.4</ele>
        <time>2022-04-30T11:51:45Z</time>
      </trkpt>
      <trkpt lat="46.55493" lon="5.34509">
        <ele>229</ele>
        <time>2022-04-30T11:51:53Z</time>
      </trkpt>
      <trkpt lat="46.55504" lon="5.34519">
        <ele>229.2</ele>
        <time>2022-04-30T11:51:55Z</time>
      </trkpt>
      <trkpt lat="46.55539" lon="5.34543">
        <ele>229</ele>
        <time>2022-04-30T11:52:01Z</time>
      </trkpt>
      <trkpt lat="46.55585" lon="5.3456">
        <ele>228.6</ele>
        <time>2022-04-30T11:52:08Z</time>
      </trkpt>
      <trkpt lat="46.55592" lon="5.34563">
        <ele>228.4</ele>
        <time>2022-04-30T11:52:09Z</time>
      </trkpt>
      <trkpt lat="46.55629" lon="5.34576">
        <ele>227.4</ele>
        <time>2022-04-30T11:52:14Z</time>
      </trkpt>
      <trkpt lat="46.55637" lon="5.34578">
        <ele>227.2</ele>
        <time>2022-04-30T11:52:15Z</time>
      </trkpt>
      <trkpt lat="46.55674" lon="5.34577">
        <ele>226.2</ele>
        <time>2022-04-30T11:52:19Z</time>
      </trkpt>
      <trkpt lat="46.55684" lon="5.34577">
        <ele>225.6</ele>
        <time>2022-04-30T11:52:20Z</time>
      </trkpt>
      <trkpt lat="46.55704" lon="5.34578">
        <ele>224.8</ele>
        <time>2022-04-30T11:52:22Z</time>
      </trkpt>
      <trkpt lat="46.55734" lon="5.34583">
        <ele>223.4</ele>
        <time>2022-04-30T11:52:25Z</time>
      </trkpt>
      <trkpt lat="46.55763" lon="5.3459">
        <ele>222.2</ele>
        <time>2022-04-30T11:52:28Z</time>
      </trkpt>
      <trkpt lat="46.55792" lon="5.34597">
        <ele>221</ele>
        <time>2022-04-30T11:52:31Z</time>
      </trkpt>
      <trkpt lat="46.55811" lon="5.34601">
        <ele>220.2</ele>
        <time>2022-04-30T11:52:33Z</time>
      </trkpt>
      <trkpt lat="46.5582" lon="5.34603">
        <ele>219.4</ele>
        <time>2022-04-30T11:52:34Z</time>
      </trkpt>
      <trkpt lat="46.5586" lon="5.34612">
        <ele>218.4</ele>
        <time>2022-04-30T11:52:39Z</time>
      </trkpt>
      <trkpt lat="46.55868" lon="5.34614">
        <ele>218.2</ele>
        <time>2022-04-30T11:52:40Z</time>
      </trkpt>
      <trkpt lat="46.55915" lon="5.34625">
        <ele>217.8</ele>
        <time>2022-04-30T11:52:46Z</time>
      </trkpt>
      <trkpt lat="46.55963" lon="5.34638">
        <ele>217</ele>
        <time>2022-04-30T11:52:52Z</time>
      </trkpt>
      <trkpt lat="46.55978" lon="5.34641">
        <ele>216.4</ele>
        <time>2022-04-30T11:52:54Z</time>
      </trkpt>
      <trkpt lat="46.55997" lon="5.34647">
        <ele>216.2</ele>
        <time>2022-04-30T11:52:57Z</time>
      </trkpt>
      <trkpt lat="46.56024" lon="5.34653">
        <ele>215.8</ele>
        <time>2022-04-30T11:53:01Z</time>
      </trkpt>
      <trkpt lat="46.56059" lon="5.34662">
        <ele>216.4</ele>
        <time>2022-04-30T11:53:06Z</time>
      </trkpt>
      <trkpt lat="46.56086" lon="5.34668">
        <ele>216.6</ele>
        <time>2022-04-30T11:53:10Z</time>
      </trkpt>
      <trkpt lat="46.56121" lon="5.34676">
        <ele>216.8</ele>
        <time>2022-04-30T11:53:16Z</time>
      </trkpt>
      <trkpt lat="46.56148" lon="5.34678">
        <ele>217.2</ele>
        <time>2022-04-30T11:53:21Z</time>
      </trkpt>
      <trkpt lat="46.56153" lon="5.34678">
        <ele>217.2</ele>
        <time>2022-04-30T11:53:22Z</time>
      </trkpt>
      <trkpt lat="46.56178" lon="5.34678">
        <ele>218.2</ele>
        <time>2022-04-30T11:53:27Z</time>
      </trkpt>
      <trkpt lat="46.56183" lon="5.34677">
        <ele>218.4</ele>
        <time>2022-04-30T11:53:28Z</time>
      </trkpt>
      <trkpt lat="46.56187" lon="5.34676">
        <ele>218.6</ele>
        <time>2022-04-30T11:53:29Z</time>
      </trkpt>
      <trkpt lat="46.56205" lon="5.3467">
        <ele>219.4</ele>
        <time>2022-04-30T11:53:33Z</time>
      </trkpt>
      <trkpt lat="46.5621" lon="5.34669">
        <ele>219.8</ele>
        <time>2022-04-30T11:53:34Z</time>
      </trkpt>
      <trkpt lat="46.56222" lon="5.34666">
        <ele>220.2</ele>
        <time>2022-04-30T11:53:37Z</time>
      </trkpt>
      <trkpt lat="46.56234" lon="5.34662">
        <ele>221</ele>
        <time>2022-04-30T11:53:40Z</time>
      </trkpt>
      <trkpt lat="46.56255" lon="5.34656">
        <ele>221.8</ele>
        <time>2022-04-30T11:53:45Z</time>
      </trkpt>
      <trkpt lat="46.56263" lon="5.34653">
        <ele>222.2</ele>
        <time>2022-04-30T11:53:47Z</time>
      </trkpt>
      <trkpt lat="46.56292" lon="5.34648">
        <ele>222.8</ele>
        <time>2022-04-30T11:53:54Z</time>
      </trkpt>
      <trkpt lat="46.563" lon="5.34647">
        <ele>223.2</ele>
        <time>2022-04-30T11:53:56Z</time>
      </trkpt>
      <trkpt lat="46.56319" lon="5.34649">
        <ele>224.4</ele>
        <time>2022-04-30T11:54:01Z</time>
      </trkpt>
      <trkpt lat="46.56348" lon="5.34659">
        <ele>225.4</ele>
        <time>2022-04-30T11:54:08Z</time>
      </trkpt>
      <trkpt lat="46.56381" lon="5.34673">
        <ele>226</ele>
        <time>2022-04-30T11:54:15Z</time>
      </trkpt>
      <trkpt lat="46.5642" lon="5.34684">
        <ele>225.8</ele>
        <time>2022-04-30T11:54:22Z</time>
      </trkpt>
      <trkpt lat="46.56458" lon="5.34705">
        <ele>225.2</ele>
        <time>2022-04-30T11:54:28Z</time>
      </trkpt>
      <trkpt lat="46.56478" lon="5.34716">
        <ele>224.2</ele>
        <time>2022-04-30T11:54:31Z</time>
      </trkpt>
      <trkpt lat="46.56509" lon="5.34735">
        <ele>223.2</ele>
        <time>2022-04-30T11:54:36Z</time>
      </trkpt>
      <trkpt lat="46.56515" lon="5.34739">
        <ele>223</ele>
        <time>2022-04-30T11:54:37Z</time>
      </trkpt>
      <trkpt lat="46.56521" lon="5.34743">
        <ele>222.8</ele>
        <time>2022-04-30T11:54:38Z</time>
      </trkpt>
      <trkpt lat="46.56539" lon="5.34755">
        <ele>221.8</ele>
        <time>2022-04-30T11:54:41Z</time>
      </trkpt>
      <trkpt lat="46.56554" lon="5.34764">
        <ele>221</ele>
        <time>2022-04-30T11:54:43Z</time>
      </trkpt>
      <trkpt lat="46.56562" lon="5.34768">
        <ele>220.6</ele>
        <time>2022-04-30T11:54:44Z</time>
      </trkpt>
      <trkpt lat="46.5658" lon="5.34771">
        <ele>220</ele>
        <time>2022-04-30T11:54:46Z</time>
      </trkpt>
      <trkpt lat="46.56598" lon="5.34763">
        <ele>219.4</ele>
        <time>2022-04-30T11:54:48Z</time>
      </trkpt>
      <trkpt lat="46.56606" lon="5.34755">
        <ele>219</ele>
        <time>2022-04-30T11:54:49Z</time>
      </trkpt>
      <trkpt lat="46.56612" lon="5.34744">
        <ele>218.4</ele>
        <time>2022-04-30T11:54:50Z</time>
      </trkpt>
      <trkpt lat="46.56618" lon="5.34732">
        <ele>218.2</ele>
        <time>2022-04-30T11:54:51Z</time>
      </trkpt>
      <trkpt lat="46.56623" lon="5.34719">
        <ele>217.4</ele>
        <time>2022-04-30T11:54:52Z</time>
      </trkpt>
      <trkpt lat="46.56629" lon="5.34708">
        <ele>217</ele>
        <time>2022-04-30T11:54:53Z</time>
      </trkpt>
      <trkpt lat="46.56643" lon="5.3469">
        <ele>215.6</ele>
        <time>2022-04-30T11:54:55Z</time>
      </trkpt>
      <trkpt lat="46.56661" lon="5.34682">
        <ele>214.2</ele>
        <time>2022-04-30T11:54:57Z</time>
      </trkpt>
      <trkpt lat="46.56695" lon="5.34675">
        <ele>213.2</ele>
        <time>2022-04-30T11:55:01Z</time>
      </trkpt>
      <trkpt lat="46.56703" lon="5.34673">
        <ele>213</ele>
        <time>2022-04-30T11:55:02Z</time>
      </trkpt>
      <trkpt lat="46.56742" lon="5.34658">
        <ele>212.4</ele>
        <time>2022-04-30T11:55:07Z</time>
      </trkpt>
      <trkpt lat="46.5675" lon="5.34658">
        <ele>212.6</ele>
        <time>2022-04-30T11:55:08Z</time>
      </trkpt>
      <trkpt lat="46.56757" lon="5.34661">
        <ele>212.2</ele>
        <time>2022-04-30T11:55:09Z</time>
      </trkpt>
      <trkpt lat="46.56764" lon="5.34667">
        <ele>212.4</ele>
        <time>2022-04-30T11:55:10Z</time>
      </trkpt>
      <trkpt lat="46.5677" lon="5.34674">
        <ele>212.2</ele>
        <time>2022-04-30T11:55:11Z</time>
      </trkpt>
      <trkpt lat="46.56777" lon="5.34692">
        <ele>212</ele>
        <time>2022-04-30T11:55:13Z</time>
      </trkpt>
      <trkpt lat="46.5678" lon="5.34701">
        <ele>212</ele>
        <time>2022-04-30T11:55:14Z</time>
      </trkpt>
      <trkpt lat="46.56791" lon="5.34749">
        <ele>211.8</ele>
        <time>2022-04-30T11:55:19Z</time>
      </trkpt>
      <trkpt lat="46.56806" lon="5.34827">
        <ele>211.6</ele>
        <time>2022-04-30T11:55:27Z</time>
      </trkpt>
      <trkpt lat="46.56807" lon="5.34837">
        <ele>211.6</ele>
        <time>2022-04-30T11:55:28Z</time>
      </trkpt>
      <trkpt lat="46.56821" lon="5.34911">
        <ele>211.6</ele>
        <time>2022-04-30T11:55:36Z</time>
      </trkpt>
      <trkpt lat="46.56831" lon="5.34966">
        <ele>212.4</ele>
        <time>2022-04-30T11:55:43Z</time>
      </trkpt>
      <trkpt lat="46.56836" lon="5.34985">
        <ele>212.8</ele>
        <time>2022-04-30T11:55:46Z</time>
      </trkpt>
      <trkpt lat="46.56841" lon="5.34998">
        <ele>213</ele>
        <time>2022-04-30T11:55:48Z</time>
      </trkpt>
      <trkpt lat="46.56843" lon="5.35003">
        <ele>213.4</ele>
        <time>2022-04-30T11:55:49Z</time>
      </trkpt>
      <trkpt lat="46.56852" lon="5.35026">
        <ele>214.6</ele>
        <time>2022-04-30T11:55:53Z</time>
      </trkpt>
      <trkpt lat="46.56859" lon="5.35039">
        <ele>215.4</ele>
        <time>2022-04-30T11:55:56Z</time>
      </trkpt>
      <trkpt lat="46.56862" lon="5.35048">
        <ele>215.8</ele>
        <time>2022-04-30T11:55:58Z</time>
      </trkpt>
      <trkpt lat="46.56868" lon="5.35062">
        <ele>217</ele>
        <time>2022-04-30T11:56:01Z</time>
      </trkpt>
      <trkpt lat="46.5687" lon="5.35067">
        <ele>217.2</ele>
        <time>2022-04-30T11:56:02Z</time>
      </trkpt>
      <trkpt lat="46.56876" lon="5.35081">
        <ele>218.2</ele>
        <time>2022-04-30T11:56:05Z</time>
      </trkpt>
      <trkpt lat="46.56884" lon="5.351">
        <ele>219.4</ele>
        <time>2022-04-30T11:56:09Z</time>
      </trkpt>
      <trkpt lat="46.56887" lon="5.35105">
        <ele>219.6</ele>
        <time>2022-04-30T11:56:10Z</time>
      </trkpt>
      <trkpt lat="46.56891" lon="5.35113">
        <ele>220.4</ele>
        <time>2022-04-30T11:56:12Z</time>
      </trkpt>
      <trkpt lat="46.569" lon="5.3513">
        <ele>221.4</ele>
        <time>2022-04-30T11:56:16Z</time>
      </trkpt>
      <trkpt lat="46.56908" lon="5.35147">
        <ele>222.4</ele>
        <time>2022-04-30T11:56:20Z</time>
      </trkpt>
      <trkpt lat="46.56914" lon="5.35155">
        <ele>222.8</ele>
        <time>2022-04-30T11:56:22Z</time>
      </trkpt>
      <trkpt lat="46.56926" lon="5.35166">
        <ele>223.4</ele>
        <time>2022-04-30T11:56:25Z</time>
      </trkpt>
      <trkpt lat="46.56933" lon="5.35172">
        <ele>223.6</ele>
        <time>2022-04-30T11:56:27Z</time>
      </trkpt>
      <trkpt lat="46.56943" lon="5.3518">
        <ele>223.8</ele>
        <time>2022-04-30T11:56:32Z</time>
      </trkpt>
      <trkpt lat="46.56943" lon="5.3518">
        <ele>223.6</ele>
        <time>2022-04-30T11:56:34Z</time>
      </trkpt>
      <trkpt lat="46.56946" lon="5.35182">
        <ele>223.2</ele>
        <time>2022-04-30T11:57:19Z</time>
      </trkpt>
      <trkpt lat="46.56949" lon="5.35185">
        <ele>223.2</ele>
        <time>2022-04-30T11:57:20Z</time>
      </trkpt>
      <trkpt lat="46.56962" lon="5.35202">
        <ele>223.2</ele>
        <time>2022-04-30T11:57:23Z</time>
      </trkpt>
      <trkpt lat="46.5697" lon="5.3522">
        <ele>222.8</ele>
        <time>2022-04-30T11:57:25Z</time>
      </trkpt>
      <trkpt lat="46.56975" lon="5.35241">
        <ele>222.4</ele>
        <time>2022-04-30T11:57:27Z</time>
      </trkpt>
      <trkpt lat="46.56988" lon="5.35296">
        <ele>221.6</ele>
        <time>2022-04-30T11:57:32Z</time>
      </trkpt>
      <trkpt lat="46.56991" lon="5.35307">
        <ele>221</ele>
        <time>2022-04-30T11:57:33Z</time>
      </trkpt>
      <trkpt lat="46.57001" lon="5.35338">
        <ele>220</ele>
        <time>2022-04-30T11:57:36Z</time>
      </trkpt>
      <trkpt lat="46.57014" lon="5.35377">
        <ele>219.2</ele>
        <time>2022-04-30T11:57:40Z</time>
      </trkpt>
      <trkpt lat="46.57021" lon="5.35396">
        <ele>219</ele>
        <time>2022-04-30T11:57:42Z</time>
      </trkpt>
      <trkpt lat="46.57035" lon="5.35457">
        <ele>218.2</ele>
        <time>2022-04-30T11:57:48Z</time>
      </trkpt>
      <trkpt lat="46.57036" lon="5.35467">
        <ele>218</ele>
        <time>2022-04-30T11:57:49Z</time>
      </trkpt>
      <trkpt lat="46.57041" lon="5.35517">
        <ele>217.8</ele>
        <time>2022-04-30T11:57:54Z</time>
      </trkpt>
      <trkpt lat="46.57049" lon="5.35601">
        <ele>217.8</ele>
        <time>2022-04-30T11:58:02Z</time>
      </trkpt>
      <trkpt lat="46.5706" lon="5.3563">
        <ele>217.4</ele>
        <time>2022-04-30T11:58:05Z</time>
      </trkpt>
      <trkpt lat="46.57065" lon="5.35638">
        <ele>217.4</ele>
        <time>2022-04-30T11:58:06Z</time>
      </trkpt>
      <trkpt lat="46.57094" lon="5.35677">
        <ele>217</ele>
        <time>2022-04-30T11:58:12Z</time>
      </trkpt>
      <trkpt lat="46.57099" lon="5.35684">
        <ele>217</ele>
        <time>2022-04-30T11:58:13Z</time>
      </trkpt>
      <trkpt lat="46.57107" lon="5.35698">
        <ele>217</ele>
        <time>2022-04-30T11:58:15Z</time>
      </trkpt>
      <trkpt lat="46.5711" lon="5.35704">
        <ele>217</ele>
        <time>2022-04-30T11:58:16Z</time>
      </trkpt>
      <trkpt lat="46.57118" lon="5.35717">
        <ele>217.2</ele>
        <time>2022-04-30T11:58:18Z</time>
      </trkpt>
      <trkpt lat="46.57134" lon="5.35733">
        <ele>217.2</ele>
        <time>2022-04-30T11:58:21Z</time>
      </trkpt>
      <trkpt lat="46.57177" lon="5.3576">
        <ele>216.6</ele>
        <time>2022-04-30T11:58:28Z</time>
      </trkpt>
      <trkpt lat="46.57231" lon="5.35791">
        <ele>216.4</ele>
        <time>2022-04-30T11:58:37Z</time>
      </trkpt>
      <trkpt lat="46.57273" lon="5.35817">
        <ele>216.4</ele>
        <time>2022-04-30T11:58:44Z</time>
      </trkpt>
      <trkpt lat="46.57289" lon="5.35828">
        <ele>216.4</ele>
        <time>2022-04-30T11:58:47Z</time>
      </trkpt>
      <trkpt lat="46.57306" lon="5.35834">
        <ele>216.6</ele>
        <time>2022-04-30T11:58:50Z</time>
      </trkpt>
      <trkpt lat="46.57335" lon="5.35839">
        <ele>217</ele>
        <time>2022-04-30T11:58:55Z</time>
      </trkpt>
      <trkpt lat="46.57341" lon="5.35839">
        <ele>217</ele>
        <time>2022-04-30T11:58:56Z</time>
      </trkpt>
      <trkpt lat="46.57351" lon="5.35837">
        <ele>217.2</ele>
        <time>2022-04-30T11:58:58Z</time>
      </trkpt>
      <trkpt lat="46.57361" lon="5.35828">
        <ele>217.2</ele>
        <time>2022-04-30T11:59:00Z</time>
      </trkpt>
      <trkpt lat="46.57387" lon="5.35791">
        <ele>217.8</ele>
        <time>2022-04-30T11:59:07Z</time>
      </trkpt>
      <trkpt lat="46.57396" lon="5.35769">
        <ele>218.2</ele>
        <time>2022-04-30T11:59:11Z</time>
      </trkpt>
      <trkpt lat="46.57403" lon="5.35759">
        <ele>218.6</ele>
        <time>2022-04-30T11:59:13Z</time>
      </trkpt>
      <trkpt lat="46.57406" lon="5.35754">
        <ele>219</ele>
        <time>2022-04-30T11:59:14Z</time>
      </trkpt>
      <trkpt lat="46.57416" lon="5.35746">
        <ele>219.2</ele>
        <time>2022-04-30T11:59:16Z</time>
      </trkpt>
      <trkpt lat="46.57433" lon="5.35735">
        <ele>219.4</ele>
        <time>2022-04-30T11:59:19Z</time>
      </trkpt>
      <trkpt lat="46.57464" lon="5.35715">
        <ele>219.2</ele>
        <time>2022-04-30T11:59:23Z</time>
      </trkpt>
      <trkpt lat="46.57488" lon="5.357">
        <ele>217.8</ele>
        <time>2022-04-30T11:59:26Z</time>
      </trkpt>
      <trkpt lat="46.57505" lon="5.35689">
        <ele>216.6</ele>
        <time>2022-04-30T11:59:28Z</time>
      </trkpt>
      <trkpt lat="46.57521" lon="5.35678">
        <ele>215.6</ele>
        <time>2022-04-30T11:59:30Z</time>
      </trkpt>
      <trkpt lat="46.57536" lon="5.35664">
        <ele>215.2</ele>
        <time>2022-04-30T11:59:32Z</time>
      </trkpt>
      <trkpt lat="46.57549" lon="5.35647">
        <ele>214</ele>
        <time>2022-04-30T11:59:34Z</time>
      </trkpt>
      <trkpt lat="46.57568" lon="5.35619">
        <ele>212.8</ele>
        <time>2022-04-30T11:59:37Z</time>
      </trkpt>
      <trkpt lat="46.5758" lon="5.35602">
        <ele>212.2</ele>
        <time>2022-04-30T11:59:39Z</time>
      </trkpt>
      <trkpt lat="46.57588" lon="5.35595">
        <ele>211.6</ele>
        <time>2022-04-30T11:59:40Z</time>
      </trkpt>
      <trkpt lat="46.57595" lon="5.35589">
        <ele>211.4</ele>
        <time>2022-04-30T11:59:41Z</time>
      </trkpt>
      <trkpt lat="46.57617" lon="5.3557">
        <ele>210.6</ele>
        <time>2022-04-30T11:59:44Z</time>
      </trkpt>
      <trkpt lat="46.57637" lon="5.3555">
        <ele>210.2</ele>
        <time>2022-04-30T11:59:47Z</time>
      </trkpt>
      <trkpt lat="46.57668" lon="5.35522">
        <ele>210</ele>
        <time>2022-04-30T11:59:52Z</time>
      </trkpt>
      <trkpt lat="46.57705" lon="5.35497">
        <ele>210.4</ele>
        <time>2022-04-30T11:59:58Z</time>
      </trkpt>
      <trkpt lat="46.5772" lon="5.35487">
        <ele>210.6</ele>
        <time>2022-04-30T12:00:01Z</time>
      </trkpt>
      <trkpt lat="46.57729" lon="5.35481">
        <ele>210.8</ele>
        <time>2022-04-30T12:00:03Z</time>
      </trkpt>
      <trkpt lat="46.57737" lon="5.35475">
        <ele>211.2</ele>
        <time>2022-04-30T12:00:05Z</time>
      </trkpt>
      <trkpt lat="46.57746" lon="5.35469">
        <ele>212</ele>
        <time>2022-04-30T12:00:07Z</time>
      </trkpt>
      <trkpt lat="46.57753" lon="5.35464">
        <ele>212.6</ele>
        <time>2022-04-30T12:00:09Z</time>
      </trkpt>
      <trkpt lat="46.57758" lon="5.35461">
        <ele>213.2</ele>
        <time>2022-04-30T12:00:10Z</time>
      </trkpt>
      <trkpt lat="46.57765" lon="5.35456">
        <ele>213.8</ele>
        <time>2022-04-30T12:00:12Z</time>
      </trkpt>
      <trkpt lat="46.57772" lon="5.3545">
        <ele>214.6</ele>
        <time>2022-04-30T12:00:14Z</time>
      </trkpt>
      <trkpt lat="46.57779" lon="5.35444">
        <ele>215</ele>
        <time>2022-04-30T12:00:16Z</time>
      </trkpt>
      <trkpt lat="46.57787" lon="5.35439">
        <ele>215.6</ele>
        <time>2022-04-30T12:00:18Z</time>
      </trkpt>
      <trkpt lat="46.57802" lon="5.35429">
        <ele>216.8</ele>
        <time>2022-04-30T12:00:22Z</time>
      </trkpt>
      <trkpt lat="46.57805" lon="5.35427">
        <ele>217.2</ele>
        <time>2022-04-30T12:00:23Z</time>
      </trkpt>
      <trkpt lat="46.57809" lon="5.35426">
        <ele>217.4</ele>
        <time>2022-04-30T12:00:24Z</time>
      </trkpt>
      <trkpt lat="46.57813" lon="5.35427">
        <ele>217.8</ele>
        <time>2022-04-30T12:00:25Z</time>
      </trkpt>
      <trkpt lat="46.57818" lon="5.35429">
        <ele>218.4</ele>
        <time>2022-04-30T12:00:26Z</time>
      </trkpt>
      <trkpt lat="46.57824" lon="5.35438">
        <ele>219</ele>
        <time>2022-04-30T12:00:28Z</time>
      </trkpt>
      <trkpt lat="46.57825" lon="5.35444">
        <ele>219.2</ele>
        <time>2022-04-30T12:00:29Z</time>
      </trkpt>
      <trkpt lat="46.57827" lon="5.35458">
        <ele>219.6</ele>
        <time>2022-04-30T12:00:31Z</time>
      </trkpt>
      <trkpt lat="46.57828" lon="5.35472">
        <ele>220</ele>
        <time>2022-04-30T12:00:33Z</time>
      </trkpt>
      <trkpt lat="46.5783" lon="5.35487">
        <ele>220.2</ele>
        <time>2022-04-30T12:00:35Z</time>
      </trkpt>
      <trkpt lat="46.57834" lon="5.35503">
        <ele>220.4</ele>
        <time>2022-04-30T12:00:37Z</time>
      </trkpt>
      <trkpt lat="46.57844" lon="5.35531">
        <ele>220.4</ele>
        <time>2022-04-30T12:00:40Z</time>
      </trkpt>
      <trkpt lat="46.5787" lon="5.35591">
        <ele>218.8</ele>
        <time>2022-04-30T12:00:46Z</time>
      </trkpt>
      <trkpt lat="46.57874" lon="5.35602">
        <ele>218.4</ele>
        <time>2022-04-30T12:00:47Z</time>
      </trkpt>
      <trkpt lat="46.57878" lon="5.35625">
        <ele>218</ele>
        <time>2022-04-30T12:00:49Z</time>
      </trkpt>
      <trkpt lat="46.57879" lon="5.35636">
        <ele>217.8</ele>
        <time>2022-04-30T12:00:50Z</time>
      </trkpt>
      <trkpt lat="46.57884" lon="5.35673">
        <ele>217.6</ele>
        <time>2022-04-30T12:00:54Z</time>
      </trkpt>
      <trkpt lat="46.57888" lon="5.35689">
        <ele>217.6</ele>
        <time>2022-04-30T12:00:56Z</time>
      </trkpt>
      <trkpt lat="46.57897" lon="5.35712">
        <ele>218</ele>
        <time>2022-04-30T12:00:59Z</time>
      </trkpt>
      <trkpt lat="46.57928" lon="5.35774">
        <ele>218.8</ele>
        <time>2022-04-30T12:01:08Z</time>
      </trkpt>
      <trkpt lat="46.57934" lon="5.3579">
        <ele>218.8</ele>
        <time>2022-04-30T12:01:10Z</time>
      </trkpt>
      <trkpt lat="46.57938" lon="5.35811">
        <ele>218.8</ele>
        <time>2022-04-30T12:01:12Z</time>
      </trkpt>
      <trkpt lat="46.57938" lon="5.35834">
        <ele>218.6</ele>
        <time>2022-04-30T12:01:14Z</time>
      </trkpt>
      <trkpt lat="46.57936" lon="5.35844">
        <ele>218.4</ele>
        <time>2022-04-30T12:01:15Z</time>
      </trkpt>
      <trkpt lat="46.57922" lon="5.35893">
        <ele>217.2</ele>
        <time>2022-04-30T12:01:20Z</time>
      </trkpt>
      <trkpt lat="46.57917" lon="5.35912">
        <ele>216.8</ele>
        <time>2022-04-30T12:01:22Z</time>
      </trkpt>
      <trkpt lat="46.57911" lon="5.35955">
        <ele>216.4</ele>
        <time>2022-04-30T12:01:26Z</time>
      </trkpt>
      <trkpt lat="46.57915" lon="5.35977">
        <ele>215.8</ele>
        <time>2022-04-30T12:01:28Z</time>
      </trkpt>
      <trkpt lat="46.5792" lon="5.35986">
        <ele>215.8</ele>
        <time>2022-04-30T12:01:29Z</time>
      </trkpt>
      <trkpt lat="46.57926" lon="5.35994">
        <ele>215.6</ele>
        <time>2022-04-30T12:01:30Z</time>
      </trkpt>
      <trkpt lat="46.57941" lon="5.36007">
        <ele>215</ele>
        <time>2022-04-30T12:01:32Z</time>
      </trkpt>
      <trkpt lat="46.57954" lon="5.36019">
        <ele>214.6</ele>
        <time>2022-04-30T12:01:34Z</time>
      </trkpt>
      <trkpt lat="46.57961" lon="5.36025">
        <ele>214.6</ele>
        <time>2022-04-30T12:01:35Z</time>
      </trkpt>
      <trkpt lat="46.57972" lon="5.36038">
        <ele>214.4</ele>
        <time>2022-04-30T12:01:37Z</time>
      </trkpt>
      <trkpt lat="46.57995" lon="5.36078">
        <ele>214.2</ele>
        <time>2022-04-30T12:01:42Z</time>
      </trkpt>
      <trkpt lat="46.5801" lon="5.36112">
        <ele>214.8</ele>
        <time>2022-04-30T12:01:46Z</time>
      </trkpt>
      <trkpt lat="46.58016" lon="5.36128">
        <ele>215.2</ele>
        <time>2022-04-30T12:01:48Z</time>
      </trkpt>
      <trkpt lat="46.5802" lon="5.36144">
        <ele>215.4</ele>
        <time>2022-04-30T12:01:50Z</time>
      </trkpt>
      <trkpt lat="46.58024" lon="5.36159">
        <ele>215.8</ele>
        <time>2022-04-30T12:01:52Z</time>
      </trkpt>
      <trkpt lat="46.58026" lon="5.36186">
        <ele>216.4</ele>
        <time>2022-04-30T12:01:55Z</time>
      </trkpt>
      <trkpt lat="46.58025" lon="5.36195">
        <ele>216.4</ele>
        <time>2022-04-30T12:01:56Z</time>
      </trkpt>
      <trkpt lat="46.58022" lon="5.36221">
        <ele>216.6</ele>
        <time>2022-04-30T12:01:59Z</time>
      </trkpt>
      <trkpt lat="46.58021" lon="5.36247">
        <ele>216.8</ele>
        <time>2022-04-30T12:02:02Z</time>
      </trkpt>
      <trkpt lat="46.58021" lon="5.36273">
        <ele>216.8</ele>
        <time>2022-04-30T12:02:05Z</time>
      </trkpt>
      <trkpt lat="46.58022" lon="5.36291">
        <ele>217</ele>
        <time>2022-04-30T12:02:07Z</time>
      </trkpt>
      <trkpt lat="46.58022" lon="5.36299">
        <ele>217.2</ele>
        <time>2022-04-30T12:02:08Z</time>
      </trkpt>
      <trkpt lat="46.58023" lon="5.36318">
        <ele>217.4</ele>
        <time>2022-04-30T12:02:10Z</time>
      </trkpt>
      <trkpt lat="46.58025" lon="5.36326">
        <ele>217.4</ele>
        <time>2022-04-30T12:02:11Z</time>
      </trkpt>
      <trkpt lat="46.58027" lon="5.36335">
        <ele>217.4</ele>
        <time>2022-04-30T12:02:12Z</time>
      </trkpt>
      <trkpt lat="46.58034" lon="5.36351">
        <ele>217.4</ele>
        <time>2022-04-30T12:02:14Z</time>
      </trkpt>
      <trkpt lat="46.58038" lon="5.36358">
        <ele>217.4</ele>
        <time>2022-04-30T12:02:15Z</time>
      </trkpt>
      <trkpt lat="46.58045" lon="5.36371">
        <ele>217.4</ele>
        <time>2022-04-30T12:02:17Z</time>
      </trkpt>
      <trkpt lat="46.58062" lon="5.36395">
        <ele>217</ele>
        <time>2022-04-30T12:02:21Z</time>
      </trkpt>
      <trkpt lat="46.58065" lon="5.36402">
        <ele>217</ele>
        <time>2022-04-30T12:02:22Z</time>
      </trkpt>
      <trkpt lat="46.58081" lon="5.3643">
        <ele>217</ele>
        <time>2022-04-30T12:02:26Z</time>
      </trkpt>
      <trkpt lat="46.58107" lon="5.3648">
        <ele>217.6</ele>
        <time>2022-04-30T12:02:33Z</time>
      </trkpt>
      <trkpt lat="46.5812" lon="5.3651">
        <ele>217.8</ele>
        <time>2022-04-30T12:02:37Z</time>
      </trkpt>
      <trkpt lat="46.58125" lon="5.36534">
        <ele>217.8</ele>
        <time>2022-04-30T12:02:40Z</time>
      </trkpt>
      <trkpt lat="46.58127" lon="5.36559">
        <ele>217.8</ele>
        <time>2022-04-30T12:02:43Z</time>
      </trkpt>
      <trkpt lat="46.58127" lon="5.36583">
        <ele>218</ele>
        <time>2022-04-30T12:02:46Z</time>
      </trkpt>
      <trkpt lat="46.58127" lon="5.36591">
        <ele>218</ele>
        <time>2022-04-30T12:02:47Z</time>
      </trkpt>
      <trkpt lat="46.58128" lon="5.36599">
        <ele>218.2</ele>
        <time>2022-04-30T12:02:48Z</time>
      </trkpt>
      <trkpt lat="46.5813" lon="5.36607">
        <ele>218.2</ele>
        <time>2022-04-30T12:02:49Z</time>
      </trkpt>
      <trkpt lat="46.58132" lon="5.36615">
        <ele>218.4</ele>
        <time>2022-04-30T12:02:50Z</time>
      </trkpt>
      <trkpt lat="46.58134" lon="5.36623">
        <ele>218.6</ele>
        <time>2022-04-30T12:02:51Z</time>
      </trkpt>
      <trkpt lat="46.58147" lon="5.36661">
        <ele>218.8</ele>
        <time>2022-04-30T12:02:56Z</time>
      </trkpt>
      <trkpt lat="46.58174" lon="5.36722">
        <ele>218.6</ele>
        <time>2022-04-30T12:03:04Z</time>
      </trkpt>
      <trkpt lat="46.58202" lon="5.36792">
        <ele>218.6</ele>
        <time>2022-04-30T12:03:13Z</time>
      </trkpt>
      <trkpt lat="46.58205" lon="5.36799">
        <ele>218.6</ele>
        <time>2022-04-30T12:03:14Z</time>
      </trkpt>
      <trkpt lat="46.58228" lon="5.36855">
        <ele>219</ele>
        <time>2022-04-30T12:03:22Z</time>
      </trkpt>
      <trkpt lat="46.58252" lon="5.36917">
        <ele>219.4</ele>
        <time>2022-04-30T12:03:31Z</time>
      </trkpt>
      <trkpt lat="46.58269" lon="5.36956">
        <ele>220.2</ele>
        <time>2022-04-30T12:03:37Z</time>
      </trkpt>
      <trkpt lat="46.58276" lon="5.36968">
        <ele>220.4</ele>
        <time>2022-04-30T12:03:39Z</time>
      </trkpt>
      <trkpt lat="46.58289" lon="5.36984">
        <ele>221</ele>
        <time>2022-04-30T12:03:42Z</time>
      </trkpt>
      <trkpt lat="46.58298" lon="5.3699">
        <ele>221.2</ele>
        <time>2022-04-30T12:03:44Z</time>
      </trkpt>
      <trkpt lat="46.58318" lon="5.37">
        <ele>221.6</ele>
        <time>2022-04-30T12:03:48Z</time>
      </trkpt>
      <trkpt lat="46.58344" lon="5.37015">
        <ele>222</ele>
        <time>2022-04-30T12:03:54Z</time>
      </trkpt>
      <trkpt lat="46.58354" lon="5.3702">
        <ele>222.8</ele>
        <time>2022-04-30T12:03:56Z</time>
      </trkpt>
      <trkpt lat="46.58385" lon="5.37036">
        <ele>223.8</ele>
        <time>2022-04-30T12:04:03Z</time>
      </trkpt>
      <trkpt lat="46.58394" lon="5.3704">
        <ele>224.2</ele>
        <time>2022-04-30T12:04:05Z</time>
      </trkpt>
      <trkpt lat="46.58413" lon="5.37047">
        <ele>224.8</ele>
        <time>2022-04-30T12:04:09Z</time>
      </trkpt>
      <trkpt lat="46.58434" lon="5.37057">
        <ele>225.6</ele>
        <time>2022-04-30T12:04:14Z</time>
      </trkpt>
      <trkpt lat="46.58442" lon="5.37061">
        <ele>226</ele>
        <time>2022-04-30T12:04:16Z</time>
      </trkpt>
      <trkpt lat="46.58462" lon="5.37072">
        <ele>227.2</ele>
        <time>2022-04-30T12:04:21Z</time>
      </trkpt>
      <trkpt lat="46.58466" lon="5.37074">
        <ele>227.4</ele>
        <time>2022-04-30T12:04:22Z</time>
      </trkpt>
      <trkpt lat="46.58482" lon="5.37084">
        <ele>228.2</ele>
        <time>2022-04-30T12:04:26Z</time>
      </trkpt>
      <trkpt lat="46.58497" lon="5.37097">
        <ele>229</ele>
        <time>2022-04-30T12:04:30Z</time>
      </trkpt>
      <trkpt lat="46.58511" lon="5.37112">
        <ele>229.4</ele>
        <time>2022-04-30T12:04:34Z</time>
      </trkpt>
      <trkpt lat="46.58524" lon="5.37128">
        <ele>229.4</ele>
        <time>2022-04-30T12:04:37Z</time>
      </trkpt>
      <trkpt lat="46.58547" lon="5.37163">
        <ele>229.4</ele>
        <time>2022-04-30T12:04:42Z</time>
      </trkpt>
      <trkpt lat="46.58565" lon="5.37204">
        <ele>228.2</ele>
        <time>2022-04-30T12:04:47Z</time>
      </trkpt>
      <trkpt lat="46.58568" lon="5.37212">
        <ele>228</ele>
        <time>2022-04-30T12:04:48Z</time>
      </trkpt>
      <trkpt lat="46.58592" lon="5.37286">
        <ele>227.6</ele>
        <time>2022-04-30T12:04:57Z</time>
      </trkpt>
      <trkpt lat="46.58609" lon="5.3736">
        <ele>227.6</ele>
        <time>2022-04-30T12:05:06Z</time>
      </trkpt>
      <trkpt lat="46.58611" lon="5.37368">
        <ele>227.8</ele>
        <time>2022-04-30T12:05:07Z</time>
      </trkpt>
      <trkpt lat="46.5863" lon="5.37444">
        <ele>227.6</ele>
        <time>2022-04-30T12:05:16Z</time>
      </trkpt>
      <trkpt lat="46.58652" lon="5.3749">
        <ele>227.4</ele>
        <time>2022-04-30T12:05:22Z</time>
      </trkpt>
      <trkpt lat="46.58681" lon="5.37533">
        <ele>227.4</ele>
        <time>2022-04-30T12:05:29Z</time>
      </trkpt>
      <trkpt lat="46.58726" lon="5.3759">
        <ele>228.4</ele>
        <time>2022-04-30T12:05:39Z</time>
      </trkpt>
      <trkpt lat="46.58754" lon="5.37626">
        <ele>229.4</ele>
        <time>2022-04-30T12:05:46Z</time>
      </trkpt>
      <trkpt lat="46.58774" lon="5.37654">
        <ele>230.4</ele>
        <time>2022-04-30T12:05:51Z</time>
      </trkpt>
      <trkpt lat="46.58781" lon="5.37665">
        <ele>230.6</ele>
        <time>2022-04-30T12:05:53Z</time>
      </trkpt>
      <trkpt lat="46.58784" lon="5.37671">
        <ele>230.6</ele>
        <time>2022-04-30T12:05:54Z</time>
      </trkpt>
      <trkpt lat="46.58799" lon="5.377">
        <ele>231.6</ele>
        <time>2022-04-30T12:05:58Z</time>
      </trkpt>
      <trkpt lat="46.58806" lon="5.37714">
        <ele>231.8</ele>
        <time>2022-04-30T12:06:00Z</time>
      </trkpt>
      <trkpt lat="46.58813" lon="5.37728">
        <ele>232</ele>
        <time>2022-04-30T12:06:02Z</time>
      </trkpt>
      <trkpt lat="46.58846" lon="5.37799">
        <ele>232.2</ele>
        <time>2022-04-30T12:06:12Z</time>
      </trkpt>
      <trkpt lat="46.58879" lon="5.3785">
        <ele>232.4</ele>
        <time>2022-04-30T12:06:20Z</time>
      </trkpt>
      <trkpt lat="46.58917" lon="5.37884">
        <ele>232.4</ele>
        <time>2022-04-30T12:06:27Z</time>
      </trkpt>
      <trkpt lat="46.58945" lon="5.37906">
        <ele>232.2</ele>
        <time>2022-04-30T12:06:32Z</time>
      </trkpt>
      <trkpt lat="46.58955" lon="5.37918">
        <ele>232.2</ele>
        <time>2022-04-30T12:06:34Z</time>
      </trkpt>
      <trkpt lat="46.58976" lon="5.37968">
        <ele>231.8</ele>
        <time>2022-04-30T12:06:40Z</time>
      </trkpt>
      <trkpt lat="46.59002" lon="5.38039">
        <ele>231.2</ele>
        <time>2022-04-30T12:06:48Z</time>
      </trkpt>
      <trkpt lat="46.59008" lon="5.38057">
        <ele>231.2</ele>
        <time>2022-04-30T12:06:50Z</time>
      </trkpt>
      <trkpt lat="46.59033" lon="5.38127">
        <ele>231.4</ele>
        <time>2022-04-30T12:06:58Z</time>
      </trkpt>
      <trkpt lat="46.59036" lon="5.38136">
        <ele>231.4</ele>
        <time>2022-04-30T12:06:59Z</time>
      </trkpt>
      <trkpt lat="46.59061" lon="5.38203">
        <ele>231.2</ele>
        <time>2022-04-30T12:07:07Z</time>
      </trkpt>
      <trkpt lat="46.59084" lon="5.38269">
        <ele>231</ele>
        <time>2022-04-30T12:07:15Z</time>
      </trkpt>
      <trkpt lat="46.59089" lon="5.38285">
        <ele>231</ele>
        <time>2022-04-30T12:07:17Z</time>
      </trkpt>
      <trkpt lat="46.5911" lon="5.38351">
        <ele>231</ele>
        <time>2022-04-30T12:07:25Z</time>
      </trkpt>
      <trkpt lat="46.59122" lon="5.38385">
        <ele>230.8</ele>
        <time>2022-04-30T12:07:29Z</time>
      </trkpt>
      <trkpt lat="46.5913" lon="5.3841">
        <ele>230.6</ele>
        <time>2022-04-30T12:07:32Z</time>
      </trkpt>
      <trkpt lat="46.59143" lon="5.38449">
        <ele>230.6</ele>
        <time>2022-04-30T12:07:37Z</time>
      </trkpt>
      <trkpt lat="46.59146" lon="5.38456">
        <ele>230.6</ele>
        <time>2022-04-30T12:07:38Z</time>
      </trkpt>
      <trkpt lat="46.59177" lon="5.38506">
        <ele>231.4</ele>
        <time>2022-04-30T12:07:46Z</time>
      </trkpt>
      <trkpt lat="46.59201" lon="5.38535">
        <ele>232.2</ele>
        <time>2022-04-30T12:07:52Z</time>
      </trkpt>
      <trkpt lat="46.59205" lon="5.38539">
        <ele>232.4</ele>
        <time>2022-04-30T12:07:53Z</time>
      </trkpt>
      <trkpt lat="46.5923" lon="5.38566">
        <ele>233.4</ele>
        <time>2022-04-30T12:07:59Z</time>
      </trkpt>
      <trkpt lat="46.59239" lon="5.38575">
        <ele>233.6</ele>
        <time>2022-04-30T12:08:01Z</time>
      </trkpt>
      <trkpt lat="46.59269" lon="5.38607">
        <ele>233.8</ele>
        <time>2022-04-30T12:08:07Z</time>
      </trkpt>
      <trkpt lat="46.59309" lon="5.3865">
        <ele>233.4</ele>
        <time>2022-04-30T12:08:15Z</time>
      </trkpt>
      <trkpt lat="46.59352" lon="5.38697">
        <ele>233.2</ele>
        <time>2022-04-30T12:08:24Z</time>
      </trkpt>
      <trkpt lat="46.59393" lon="5.38742">
        <ele>233.4</ele>
        <time>2022-04-30T12:08:33Z</time>
      </trkpt>
      <trkpt lat="46.5943" lon="5.38781">
        <ele>233.6</ele>
        <time>2022-04-30T12:08:41Z</time>
      </trkpt>
      <trkpt lat="46.59441" lon="5.38801">
        <ele>233.6</ele>
        <time>2022-04-30T12:08:44Z</time>
      </trkpt>
      <trkpt lat="46.59446" lon="5.38817">
        <ele>233.8</ele>
        <time>2022-04-30T12:08:46Z</time>
      </trkpt>
      <trkpt lat="46.59449" lon="5.3885">
        <ele>233.8</ele>
        <time>2022-04-30T12:08:50Z</time>
      </trkpt>
      <trkpt lat="46.59449" lon="5.38858">
        <ele>233.8</ele>
        <time>2022-04-30T12:08:51Z</time>
      </trkpt>
      <trkpt lat="46.59452" lon="5.38892">
        <ele>233.8</ele>
        <time>2022-04-30T12:08:55Z</time>
      </trkpt>
      <trkpt lat="46.59456" lon="5.3891">
        <ele>233.8</ele>
        <time>2022-04-30T12:08:57Z</time>
      </trkpt>
      <trkpt lat="46.59474" lon="5.38959">
        <ele>233.4</ele>
        <time>2022-04-30T12:09:03Z</time>
      </trkpt>
      <trkpt lat="46.59484" lon="5.39023">
        <ele>233</ele>
        <time>2022-04-30T12:09:10Z</time>
      </trkpt>
      <trkpt lat="46.59493" lon="5.39104">
        <ele>232.8</ele>
        <time>2022-04-30T12:09:19Z</time>
      </trkpt>
      <trkpt lat="46.59501" lon="5.39165">
        <ele>232.8</ele>
        <time>2022-04-30T12:09:26Z</time>
      </trkpt>
      <trkpt lat="46.59503" lon="5.39173">
        <ele>233</ele>
        <time>2022-04-30T12:09:27Z</time>
      </trkpt>
      <trkpt lat="46.59506" lon="5.39181">
        <ele>233</ele>
        <time>2022-04-30T12:09:28Z</time>
      </trkpt>
      <trkpt lat="46.59513" lon="5.39195">
        <ele>233.4</ele>
        <time>2022-04-30T12:09:30Z</time>
      </trkpt>
      <trkpt lat="46.59523" lon="5.39206">
        <ele>233.6</ele>
        <time>2022-04-30T12:09:32Z</time>
      </trkpt>
      <trkpt lat="46.59534" lon="5.39211">
        <ele>233.8</ele>
        <time>2022-04-30T12:09:34Z</time>
      </trkpt>
      <trkpt lat="46.59546" lon="5.39212">
        <ele>233.8</ele>
        <time>2022-04-30T12:09:36Z</time>
      </trkpt>
      <trkpt lat="46.59576" lon="5.39207">
        <ele>234</ele>
        <time>2022-04-30T12:09:41Z</time>
      </trkpt>
      <trkpt lat="46.59592" lon="5.39199">
        <ele>234.2</ele>
        <time>2022-04-30T12:09:44Z</time>
      </trkpt>
      <trkpt lat="46.59598" lon="5.39197">
        <ele>234.6</ele>
        <time>2022-04-30T12:09:45Z</time>
      </trkpt>
      <trkpt lat="46.59622" lon="5.39189">
        <ele>234.6</ele>
        <time>2022-04-30T12:09:49Z</time>
      </trkpt>
      <trkpt lat="46.59628" lon="5.39189">
        <ele>234.6</ele>
        <time>2022-04-30T12:09:50Z</time>
      </trkpt>
      <trkpt lat="46.5964" lon="5.39189">
        <ele>234.8</ele>
        <time>2022-04-30T12:09:52Z</time>
      </trkpt>
      <trkpt lat="46.59669" lon="5.39195">
        <ele>235.2</ele>
        <time>2022-04-30T12:09:57Z</time>
      </trkpt>
      <trkpt lat="46.59692" lon="5.39199">
        <ele>235.8</ele>
        <time>2022-04-30T12:10:01Z</time>
      </trkpt>
      <trkpt lat="46.59713" lon="5.39203">
        <ele>236.2</ele>
        <time>2022-04-30T12:10:05Z</time>
      </trkpt>
      <trkpt lat="46.59718" lon="5.39205">
        <ele>236.2</ele>
        <time>2022-04-30T12:10:06Z</time>
      </trkpt>
      <trkpt lat="46.59723" lon="5.39209">
        <ele>236.2</ele>
        <time>2022-04-30T12:10:07Z</time>
      </trkpt>
      <trkpt lat="46.59736" lon="5.39223">
        <ele>236.4</ele>
        <time>2022-04-30T12:10:10Z</time>
      </trkpt>
      <trkpt lat="46.59744" lon="5.39223">
        <ele>236.4</ele>
        <time>2022-04-30T12:10:12Z</time>
      </trkpt>
      <trkpt lat="46.5975" lon="5.3922">
        <ele>236.2</ele>
        <time>2022-04-30T12:10:13Z</time>
      </trkpt>
      <trkpt lat="46.59767" lon="5.39205">
        <ele>236.2</ele>
        <time>2022-04-30T12:10:16Z</time>
      </trkpt>
      <trkpt lat="46.59774" lon="5.39201">
        <ele>236.2</ele>
        <time>2022-04-30T12:10:17Z</time>
      </trkpt>
      <trkpt lat="46.59801" lon="5.39193">
        <ele>235.6</ele>
        <time>2022-04-30T12:10:21Z</time>
      </trkpt>
      <trkpt lat="46.59808" lon="5.39193">
        <ele>235.4</ele>
        <time>2022-04-30T12:10:22Z</time>
      </trkpt>
      <trkpt lat="46.59854" lon="5.39199">
        <ele>234.8</ele>
        <time>2022-04-30T12:10:29Z</time>
      </trkpt>
      <trkpt lat="46.59867" lon="5.39199">
        <ele>234.8</ele>
        <time>2022-04-30T12:10:31Z</time>
      </trkpt>
      <trkpt lat="46.59893" lon="5.39193">
        <ele>234.8</ele>
        <time>2022-04-30T12:10:35Z</time>
      </trkpt>
      <trkpt lat="46.59933" lon="5.39185">
        <ele>234.4</ele>
        <time>2022-04-30T12:10:41Z</time>
      </trkpt>
      <trkpt lat="46.59971" lon="5.39186">
        <ele>233.6</ele>
        <time>2022-04-30T12:10:46Z</time>
      </trkpt>
      <trkpt lat="46.59978" lon="5.39188">
        <ele>233.6</ele>
        <time>2022-04-30T12:10:47Z</time>
      </trkpt>
      <trkpt lat="46.60006" lon="5.392">
        <ele>232.6</ele>
        <time>2022-04-30T12:10:51Z</time>
      </trkpt>
      <trkpt lat="46.60012" lon="5.39204">
        <ele>232.4</ele>
        <time>2022-04-30T12:10:52Z</time>
      </trkpt>
      <trkpt lat="46.6003" lon="5.39223">
        <ele>232</ele>
        <time>2022-04-30T12:10:55Z</time>
      </trkpt>
      <trkpt lat="46.60035" lon="5.39232">
        <ele>232</ele>
        <time>2022-04-30T12:10:56Z</time>
      </trkpt>
      <trkpt lat="46.6004" lon="5.39241">
        <ele>231.8</ele>
        <time>2022-04-30T12:10:57Z</time>
      </trkpt>
      <trkpt lat="46.60048" lon="5.39264">
        <ele>231.4</ele>
        <time>2022-04-30T12:10:59Z</time>
      </trkpt>
      <trkpt lat="46.60053" lon="5.3929">
        <ele>230.6</ele>
        <time>2022-04-30T12:11:01Z</time>
      </trkpt>
      <trkpt lat="46.60054" lon="5.39303">
        <ele>230.2</ele>
        <time>2022-04-30T12:11:02Z</time>
      </trkpt>
      <trkpt lat="46.60053" lon="5.39317">
        <ele>230</ele>
        <time>2022-04-30T12:11:03Z</time>
      </trkpt>
      <trkpt lat="46.60053" lon="5.39331">
        <ele>228.8</ele>
        <time>2022-04-30T12:11:04Z</time>
      </trkpt>
      <trkpt lat="46.60048" lon="5.39371">
        <ele>227.6</ele>
        <time>2022-04-30T12:11:07Z</time>
      </trkpt>
      <trkpt lat="46.60043" lon="5.39396">
        <ele>226.6</ele>
        <time>2022-04-30T12:11:09Z</time>
      </trkpt>
      <trkpt lat="46.60037" lon="5.3943">
        <ele>226.2</ele>
        <time>2022-04-30T12:11:12Z</time>
      </trkpt>
      <trkpt lat="46.60034" lon="5.39461">
        <ele>226</ele>
        <time>2022-04-30T12:11:15Z</time>
      </trkpt>
      <trkpt lat="46.60036" lon="5.39481">
        <ele>226</ele>
        <time>2022-04-30T12:11:17Z</time>
      </trkpt>
      <trkpt lat="46.60042" lon="5.39501">
        <ele>226</ele>
        <time>2022-04-30T12:11:19Z</time>
      </trkpt>
      <trkpt lat="46.60054" lon="5.39531">
        <ele>226</ele>
        <time>2022-04-30T12:11:22Z</time>
      </trkpt>
      <trkpt lat="46.60077" lon="5.39581">
        <ele>225.4</ele>
        <time>2022-04-30T12:11:27Z</time>
      </trkpt>
      <trkpt lat="46.60084" lon="5.39603">
        <ele>224.8</ele>
        <time>2022-04-30T12:11:29Z</time>
      </trkpt>
      <trkpt lat="46.60088" lon="5.39627">
        <ele>224.2</ele>
        <time>2022-04-30T12:11:31Z</time>
      </trkpt>
      <trkpt lat="46.60088" lon="5.39637">
        <ele>223.8</ele>
        <time>2022-04-30T12:11:32Z</time>
      </trkpt>
      <trkpt lat="46.60087" lon="5.39653">
        <ele>223.4</ele>
        <time>2022-04-30T12:11:33Z</time>
      </trkpt>
      <trkpt lat="46.60085" lon="5.39665">
        <ele>222.6</ele>
        <time>2022-04-30T12:11:34Z</time>
      </trkpt>
      <trkpt lat="46.60081" lon="5.39677">
        <ele>222.4</ele>
        <time>2022-04-30T12:11:35Z</time>
      </trkpt>
      <trkpt lat="46.60076" lon="5.39688">
        <ele>221.6</ele>
        <time>2022-04-30T12:11:36Z</time>
      </trkpt>
      <trkpt lat="46.60066" lon="5.3971">
        <ele>220.8</ele>
        <time>2022-04-30T12:11:38Z</time>
      </trkpt>
      <trkpt lat="46.60063" lon="5.39721">
        <ele>220.4</ele>
        <time>2022-04-30T12:11:39Z</time>
      </trkpt>
      <trkpt lat="46.60062" lon="5.39733">
        <ele>220.4</ele>
        <time>2022-04-30T12:11:40Z</time>
      </trkpt>
      <trkpt lat="46.60066" lon="5.39757">
        <ele>219.6</ele>
        <time>2022-04-30T12:11:42Z</time>
      </trkpt>
      <trkpt lat="46.60069" lon="5.39768">
        <ele>219.2</ele>
        <time>2022-04-30T12:11:43Z</time>
      </trkpt>
      <trkpt lat="46.60081" lon="5.39799">
        <ele>218.2</ele>
        <time>2022-04-30T12:11:46Z</time>
      </trkpt>
      <trkpt lat="46.60091" lon="5.39818">
        <ele>218</ele>
        <time>2022-04-30T12:11:48Z</time>
      </trkpt>
      <trkpt lat="46.60103" lon="5.39833">
        <ele>217.8</ele>
        <time>2022-04-30T12:11:50Z</time>
      </trkpt>
      <trkpt lat="46.60117" lon="5.39846">
        <ele>217.4</ele>
        <time>2022-04-30T12:11:52Z</time>
      </trkpt>
      <trkpt lat="46.60143" lon="5.39868">
        <ele>217.2</ele>
        <time>2022-04-30T12:11:56Z</time>
      </trkpt>
      <trkpt lat="46.60166" lon="5.39891">
        <ele>217</ele>
        <time>2022-04-30T12:12:00Z</time>
      </trkpt>
      <trkpt lat="46.60179" lon="5.39913">
        <ele>217</ele>
        <time>2022-04-30T12:12:03Z</time>
      </trkpt>
      <trkpt lat="46.60182" lon="5.39922">
        <ele>217</ele>
        <time>2022-04-30T12:12:04Z</time>
      </trkpt>
      <trkpt lat="46.60183" lon="5.39931">
        <ele>217</ele>
        <time>2022-04-30T12:12:05Z</time>
      </trkpt>
      <trkpt lat="46.60185" lon="5.39957">
        <ele>217</ele>
        <time>2022-04-30T12:12:08Z</time>
      </trkpt>
      <trkpt lat="46.60186" lon="5.39974">
        <ele>217.2</ele>
        <time>2022-04-30T12:12:10Z</time>
      </trkpt>
      <trkpt lat="46.60186" lon="5.39996">
        <ele>217.8</ele>
        <time>2022-04-30T12:12:13Z</time>
      </trkpt>
      <trkpt lat="46.60188" lon="5.40033">
        <ele>218.8</ele>
        <time>2022-04-30T12:12:18Z</time>
      </trkpt>
      <trkpt lat="46.60188" lon="5.40048">
        <ele>219.4</ele>
        <time>2022-04-30T12:12:20Z</time>
      </trkpt>
      <trkpt lat="46.6019" lon="5.40071">
        <ele>219.8</ele>
        <time>2022-04-30T12:12:23Z</time>
      </trkpt>
      <trkpt lat="46.60191" lon="5.40102">
        <ele>220</ele>
        <time>2022-04-30T12:12:27Z</time>
      </trkpt>
      <trkpt lat="46.60189" lon="5.40124">
        <ele>220.4</ele>
        <time>2022-04-30T12:12:30Z</time>
      </trkpt>
      <trkpt lat="46.60184" lon="5.40152">
        <ele>220.8</ele>
        <time>2022-04-30T12:12:34Z</time>
      </trkpt>
      <trkpt lat="46.60174" lon="5.40202">
        <ele>221.4</ele>
        <time>2022-04-30T12:12:40Z</time>
      </trkpt>
      <trkpt lat="46.60174" lon="5.4022">
        <ele>221.4</ele>
        <time>2022-04-30T12:12:42Z</time>
      </trkpt>
      <trkpt lat="46.60178" lon="5.40238">
        <ele>221.4</ele>
        <time>2022-04-30T12:12:44Z</time>
      </trkpt>
      <trkpt lat="46.60192" lon="5.40277">
        <ele>221</ele>
        <time>2022-04-30T12:12:49Z</time>
      </trkpt>
      <trkpt lat="46.60215" lon="5.40344">
        <ele>221</ele>
        <time>2022-04-30T12:12:58Z</time>
      </trkpt>
      <trkpt lat="46.60217" lon="5.40352">
        <ele>221</ele>
        <time>2022-04-30T12:12:59Z</time>
      </trkpt>
      <trkpt lat="46.6022" lon="5.40385">
        <ele>221.4</ele>
        <time>2022-04-30T12:13:03Z</time>
      </trkpt>
      <trkpt lat="46.60218" lon="5.4045">
        <ele>221</ele>
        <time>2022-04-30T12:13:09Z</time>
      </trkpt>
      <trkpt lat="46.60218" lon="5.40476">
        <ele>220.4</ele>
        <time>2022-04-30T12:13:11Z</time>
      </trkpt>
      <trkpt lat="46.60221" lon="5.405">
        <ele>219.6</ele>
        <time>2022-04-30T12:13:13Z</time>
      </trkpt>
      <trkpt lat="46.60229" lon="5.40536">
        <ele>218.2</ele>
        <time>2022-04-30T12:13:16Z</time>
      </trkpt>
      <trkpt lat="46.60235" lon="5.4057">
        <ele>217.6</ele>
        <time>2022-04-30T12:13:19Z</time>
      </trkpt>
      <trkpt lat="46.60236" lon="5.40582">
        <ele>217.2</ele>
        <time>2022-04-30T12:13:20Z</time>
      </trkpt>
      <trkpt lat="46.60235" lon="5.40593">
        <ele>217</ele>
        <time>2022-04-30T12:13:21Z</time>
      </trkpt>
      <trkpt lat="46.60233" lon="5.40604">
        <ele>216.8</ele>
        <time>2022-04-30T12:13:22Z</time>
      </trkpt>
      <trkpt lat="46.6023" lon="5.40614">
        <ele>216.8</ele>
        <time>2022-04-30T12:13:23Z</time>
      </trkpt>
      <trkpt lat="46.60222" lon="5.40634">
        <ele>216.6</ele>
        <time>2022-04-30T12:13:25Z</time>
      </trkpt>
      <trkpt lat="46.60218" lon="5.40642">
        <ele>216.6</ele>
        <time>2022-04-30T12:13:26Z</time>
      </trkpt>
      <trkpt lat="46.60194" lon="5.40683">
        <ele>216.2</ele>
        <time>2022-04-30T12:13:31Z</time>
      </trkpt>
      <trkpt lat="46.60181" lon="5.40709">
        <ele>215.8</ele>
        <time>2022-04-30T12:13:34Z</time>
      </trkpt>
      <trkpt lat="46.60175" lon="5.40728">
        <ele>215.8</ele>
        <time>2022-04-30T12:13:36Z</time>
      </trkpt>
      <trkpt lat="46.60172" lon="5.40749">
        <ele>215.6</ele>
        <time>2022-04-30T12:13:38Z</time>
      </trkpt>
      <trkpt lat="46.60171" lon="5.40759">
        <ele>215.4</ele>
        <time>2022-04-30T12:13:39Z</time>
      </trkpt>
      <trkpt lat="46.60174" lon="5.40781">
        <ele>215.4</ele>
        <time>2022-04-30T12:13:41Z</time>
      </trkpt>
      <trkpt lat="46.60176" lon="5.4079">
        <ele>215.4</ele>
        <time>2022-04-30T12:13:42Z</time>
      </trkpt>
      <trkpt lat="46.60179" lon="5.408">
        <ele>215.4</ele>
        <time>2022-04-30T12:13:43Z</time>
      </trkpt>
      <trkpt lat="46.60188" lon="5.40816">
        <ele>215.4</ele>
        <time>2022-04-30T12:13:45Z</time>
      </trkpt>
      <trkpt lat="46.60193" lon="5.40822">
        <ele>215.6</ele>
        <time>2022-04-30T12:13:46Z</time>
      </trkpt>
      <trkpt lat="46.60227" lon="5.40854">
        <ele>215.8</ele>
        <time>2022-04-30T12:13:52Z</time>
      </trkpt>
      <trkpt lat="46.60265" lon="5.40883">
        <ele>216</ele>
        <time>2022-04-30T12:13:59Z</time>
      </trkpt>
      <trkpt lat="46.60292" lon="5.40908">
        <ele>217</ele>
        <time>2022-04-30T12:14:05Z</time>
      </trkpt>
      <trkpt lat="46.60295" lon="5.40912">
        <ele>217.2</ele>
        <time>2022-04-30T12:14:06Z</time>
      </trkpt>
      <trkpt lat="46.60301" lon="5.40923">
        <ele>217.8</ele>
        <time>2022-04-30T12:14:08Z</time>
      </trkpt>
      <trkpt lat="46.60307" lon="5.40933">
        <ele>218.2</ele>
        <time>2022-04-30T12:14:10Z</time>
      </trkpt>
      <trkpt lat="46.60312" lon="5.40944">
        <ele>218.8</ele>
        <time>2022-04-30T12:14:12Z</time>
      </trkpt>
      <trkpt lat="46.60323" lon="5.40963">
        <ele>219.8</ele>
        <time>2022-04-30T12:14:16Z</time>
      </trkpt>
      <trkpt lat="46.60325" lon="5.40968">
        <ele>220</ele>
        <time>2022-04-30T12:14:17Z</time>
      </trkpt>
      <trkpt lat="46.60333" lon="5.40984">
        <ele>221.2</ele>
        <time>2022-04-30T12:14:21Z</time>
      </trkpt>
      <trkpt lat="46.60338" lon="5.40991">
        <ele>222.2</ele>
        <time>2022-04-30T12:14:23Z</time>
      </trkpt>
      <trkpt lat="46.60347" lon="5.41">
        <ele>223</ele>
        <time>2022-04-30T12:14:26Z</time>
      </trkpt>
      <trkpt lat="46.6035" lon="5.41003">
        <ele>223.4</ele>
        <time>2022-04-30T12:14:27Z</time>
      </trkpt>
      <trkpt lat="46.60366" lon="5.41011">
        <ele>224.4</ele>
        <time>2022-04-30T12:14:31Z</time>
      </trkpt>
      <trkpt lat="46.60376" lon="5.41019">
        <ele>225.4</ele>
        <time>2022-04-30T12:14:34Z</time>
      </trkpt>
      <trkpt lat="46.60384" lon="5.41025">
        <ele>225.8</ele>
        <time>2022-04-30T12:14:36Z</time>
      </trkpt>
      <trkpt lat="46.604" lon="5.41044">
        <ele>227</ele>
        <time>2022-04-30T12:14:41Z</time>
      </trkpt>
      <trkpt lat="46.60415" lon="5.41074">
        <ele>228</ele>
        <time>2022-04-30T12:14:47Z</time>
      </trkpt>
      <trkpt lat="46.60417" lon="5.4108">
        <ele>228.4</ele>
        <time>2022-04-30T12:14:48Z</time>
      </trkpt>
      <trkpt lat="46.60427" lon="5.41104">
        <ele>228.6</ele>
        <time>2022-04-30T12:14:52Z</time>
      </trkpt>
      <trkpt lat="46.60434" lon="5.41116">
        <ele>228.6</ele>
        <time>2022-04-30T12:14:54Z</time>
      </trkpt>
      <trkpt lat="46.60444" lon="5.41126">
        <ele>228.6</ele>
        <time>2022-04-30T12:14:56Z</time>
      </trkpt>
      <trkpt lat="46.60455" lon="5.41133">
        <ele>228.6</ele>
        <time>2022-04-30T12:14:58Z</time>
      </trkpt>
      <trkpt lat="46.60467" lon="5.41137">
        <ele>228</ele>
        <time>2022-04-30T12:15:00Z</time>
      </trkpt>
      <trkpt lat="46.60485" lon="5.4114">
        <ele>227.8</ele>
        <time>2022-04-30T12:15:03Z</time>
      </trkpt>
      <trkpt lat="46.60506" lon="5.41141">
        <ele>227.2</ele>
        <time>2022-04-30T12:15:06Z</time>
      </trkpt>
      <trkpt lat="46.60527" lon="5.41142">
        <ele>226.8</ele>
        <time>2022-04-30T12:15:09Z</time>
      </trkpt>
      <trkpt lat="46.60556" lon="5.41145">
        <ele>226</ele>
        <time>2022-04-30T12:15:13Z</time>
      </trkpt>
      <trkpt lat="46.6057" lon="5.41147">
        <ele>225.8</ele>
        <time>2022-04-30T12:15:15Z</time>
      </trkpt>
      <trkpt lat="46.60591" lon="5.41153">
        <ele>225</ele>
        <time>2022-04-30T12:15:18Z</time>
      </trkpt>
      <trkpt lat="46.60599" lon="5.41156">
        <ele>224.8</ele>
        <time>2022-04-30T12:15:19Z</time>
      </trkpt>
      <trkpt lat="46.60613" lon="5.4116">
        <ele>224.6</ele>
        <time>2022-04-30T12:15:21Z</time>
      </trkpt>
      <trkpt lat="46.60642" lon="5.41169">
        <ele>223.8</ele>
        <time>2022-04-30T12:15:25Z</time>
      </trkpt>
      <trkpt lat="46.60665" lon="5.41177">
        <ele>223.2</ele>
        <time>2022-04-30T12:15:28Z</time>
      </trkpt>
      <trkpt lat="46.60672" lon="5.4118">
        <ele>222.8</ele>
        <time>2022-04-30T12:15:29Z</time>
      </trkpt>
      <trkpt lat="46.60686" lon="5.41187">
        <ele>222.6</ele>
        <time>2022-04-30T12:15:31Z</time>
      </trkpt>
      <trkpt lat="46.60699" lon="5.41198">
        <ele>222.6</ele>
        <time>2022-04-30T12:15:33Z</time>
      </trkpt>
      <trkpt lat="46.6073" lon="5.41238">
        <ele>221.8</ele>
        <time>2022-04-30T12:15:39Z</time>
      </trkpt>
      <trkpt lat="46.60735" lon="5.41244">
        <ele>221.8</ele>
        <time>2022-04-30T12:15:40Z</time>
      </trkpt>
      <trkpt lat="46.60774" lon="5.41286">
        <ele>222.2</ele>
        <time>2022-04-30T12:15:48Z</time>
      </trkpt>
      <trkpt lat="46.60804" lon="5.41318">
        <ele>222</ele>
        <time>2022-04-30T12:15:53Z</time>
      </trkpt>
      <trkpt lat="46.60811" lon="5.41324">
        <ele>222</ele>
        <time>2022-04-30T12:15:54Z</time>
      </trkpt>
      <trkpt lat="46.60827" lon="5.41332">
        <ele>221.8</ele>
        <time>2022-04-30T12:15:56Z</time>
      </trkpt>
      <trkpt lat="46.60834" lon="5.41334">
        <ele>221</ele>
        <time>2022-04-30T12:15:57Z</time>
      </trkpt>
      <trkpt lat="46.60841" lon="5.41333">
        <ele>220.6</ele>
        <time>2022-04-30T12:15:58Z</time>
      </trkpt>
      <trkpt lat="46.60853" lon="5.41328">
        <ele>219</ele>
        <time>2022-04-30T12:16:00Z</time>
      </trkpt>
      <trkpt lat="46.60875" lon="5.41306">
        <ele>217.8</ele>
        <time>2022-04-30T12:16:04Z</time>
      </trkpt>
      <trkpt lat="46.60881" lon="5.41299">
        <ele>217.6</ele>
        <time>2022-04-30T12:16:05Z</time>
      </trkpt>
      <trkpt lat="46.60915" lon="5.41256">
        <ele>217</ele>
        <time>2022-04-30T12:16:11Z</time>
      </trkpt>
      <trkpt lat="46.60932" lon="5.41236">
        <ele>216.8</ele>
        <time>2022-04-30T12:16:14Z</time>
      </trkpt>
      <trkpt lat="46.60957" lon="5.41212">
        <ele>216.6</ele>
        <time>2022-04-30T12:16:18Z</time>
      </trkpt>
      <trkpt lat="46.61" lon="5.41171">
        <ele>215.6</ele>
        <time>2022-04-30T12:16:25Z</time>
      </trkpt>
      <trkpt lat="46.61006" lon="5.41166">
        <ele>215.6</ele>
        <time>2022-04-30T12:16:26Z</time>
      </trkpt>
      <trkpt lat="46.61024" lon="5.41155">
        <ele>215.4</ele>
        <time>2022-04-30T12:16:29Z</time>
      </trkpt>
      <trkpt lat="46.6103" lon="5.41153">
        <ele>215.6</ele>
        <time>2022-04-30T12:16:30Z</time>
      </trkpt>
      <trkpt lat="46.61036" lon="5.41152">
        <ele>215.4</ele>
        <time>2022-04-30T12:16:31Z</time>
      </trkpt>
      <trkpt lat="46.61048" lon="5.41157">
        <ele>215.4</ele>
        <time>2022-04-30T12:16:33Z</time>
      </trkpt>
      <trkpt lat="46.61054" lon="5.41172">
        <ele>215.6</ele>
        <time>2022-04-30T12:16:35Z</time>
      </trkpt>
      <trkpt lat="46.61075" lon="5.41244">
        <ele>215.2</ele>
        <time>2022-04-30T12:16:43Z</time>
      </trkpt>
      <trkpt lat="46.61095" lon="5.41282">
        <ele>214.8</ele>
        <time>2022-04-30T12:16:48Z</time>
      </trkpt>
      <trkpt lat="46.61099" lon="5.4129">
        <ele>214.8</ele>
        <time>2022-04-30T12:16:49Z</time>
      </trkpt>
      <trkpt lat="46.61106" lon="5.41306">
        <ele>214.8</ele>
        <time>2022-04-30T12:16:51Z</time>
      </trkpt>
      <trkpt lat="46.61113" lon="5.41332">
        <ele>214.8</ele>
        <time>2022-04-30T12:16:54Z</time>
      </trkpt>
      <trkpt lat="46.61116" lon="5.41359">
        <ele>214.6</ele>
        <time>2022-04-30T12:16:57Z</time>
      </trkpt>
      <trkpt lat="46.61118" lon="5.41388">
        <ele>214.4</ele>
        <time>2022-04-30T12:17:00Z</time>
      </trkpt>
      <trkpt lat="46.61129" lon="5.41452">
        <ele>214</ele>
        <time>2022-04-30T12:17:07Z</time>
      </trkpt>
      <trkpt lat="46.61138" lon="5.41477">
        <ele>214</ele>
        <time>2022-04-30T12:17:10Z</time>
      </trkpt>
      <trkpt lat="46.61153" lon="5.41508">
        <ele>214.2</ele>
        <time>2022-04-30T12:17:14Z</time>
      </trkpt>
      <trkpt lat="46.61187" lon="5.41562">
        <ele>214.4</ele>
        <time>2022-04-30T12:17:22Z</time>
      </trkpt>
      <trkpt lat="46.61219" lon="5.41618">
        <ele>214.8</ele>
        <time>2022-04-30T12:17:30Z</time>
      </trkpt>
      <trkpt lat="46.61247" lon="5.41678">
        <ele>215</ele>
        <time>2022-04-30T12:17:38Z</time>
      </trkpt>
      <trkpt lat="46.61285" lon="5.4174">
        <ele>214.8</ele>
        <time>2022-04-30T12:17:47Z</time>
      </trkpt>
      <trkpt lat="46.61325" lon="5.41796">
        <ele>215</ele>
        <time>2022-04-30T12:17:56Z</time>
      </trkpt>
      <trkpt lat="46.61348" lon="5.41827">
        <ele>214.6</ele>
        <time>2022-04-30T12:18:01Z</time>
      </trkpt>
      <trkpt lat="46.61391" lon="5.41878">
        <ele>214.8</ele>
        <time>2022-04-30T12:18:10Z</time>
      </trkpt>
      <trkpt lat="46.61396" lon="5.41883">
        <ele>214.8</ele>
        <time>2022-04-30T12:18:11Z</time>
      </trkpt>
      <trkpt lat="46.61413" lon="5.4191">
        <ele>215</ele>
        <time>2022-04-30T12:18:15Z</time>
      </trkpt>
      <trkpt lat="46.61442" lon="5.41971">
        <ele>215.2</ele>
        <time>2022-04-30T12:18:23Z</time>
      </trkpt>
      <trkpt lat="46.61474" lon="5.42041">
        <ele>215</ele>
        <time>2022-04-30T12:18:32Z</time>
      </trkpt>
      <trkpt lat="46.61482" lon="5.42054">
        <ele>215</ele>
        <time>2022-04-30T12:18:34Z</time>
      </trkpt>
      <trkpt lat="46.61497" lon="5.42072">
        <ele>215.2</ele>
        <time>2022-04-30T12:18:37Z</time>
      </trkpt>
      <trkpt lat="46.61515" lon="5.42109">
        <ele>215.2</ele>
        <time>2022-04-30T12:18:42Z</time>
      </trkpt>
      <trkpt lat="46.61538" lon="5.42176">
        <ele>215</ele>
        <time>2022-04-30T12:18:50Z</time>
      </trkpt>
      <trkpt lat="46.61555" lon="5.42247">
        <ele>215</ele>
        <time>2022-04-30T12:18:58Z</time>
      </trkpt>
      <trkpt lat="46.61566" lon="5.42329">
        <ele>215.4</ele>
        <time>2022-04-30T12:19:07Z</time>
      </trkpt>
      <trkpt lat="46.61572" lon="5.42392">
        <ele>215.4</ele>
        <time>2022-04-30T12:19:14Z</time>
      </trkpt>
      <trkpt lat="46.61582" lon="5.42436">
        <ele>215.6</ele>
        <time>2022-04-30T12:19:19Z</time>
      </trkpt>
      <trkpt lat="46.61599" lon="5.4248">
        <ele>216.4</ele>
        <time>2022-04-30T12:19:25Z</time>
      </trkpt>
      <trkpt lat="46.61605" lon="5.42494">
        <ele>216.6</ele>
        <time>2022-04-30T12:19:27Z</time>
      </trkpt>
      <trkpt lat="46.61608" lon="5.425">
        <ele>216.8</ele>
        <time>2022-04-30T12:19:28Z</time>
      </trkpt>
      <trkpt lat="46.61616" lon="5.42511">
        <ele>217</ele>
        <time>2022-04-30T12:19:30Z</time>
      </trkpt>
      <trkpt lat="46.6162" lon="5.42516">
        <ele>217.2</ele>
        <time>2022-04-30T12:19:31Z</time>
      </trkpt>
      <trkpt lat="46.61629" lon="5.42524">
        <ele>217.6</ele>
        <time>2022-04-30T12:19:33Z</time>
      </trkpt>
      <trkpt lat="46.61651" lon="5.42541">
        <ele>218.4</ele>
        <time>2022-04-30T12:19:38Z</time>
      </trkpt>
      <trkpt lat="46.6166" lon="5.42547">
        <ele>218.8</ele>
        <time>2022-04-30T12:19:40Z</time>
      </trkpt>
      <trkpt lat="46.61681" lon="5.42561">
        <ele>220</ele>
        <time>2022-04-30T12:19:45Z</time>
      </trkpt>
      <trkpt lat="46.61685" lon="5.42565">
        <ele>220.2</ele>
        <time>2022-04-30T12:19:46Z</time>
      </trkpt>
      <trkpt lat="46.61692" lon="5.42572">
        <ele>220.8</ele>
        <time>2022-04-30T12:19:48Z</time>
      </trkpt>
      <trkpt lat="46.61699" lon="5.4258">
        <ele>221</ele>
        <time>2022-04-30T12:19:50Z</time>
      </trkpt>
      <trkpt lat="46.61707" lon="5.42588">
        <ele>221.4</ele>
        <time>2022-04-30T12:19:52Z</time>
      </trkpt>
      <trkpt lat="46.61718" lon="5.42601">
        <ele>222.2</ele>
        <time>2022-04-30T12:19:55Z</time>
      </trkpt>
      <trkpt lat="46.61725" lon="5.42611">
        <ele>222.6</ele>
        <time>2022-04-30T12:19:57Z</time>
      </trkpt>
      <trkpt lat="46.61728" lon="5.42617">
        <ele>222.6</ele>
        <time>2022-04-30T12:19:58Z</time>
      </trkpt>
      <trkpt lat="46.61733" lon="5.42629">
        <ele>223</ele>
        <time>2022-04-30T12:20:00Z</time>
      </trkpt>
      <trkpt lat="46.61735" lon="5.42636">
        <ele>223.4</ele>
        <time>2022-04-30T12:20:01Z</time>
      </trkpt>
      <trkpt lat="46.61737" lon="5.42649">
        <ele>223.8</ele>
        <time>2022-04-30T12:20:03Z</time>
      </trkpt>
      <trkpt lat="46.61739" lon="5.42655">
        <ele>223.8</ele>
        <time>2022-04-30T12:20:04Z</time>
      </trkpt>
      <trkpt lat="46.61745" lon="5.42665">
        <ele>224</ele>
        <time>2022-04-30T12:20:06Z</time>
      </trkpt>
      <trkpt lat="46.61755" lon="5.42676">
        <ele>224.2</ele>
        <time>2022-04-30T12:20:09Z</time>
      </trkpt>
      <trkpt lat="46.61762" lon="5.42683">
        <ele>224.4</ele>
        <time>2022-04-30T12:20:11Z</time>
      </trkpt>
      <trkpt lat="46.61777" lon="5.42697">
        <ele>225.6</ele>
        <time>2022-04-30T12:20:15Z</time>
      </trkpt>
      <trkpt lat="46.6178" lon="5.427">
        <ele>225.6</ele>
        <time>2022-04-30T12:20:16Z</time>
      </trkpt>
      <trkpt lat="46.61805" lon="5.42718">
        <ele>226.6</ele>
        <time>2022-04-30T12:20:22Z</time>
      </trkpt>
      <trkpt lat="46.61809" lon="5.4272">
        <ele>226.8</ele>
        <time>2022-04-30T12:20:23Z</time>
      </trkpt>
      <trkpt lat="46.61822" lon="5.42729">
        <ele>227.8</ele>
        <time>2022-04-30T12:20:26Z</time>
      </trkpt>
      <trkpt lat="46.61837" lon="5.42736">
        <ele>228.2</ele>
        <time>2022-04-30T12:20:29Z</time>
      </trkpt>
      <trkpt lat="46.61856" lon="5.42746">
        <ele>228.8</ele>
        <time>2022-04-30T12:20:33Z</time>
      </trkpt>
      <trkpt lat="46.61871" lon="5.42754">
        <ele>229.2</ele>
        <time>2022-04-30T12:20:36Z</time>
      </trkpt>
      <trkpt lat="46.61903" lon="5.4278">
        <ele>229.8</ele>
        <time>2022-04-30T12:20:43Z</time>
      </trkpt>
      <trkpt lat="46.61929" lon="5.42814">
        <ele>230.2</ele>
        <time>2022-04-30T12:20:50Z</time>
      </trkpt>
      <trkpt lat="46.61952" lon="5.42853">
        <ele>231</ele>
        <time>2022-04-30T12:20:57Z</time>
      </trkpt>
      <trkpt lat="46.61955" lon="5.42858">
        <ele>231.2</ele>
        <time>2022-04-30T12:20:58Z</time>
      </trkpt>
      <trkpt lat="46.61983" lon="5.42898">
        <ele>232</ele>
        <time>2022-04-30T12:21:06Z</time>
      </trkpt>
      <trkpt lat="46.62003" lon="5.42923">
        <ele>232.4</ele>
        <time>2022-04-30T12:21:11Z</time>
      </trkpt>
      <trkpt lat="46.62012" lon="5.42933">
        <ele>232.4</ele>
        <time>2022-04-30T12:21:13Z</time>
      </trkpt>
      <trkpt lat="46.62016" lon="5.42938">
        <ele>232.6</ele>
        <time>2022-04-30T12:21:14Z</time>
      </trkpt>
      <trkpt lat="46.62047" lon="5.42966">
        <ele>232.8</ele>
        <time>2022-04-30T12:21:20Z</time>
      </trkpt>
      <trkpt lat="46.62091" lon="5.43003">
        <ele>231.4</ele>
        <time>2022-04-30T12:21:27Z</time>
      </trkpt>
      <trkpt lat="46.62097" lon="5.43007">
        <ele>231.2</ele>
        <time>2022-04-30T12:21:28Z</time>
      </trkpt>
      <trkpt lat="46.62128" lon="5.43035">
        <ele>230.2</ele>
        <time>2022-04-30T12:21:33Z</time>
      </trkpt>
      <trkpt lat="46.62134" lon="5.43041">
        <ele>230</ele>
        <time>2022-04-30T12:21:34Z</time>
      </trkpt>
      <trkpt lat="46.62148" lon="5.43063">
        <ele>229.6</ele>
        <time>2022-04-30T12:21:37Z</time>
      </trkpt>
      <trkpt lat="46.62156" lon="5.43079">
        <ele>229.4</ele>
        <time>2022-04-30T12:21:39Z</time>
      </trkpt>
      <trkpt lat="46.62173" lon="5.43118">
        <ele>230.2</ele>
        <time>2022-04-30T12:21:45Z</time>
      </trkpt>
      <trkpt lat="46.62179" lon="5.43136">
        <ele>230.4</ele>
        <time>2022-04-30T12:21:48Z</time>
      </trkpt>
      <trkpt lat="46.62186" lon="5.43154">
        <ele>231</ele>
        <time>2022-04-30T12:21:51Z</time>
      </trkpt>
      <trkpt lat="46.62202" lon="5.43196">
        <ele>231.6</ele>
        <time>2022-04-30T12:21:58Z</time>
      </trkpt>
      <trkpt lat="46.62216" lon="5.43226">
        <ele>232.6</ele>
        <time>2022-04-30T12:22:03Z</time>
      </trkpt>
      <trkpt lat="46.62233" lon="5.43257">
        <ele>233</ele>
        <time>2022-04-30T12:22:08Z</time>
      </trkpt>
      <trkpt lat="46.62241" lon="5.43269">
        <ele>233.2</ele>
        <time>2022-04-30T12:22:10Z</time>
      </trkpt>
      <trkpt lat="46.62255" lon="5.43286">
        <ele>232.8</ele>
        <time>2022-04-30T12:22:13Z</time>
      </trkpt>
      <trkpt lat="46.62289" lon="5.43322">
        <ele>232.2</ele>
        <time>2022-04-30T12:22:19Z</time>
      </trkpt>
      <trkpt lat="46.62326" lon="5.43362">
        <ele>231.6</ele>
        <time>2022-04-30T12:22:25Z</time>
      </trkpt>
      <trkpt lat="46.62333" lon="5.43369">
        <ele>231.4</ele>
        <time>2022-04-30T12:22:26Z</time>
      </trkpt>
      <trkpt lat="46.62382" lon="5.43423">
        <ele>230.6</ele>
        <time>2022-04-30T12:22:34Z</time>
      </trkpt>
      <trkpt lat="46.62407" lon="5.43449">
        <ele>230</ele>
        <time>2022-04-30T12:22:38Z</time>
      </trkpt>
      <trkpt lat="46.62443" lon="5.43488">
        <ele>229.4</ele>
        <time>2022-04-30T12:22:44Z</time>
      </trkpt>
      <trkpt lat="46.62466" lon="5.43514">
        <ele>229.2</ele>
        <time>2022-04-30T12:22:48Z</time>
      </trkpt>
      <trkpt lat="46.62511" lon="5.43564">
        <ele>229</ele>
        <time>2022-04-30T12:22:56Z</time>
      </trkpt>
      <trkpt lat="46.62529" lon="5.43582">
        <ele>229</ele>
        <time>2022-04-30T12:22:59Z</time>
      </trkpt>
      <trkpt lat="46.62546" lon="5.43602">
        <ele>228.8</ele>
        <time>2022-04-30T12:23:02Z</time>
      </trkpt>
      <trkpt lat="46.62564" lon="5.43621">
        <ele>228.4</ele>
        <time>2022-04-30T12:23:05Z</time>
      </trkpt>
      <trkpt lat="46.62577" lon="5.43634">
        <ele>228</ele>
        <time>2022-04-30T12:23:07Z</time>
      </trkpt>
      <trkpt lat="46.62595" lon="5.43655">
        <ele>227.2</ele>
        <time>2022-04-30T12:23:10Z</time>
      </trkpt>
      <trkpt lat="46.62607" lon="5.43669">
        <ele>226.8</ele>
        <time>2022-04-30T12:23:12Z</time>
      </trkpt>
      <trkpt lat="46.62612" lon="5.43677">
        <ele>226.8</ele>
        <time>2022-04-30T12:23:13Z</time>
      </trkpt>
      <trkpt lat="46.6262" lon="5.43697">
        <ele>226.2</ele>
        <time>2022-04-30T12:23:15Z</time>
      </trkpt>
      <trkpt lat="46.62623" lon="5.43707">
        <ele>226</ele>
        <time>2022-04-30T12:23:16Z</time>
      </trkpt>
      <trkpt lat="46.62625" lon="5.43718">
        <ele>225.8</ele>
        <time>2022-04-30T12:23:17Z</time>
      </trkpt>
      <trkpt lat="46.62628" lon="5.4375">
        <ele>225.2</ele>
        <time>2022-04-30T12:23:20Z</time>
      </trkpt>
      <trkpt lat="46.62628" lon="5.43771">
        <ele>225</ele>
        <time>2022-04-30T12:23:22Z</time>
      </trkpt>
      <trkpt lat="46.6263" lon="5.43835">
        <ele>224</ele>
        <time>2022-04-30T12:23:28Z</time>
      </trkpt>
      <trkpt lat="46.62634" lon="5.43886">
        <ele>224.2</ele>
        <time>2022-04-30T12:23:33Z</time>
      </trkpt>
      <trkpt lat="46.62637" lon="5.43895">
        <ele>224.2</ele>
        <time>2022-04-30T12:23:34Z</time>
      </trkpt>
      <trkpt lat="46.6264" lon="5.43903">
        <ele>224.2</ele>
        <time>2022-04-30T12:23:35Z</time>
      </trkpt>
      <trkpt lat="46.6265" lon="5.43916">
        <ele>224.2</ele>
        <time>2022-04-30T12:23:37Z</time>
      </trkpt>
      <trkpt lat="46.62671" lon="5.4394">
        <ele>225.2</ele>
        <time>2022-04-30T12:23:41Z</time>
      </trkpt>
      <trkpt lat="46.62696" lon="5.43972">
        <ele>225.6</ele>
        <time>2022-04-30T12:23:46Z</time>
      </trkpt>
      <trkpt lat="46.62724" lon="5.44024">
        <ele>226.2</ele>
        <time>2022-04-30T12:23:53Z</time>
      </trkpt>
      <trkpt lat="46.62727" lon="5.44032">
        <ele>226.4</ele>
        <time>2022-04-30T12:23:54Z</time>
      </trkpt>
      <trkpt lat="46.62742" lon="5.4408">
        <ele>227</ele>
        <time>2022-04-30T12:24:00Z</time>
      </trkpt>
      <trkpt lat="46.62744" lon="5.44087">
        <ele>227</ele>
        <time>2022-04-30T12:24:01Z</time>
      </trkpt>
      <trkpt lat="46.62751" lon="5.44106">
        <ele>227.2</ele>
        <time>2022-04-30T12:24:04Z</time>
      </trkpt>
      <trkpt lat="46.62754" lon="5.44112">
        <ele>227.4</ele>
        <time>2022-04-30T12:24:05Z</time>
      </trkpt>
      <trkpt lat="46.62763" lon="5.44131">
        <ele>228.6</ele>
        <time>2022-04-30T12:24:08Z</time>
      </trkpt>
      <trkpt lat="46.62774" lon="5.44148">
        <ele>229.6</ele>
        <time>2022-04-30T12:24:11Z</time>
      </trkpt>
      <trkpt lat="46.62778" lon="5.44154">
        <ele>229.6</ele>
        <time>2022-04-30T12:24:12Z</time>
      </trkpt>
      <trkpt lat="46.62802" lon="5.44185">
        <ele>229.6</ele>
        <time>2022-04-30T12:24:17Z</time>
      </trkpt>
      <trkpt lat="46.62812" lon="5.44201">
        <ele>229.4</ele>
        <time>2022-04-30T12:24:19Z</time>
      </trkpt>
      <trkpt lat="46.6282" lon="5.4422">
        <ele>229</ele>
        <time>2022-04-30T12:24:21Z</time>
      </trkpt>
      <trkpt lat="46.62828" lon="5.44241">
        <ele>228.6</ele>
        <time>2022-04-30T12:24:23Z</time>
      </trkpt>
      <trkpt lat="46.6284" lon="5.44274">
        <ele>227.2</ele>
        <time>2022-04-30T12:24:26Z</time>
      </trkpt>
      <trkpt lat="46.62844" lon="5.44297">
        <ele>226</ele>
        <time>2022-04-30T12:24:28Z</time>
      </trkpt>
      <trkpt lat="46.62845" lon="5.4432">
        <ele>225.2</ele>
        <time>2022-04-30T12:24:30Z</time>
      </trkpt>
      <trkpt lat="46.62845" lon="5.44343">
        <ele>224.8</ele>
        <time>2022-04-30T12:24:32Z</time>
      </trkpt>
      <trkpt lat="46.62845" lon="5.44409">
        <ele>224</ele>
        <time>2022-04-30T12:24:38Z</time>
      </trkpt>
      <trkpt lat="46.62845" lon="5.44482">
        <ele>224</ele>
        <time>2022-04-30T12:24:45Z</time>
      </trkpt>
      <trkpt lat="46.62843" lon="5.44491">
        <ele>224</ele>
        <time>2022-04-30T12:24:46Z</time>
      </trkpt>
      <trkpt lat="46.62838" lon="5.44509">
        <ele>224</ele>
        <time>2022-04-30T12:24:48Z</time>
      </trkpt>
      <trkpt lat="46.62835" lon="5.44517">
        <ele>224</ele>
        <time>2022-04-30T12:24:49Z</time>
      </trkpt>
      <trkpt lat="46.62827" lon="5.44531">
        <ele>224</ele>
        <time>2022-04-30T12:24:51Z</time>
      </trkpt>
      <trkpt lat="46.62822" lon="5.44547">
        <ele>223.8</ele>
        <time>2022-04-30T12:24:53Z</time>
      </trkpt>
      <trkpt lat="46.62823" lon="5.44557">
        <ele>223.8</ele>
        <time>2022-04-30T12:24:54Z</time>
      </trkpt>
      <trkpt lat="46.62826" lon="5.44566">
        <ele>223.6</ele>
        <time>2022-04-30T12:24:55Z</time>
      </trkpt>
      <trkpt lat="46.62836" lon="5.4458">
        <ele>223.6</ele>
        <time>2022-04-30T12:24:57Z</time>
      </trkpt>
      <trkpt lat="46.62841" lon="5.44585">
        <ele>223.4</ele>
        <time>2022-04-30T12:24:58Z</time>
      </trkpt>
      <trkpt lat="46.62849" lon="5.44589">
        <ele>223.4</ele>
        <time>2022-04-30T12:24:59Z</time>
      </trkpt>
      <trkpt lat="46.62862" lon="5.44592">
        <ele>223.2</ele>
        <time>2022-04-30T12:25:01Z</time>
      </trkpt>
      <trkpt lat="46.62875" lon="5.44594">
        <ele>223</ele>
        <time>2022-04-30T12:25:03Z</time>
      </trkpt>
      <trkpt lat="46.62888" lon="5.446">
        <ele>222.8</ele>
        <time>2022-04-30T12:25:05Z</time>
      </trkpt>
      <trkpt lat="46.62908" lon="5.44627">
        <ele>222.8</ele>
        <time>2022-04-30T12:25:09Z</time>
      </trkpt>
      <trkpt lat="46.62941" lon="5.44663">
        <ele>223.2</ele>
        <time>2022-04-30T12:25:15Z</time>
      </trkpt>
      <trkpt lat="46.62988" lon="5.44706">
        <ele>222.6</ele>
        <time>2022-04-30T12:25:23Z</time>
      </trkpt>
      <trkpt lat="46.63001" lon="5.44711">
        <ele>222.6</ele>
        <time>2022-04-30T12:25:25Z</time>
      </trkpt>
      <trkpt lat="46.63014" lon="5.44712">
        <ele>222.8</ele>
        <time>2022-04-30T12:25:27Z</time>
      </trkpt>
      <trkpt lat="46.63049" lon="5.44715">
        <ele>222.8</ele>
        <time>2022-04-30T12:25:32Z</time>
      </trkpt>
      <trkpt lat="46.63063" lon="5.4472">
        <ele>222.8</ele>
        <time>2022-04-30T12:25:34Z</time>
      </trkpt>
      <trkpt lat="46.63118" lon="5.44748">
        <ele>222.4</ele>
        <time>2022-04-30T12:25:43Z</time>
      </trkpt>
      <trkpt lat="46.6313" lon="5.44757">
        <ele>222.4</ele>
        <time>2022-04-30T12:25:45Z</time>
      </trkpt>
      <trkpt lat="46.63146" lon="5.44773">
        <ele>222.6</ele>
        <time>2022-04-30T12:25:48Z</time>
      </trkpt>
      <trkpt lat="46.63154" lon="5.44787">
        <ele>222.6</ele>
        <time>2022-04-30T12:25:50Z</time>
      </trkpt>
      <trkpt lat="46.63172" lon="5.44823">
        <ele>222.4</ele>
        <time>2022-04-30T12:25:55Z</time>
      </trkpt>
      <trkpt lat="46.63177" lon="5.44829">
        <ele>222.4</ele>
        <time>2022-04-30T12:25:56Z</time>
      </trkpt>
      <trkpt lat="46.63209" lon="5.44854">
        <ele>222.8</ele>
        <time>2022-04-30T12:26:02Z</time>
      </trkpt>
      <trkpt lat="46.63226" lon="5.44866">
        <ele>222.8</ele>
        <time>2022-04-30T12:26:05Z</time>
      </trkpt>
      <trkpt lat="46.6324" lon="5.44882">
        <ele>222.8</ele>
        <time>2022-04-30T12:26:08Z</time>
      </trkpt>
      <trkpt lat="46.63267" lon="5.44916">
        <ele>223.2</ele>
        <time>2022-04-30T12:26:14Z</time>
      </trkpt>
      <trkpt lat="46.63272" lon="5.4492">
        <ele>223.2</ele>
        <time>2022-04-30T12:26:15Z</time>
      </trkpt>
      <trkpt lat="46.633" lon="5.4494">
        <ele>223.6</ele>
        <time>2022-04-30T12:26:21Z</time>
      </trkpt>
      <trkpt lat="46.63309" lon="5.44945">
        <ele>224</ele>
        <time>2022-04-30T12:26:23Z</time>
      </trkpt>
      <trkpt lat="46.63326" lon="5.44957">
        <ele>224.8</ele>
        <time>2022-04-30T12:26:27Z</time>
      </trkpt>
      <trkpt lat="46.6333" lon="5.44959">
        <ele>225</ele>
        <time>2022-04-30T12:26:28Z</time>
      </trkpt>
      <trkpt lat="46.63351" lon="5.44971">
        <ele>226.2</ele>
        <time>2022-04-30T12:26:33Z</time>
      </trkpt>
      <trkpt lat="46.63369" lon="5.44977">
        <ele>227.2</ele>
        <time>2022-04-30T12:26:37Z</time>
      </trkpt>
      <trkpt lat="46.63382" lon="5.44977">
        <ele>227.6</ele>
        <time>2022-04-30T12:26:40Z</time>
      </trkpt>
      <trkpt lat="46.634" lon="5.44974">
        <ele>228.4</ele>
        <time>2022-04-30T12:26:44Z</time>
      </trkpt>
      <trkpt lat="46.63418" lon="5.44974">
        <ele>229.2</ele>
        <time>2022-04-30T12:26:48Z</time>
      </trkpt>
      <trkpt lat="46.63427" lon="5.44977">
        <ele>229.8</ele>
        <time>2022-04-30T12:26:50Z</time>
      </trkpt>
      <trkpt lat="46.63449" lon="5.44988">
        <ele>230.6</ele>
        <time>2022-04-30T12:26:55Z</time>
      </trkpt>
      <trkpt lat="46.63457" lon="5.44992">
        <ele>230.8</ele>
        <time>2022-04-30T12:26:57Z</time>
      </trkpt>
      <trkpt lat="46.63474" lon="5.45003">
        <ele>231.8</ele>
        <time>2022-04-30T12:27:01Z</time>
      </trkpt>
      <trkpt lat="46.63478" lon="5.45006">
        <ele>232.2</ele>
        <time>2022-04-30T12:27:02Z</time>
      </trkpt>
      <trkpt lat="46.63499" lon="5.45023">
        <ele>233</ele>
        <time>2022-04-30T12:27:07Z</time>
      </trkpt>
      <trkpt lat="46.63514" lon="5.45039">
        <ele>233.6</ele>
        <time>2022-04-30T12:27:11Z</time>
      </trkpt>
      <trkpt lat="46.63528" lon="5.45058">
        <ele>234</ele>
        <time>2022-04-30T12:27:15Z</time>
      </trkpt>
      <trkpt lat="46.63553" lon="5.45094">
        <ele>235.2</ele>
        <time>2022-04-30T12:27:22Z</time>
      </trkpt>
      <trkpt lat="46.63579" lon="5.45129">
        <ele>235</ele>
        <time>2022-04-30T12:27:28Z</time>
      </trkpt>
      <trkpt lat="46.636" lon="5.45167">
        <ele>234</ele>
        <time>2022-04-30T12:27:33Z</time>
      </trkpt>
      <trkpt lat="46.63617" lon="5.45216">
        <ele>232.8</ele>
        <time>2022-04-30T12:27:38Z</time>
      </trkpt>
      <trkpt lat="46.63621" lon="5.45227">
        <ele>232.4</ele>
        <time>2022-04-30T12:27:39Z</time>
      </trkpt>
      <trkpt lat="46.63639" lon="5.4527">
        <ele>231.6</ele>
        <time>2022-04-30T12:27:43Z</time>
      </trkpt>
      <trkpt lat="46.63644" lon="5.45281">
        <ele>231.4</ele>
        <time>2022-04-30T12:27:44Z</time>
      </trkpt>
      <trkpt lat="46.63651" lon="5.45291">
        <ele>230.6</ele>
        <time>2022-04-30T12:27:45Z</time>
      </trkpt>
      <trkpt lat="46.63658" lon="5.453">
        <ele>230.2</ele>
        <time>2022-04-30T12:27:46Z</time>
      </trkpt>
      <trkpt lat="46.63677" lon="5.45331">
        <ele>229.2</ele>
        <time>2022-04-30T12:27:49Z</time>
      </trkpt>
      <trkpt lat="46.63691" lon="5.45369">
        <ele>227.6</ele>
        <time>2022-04-30T12:27:52Z</time>
      </trkpt>
      <trkpt lat="46.63694" lon="5.45383">
        <ele>227.2</ele>
        <time>2022-04-30T12:27:53Z</time>
      </trkpt>
      <trkpt lat="46.63701" lon="5.4541">
        <ele>226.4</ele>
        <time>2022-04-30T12:27:55Z</time>
      </trkpt>
      <trkpt lat="46.63715" lon="5.45476">
        <ele>225.4</ele>
        <time>2022-04-30T12:28:00Z</time>
      </trkpt>
      <trkpt lat="46.63718" lon="5.45489">
        <ele>225.2</ele>
        <time>2022-04-30T12:28:01Z</time>
      </trkpt>
      <trkpt lat="46.63738" lon="5.45573">
        <ele>224.6</ele>
        <time>2022-04-30T12:28:08Z</time>
      </trkpt>
      <trkpt lat="46.63744" lon="5.45595">
        <ele>224.4</ele>
        <time>2022-04-30T12:28:10Z</time>
      </trkpt>
      <trkpt lat="46.63758" lon="5.45636">
        <ele>224.4</ele>
        <time>2022-04-30T12:28:14Z</time>
      </trkpt>
      <trkpt lat="46.63763" lon="5.45644">
        <ele>224.4</ele>
        <time>2022-04-30T12:28:15Z</time>
      </trkpt>
      <trkpt lat="46.63802" lon="5.45712">
        <ele>224.6</ele>
        <time>2022-04-30T12:28:23Z</time>
      </trkpt>
      <trkpt lat="46.63825" lon="5.45756">
        <ele>224.4</ele>
        <time>2022-04-30T12:28:28Z</time>
      </trkpt>
      <trkpt lat="46.63846" lon="5.45797">
        <ele>224.2</ele>
        <time>2022-04-30T12:28:33Z</time>
      </trkpt>
      <trkpt lat="46.63855" lon="5.45815">
        <ele>224.2</ele>
        <time>2022-04-30T12:28:35Z</time>
      </trkpt>
      <trkpt lat="46.63861" lon="5.45834">
        <ele>224.2</ele>
        <time>2022-04-30T12:28:37Z</time>
      </trkpt>
      <trkpt lat="46.63863" lon="5.45845">
        <ele>224.2</ele>
        <time>2022-04-30T12:28:38Z</time>
      </trkpt>
      <trkpt lat="46.63863" lon="5.45856">
        <ele>224.2</ele>
        <time>2022-04-30T12:28:39Z</time>
      </trkpt>
      <trkpt lat="46.63863" lon="5.45896">
        <ele>224.4</ele>
        <time>2022-04-30T12:28:43Z</time>
      </trkpt>
      <trkpt lat="46.6387" lon="5.45956">
        <ele>224.4</ele>
        <time>2022-04-30T12:28:49Z</time>
      </trkpt>
      <trkpt lat="46.63885" lon="5.46041">
        <ele>225.2</ele>
        <time>2022-04-30T12:28:58Z</time>
      </trkpt>
      <trkpt lat="46.63886" lon="5.4605">
        <ele>225.2</ele>
        <time>2022-04-30T12:28:59Z</time>
      </trkpt>
      <trkpt lat="46.63892" lon="5.46076">
        <ele>225.4</ele>
        <time>2022-04-30T12:29:02Z</time>
      </trkpt>
      <trkpt lat="46.63899" lon="5.46101">
        <ele>225.4</ele>
        <time>2022-04-30T12:29:05Z</time>
      </trkpt>
      <trkpt lat="46.63908" lon="5.46152">
        <ele>225.4</ele>
        <time>2022-04-30T12:29:11Z</time>
      </trkpt>
      <trkpt lat="46.6391" lon="5.46168">
        <ele>225.6</ele>
        <time>2022-04-30T12:29:13Z</time>
      </trkpt>
      <trkpt lat="46.63917" lon="5.46216">
        <ele>226.4</ele>
        <time>2022-04-30T12:29:19Z</time>
      </trkpt>
      <trkpt lat="46.6392" lon="5.46231">
        <ele>226.6</ele>
        <time>2022-04-30T12:29:21Z</time>
      </trkpt>
      <trkpt lat="46.63921" lon="5.46239">
        <ele>226.8</ele>
        <time>2022-04-30T12:29:22Z</time>
      </trkpt>
      <trkpt lat="46.63923" lon="5.46262">
        <ele>227.2</ele>
        <time>2022-04-30T12:29:25Z</time>
      </trkpt>
      <trkpt lat="46.63924" lon="5.46277">
        <ele>227.6</ele>
        <time>2022-04-30T12:29:27Z</time>
      </trkpt>
      <trkpt lat="46.6393" lon="5.46323">
        <ele>228.2</ele>
        <time>2022-04-30T12:29:33Z</time>
      </trkpt>
      <trkpt lat="46.63935" lon="5.46337">
        <ele>228.4</ele>
        <time>2022-04-30T12:29:35Z</time>
      </trkpt>
      <trkpt lat="46.63941" lon="5.4635">
        <ele>228.6</ele>
        <time>2022-04-30T12:29:37Z</time>
      </trkpt>
      <trkpt lat="46.63945" lon="5.46355">
        <ele>228.8</ele>
        <time>2022-04-30T12:29:38Z</time>
      </trkpt>
      <trkpt lat="46.63983" lon="5.46402">
        <ele>229.2</ele>
        <time>2022-04-30T12:29:47Z</time>
      </trkpt>
      <trkpt lat="46.63992" lon="5.46412">
        <ele>229.2</ele>
        <time>2022-04-30T12:29:49Z</time>
      </trkpt>
      <trkpt lat="46.64003" lon="5.4642">
        <ele>229.2</ele>
        <time>2022-04-30T12:29:51Z</time>
      </trkpt>
      <trkpt lat="46.64015" lon="5.46425">
        <ele>229.4</ele>
        <time>2022-04-30T12:29:53Z</time>
      </trkpt>
      <trkpt lat="46.64065" lon="5.46448">
        <ele>229.4</ele>
        <time>2022-04-30T12:30:01Z</time>
      </trkpt>
      <trkpt lat="46.64121" lon="5.4647">
        <ele>229</ele>
        <time>2022-04-30T12:30:10Z</time>
      </trkpt>
      <trkpt lat="46.64132" lon="5.46477">
        <ele>229</ele>
        <time>2022-04-30T12:30:12Z</time>
      </trkpt>
      <trkpt lat="46.64143" lon="5.46487">
        <ele>229</ele>
        <time>2022-04-30T12:30:14Z</time>
      </trkpt>
      <trkpt lat="46.64151" lon="5.46501">
        <ele>228.8</ele>
        <time>2022-04-30T12:30:16Z</time>
      </trkpt>
      <trkpt lat="46.64154" lon="5.46507">
        <ele>228.8</ele>
        <time>2022-04-30T12:30:17Z</time>
      </trkpt>
      <trkpt lat="46.64172" lon="5.46546">
        <ele>228.8</ele>
        <time>2022-04-30T12:30:22Z</time>
      </trkpt>
      <trkpt lat="46.64183" lon="5.46568">
        <ele>228.8</ele>
        <time>2022-04-30T12:30:25Z</time>
      </trkpt>
      <trkpt lat="46.64192" lon="5.46581">
        <ele>228.8</ele>
        <time>2022-04-30T12:30:27Z</time>
      </trkpt>
      <trkpt lat="46.64202" lon="5.46589">
        <ele>228.8</ele>
        <time>2022-04-30T12:30:29Z</time>
      </trkpt>
      <trkpt lat="46.64215" lon="5.46594">
        <ele>229</ele>
        <time>2022-04-30T12:30:31Z</time>
      </trkpt>
      <trkpt lat="46.64265" lon="5.46601">
        <ele>229.2</ele>
        <time>2022-04-30T12:30:39Z</time>
      </trkpt>
      <trkpt lat="46.64298" lon="5.4661">
        <ele>229.6</ele>
        <time>2022-04-30T12:30:45Z</time>
      </trkpt>
      <trkpt lat="46.64303" lon="5.46611">
        <ele>229.6</ele>
        <time>2022-04-30T12:30:46Z</time>
      </trkpt>
      <trkpt lat="46.64313" lon="5.46614">
        <ele>229.8</ele>
        <time>2022-04-30T12:30:48Z</time>
      </trkpt>
      <trkpt lat="46.64322" lon="5.46616">
        <ele>230</ele>
        <time>2022-04-30T12:30:50Z</time>
      </trkpt>
      <trkpt lat="46.64344" lon="5.46621">
        <ele>231</ele>
        <time>2022-04-30T12:30:54Z</time>
      </trkpt>
      <trkpt lat="46.64348" lon="5.46621">
        <ele>230.8</ele>
        <time>2022-04-30T12:30:55Z</time>
      </trkpt>
      <trkpt lat="46.64359" lon="5.46621">
        <ele>231.2</ele>
        <time>2022-04-30T12:30:57Z</time>
      </trkpt>
      <trkpt lat="46.64397" lon="5.46615">
        <ele>231.8</ele>
        <time>2022-04-30T12:31:04Z</time>
      </trkpt>
      <trkpt lat="46.64414" lon="5.46614">
        <ele>231.4</ele>
        <time>2022-04-30T12:31:07Z</time>
      </trkpt>
      <trkpt lat="46.64423" lon="5.46617">
        <ele>231.2</ele>
        <time>2022-04-30T12:31:09Z</time>
      </trkpt>
      <trkpt lat="46.6443" lon="5.46626">
        <ele>231</ele>
        <time>2022-04-30T12:31:11Z</time>
      </trkpt>
      <trkpt lat="46.64432" lon="5.46632">
        <ele>230.8</ele>
        <time>2022-04-30T12:31:12Z</time>
      </trkpt>
      <trkpt lat="46.64432" lon="5.4664">
        <ele>230.8</ele>
        <time>2022-04-30T12:31:13Z</time>
      </trkpt>
      <trkpt lat="46.64432" lon="5.46654">
        <ele>231</ele>
        <time>2022-04-30T12:31:15Z</time>
      </trkpt>
      <trkpt lat="46.64431" lon="5.46692">
        <ele>231</ele>
        <time>2022-04-30T12:31:20Z</time>
      </trkpt>
      <trkpt lat="46.6443" lon="5.46707">
        <ele>231.2</ele>
        <time>2022-04-30T12:31:22Z</time>
      </trkpt>
      <trkpt lat="46.64429" lon="5.46734">
        <ele>232.4</ele>
        <time>2022-04-30T12:31:26Z</time>
      </trkpt>
      <trkpt lat="46.64428" lon="5.46762">
        <ele>233.4</ele>
        <time>2022-04-30T12:31:30Z</time>
      </trkpt>
      <trkpt lat="46.64428" lon="5.46769">
        <ele>233.6</ele>
        <time>2022-04-30T12:31:31Z</time>
      </trkpt>
      <trkpt lat="46.64429" lon="5.46794">
        <ele>234.6</ele>
        <time>2022-04-30T12:31:35Z</time>
      </trkpt>
      <trkpt lat="46.64429" lon="5.46823">
        <ele>235.8</ele>
        <time>2022-04-30T12:31:40Z</time>
      </trkpt>
      <trkpt lat="46.64428" lon="5.46829">
        <ele>235.8</ele>
        <time>2022-04-30T12:31:41Z</time>
      </trkpt>
      <trkpt lat="46.64427" lon="5.46856">
        <ele>237</ele>
        <time>2022-04-30T12:31:46Z</time>
      </trkpt>
      <trkpt lat="46.64425" lon="5.46867">
        <ele>237.6</ele>
        <time>2022-04-30T12:31:48Z</time>
      </trkpt>
      <trkpt lat="46.64423" lon="5.46872">
        <ele>238</ele>
        <time>2022-04-30T12:31:49Z</time>
      </trkpt>
      <trkpt lat="46.64409" lon="5.46905">
        <ele>238.8</ele>
        <time>2022-04-30T12:31:56Z</time>
      </trkpt>
      <trkpt lat="46.64403" lon="5.46914">
        <ele>239.2</ele>
        <time>2022-04-30T12:31:58Z</time>
      </trkpt>
      <trkpt lat="46.6439" lon="5.46934">
        <ele>240.6</ele>
        <time>2022-04-30T12:32:03Z</time>
      </trkpt>
      <trkpt lat="46.64374" lon="5.4696">
        <ele>241.6</ele>
        <time>2022-04-30T12:32:09Z</time>
      </trkpt>
      <trkpt lat="46.64371" lon="5.46965">
        <ele>242</ele>
        <time>2022-04-30T12:32:10Z</time>
      </trkpt>
      <trkpt lat="46.64365" lon="5.4698">
        <ele>242.8</ele>
        <time>2022-04-30T12:32:13Z</time>
      </trkpt>
      <trkpt lat="46.6436" lon="5.46997">
        <ele>243.8</ele>
        <time>2022-04-30T12:32:16Z</time>
      </trkpt>
      <trkpt lat="46.64359" lon="5.47003">
        <ele>243.8</ele>
        <time>2022-04-30T12:32:17Z</time>
      </trkpt>
      <trkpt lat="46.64355" lon="5.4704">
        <ele>244.4</ele>
        <time>2022-04-30T12:32:23Z</time>
      </trkpt>
      <trkpt lat="46.64353" lon="5.47053">
        <ele>245</ele>
        <time>2022-04-30T12:32:25Z</time>
      </trkpt>
      <trkpt lat="46.64351" lon="5.47066">
        <ele>245.2</ele>
        <time>2022-04-30T12:32:27Z</time>
      </trkpt>
      <trkpt lat="46.64353" lon="5.4708">
        <ele>245.4</ele>
        <time>2022-04-30T12:32:29Z</time>
      </trkpt>
      <trkpt lat="46.64362" lon="5.47098">
        <ele>245.4</ele>
        <time>2022-04-30T12:32:32Z</time>
      </trkpt>
      <trkpt lat="46.64365" lon="5.47104">
        <ele>245.4</ele>
        <time>2022-04-30T12:32:33Z</time>
      </trkpt>
      <trkpt lat="46.64368" lon="5.47112">
        <ele>245.6</ele>
        <time>2022-04-30T12:32:34Z</time>
      </trkpt>
      <trkpt lat="46.64379" lon="5.47148">
        <ele>246</ele>
        <time>2022-04-30T12:32:39Z</time>
      </trkpt>
      <trkpt lat="46.64394" lon="5.47197">
        <ele>246.4</ele>
        <time>2022-04-30T12:32:46Z</time>
      </trkpt>
      <trkpt lat="46.64416" lon="5.47258">
        <ele>246.8</ele>
        <time>2022-04-30T12:32:54Z</time>
      </trkpt>
      <trkpt lat="46.6442" lon="5.47275">
        <ele>247</ele>
        <time>2022-04-30T12:32:56Z</time>
      </trkpt>
      <trkpt lat="46.64431" lon="5.47307">
        <ele>247.2</ele>
        <time>2022-04-30T12:33:00Z</time>
      </trkpt>
      <trkpt lat="46.64452" lon="5.47369">
        <ele>246.8</ele>
        <time>2022-04-30T12:33:07Z</time>
      </trkpt>
      <trkpt lat="46.64458" lon="5.47386">
        <ele>246.6</ele>
        <time>2022-04-30T12:33:09Z</time>
      </trkpt>
      <trkpt lat="46.64483" lon="5.47459">
        <ele>246.8</ele>
        <time>2022-04-30T12:33:18Z</time>
      </trkpt>
      <trkpt lat="46.64486" lon="5.47466">
        <ele>246.8</ele>
        <time>2022-04-30T12:33:19Z</time>
      </trkpt>
      <trkpt lat="46.64504" lon="5.4752">
        <ele>248</ele>
        <time>2022-04-30T12:33:26Z</time>
      </trkpt>
      <trkpt lat="46.64509" lon="5.47535">
        <ele>248.2</ele>
        <time>2022-04-30T12:33:28Z</time>
      </trkpt>
      <trkpt lat="46.64523" lon="5.47577">
        <ele>248.8</ele>
        <time>2022-04-30T12:33:34Z</time>
      </trkpt>
      <trkpt lat="46.64537" lon="5.47615">
        <ele>249.2</ele>
        <time>2022-04-30T12:33:40Z</time>
      </trkpt>
      <trkpt lat="46.64541" lon="5.47628">
        <ele>249.6</ele>
        <time>2022-04-30T12:33:42Z</time>
      </trkpt>
      <trkpt lat="46.6455" lon="5.47654">
        <ele>250.6</ele>
        <time>2022-04-30T12:33:46Z</time>
      </trkpt>
      <trkpt lat="46.64567" lon="5.47704">
        <ele>251.2</ele>
        <time>2022-04-30T12:33:53Z</time>
      </trkpt>
      <trkpt lat="46.64575" lon="5.47726">
        <ele>251.2</ele>
        <time>2022-04-30T12:33:56Z</time>
      </trkpt>
      <trkpt lat="46.64588" lon="5.47764">
        <ele>251.2</ele>
        <time>2022-04-30T12:34:01Z</time>
      </trkpt>
      <trkpt lat="46.64613" lon="5.47834">
        <ele>251</ele>
        <time>2022-04-30T12:34:10Z</time>
      </trkpt>
      <trkpt lat="46.6463" lon="5.47901">
        <ele>251.2</ele>
        <time>2022-04-30T12:34:18Z</time>
      </trkpt>
      <trkpt lat="46.64638" lon="5.47951">
        <ele>251.6</ele>
        <time>2022-04-30T12:34:24Z</time>
      </trkpt>
      <trkpt lat="46.64644" lon="5.47992">
        <ele>252.2</ele>
        <time>2022-04-30T12:34:29Z</time>
      </trkpt>
      <trkpt lat="46.64649" lon="5.48022">
        <ele>252.6</ele>
        <time>2022-04-30T12:34:33Z</time>
      </trkpt>
      <trkpt lat="46.64657" lon="5.48075">
        <ele>253</ele>
        <time>2022-04-30T12:34:40Z</time>
      </trkpt>
      <trkpt lat="46.64666" lon="5.48134">
        <ele>253.4</ele>
        <time>2022-04-30T12:34:48Z</time>
      </trkpt>
      <trkpt lat="46.64669" lon="5.48149">
        <ele>253.8</ele>
        <time>2022-04-30T12:34:50Z</time>
      </trkpt>
      <trkpt lat="46.64669" lon="5.48154">
        <ele>254</ele>
        <time>2022-04-30T12:34:51Z</time>
      </trkpt>
      <trkpt lat="46.64673" lon="5.48177">
        <ele>254.4</ele>
        <time>2022-04-30T12:34:54Z</time>
      </trkpt>
      <trkpt lat="46.64674" lon="5.48184">
        <ele>254.6</ele>
        <time>2022-04-30T12:34:55Z</time>
      </trkpt>
      <trkpt lat="46.64677" lon="5.48198">
        <ele>254.8</ele>
        <time>2022-04-30T12:34:57Z</time>
      </trkpt>
      <trkpt lat="46.6468" lon="5.48221">
        <ele>255.4</ele>
        <time>2022-04-30T12:35:00Z</time>
      </trkpt>
      <trkpt lat="46.64685" lon="5.48241">
        <ele>255.8</ele>
        <time>2022-04-30T12:35:03Z</time>
      </trkpt>
      <trkpt lat="46.64689" lon="5.48247">
        <ele>256.2</ele>
        <time>2022-04-30T12:35:04Z</time>
      </trkpt>
      <trkpt lat="46.64693" lon="5.4825">
        <ele>256.2</ele>
        <time>2022-04-30T12:35:05Z</time>
      </trkpt>
      <trkpt lat="46.64704" lon="5.48252">
        <ele>256.6</ele>
        <time>2022-04-30T12:35:07Z</time>
      </trkpt>
      <trkpt lat="46.64734" lon="5.48264">
        <ele>257</ele>
        <time>2022-04-30T12:35:13Z</time>
      </trkpt>
      <trkpt lat="46.64739" lon="5.48268">
        <ele>257.2</ele>
        <time>2022-04-30T12:35:14Z</time>
      </trkpt>
      <trkpt lat="46.64776" lon="5.48295">
        <ele>258</ele>
        <time>2022-04-30T12:35:22Z</time>
      </trkpt>
      <trkpt lat="46.6478" lon="5.48299">
        <ele>258.2</ele>
        <time>2022-04-30T12:35:23Z</time>
      </trkpt>
      <trkpt lat="46.64819" lon="5.48327">
        <ele>259.2</ele>
        <time>2022-04-30T12:35:31Z</time>
      </trkpt>
      <trkpt lat="46.6483" lon="5.48335">
        <ele>259.2</ele>
        <time>2022-04-30T12:35:33Z</time>
      </trkpt>
      <trkpt lat="46.64852" lon="5.48352">
        <ele>259.4</ele>
        <time>2022-04-30T12:35:37Z</time>
      </trkpt>
      <trkpt lat="46.649" lon="5.4839">
        <ele>258.6</ele>
        <time>2022-04-30T12:35:46Z</time>
      </trkpt>
      <trkpt lat="46.64941" lon="5.48429">
        <ele>258.6</ele>
        <time>2022-04-30T12:35:54Z</time>
      </trkpt>
      <trkpt lat="46.64985" lon="5.48466">
        <ele>258.6</ele>
        <time>2022-04-30T12:36:02Z</time>
      </trkpt>
      <trkpt lat="46.65035" lon="5.48503">
        <ele>258.2</ele>
        <time>2022-04-30T12:36:10Z</time>
      </trkpt>
      <trkpt lat="46.65041" lon="5.48507">
        <ele>258</ele>
        <time>2022-04-30T12:36:11Z</time>
      </trkpt>
      <trkpt lat="46.65072" lon="5.48526">
        <ele>257.2</ele>
        <time>2022-04-30T12:36:16Z</time>
      </trkpt>
      <trkpt lat="46.65113" lon="5.48549">
        <ele>257</ele>
        <time>2022-04-30T12:36:22Z</time>
      </trkpt>
      <trkpt lat="46.65156" lon="5.48573">
        <ele>257.4</ele>
        <time>2022-04-30T12:36:29Z</time>
      </trkpt>
      <trkpt lat="46.652" lon="5.48593">
        <ele>257</ele>
        <time>2022-04-30T12:36:36Z</time>
      </trkpt>
      <trkpt lat="46.65204" lon="5.48594">
        <ele>257</ele>
        <time>2022-04-30T12:36:37Z</time>
      </trkpt>
      <trkpt lat="46.65234" lon="5.48611">
        <ele>257</ele>
        <time>2022-04-30T12:36:42Z</time>
      </trkpt>
      <trkpt lat="46.65288" lon="5.48646">
        <ele>256.6</ele>
        <time>2022-04-30T12:36:51Z</time>
      </trkpt>
      <trkpt lat="46.65295" lon="5.48649">
        <ele>256.4</ele>
        <time>2022-04-30T12:36:52Z</time>
      </trkpt>
      <trkpt lat="46.65301" lon="5.4865">
        <ele>256.4</ele>
        <time>2022-04-30T12:36:53Z</time>
      </trkpt>
      <trkpt lat="46.65329" lon="5.48654">
        <ele>256</ele>
        <time>2022-04-30T12:36:57Z</time>
      </trkpt>
      <trkpt lat="46.65367" lon="5.48665">
        <ele>254.8</ele>
        <time>2022-04-30T12:37:02Z</time>
      </trkpt>
      <trkpt lat="46.654" lon="5.48687">
        <ele>253.6</ele>
        <time>2022-04-30T12:37:06Z</time>
      </trkpt>
      <trkpt lat="46.65426" lon="5.48705">
        <ele>252.2</ele>
        <time>2022-04-30T12:37:09Z</time>
      </trkpt>
      <trkpt lat="46.65445" lon="5.48711">
        <ele>251.2</ele>
        <time>2022-04-30T12:37:11Z</time>
      </trkpt>
      <trkpt lat="46.65455" lon="5.48711">
        <ele>251</ele>
        <time>2022-04-30T12:37:12Z</time>
      </trkpt>
      <trkpt lat="46.65474" lon="5.48709">
        <ele>249.6</ele>
        <time>2022-04-30T12:37:14Z</time>
      </trkpt>
      <trkpt lat="46.65492" lon="5.48706">
        <ele>248.2</ele>
        <time>2022-04-30T12:37:16Z</time>
      </trkpt>
      <trkpt lat="46.6552" lon="5.48703">
        <ele>247.2</ele>
        <time>2022-04-30T12:37:19Z</time>
      </trkpt>
      <trkpt lat="46.65538" lon="5.48701">
        <ele>246</ele>
        <time>2022-04-30T12:37:21Z</time>
      </trkpt>
      <trkpt lat="46.65546" lon="5.487">
        <ele>245.6</ele>
        <time>2022-04-30T12:37:22Z</time>
      </trkpt>
      <trkpt lat="46.65554" lon="5.48702">
        <ele>245.2</ele>
        <time>2022-04-30T12:37:23Z</time>
      </trkpt>
      <trkpt lat="46.65562" lon="5.48704">
        <ele>245</ele>
        <time>2022-04-30T12:37:24Z</time>
      </trkpt>
      <trkpt lat="46.65577" lon="5.48713">
        <ele>244.6</ele>
        <time>2022-04-30T12:37:26Z</time>
      </trkpt>
      <trkpt lat="46.65589" lon="5.48725">
        <ele>244.4</ele>
        <time>2022-04-30T12:37:28Z</time>
      </trkpt>
      <trkpt lat="46.656" lon="5.48739">
        <ele>244.2</ele>
        <time>2022-04-30T12:37:30Z</time>
      </trkpt>
      <trkpt lat="46.65629" lon="5.48776">
        <ele>244.6</ele>
        <time>2022-04-30T12:37:36Z</time>
      </trkpt>
      <trkpt lat="46.65638" lon="5.48788">
        <ele>244.8</ele>
        <time>2022-04-30T12:37:38Z</time>
      </trkpt>
      <trkpt lat="46.6565" lon="5.48805">
        <ele>245.2</ele>
        <time>2022-04-30T12:37:41Z</time>
      </trkpt>
      <trkpt lat="46.65663" lon="5.48829">
        <ele>246.2</ele>
        <time>2022-04-30T12:37:45Z</time>
      </trkpt>
      <trkpt lat="46.65666" lon="5.48836">
        <ele>246.4</ele>
        <time>2022-04-30T12:37:46Z</time>
      </trkpt>
      <trkpt lat="46.65671" lon="5.48848">
        <ele>247</ele>
        <time>2022-04-30T12:37:48Z</time>
      </trkpt>
      <trkpt lat="46.65673" lon="5.48854">
        <ele>247.2</ele>
        <time>2022-04-30T12:37:49Z</time>
      </trkpt>
      <trkpt lat="46.65677" lon="5.48873">
        <ele>247.8</ele>
        <time>2022-04-30T12:37:52Z</time>
      </trkpt>
      <trkpt lat="46.65678" lon="5.48879">
        <ele>248.2</ele>
        <time>2022-04-30T12:37:53Z</time>
      </trkpt>
      <trkpt lat="46.65679" lon="5.48885">
        <ele>248.4</ele>
        <time>2022-04-30T12:37:54Z</time>
      </trkpt>
      <trkpt lat="46.65682" lon="5.48902">
        <ele>249.4</ele>
        <time>2022-04-30T12:37:57Z</time>
      </trkpt>
      <trkpt lat="46.65682" lon="5.48908">
        <ele>249.6</ele>
        <time>2022-04-30T12:37:58Z</time>
      </trkpt>
      <trkpt lat="46.65684" lon="5.48932">
        <ele>250.6</ele>
        <time>2022-04-30T12:38:02Z</time>
      </trkpt>
      <trkpt lat="46.65685" lon="5.48957">
        <ele>251.8</ele>
        <time>2022-04-30T12:38:06Z</time>
      </trkpt>
      <trkpt lat="46.65686" lon="5.4897">
        <ele>252.2</ele>
        <time>2022-04-30T12:38:08Z</time>
      </trkpt>
      <trkpt lat="46.65687" lon="5.48989">
        <ele>253.2</ele>
        <time>2022-04-30T12:38:11Z</time>
      </trkpt>
      <trkpt lat="46.65688" lon="5.49001">
        <ele>253.6</ele>
        <time>2022-04-30T12:38:13Z</time>
      </trkpt>
      <trkpt lat="46.6569" lon="5.49013">
        <ele>254.4</ele>
        <time>2022-04-30T12:38:15Z</time>
      </trkpt>
      <trkpt lat="46.65694" lon="5.49044">
        <ele>255.4</ele>
        <time>2022-04-30T12:38:20Z</time>
      </trkpt>
      <trkpt lat="46.65695" lon="5.49051">
        <ele>255.8</ele>
        <time>2022-04-30T12:38:21Z</time>
      </trkpt>
      <trkpt lat="46.65701" lon="5.49083">
        <ele>256.4</ele>
        <time>2022-04-30T12:38:26Z</time>
      </trkpt>
      <trkpt lat="46.65705" lon="5.49102">
        <ele>256.6</ele>
        <time>2022-04-30T12:38:29Z</time>
      </trkpt>
      <trkpt lat="46.65719" lon="5.49157">
        <ele>257.2</ele>
        <time>2022-04-30T12:38:37Z</time>
      </trkpt>
      <trkpt lat="46.65723" lon="5.49172">
        <ele>257.2</ele>
        <time>2022-04-30T12:38:39Z</time>
      </trkpt>
      <trkpt lat="46.65735" lon="5.49215">
        <ele>257.6</ele>
        <time>2022-04-30T12:38:45Z</time>
      </trkpt>
      <trkpt lat="46.65757" lon="5.49295">
        <ele>258.4</ele>
        <time>2022-04-30T12:38:56Z</time>
      </trkpt>
      <trkpt lat="46.65763" lon="5.49317">
        <ele>258.6</ele>
        <time>2022-04-30T12:38:59Z</time>
      </trkpt>
      <trkpt lat="46.65778" lon="5.4937">
        <ele>259</ele>
        <time>2022-04-30T12:39:06Z</time>
      </trkpt>
      <trkpt lat="46.65794" lon="5.49426">
        <ele>259</ele>
        <time>2022-04-30T12:39:13Z</time>
      </trkpt>
      <trkpt lat="46.65816" lon="5.49494">
        <ele>259.2</ele>
        <time>2022-04-30T12:39:22Z</time>
      </trkpt>
      <trkpt lat="46.65832" lon="5.49549">
        <ele>259.6</ele>
        <time>2022-04-30T12:39:29Z</time>
      </trkpt>
      <trkpt lat="46.65834" lon="5.49557">
        <ele>259.8</ele>
        <time>2022-04-30T12:39:30Z</time>
      </trkpt>
      <trkpt lat="46.65835" lon="5.49565">
        <ele>259.8</ele>
        <time>2022-04-30T12:39:31Z</time>
      </trkpt>
      <trkpt lat="46.65848" lon="5.49637">
        <ele>260.4</ele>
        <time>2022-04-30T12:39:40Z</time>
      </trkpt>
      <trkpt lat="46.65863" lon="5.49712">
        <ele>260.4</ele>
        <time>2022-04-30T12:39:49Z</time>
      </trkpt>
      <trkpt lat="46.65876" lon="5.49781">
        <ele>260.6</ele>
        <time>2022-04-30T12:39:57Z</time>
      </trkpt>
      <trkpt lat="46.65878" lon="5.4979">
        <ele>260.6</ele>
        <time>2022-04-30T12:39:58Z</time>
      </trkpt>
      <trkpt lat="46.6589" lon="5.4985">
        <ele>261.2</ele>
        <time>2022-04-30T12:40:05Z</time>
      </trkpt>
      <trkpt lat="46.65896" lon="5.49874">
        <ele>261.6</ele>
        <time>2022-04-30T12:40:08Z</time>
      </trkpt>
      <trkpt lat="46.65901" lon="5.49896">
        <ele>262</ele>
        <time>2022-04-30T12:40:11Z</time>
      </trkpt>
      <trkpt lat="46.659" lon="5.49902">
        <ele>262</ele>
        <time>2022-04-30T12:40:12Z</time>
      </trkpt>
      <trkpt lat="46.65898" lon="5.49906">
        <ele>262</ele>
        <time>2022-04-30T12:40:13Z</time>
      </trkpt>
      <trkpt lat="46.65894" lon="5.49909">
        <ele>262</ele>
        <time>2022-04-30T12:40:14Z</time>
      </trkpt>
      <trkpt lat="46.6587" lon="5.49922">
        <ele>262</ele>
        <time>2022-04-30T12:40:18Z</time>
      </trkpt>
      <trkpt lat="46.65823" lon="5.49947">
        <ele>262</ele>
        <time>2022-04-30T12:40:26Z</time>
      </trkpt>
      <trkpt lat="46.65796" lon="5.49963">
        <ele>262</ele>
        <time>2022-04-30T12:40:31Z</time>
      </trkpt>
      <trkpt lat="46.6579" lon="5.49967">
        <ele>262.2</ele>
        <time>2022-04-30T12:40:32Z</time>
      </trkpt>
      <trkpt lat="46.65756" lon="5.49987">
        <ele>262</ele>
        <time>2022-04-30T12:40:38Z</time>
      </trkpt>
      <trkpt lat="46.65717" lon="5.50014">
        <ele>261.6</ele>
        <time>2022-04-30T12:40:44Z</time>
      </trkpt>
      <trkpt lat="46.65695" lon="5.50034">
        <ele>261</ele>
        <time>2022-04-30T12:40:47Z</time>
      </trkpt>
      <trkpt lat="46.65688" lon="5.50042">
        <ele>260.4</ele>
        <time>2022-04-30T12:40:48Z</time>
      </trkpt>
      <trkpt lat="46.65682" lon="5.50052">
        <ele>260.2</ele>
        <time>2022-04-30T12:40:49Z</time>
      </trkpt>
      <trkpt lat="46.65673" lon="5.50076">
        <ele>259.4</ele>
        <time>2022-04-30T12:40:51Z</time>
      </trkpt>
      <trkpt lat="46.65662" lon="5.50114">
        <ele>257.8</ele>
        <time>2022-04-30T12:40:54Z</time>
      </trkpt>
      <trkpt lat="46.65659" lon="5.50127">
        <ele>257.4</ele>
        <time>2022-04-30T12:40:55Z</time>
      </trkpt>
      <trkpt lat="46.65659" lon="5.5014">
        <ele>256.8</ele>
        <time>2022-04-30T12:40:56Z</time>
      </trkpt>
      <trkpt lat="46.65662" lon="5.50153">
        <ele>256.4</ele>
        <time>2022-04-30T12:40:57Z</time>
      </trkpt>
      <trkpt lat="46.6568" lon="5.50228">
        <ele>255.4</ele>
        <time>2022-04-30T12:41:03Z</time>
      </trkpt>
      <trkpt lat="46.65682" lon="5.50241">
        <ele>255</ele>
        <time>2022-04-30T12:41:04Z</time>
      </trkpt>
      <trkpt lat="46.65689" lon="5.50279">
        <ele>254.2</ele>
        <time>2022-04-30T12:41:07Z</time>
      </trkpt>
      <trkpt lat="46.65691" lon="5.50292">
        <ele>254.2</ele>
        <time>2022-04-30T12:41:08Z</time>
      </trkpt>
      <trkpt lat="46.65695" lon="5.50328">
        <ele>254</ele>
        <time>2022-04-30T12:41:11Z</time>
      </trkpt>
      <trkpt lat="46.65696" lon="5.50352">
        <ele>254</ele>
        <time>2022-04-30T12:41:13Z</time>
      </trkpt>
      <trkpt lat="46.65698" lon="5.50387">
        <ele>254</ele>
        <time>2022-04-30T12:41:16Z</time>
      </trkpt>
      <trkpt lat="46.65698" lon="5.50452">
        <ele>254.2</ele>
        <time>2022-04-30T12:41:22Z</time>
      </trkpt>
      <trkpt lat="46.65702" lon="5.50512">
        <ele>254.2</ele>
        <time>2022-04-30T12:41:28Z</time>
      </trkpt>
      <trkpt lat="46.65703" lon="5.50521">
        <ele>254.2</ele>
        <time>2022-04-30T12:41:29Z</time>
      </trkpt>
      <trkpt lat="46.6571" lon="5.50548">
        <ele>254.4</ele>
        <time>2022-04-30T12:41:32Z</time>
      </trkpt>
      <trkpt lat="46.65721" lon="5.50585">
        <ele>255</ele>
        <time>2022-04-30T12:41:36Z</time>
      </trkpt>
      <trkpt lat="46.65723" lon="5.50604">
        <ele>255</ele>
        <time>2022-04-30T12:41:38Z</time>
      </trkpt>
      <trkpt lat="46.65721" lon="5.50633">
        <ele>255.2</ele>
        <time>2022-04-30T12:41:41Z</time>
      </trkpt>
      <trkpt lat="46.65716" lon="5.50651">
        <ele>255.4</ele>
        <time>2022-04-30T12:41:43Z</time>
      </trkpt>
      <trkpt lat="46.65705" lon="5.50684">
        <ele>255.6</ele>
        <time>2022-04-30T12:41:47Z</time>
      </trkpt>
      <trkpt lat="46.65696" lon="5.50716">
        <ele>256</ele>
        <time>2022-04-30T12:41:51Z</time>
      </trkpt>
      <trkpt lat="46.65693" lon="5.50733">
        <ele>256.2</ele>
        <time>2022-04-30T12:41:53Z</time>
      </trkpt>
      <trkpt lat="46.65692" lon="5.5076">
        <ele>256.4</ele>
        <time>2022-04-30T12:41:56Z</time>
      </trkpt>
      <trkpt lat="46.65691" lon="5.50799">
        <ele>256.4</ele>
        <time>2022-04-30T12:42:01Z</time>
      </trkpt>
      <trkpt lat="46.65692" lon="5.50807">
        <ele>256.6</ele>
        <time>2022-04-30T12:42:02Z</time>
      </trkpt>
      <trkpt lat="46.65695" lon="5.50821">
        <ele>257.4</ele>
        <time>2022-04-30T12:42:04Z</time>
      </trkpt>
      <trkpt lat="46.65697" lon="5.50827">
        <ele>257.6</ele>
        <time>2022-04-30T12:42:05Z</time>
      </trkpt>
      <trkpt lat="46.65699" lon="5.50833">
        <ele>257.8</ele>
        <time>2022-04-30T12:42:06Z</time>
      </trkpt>
      <trkpt lat="46.65702" lon="5.50838">
        <ele>258.2</ele>
        <time>2022-04-30T12:42:07Z</time>
      </trkpt>
      <trkpt lat="46.65708" lon="5.50847">
        <ele>258.6</ele>
        <time>2022-04-30T12:42:09Z</time>
      </trkpt>
      <trkpt lat="46.65711" lon="5.50851">
        <ele>259</ele>
        <time>2022-04-30T12:42:10Z</time>
      </trkpt>
      <trkpt lat="46.65715" lon="5.50854">
        <ele>259.2</ele>
        <time>2022-04-30T12:42:11Z</time>
      </trkpt>
      <trkpt lat="46.65722" lon="5.50859">
        <ele>260.2</ele>
        <time>2022-04-30T12:42:13Z</time>
      </trkpt>
      <trkpt lat="46.6573" lon="5.50864">
        <ele>260.8</ele>
        <time>2022-04-30T12:42:15Z</time>
      </trkpt>
      <trkpt lat="46.65737" lon="5.50869">
        <ele>261.4</ele>
        <time>2022-04-30T12:42:17Z</time>
      </trkpt>
      <trkpt lat="46.65747" lon="5.50875">
        <ele>262.4</ele>
        <time>2022-04-30T12:42:20Z</time>
      </trkpt>
      <trkpt lat="46.65757" lon="5.50882">
        <ele>263.2</ele>
        <time>2022-04-30T12:42:23Z</time>
      </trkpt>
      <trkpt lat="46.65762" lon="5.50888">
        <ele>263.6</ele>
        <time>2022-04-30T12:42:25Z</time>
      </trkpt>
      <trkpt lat="46.65771" lon="5.50904">
        <ele>264.4</ele>
        <time>2022-04-30T12:42:29Z</time>
      </trkpt>
      <trkpt lat="46.65773" lon="5.50909">
        <ele>264.6</ele>
        <time>2022-04-30T12:42:30Z</time>
      </trkpt>
      <trkpt lat="46.65776" lon="5.50934">
        <ele>265.6</ele>
        <time>2022-04-30T12:42:35Z</time>
      </trkpt>
      <trkpt lat="46.65776" lon="5.50939">
        <ele>266</ele>
        <time>2022-04-30T12:42:36Z</time>
      </trkpt>
      <trkpt lat="46.65774" lon="5.5096">
        <ele>267</ele>
        <time>2022-04-30T12:42:40Z</time>
      </trkpt>
      <trkpt lat="46.65773" lon="5.50972">
        <ele>267.6</ele>
        <time>2022-04-30T12:42:42Z</time>
      </trkpt>
      <trkpt lat="46.65772" lon="5.50988">
        <ele>268.4</ele>
        <time>2022-04-30T12:42:45Z</time>
      </trkpt>
      <trkpt lat="46.65772" lon="5.51024">
        <ele>269.4</ele>
        <time>2022-04-30T12:42:51Z</time>
      </trkpt>
      <trkpt lat="46.65773" lon="5.5107">
        <ele>270.6</ele>
        <time>2022-04-30T12:42:59Z</time>
      </trkpt>
      <trkpt lat="46.65774" lon="5.51083">
        <ele>271</ele>
        <time>2022-04-30T12:43:01Z</time>
      </trkpt>
      <trkpt lat="46.65775" lon="5.51109">
        <ele>271.6</ele>
        <time>2022-04-30T12:43:05Z</time>
      </trkpt>
      <trkpt lat="46.65776" lon="5.5115">
        <ele>272</ele>
        <time>2022-04-30T12:43:11Z</time>
      </trkpt>
      <trkpt lat="46.65778" lon="5.51216">
        <ele>272.8</ele>
        <time>2022-04-30T12:43:20Z</time>
      </trkpt>
      <trkpt lat="46.65778" lon="5.51223">
        <ele>273</ele>
        <time>2022-04-30T12:43:21Z</time>
      </trkpt>
      <trkpt lat="46.6578" lon="5.51294">
        <ele>273.6</ele>
        <time>2022-04-30T12:43:30Z</time>
      </trkpt>
      <trkpt lat="46.65781" lon="5.51317">
        <ele>273.8</ele>
        <time>2022-04-30T12:43:33Z</time>
      </trkpt>
      <trkpt lat="46.65782" lon="5.51364">
        <ele>274.8</ele>
        <time>2022-04-30T12:43:39Z</time>
      </trkpt>
      <trkpt lat="46.65782" lon="5.51388">
        <ele>275</ele>
        <time>2022-04-30T12:43:42Z</time>
      </trkpt>
      <trkpt lat="46.65783" lon="5.51404">
        <ele>275</ele>
        <time>2022-04-30T12:43:44Z</time>
      </trkpt>
      <trkpt lat="46.65784" lon="5.51428">
        <ele>275.2</ele>
        <time>2022-04-30T12:43:47Z</time>
      </trkpt>
      <trkpt lat="46.65785" lon="5.51458">
        <ele>275.8</ele>
        <time>2022-04-30T12:43:51Z</time>
      </trkpt>
      <trkpt lat="46.65782" lon="5.51471">
        <ele>276.2</ele>
        <time>2022-04-30T12:43:53Z</time>
      </trkpt>
      <trkpt lat="46.65779" lon="5.51477">
        <ele>276.4</ele>
        <time>2022-04-30T12:43:54Z</time>
      </trkpt>
      <trkpt lat="46.65773" lon="5.51489">
        <ele>276.4</ele>
        <time>2022-04-30T12:43:56Z</time>
      </trkpt>
      <trkpt lat="46.65771" lon="5.51495">
        <ele>276.6</ele>
        <time>2022-04-30T12:43:57Z</time>
      </trkpt>
      <trkpt lat="46.6577" lon="5.51502">
        <ele>276.6</ele>
        <time>2022-04-30T12:43:58Z</time>
      </trkpt>
      <trkpt lat="46.65774" lon="5.51515">
        <ele>276.8</ele>
        <time>2022-04-30T12:44:00Z</time>
      </trkpt>
      <trkpt lat="46.65782" lon="5.51529">
        <ele>276.8</ele>
        <time>2022-04-30T12:44:02Z</time>
      </trkpt>
      <trkpt lat="46.65787" lon="5.51545">
        <ele>276.8</ele>
        <time>2022-04-30T12:44:04Z</time>
      </trkpt>
      <trkpt lat="46.6579" lon="5.5157">
        <ele>277</ele>
        <time>2022-04-30T12:44:07Z</time>
      </trkpt>
      <trkpt lat="46.65796" lon="5.51593">
        <ele>277</ele>
        <time>2022-04-30T12:44:10Z</time>
      </trkpt>
      <trkpt lat="46.65801" lon="5.51617">
        <ele>277.2</ele>
        <time>2022-04-30T12:44:13Z</time>
      </trkpt>
      <trkpt lat="46.65811" lon="5.51675">
        <ele>277.4</ele>
        <time>2022-04-30T12:44:20Z</time>
      </trkpt>
      <trkpt lat="46.65822" lon="5.51752">
        <ele>277.8</ele>
        <time>2022-04-30T12:44:29Z</time>
      </trkpt>
      <trkpt lat="46.65831" lon="5.51811">
        <ele>278.2</ele>
        <time>2022-04-30T12:44:36Z</time>
      </trkpt>
      <trkpt lat="46.65837" lon="5.51853">
        <ele>279</ele>
        <time>2022-04-30T12:44:41Z</time>
      </trkpt>
      <trkpt lat="46.6584" lon="5.51868">
        <ele>279.6</ele>
        <time>2022-04-30T12:44:43Z</time>
      </trkpt>
      <trkpt lat="46.65853" lon="5.51945">
        <ele>280.6</ele>
        <time>2022-04-30T12:44:52Z</time>
      </trkpt>
      <trkpt lat="46.65854" lon="5.51953">
        <ele>280.6</ele>
        <time>2022-04-30T12:44:53Z</time>
      </trkpt>
      <trkpt lat="46.65867" lon="5.5202">
        <ele>280.8</ele>
        <time>2022-04-30T12:45:01Z</time>
      </trkpt>
      <trkpt lat="46.65868" lon="5.52038">
        <ele>280.6</ele>
        <time>2022-04-30T12:45:03Z</time>
      </trkpt>
      <trkpt lat="46.65866" lon="5.52057">
        <ele>280.6</ele>
        <time>2022-04-30T12:45:05Z</time>
      </trkpt>
      <trkpt lat="46.65857" lon="5.52073">
        <ele>280.4</ele>
        <time>2022-04-30T12:45:07Z</time>
      </trkpt>
      <trkpt lat="46.65852" lon="5.5208">
        <ele>280.2</ele>
        <time>2022-04-30T12:45:08Z</time>
      </trkpt>
      <trkpt lat="46.65818" lon="5.52119">
        <ele>279.8</ele>
        <time>2022-04-30T12:45:14Z</time>
      </trkpt>
      <trkpt lat="46.65786" lon="5.52161">
        <ele>279.8</ele>
        <time>2022-04-30T12:45:20Z</time>
      </trkpt>
      <trkpt lat="46.65759" lon="5.52216">
        <ele>279.8</ele>
        <time>2022-04-30T12:45:26Z</time>
      </trkpt>
      <trkpt lat="46.6574" lon="5.52244">
        <ele>279.4</ele>
        <time>2022-04-30T12:45:29Z</time>
      </trkpt>
      <trkpt lat="46.65733" lon="5.52252">
        <ele>279.4</ele>
        <time>2022-04-30T12:45:30Z</time>
      </trkpt>
      <trkpt lat="46.65709" lon="5.52276">
        <ele>278.2</ele>
        <time>2022-04-30T12:45:33Z</time>
      </trkpt>
      <trkpt lat="46.657" lon="5.52282">
        <ele>278</ele>
        <time>2022-04-30T12:45:34Z</time>
      </trkpt>
      <trkpt lat="46.65691" lon="5.52289">
        <ele>277</ele>
        <time>2022-04-30T12:45:35Z</time>
      </trkpt>
      <trkpt lat="46.65654" lon="5.52315">
        <ele>275.8</ele>
        <time>2022-04-30T12:45:40Z</time>
      </trkpt>
      <trkpt lat="46.65635" lon="5.52326">
        <ele>275</ele>
        <time>2022-04-30T12:45:42Z</time>
      </trkpt>
      <trkpt lat="46.65618" lon="5.52337">
        <ele>274.4</ele>
        <time>2022-04-30T12:45:44Z</time>
      </trkpt>
      <trkpt lat="46.65584" lon="5.52359">
        <ele>273.4</ele>
        <time>2022-04-30T12:45:48Z</time>
      </trkpt>
      <trkpt lat="46.65576" lon="5.52365">
        <ele>273.2</ele>
        <time>2022-04-30T12:45:49Z</time>
      </trkpt>
      <trkpt lat="46.6553" lon="5.52401">
        <ele>273.2</ele>
        <time>2022-04-30T12:45:55Z</time>
      </trkpt>
      <trkpt lat="46.65481" lon="5.52444">
        <ele>273.4</ele>
        <time>2022-04-30T12:46:02Z</time>
      </trkpt>
      <trkpt lat="46.65429" lon="5.52492">
        <ele>273.6</ele>
        <time>2022-04-30T12:46:10Z</time>
      </trkpt>
      <trkpt lat="46.65413" lon="5.52513">
        <ele>273.8</ele>
        <time>2022-04-30T12:46:13Z</time>
      </trkpt>
      <trkpt lat="46.65404" lon="5.52529">
        <ele>273.8</ele>
        <time>2022-04-30T12:46:15Z</time>
      </trkpt>
      <trkpt lat="46.6539" lon="5.52574">
        <ele>274</ele>
        <time>2022-04-30T12:46:20Z</time>
      </trkpt>
      <trkpt lat="46.65371" lon="5.52638">
        <ele>274.2</ele>
        <time>2022-04-30T12:46:27Z</time>
      </trkpt>
      <trkpt lat="46.65354" lon="5.5267">
        <ele>274.2</ele>
        <time>2022-04-30T12:46:31Z</time>
      </trkpt>
      <trkpt lat="46.65345" lon="5.52684">
        <ele>274.4</ele>
        <time>2022-04-30T12:46:33Z</time>
      </trkpt>
      <trkpt lat="46.6534" lon="5.5269">
        <ele>274.6</ele>
        <time>2022-04-30T12:46:34Z</time>
      </trkpt>
      <trkpt lat="46.65334" lon="5.52695">
        <ele>274.6</ele>
        <time>2022-04-30T12:46:35Z</time>
      </trkpt>
      <trkpt lat="46.65319" lon="5.52712">
        <ele>274.8</ele>
        <time>2022-04-30T12:46:38Z</time>
      </trkpt>
      <trkpt lat="46.65299" lon="5.52731">
        <ele>275.2</ele>
        <time>2022-04-30T12:46:42Z</time>
      </trkpt>
      <trkpt lat="46.65285" lon="5.52745">
        <ele>275.6</ele>
        <time>2022-04-30T12:46:45Z</time>
      </trkpt>
      <trkpt lat="46.65267" lon="5.52761">
        <ele>276.2</ele>
        <time>2022-04-30T12:46:49Z</time>
      </trkpt>
      <trkpt lat="46.65254" lon="5.52773">
        <ele>276.6</ele>
        <time>2022-04-30T12:46:52Z</time>
      </trkpt>
      <trkpt lat="46.65246" lon="5.52779">
        <ele>277.2</ele>
        <time>2022-04-30T12:46:54Z</time>
      </trkpt>
      <trkpt lat="46.65235" lon="5.52781">
        <ele>277.6</ele>
        <time>2022-04-30T12:46:57Z</time>
      </trkpt>
      <trkpt lat="46.65231" lon="5.52781">
        <ele>277.8</ele>
        <time>2022-04-30T12:46:58Z</time>
      </trkpt>
      <trkpt lat="46.65227" lon="5.52781">
        <ele>278</ele>
        <time>2022-04-30T12:46:59Z</time>
      </trkpt>
      <trkpt lat="46.65218" lon="5.52783">
        <ele>278.2</ele>
        <time>2022-04-30T12:47:01Z</time>
      </trkpt>
      <trkpt lat="46.65214" lon="5.52786">
        <ele>278.2</ele>
        <time>2022-04-30T12:47:02Z</time>
      </trkpt>
      <trkpt lat="46.65209" lon="5.52791">
        <ele>278.4</ele>
        <time>2022-04-30T12:47:03Z</time>
      </trkpt>
      <trkpt lat="46.65199" lon="5.52805">
        <ele>278.6</ele>
        <time>2022-04-30T12:47:06Z</time>
      </trkpt>
      <trkpt lat="46.65196" lon="5.52813">
        <ele>278.8</ele>
        <time>2022-04-30T12:47:08Z</time>
      </trkpt>
      <trkpt lat="46.65196" lon="5.52826">
        <ele>279.2</ele>
        <time>2022-04-30T12:47:10Z</time>
      </trkpt>
      <trkpt lat="46.65195" lon="5.52844">
        <ele>279.6</ele>
        <time>2022-04-30T12:47:12Z</time>
      </trkpt>
      <trkpt lat="46.65193" lon="5.52853">
        <ele>280</ele>
        <time>2022-04-30T12:47:13Z</time>
      </trkpt>
      <trkpt lat="46.65188" lon="5.52861">
        <ele>280.2</ele>
        <time>2022-04-30T12:47:14Z</time>
      </trkpt>
      <trkpt lat="46.65169" lon="5.52896">
        <ele>280.6</ele>
        <time>2022-04-30T12:47:18Z</time>
      </trkpt>
      <trkpt lat="46.65166" lon="5.52903">
        <ele>280.4</ele>
        <time>2022-04-30T12:47:19Z</time>
      </trkpt>
      <trkpt lat="46.65139" lon="5.52953">
        <ele>279.8</ele>
        <time>2022-04-30T12:47:25Z</time>
      </trkpt>
      <trkpt lat="46.65115" lon="5.53012">
        <ele>280</ele>
        <time>2022-04-30T12:47:33Z</time>
      </trkpt>
      <trkpt lat="46.65092" lon="5.53071">
        <ele>280.6</ele>
        <time>2022-04-30T12:47:41Z</time>
      </trkpt>
      <trkpt lat="46.65068" lon="5.53113">
        <ele>280.6</ele>
        <time>2022-04-30T12:47:47Z</time>
      </trkpt>
      <trkpt lat="46.65042" lon="5.53165">
        <ele>280.8</ele>
        <time>2022-04-30T12:47:54Z</time>
      </trkpt>
      <trkpt lat="46.65023" lon="5.53211">
        <ele>281.2</ele>
        <time>2022-04-30T12:48:00Z</time>
      </trkpt>
      <trkpt lat="46.65015" lon="5.53232">
        <ele>281.8</ele>
        <time>2022-04-30T12:48:03Z</time>
      </trkpt>
      <trkpt lat="46.65006" lon="5.53253">
        <ele>282.4</ele>
        <time>2022-04-30T12:48:06Z</time>
      </trkpt>
      <trkpt lat="46.64994" lon="5.53275">
        <ele>283</ele>
        <time>2022-04-30T12:48:09Z</time>
      </trkpt>
      <trkpt lat="46.64987" lon="5.53289">
        <ele>283</ele>
        <time>2022-04-30T12:48:11Z</time>
      </trkpt>
      <trkpt lat="46.64965" lon="5.53331">
        <ele>283.4</ele>
        <time>2022-04-30T12:48:17Z</time>
      </trkpt>
      <trkpt lat="46.64959" lon="5.53346">
        <ele>283.4</ele>
        <time>2022-04-30T12:48:19Z</time>
      </trkpt>
      <trkpt lat="46.64951" lon="5.5337">
        <ele>283.6</ele>
        <time>2022-04-30T12:48:22Z</time>
      </trkpt>
      <trkpt lat="46.64948" lon="5.53377">
        <ele>283.8</ele>
        <time>2022-04-30T12:48:23Z</time>
      </trkpt>
      <trkpt lat="46.6493" lon="5.53414">
        <ele>284.2</ele>
        <time>2022-04-30T12:48:28Z</time>
      </trkpt>
      <trkpt lat="46.64916" lon="5.53445">
        <ele>284.6</ele>
        <time>2022-04-30T12:48:32Z</time>
      </trkpt>
      <trkpt lat="46.649" lon="5.53484">
        <ele>284.8</ele>
        <time>2022-04-30T12:48:37Z</time>
      </trkpt>
      <trkpt lat="46.64873" lon="5.53552">
        <ele>285.6</ele>
        <time>2022-04-30T12:48:46Z</time>
      </trkpt>
      <trkpt lat="46.6487" lon="5.5356">
        <ele>285.6</ele>
        <time>2022-04-30T12:48:47Z</time>
      </trkpt>
      <trkpt lat="46.64854" lon="5.53603">
        <ele>287</ele>
        <time>2022-04-30T12:48:53Z</time>
      </trkpt>
      <trkpt lat="46.64848" lon="5.53617">
        <ele>287.2</ele>
        <time>2022-04-30T12:48:55Z</time>
      </trkpt>
      <trkpt lat="46.64826" lon="5.5367">
        <ele>287.6</ele>
        <time>2022-04-30T12:49:02Z</time>
      </trkpt>
      <trkpt lat="46.64823" lon="5.53677">
        <ele>287.8</ele>
        <time>2022-04-30T12:49:03Z</time>
      </trkpt>
      <trkpt lat="46.64818" lon="5.53693">
        <ele>288</ele>
        <time>2022-04-30T12:49:05Z</time>
      </trkpt>
      <trkpt lat="46.64796" lon="5.53756">
        <ele>288.8</ele>
        <time>2022-04-30T12:49:13Z</time>
      </trkpt>
      <trkpt lat="46.64788" lon="5.5378">
        <ele>289</ele>
        <time>2022-04-30T12:49:16Z</time>
      </trkpt>
      <trkpt lat="46.64766" lon="5.53825">
        <ele>289.4</ele>
        <time>2022-04-30T12:49:22Z</time>
      </trkpt>
      <trkpt lat="46.6474" lon="5.5386">
        <ele>289.6</ele>
        <time>2022-04-30T12:49:28Z</time>
      </trkpt>
      <trkpt lat="46.64735" lon="5.53864">
        <ele>289.6</ele>
        <time>2022-04-30T12:49:29Z</time>
      </trkpt>
      <trkpt lat="46.64713" lon="5.53875">
        <ele>289.6</ele>
        <time>2022-04-30T12:49:33Z</time>
      </trkpt>
      <trkpt lat="46.64685" lon="5.53881">
        <ele>290</ele>
        <time>2022-04-30T12:49:38Z</time>
      </trkpt>
      <trkpt lat="46.6468" lon="5.53881">
        <ele>290</ele>
        <time>2022-04-30T12:49:39Z</time>
      </trkpt>
      <trkpt lat="46.64674" lon="5.53882">
        <ele>290.2</ele>
        <time>2022-04-30T12:49:40Z</time>
      </trkpt>
      <trkpt lat="46.64669" lon="5.53885">
        <ele>290.4</ele>
        <time>2022-04-30T12:49:41Z</time>
      </trkpt>
      <trkpt lat="46.64667" lon="5.5389">
        <ele>290.4</ele>
        <time>2022-04-30T12:49:42Z</time>
      </trkpt>
      <trkpt lat="46.64667" lon="5.53897">
        <ele>290.6</ele>
        <time>2022-04-30T12:49:43Z</time>
      </trkpt>
      <trkpt lat="46.64669" lon="5.53903">
        <ele>290.6</ele>
        <time>2022-04-30T12:49:44Z</time>
      </trkpt>
      <trkpt lat="46.64675" lon="5.53916">
        <ele>291.2</ele>
        <time>2022-04-30T12:49:46Z</time>
      </trkpt>
      <trkpt lat="46.64678" lon="5.53924">
        <ele>291.2</ele>
        <time>2022-04-30T12:49:47Z</time>
      </trkpt>
      <trkpt lat="46.64692" lon="5.53967">
        <ele>292.2</ele>
        <time>2022-04-30T12:49:53Z</time>
      </trkpt>
      <trkpt lat="46.64693" lon="5.53975">
        <ele>292.2</ele>
        <time>2022-04-30T12:49:54Z</time>
      </trkpt>
      <trkpt lat="46.64703" lon="5.54017">
        <ele>292.6</ele>
        <time>2022-04-30T12:50:00Z</time>
      </trkpt>
      <trkpt lat="46.64702" lon="5.54031">
        <ele>292.8</ele>
        <time>2022-04-30T12:50:02Z</time>
      </trkpt>
      <trkpt lat="46.64696" lon="5.5404">
        <ele>292.8</ele>
        <time>2022-04-30T12:50:04Z</time>
      </trkpt>
      <trkpt lat="46.64692" lon="5.54042">
        <ele>293</ele>
        <time>2022-04-30T12:50:05Z</time>
      </trkpt>
      <trkpt lat="46.64687" lon="5.54044">
        <ele>293.2</ele>
        <time>2022-04-30T12:50:06Z</time>
      </trkpt>
      <trkpt lat="46.64682" lon="5.54045">
        <ele>293.6</ele>
        <time>2022-04-30T12:50:07Z</time>
      </trkpt>
      <trkpt lat="46.6467" lon="5.54046">
        <ele>293.8</ele>
        <time>2022-04-30T12:50:09Z</time>
      </trkpt>
      <trkpt lat="46.64653" lon="5.54051">
        <ele>294.2</ele>
        <time>2022-04-30T12:50:12Z</time>
      </trkpt>
      <trkpt lat="46.64641" lon="5.54057">
        <ele>294.6</ele>
        <time>2022-04-30T12:50:14Z</time>
      </trkpt>
      <trkpt lat="46.6463" lon="5.54065">
        <ele>294.6</ele>
        <time>2022-04-30T12:50:16Z</time>
      </trkpt>
      <trkpt lat="46.64603" lon="5.54086">
        <ele>294.8</ele>
        <time>2022-04-30T12:50:21Z</time>
      </trkpt>
      <trkpt lat="46.64557" lon="5.54125">
        <ele>294.8</ele>
        <time>2022-04-30T12:50:30Z</time>
      </trkpt>
      <trkpt lat="46.64554" lon="5.54138">
        <ele>295.2</ele>
        <time>2022-04-30T12:50:32Z</time>
      </trkpt>
      <trkpt lat="46.64555" lon="5.54144">
        <ele>295.4</ele>
        <time>2022-04-30T12:50:33Z</time>
      </trkpt>
      <trkpt lat="46.64556" lon="5.5415">
        <ele>295.4</ele>
        <time>2022-04-30T12:50:34Z</time>
      </trkpt>
      <trkpt lat="46.64562" lon="5.54161">
        <ele>295.6</ele>
        <time>2022-04-30T12:50:36Z</time>
      </trkpt>
      <trkpt lat="46.64564" lon="5.54167">
        <ele>295.8</ele>
        <time>2022-04-30T12:50:37Z</time>
      </trkpt>
      <trkpt lat="46.64577" lon="5.54201">
        <ele>296.8</ele>
        <time>2022-04-30T12:50:43Z</time>
      </trkpt>
      <trkpt lat="46.6458" lon="5.54208">
        <ele>297</ele>
        <time>2022-04-30T12:50:44Z</time>
      </trkpt>
      <trkpt lat="46.64589" lon="5.54234">
        <ele>297.6</ele>
        <time>2022-04-30T12:50:48Z</time>
      </trkpt>
      <trkpt lat="46.64592" lon="5.54241">
        <ele>298</ele>
        <time>2022-04-30T12:50:49Z</time>
      </trkpt>
      <trkpt lat="46.64603" lon="5.54269">
        <ele>298.8</ele>
        <time>2022-04-30T12:50:53Z</time>
      </trkpt>
      <trkpt lat="46.64608" lon="5.54284">
        <ele>299.2</ele>
        <time>2022-04-30T12:50:55Z</time>
      </trkpt>
      <trkpt lat="46.64621" lon="5.54315">
        <ele>300.4</ele>
        <time>2022-04-30T12:51:00Z</time>
      </trkpt>
      <trkpt lat="46.64627" lon="5.54334">
        <ele>300.8</ele>
        <time>2022-04-30T12:51:03Z</time>
      </trkpt>
      <trkpt lat="46.64642" lon="5.54378">
        <ele>301.6</ele>
        <time>2022-04-30T12:51:10Z</time>
      </trkpt>
      <trkpt lat="46.64646" lon="5.54391">
        <ele>301.6</ele>
        <time>2022-04-30T12:51:12Z</time>
      </trkpt>
      <trkpt lat="46.64657" lon="5.54435">
        <ele>302.6</ele>
        <time>2022-04-30T12:51:19Z</time>
      </trkpt>
      <trkpt lat="46.64659" lon="5.54441">
        <ele>302.8</ele>
        <time>2022-04-30T12:51:20Z</time>
      </trkpt>
      <trkpt lat="46.64669" lon="5.5448">
        <ele>303.8</ele>
        <time>2022-04-30T12:51:26Z</time>
      </trkpt>
      <trkpt lat="46.64678" lon="5.54505">
        <ele>304.4</ele>
        <time>2022-04-30T12:51:30Z</time>
      </trkpt>
      <trkpt lat="46.64684" lon="5.54518">
        <ele>304.8</ele>
        <time>2022-04-30T12:51:32Z</time>
      </trkpt>
      <trkpt lat="46.64696" lon="5.5454">
        <ele>304.8</ele>
        <time>2022-04-30T12:51:35Z</time>
      </trkpt>
      <trkpt lat="46.64723" lon="5.54596">
        <ele>304</ele>
        <time>2022-04-30T12:51:42Z</time>
      </trkpt>
      <trkpt lat="46.64732" lon="5.54625">
        <ele>303.6</ele>
        <time>2022-04-30T12:51:45Z</time>
      </trkpt>
      <trkpt lat="46.64735" lon="5.54646">
        <ele>303.4</ele>
        <time>2022-04-30T12:51:47Z</time>
      </trkpt>
      <trkpt lat="46.64736" lon="5.54656">
        <ele>303.2</ele>
        <time>2022-04-30T12:51:48Z</time>
      </trkpt>
      <trkpt lat="46.64736" lon="5.54678">
        <ele>303</ele>
        <time>2022-04-30T12:51:50Z</time>
      </trkpt>
      <trkpt lat="46.64735" lon="5.54688">
        <ele>302.4</ele>
        <time>2022-04-30T12:51:51Z</time>
      </trkpt>
      <trkpt lat="46.64733" lon="5.54708">
        <ele>301.8</ele>
        <time>2022-04-30T12:51:53Z</time>
      </trkpt>
      <trkpt lat="46.6473" lon="5.54747">
        <ele>300.8</ele>
        <time>2022-04-30T12:51:57Z</time>
      </trkpt>
      <trkpt lat="46.64728" lon="5.54766">
        <ele>300.8</ele>
        <time>2022-04-30T12:51:59Z</time>
      </trkpt>
      <trkpt lat="46.64726" lon="5.54785">
        <ele>300.8</ele>
        <time>2022-04-30T12:52:01Z</time>
      </trkpt>
      <trkpt lat="46.64716" lon="5.54834">
        <ele>301</ele>
        <time>2022-04-30T12:52:06Z</time>
      </trkpt>
      <trkpt lat="46.64693" lon="5.54895">
        <ele>301</ele>
        <time>2022-04-30T12:52:13Z</time>
      </trkpt>
      <trkpt lat="46.64688" lon="5.54902">
        <ele>301</ele>
        <time>2022-04-30T12:52:14Z</time>
      </trkpt>
      <trkpt lat="46.64674" lon="5.5492">
        <ele>301.6</ele>
        <time>2022-04-30T12:52:17Z</time>
      </trkpt>
      <trkpt lat="46.6467" lon="5.54926">
        <ele>301.8</ele>
        <time>2022-04-30T12:52:18Z</time>
      </trkpt>
      <trkpt lat="46.64648" lon="5.54952">
        <ele>302.6</ele>
        <time>2022-04-30T12:52:23Z</time>
      </trkpt>
      <trkpt lat="46.64643" lon="5.54958">
        <ele>302.6</ele>
        <time>2022-04-30T12:52:24Z</time>
      </trkpt>
      <trkpt lat="46.64639" lon="5.54964">
        <ele>302.8</ele>
        <time>2022-04-30T12:52:25Z</time>
      </trkpt>
      <trkpt lat="46.64629" lon="5.54984">
        <ele>303.4</ele>
        <time>2022-04-30T12:52:28Z</time>
      </trkpt>
      <trkpt lat="46.64627" lon="5.54992">
        <ele>303.6</ele>
        <time>2022-04-30T12:52:29Z</time>
      </trkpt>
      <trkpt lat="46.64624" lon="5.55001">
        <ele>304</ele>
        <time>2022-04-30T12:52:30Z</time>
      </trkpt>
      <trkpt lat="46.64612" lon="5.55045">
        <ele>305.2</ele>
        <time>2022-04-30T12:52:35Z</time>
      </trkpt>
      <trkpt lat="46.64607" lon="5.5506">
        <ele>305.6</ele>
        <time>2022-04-30T12:52:37Z</time>
      </trkpt>
      <trkpt lat="46.64591" lon="5.55101">
        <ele>306.2</ele>
        <time>2022-04-30T12:52:43Z</time>
      </trkpt>
      <trkpt lat="46.64586" lon="5.55116">
        <ele>306.6</ele>
        <time>2022-04-30T12:52:45Z</time>
      </trkpt>
      <trkpt lat="46.64572" lon="5.5515">
        <ele>307.4</ele>
        <time>2022-04-30T12:52:50Z</time>
      </trkpt>
      <trkpt lat="46.64559" lon="5.55182">
        <ele>308.4</ele>
        <time>2022-04-30T12:52:55Z</time>
      </trkpt>
      <trkpt lat="46.64555" lon="5.55189">
        <ele>308.6</ele>
        <time>2022-04-30T12:52:56Z</time>
      </trkpt>
      <trkpt lat="46.64529" lon="5.55244">
        <ele>309.6</ele>
        <time>2022-04-30T12:53:04Z</time>
      </trkpt>
      <trkpt lat="46.64493" lon="5.55307">
        <ele>309.8</ele>
        <time>2022-04-30T12:53:13Z</time>
      </trkpt>
      <trkpt lat="46.64451" lon="5.55368">
        <ele>310.2</ele>
        <time>2022-04-30T12:53:22Z</time>
      </trkpt>
      <trkpt lat="46.64431" lon="5.5539">
        <ele>310.8</ele>
        <time>2022-04-30T12:53:26Z</time>
      </trkpt>
      <trkpt lat="46.64421" lon="5.55402">
        <ele>311.2</ele>
        <time>2022-04-30T12:53:28Z</time>
      </trkpt>
      <trkpt lat="46.64381" lon="5.55463">
        <ele>312</ele>
        <time>2022-04-30T12:53:37Z</time>
      </trkpt>
      <trkpt lat="46.64377" lon="5.5547">
        <ele>312</ele>
        <time>2022-04-30T12:53:38Z</time>
      </trkpt>
      <trkpt lat="46.64342" lon="5.55535">
        <ele>312.6</ele>
        <time>2022-04-30T12:53:47Z</time>
      </trkpt>
      <trkpt lat="46.64335" lon="5.5555">
        <ele>313</ele>
        <time>2022-04-30T12:53:49Z</time>
      </trkpt>
      <trkpt lat="46.64327" lon="5.55564">
        <ele>313.2</ele>
        <time>2022-04-30T12:53:51Z</time>
      </trkpt>
      <trkpt lat="46.64304" lon="5.55608">
        <ele>313.8</ele>
        <time>2022-04-30T12:53:57Z</time>
      </trkpt>
      <trkpt lat="46.64281" lon="5.55652">
        <ele>314.2</ele>
        <time>2022-04-30T12:54:03Z</time>
      </trkpt>
      <trkpt lat="46.64254" lon="5.55703">
        <ele>314.6</ele>
        <time>2022-04-30T12:54:10Z</time>
      </trkpt>
      <trkpt lat="46.64223" lon="5.55762">
        <ele>315.2</ele>
        <time>2022-04-30T12:54:18Z</time>
      </trkpt>
      <trkpt lat="46.64219" lon="5.5577">
        <ele>315.2</ele>
        <time>2022-04-30T12:54:19Z</time>
      </trkpt>
      <trkpt lat="46.64183" lon="5.55837">
        <ele>316.4</ele>
        <time>2022-04-30T12:54:28Z</time>
      </trkpt>
      <trkpt lat="46.64151" lon="5.55908">
        <ele>317.4</ele>
        <time>2022-04-30T12:54:37Z</time>
      </trkpt>
      <trkpt lat="46.6413" lon="5.55963">
        <ele>318</ele>
        <time>2022-04-30T12:54:44Z</time>
      </trkpt>
      <trkpt lat="46.64119" lon="5.55985">
        <ele>318.4</ele>
        <time>2022-04-30T12:54:47Z</time>
      </trkpt>
      <trkpt lat="46.64098" lon="5.56016">
        <ele>319.2</ele>
        <time>2022-04-30T12:54:52Z</time>
      </trkpt>
      <trkpt lat="46.64089" lon="5.56027">
        <ele>319.4</ele>
        <time>2022-04-30T12:54:54Z</time>
      </trkpt>
      <trkpt lat="46.64069" lon="5.56056">
        <ele>320.2</ele>
        <time>2022-04-30T12:54:59Z</time>
      </trkpt>
      <trkpt lat="46.64063" lon="5.56068">
        <ele>320.6</ele>
        <time>2022-04-30T12:55:01Z</time>
      </trkpt>
      <trkpt lat="46.64054" lon="5.56087">
        <ele>321</ele>
        <time>2022-04-30T12:55:04Z</time>
      </trkpt>
      <trkpt lat="46.64051" lon="5.56094">
        <ele>321.2</ele>
        <time>2022-04-30T12:55:05Z</time>
      </trkpt>
      <trkpt lat="46.64047" lon="5.56108">
        <ele>321.4</ele>
        <time>2022-04-30T12:55:07Z</time>
      </trkpt>
      <trkpt lat="46.64043" lon="5.56122">
        <ele>321.6</ele>
        <time>2022-04-30T12:55:09Z</time>
      </trkpt>
      <trkpt lat="46.6404" lon="5.56136">
        <ele>322</ele>
        <time>2022-04-30T12:55:11Z</time>
      </trkpt>
      <trkpt lat="46.64037" lon="5.56151">
        <ele>322.8</ele>
        <time>2022-04-30T12:55:13Z</time>
      </trkpt>
      <trkpt lat="46.64027" lon="5.56191">
        <ele>323.8</ele>
        <time>2022-04-30T12:55:19Z</time>
      </trkpt>
      <trkpt lat="46.64014" lon="5.56237">
        <ele>325</ele>
        <time>2022-04-30T12:55:26Z</time>
      </trkpt>
      <trkpt lat="46.64011" lon="5.56243">
        <ele>325.2</ele>
        <time>2022-04-30T12:55:27Z</time>
      </trkpt>
      <trkpt lat="46.63995" lon="5.56276">
        <ele>326.2</ele>
        <time>2022-04-30T12:55:33Z</time>
      </trkpt>
      <trkpt lat="46.63982" lon="5.56296">
        <ele>327.4</ele>
        <time>2022-04-30T12:55:37Z</time>
      </trkpt>
      <trkpt lat="46.63971" lon="5.5631">
        <ele>327.8</ele>
        <time>2022-04-30T12:55:40Z</time>
      </trkpt>
      <trkpt lat="46.63962" lon="5.56318">
        <ele>328.4</ele>
        <time>2022-04-30T12:55:42Z</time>
      </trkpt>
      <trkpt lat="46.63955" lon="5.56323">
        <ele>328.6</ele>
        <time>2022-04-30T12:55:44Z</time>
      </trkpt>
      <trkpt lat="46.6395" lon="5.56326">
        <ele>328.8</ele>
        <time>2022-04-30T12:55:45Z</time>
      </trkpt>
      <trkpt lat="46.63937" lon="5.56332">
        <ele>329.4</ele>
        <time>2022-04-30T12:55:48Z</time>
      </trkpt>
      <trkpt lat="46.63929" lon="5.56335">
        <ele>330</ele>
        <time>2022-04-30T12:55:50Z</time>
      </trkpt>
      <trkpt lat="46.63913" lon="5.5634">
        <ele>330.4</ele>
        <time>2022-04-30T12:55:54Z</time>
      </trkpt>
      <trkpt lat="46.63897" lon="5.56347">
        <ele>331.6</ele>
        <time>2022-04-30T12:55:58Z</time>
      </trkpt>
      <trkpt lat="46.6389" lon="5.56352">
        <ele>332</ele>
        <time>2022-04-30T12:56:00Z</time>
      </trkpt>
      <trkpt lat="46.6388" lon="5.56362">
        <ele>332.6</ele>
        <time>2022-04-30T12:56:03Z</time>
      </trkpt>
      <trkpt lat="46.63876" lon="5.56365">
        <ele>332.8</ele>
        <time>2022-04-30T12:56:04Z</time>
      </trkpt>
      <trkpt lat="46.63864" lon="5.56382">
        <ele>333.6</ele>
        <time>2022-04-30T12:56:08Z</time>
      </trkpt>
      <trkpt lat="46.6385" lon="5.56402">
        <ele>334.6</ele>
        <time>2022-04-30T12:56:13Z</time>
      </trkpt>
      <trkpt lat="46.6384" lon="5.56419">
        <ele>335.2</ele>
        <time>2022-04-30T12:56:17Z</time>
      </trkpt>
      <trkpt lat="46.63835" lon="5.5643">
        <ele>335.6</ele>
        <time>2022-04-30T12:56:19Z</time>
      </trkpt>
      <trkpt lat="46.63833" lon="5.56436">
        <ele>335.8</ele>
        <time>2022-04-30T12:56:20Z</time>
      </trkpt>
      <trkpt lat="46.6382" lon="5.56462">
        <ele>336</ele>
        <time>2022-04-30T12:56:24Z</time>
      </trkpt>
      <trkpt lat="46.63802" lon="5.56513">
        <ele>335.8</ele>
        <time>2022-04-30T12:56:30Z</time>
      </trkpt>
      <trkpt lat="46.63791" lon="5.56566">
        <ele>335.4</ele>
        <time>2022-04-30T12:56:36Z</time>
      </trkpt>
      <trkpt lat="46.63782" lon="5.56605">
        <ele>336.4</ele>
        <time>2022-04-30T12:56:42Z</time>
      </trkpt>
      <trkpt lat="46.63778" lon="5.56617">
        <ele>337</ele>
        <time>2022-04-30T12:56:44Z</time>
      </trkpt>
      <trkpt lat="46.63771" lon="5.56634">
        <ele>338.2</ele>
        <time>2022-04-30T12:56:47Z</time>
      </trkpt>
      <trkpt lat="46.63766" lon="5.56644">
        <ele>339.2</ele>
        <time>2022-04-30T12:56:49Z</time>
      </trkpt>
      <trkpt lat="46.63761" lon="5.56654">
        <ele>339.4</ele>
        <time>2022-04-30T12:56:51Z</time>
      </trkpt>
      <trkpt lat="46.6375" lon="5.56674">
        <ele>340.2</ele>
        <time>2022-04-30T12:56:55Z</time>
      </trkpt>
      <trkpt lat="46.63742" lon="5.56687">
        <ele>341</ele>
        <time>2022-04-30T12:56:58Z</time>
      </trkpt>
      <trkpt lat="46.62594" lon="5.57568">
        <ele>385</ele>
        <time>2022-04-30T13:03:48Z</time>
      </trkpt>
      <trkpt lat="46.6261" lon="5.57551">
        <ele>384.2</ele>
        <time>2022-04-30T13:03:54Z</time>
      </trkpt>
      <trkpt lat="46.62614" lon="5.57544">
        <ele>384.8</ele>
        <time>2022-04-30T13:03:56Z</time>
      </trkpt>
      <trkpt lat="46.62615" lon="5.57539">
        <ele>385</ele>
        <time>2022-04-30T13:03:57Z</time>
      </trkpt>
      <trkpt lat="46.62613" lon="5.57531">
        <ele>385.2</ele>
        <time>2022-04-30T13:03:59Z</time>
      </trkpt>
      <trkpt lat="46.62609" lon="5.57525">
        <ele>385.2</ele>
        <time>2022-04-30T13:04:01Z</time>
      </trkpt>
      <trkpt lat="46.62605" lon="5.57524">
        <ele>385.4</ele>
        <time>2022-04-30T13:04:02Z</time>
      </trkpt>
      <trkpt lat="46.62589" lon="5.57528">
        <ele>386.4</ele>
        <time>2022-04-30T13:04:07Z</time>
      </trkpt>
      <trkpt lat="46.62586" lon="5.57531">
        <ele>386.4</ele>
        <time>2022-04-30T13:04:08Z</time>
      </trkpt>
      <trkpt lat="46.62575" lon="5.57537">
        <ele>387.4</ele>
        <time>2022-04-30T13:04:12Z</time>
      </trkpt>
      <trkpt lat="46.62569" lon="5.57541">
        <ele>387.8</ele>
        <time>2022-04-30T13:04:14Z</time>
      </trkpt>
      <trkpt lat="46.62557" lon="5.57549">
        <ele>388.6</ele>
        <time>2022-04-30T13:04:18Z</time>
      </trkpt>
      <trkpt lat="46.62548" lon="5.57555">
        <ele>389.2</ele>
        <time>2022-04-30T13:04:21Z</time>
      </trkpt>
      <trkpt lat="46.62539" lon="5.5756">
        <ele>389.6</ele>
        <time>2022-04-30T13:04:24Z</time>
      </trkpt>
      <trkpt lat="46.62525" lon="5.57565">
        <ele>390.6</ele>
        <time>2022-04-30T13:04:28Z</time>
      </trkpt>
      <trkpt lat="46.62522" lon="5.57566">
        <ele>390.6</ele>
        <time>2022-04-30T13:04:29Z</time>
      </trkpt>
      <trkpt lat="46.62512" lon="5.57569">
        <ele>391.6</ele>
        <time>2022-04-30T13:04:32Z</time>
      </trkpt>
      <trkpt lat="46.62504" lon="5.57571">
        <ele>391.8</ele>
        <time>2022-04-30T13:04:34Z</time>
      </trkpt>
      <trkpt lat="46.62484" lon="5.57581">
        <ele>392.6</ele>
        <time>2022-04-30T13:04:39Z</time>
      </trkpt>
      <trkpt lat="46.62472" lon="5.57588">
        <ele>393.4</ele>
        <time>2022-04-30T13:04:42Z</time>
      </trkpt>
      <trkpt lat="46.62464" lon="5.57592">
        <ele>393.8</ele>
        <time>2022-04-30T13:04:44Z</time>
      </trkpt>
      <trkpt lat="46.62454" lon="5.57594">
        <ele>394.4</ele>
        <time>2022-04-30T13:04:47Z</time>
      </trkpt>
      <trkpt lat="46.62452" lon="5.57596">
        <ele>394.8</ele>
        <time>2022-04-30T13:04:48Z</time>
      </trkpt>
      <trkpt lat="46.62441" lon="5.57603">
        <ele>395.8</ele>
        <time>2022-04-30T13:04:51Z</time>
      </trkpt>
      <trkpt lat="46.62435" lon="5.57607">
        <ele>396</ele>
        <time>2022-04-30T13:04:53Z</time>
      </trkpt>
      <trkpt lat="46.62422" lon="5.57612">
        <ele>397</ele>
        <time>2022-04-30T13:04:57Z</time>
      </trkpt>
      <trkpt lat="46.62419" lon="5.57613">
        <ele>397.2</ele>
        <time>2022-04-30T13:04:58Z</time>
      </trkpt>
      <trkpt lat="46.62415" lon="5.57615">
        <ele>397.2</ele>
        <time>2022-04-30T13:04:59Z</time>
      </trkpt>
      <trkpt lat="46.62407" lon="5.57618">
        <ele>397.6</ele>
        <time>2022-04-30T13:05:01Z</time>
      </trkpt>
      <trkpt lat="46.624" lon="5.57619">
        <ele>398.2</ele>
        <time>2022-04-30T13:05:03Z</time>
      </trkpt>
      <trkpt lat="46.62383" lon="5.57618">
        <ele>399</ele>
        <time>2022-04-30T13:05:08Z</time>
      </trkpt>
      <trkpt lat="46.6238" lon="5.57617">
        <ele>399.4</ele>
        <time>2022-04-30T13:05:09Z</time>
      </trkpt>
      <trkpt lat="46.62365" lon="5.5761">
        <ele>400.2</ele>
        <time>2022-04-30T13:05:14Z</time>
      </trkpt>
      <trkpt lat="46.62359" lon="5.57609">
        <ele>400.4</ele>
        <time>2022-04-30T13:05:16Z</time>
      </trkpt>
      <trkpt lat="46.62347" lon="5.57601">
        <ele>401</ele>
        <time>2022-04-30T13:05:20Z</time>
      </trkpt>
      <trkpt lat="46.62335" lon="5.57598">
        <ele>401.4</ele>
        <time>2022-04-30T13:05:24Z</time>
      </trkpt>
      <trkpt lat="46.62332" lon="5.57597">
        <ele>401.4</ele>
        <time>2022-04-30T13:05:25Z</time>
      </trkpt>
      <trkpt lat="46.62323" lon="5.57597">
        <ele>402.6</ele>
        <time>2022-04-30T13:05:28Z</time>
      </trkpt>
      <trkpt lat="46.62313" lon="5.57599">
        <ele>403.2</ele>
        <time>2022-04-30T13:05:31Z</time>
      </trkpt>
      <trkpt lat="46.62307" lon="5.57599">
        <ele>403.6</ele>
        <time>2022-04-30T13:05:33Z</time>
      </trkpt>
      <trkpt lat="46.62294" lon="5.576">
        <ele>404.6</ele>
        <time>2022-04-30T13:05:37Z</time>
      </trkpt>
      <trkpt lat="46.62278" lon="5.57614">
        <ele>405.4</ele>
        <time>2022-04-30T13:05:42Z</time>
      </trkpt>
      <trkpt lat="46.62274" lon="5.57623">
        <ele>405.8</ele>
        <time>2022-04-30T13:05:44Z</time>
      </trkpt>
      <trkpt lat="46.6227" lon="5.57633">
        <ele>406.6</ele>
        <time>2022-04-30T13:05:47Z</time>
      </trkpt>
      <trkpt lat="46.62267" lon="5.57643">
        <ele>407</ele>
        <time>2022-04-30T13:05:50Z</time>
      </trkpt>
      <trkpt lat="46.62265" lon="5.5765">
        <ele>407</ele>
        <time>2022-04-30T13:05:52Z</time>
      </trkpt>
      <trkpt lat="46.62262" lon="5.57669">
        <ele>408</ele>
        <time>2022-04-30T13:05:56Z</time>
      </trkpt>
      <trkpt lat="46.6226" lon="5.57681">
        <ele>408.6</ele>
        <time>2022-04-30T13:05:58Z</time>
      </trkpt>
      <trkpt lat="46.62261" lon="5.5769">
        <ele>409</ele>
        <time>2022-04-30T13:06:00Z</time>
      </trkpt>
      <trkpt lat="46.62262" lon="5.5771">
        <ele>409.8</ele>
        <time>2022-04-30T13:06:04Z</time>
      </trkpt>
      <trkpt lat="46.62262" lon="5.57714">
        <ele>410.2</ele>
        <time>2022-04-30T13:06:05Z</time>
      </trkpt>
      <trkpt lat="46.62268" lon="5.57741">
        <ele>411</ele>
        <time>2022-04-30T13:06:11Z</time>
      </trkpt>
      <trkpt lat="46.62278" lon="5.57765">
        <ele>412.2</ele>
        <time>2022-04-30T13:06:17Z</time>
      </trkpt>
      <trkpt lat="46.62284" lon="5.57775">
        <ele>412.6</ele>
        <time>2022-04-30T13:06:20Z</time>
      </trkpt>
      <trkpt lat="46.62288" lon="5.57792">
        <ele>413.4</ele>
        <time>2022-04-30T13:06:24Z</time>
      </trkpt>
      <trkpt lat="46.62287" lon="5.57801">
        <ele>413.6</ele>
        <time>2022-04-30T13:06:26Z</time>
      </trkpt>
      <trkpt lat="46.62281" lon="5.57814">
        <ele>414.4</ele>
        <time>2022-04-30T13:06:30Z</time>
      </trkpt>
      <trkpt lat="46.62279" lon="5.57815">
        <ele>414.6</ele>
        <time>2022-04-30T13:06:31Z</time>
      </trkpt>
      <trkpt lat="46.62268" lon="5.57822">
        <ele>415.6</ele>
        <time>2022-04-30T13:06:35Z</time>
      </trkpt>
      <trkpt lat="46.62252" lon="5.57834">
        <ele>416.6</ele>
        <time>2022-04-30T13:06:41Z</time>
      </trkpt>
      <trkpt lat="46.62249" lon="5.57836">
        <ele>417</ele>
        <time>2022-04-30T13:06:42Z</time>
      </trkpt>
      <trkpt lat="46.62241" lon="5.57846">
        <ele>417.8</ele>
        <time>2022-04-30T13:06:45Z</time>
      </trkpt>
      <trkpt lat="46.62229" lon="5.57859">
        <ele>418.6</ele>
        <time>2022-04-30T13:06:49Z</time>
      </trkpt>
      <trkpt lat="46.62224" lon="5.57866">
        <ele>419</ele>
        <time>2022-04-30T13:06:51Z</time>
      </trkpt>
      <trkpt lat="46.62214" lon="5.57877">
        <ele>420</ele>
        <time>2022-04-30T13:06:56Z</time>
      </trkpt>
      <trkpt lat="46.62212" lon="5.57882">
        <ele>420.2</ele>
        <time>2022-04-30T13:06:57Z</time>
      </trkpt>
      <trkpt lat="46.6221" lon="5.57885">
        <ele>420.4</ele>
        <time>2022-04-30T13:06:58Z</time>
      </trkpt>
      <trkpt lat="46.62203" lon="5.57895">
        <ele>421.2</ele>
        <time>2022-04-30T13:07:01Z</time>
      </trkpt>
      <trkpt lat="46.62201" lon="5.57899">
        <ele>421.4</ele>
        <time>2022-04-30T13:07:02Z</time>
      </trkpt>
      <trkpt lat="46.62194" lon="5.57912">
        <ele>422.2</ele>
        <time>2022-04-30T13:07:06Z</time>
      </trkpt>
      <trkpt lat="46.62192" lon="5.57916">
        <ele>422.6</ele>
        <time>2022-04-30T13:07:07Z</time>
      </trkpt>
      <trkpt lat="46.62178" lon="5.57931">
        <ele>423.6</ele>
        <time>2022-04-30T13:07:12Z</time>
      </trkpt>
      <trkpt lat="46.62166" lon="5.57948">
        <ele>424.6</ele>
        <time>2022-04-30T13:07:18Z</time>
      </trkpt>
      <trkpt lat="46.62163" lon="5.5795">
        <ele>425</ele>
        <time>2022-04-30T13:07:19Z</time>
      </trkpt>
      <trkpt lat="46.62155" lon="5.57957">
        <ele>425.8</ele>
        <time>2022-04-30T13:07:22Z</time>
      </trkpt>
      <trkpt lat="46.62144" lon="5.57965">
        <ele>426</ele>
        <time>2022-04-30T13:07:26Z</time>
      </trkpt>
      <trkpt lat="46.62133" lon="5.57975">
        <ele>426.8</ele>
        <time>2022-04-30T13:07:30Z</time>
      </trkpt>
      <trkpt lat="46.62123" lon="5.57981">
        <ele>427.8</ele>
        <time>2022-04-30T13:07:33Z</time>
      </trkpt>
      <trkpt lat="46.62117" lon="5.57986">
        <ele>428</ele>
        <time>2022-04-30T13:07:35Z</time>
      </trkpt>
      <trkpt lat="46.62107" lon="5.57994">
        <ele>428.8</ele>
        <time>2022-04-30T13:07:38Z</time>
      </trkpt>
      <trkpt lat="46.62096" lon="5.58002">
        <ele>429</ele>
        <time>2022-04-30T13:07:41Z</time>
      </trkpt>
      <trkpt lat="46.62086" lon="5.58009">
        <ele>429.8</ele>
        <time>2022-04-30T13:07:44Z</time>
      </trkpt>
      <trkpt lat="46.62069" lon="5.58021">
        <ele>430.8</ele>
        <time>2022-04-30T13:07:49Z</time>
      </trkpt>
      <trkpt lat="46.62055" lon="5.58021">
        <ele>431.8</ele>
        <time>2022-04-30T13:07:53Z</time>
      </trkpt>
      <trkpt lat="46.62052" lon="5.58018">
        <ele>432</ele>
        <time>2022-04-30T13:07:54Z</time>
      </trkpt>
      <trkpt lat="46.6205" lon="5.58015">
        <ele>432.2</ele>
        <time>2022-04-30T13:07:55Z</time>
      </trkpt>
      <trkpt lat="46.6205" lon="5.58011">
        <ele>432.6</ele>
        <time>2022-04-30T13:07:56Z</time>
      </trkpt>
      <trkpt lat="46.62051" lon="5.58003">
        <ele>433</ele>
        <time>2022-04-30T13:07:58Z</time>
      </trkpt>
      <trkpt lat="46.62053" lon="5.57999">
        <ele>433.2</ele>
        <time>2022-04-30T13:07:59Z</time>
      </trkpt>
      <trkpt lat="46.62056" lon="5.57996">
        <ele>433.6</ele>
        <time>2022-04-30T13:08:00Z</time>
      </trkpt>
      <trkpt lat="46.62068" lon="5.57987">
        <ele>434.8</ele>
        <time>2022-04-30T13:08:03Z</time>
      </trkpt>
      <trkpt lat="46.62079" lon="5.57977">
        <ele>435.4</ele>
        <time>2022-04-30T13:08:06Z</time>
      </trkpt>
      <trkpt lat="46.62087" lon="5.57971">
        <ele>436</ele>
        <time>2022-04-30T13:08:08Z</time>
      </trkpt>
      <trkpt lat="46.62099" lon="5.57961">
        <ele>436.2</ele>
        <time>2022-04-30T13:08:11Z</time>
      </trkpt>
      <trkpt lat="46.62118" lon="5.57946">
        <ele>437</ele>
        <time>2022-04-30T13:08:16Z</time>
      </trkpt>
      <trkpt lat="46.62136" lon="5.57932">
        <ele>437.8</ele>
        <time>2022-04-30T13:08:21Z</time>
      </trkpt>
      <trkpt lat="46.62144" lon="5.57926">
        <ele>438</ele>
        <time>2022-04-30T13:08:23Z</time>
      </trkpt>
      <trkpt lat="46.62156" lon="5.57913">
        <ele>438.6</ele>
        <time>2022-04-30T13:08:27Z</time>
      </trkpt>
      <trkpt lat="46.62158" lon="5.57904">
        <ele>438.8</ele>
        <time>2022-04-30T13:08:29Z</time>
      </trkpt>
      <trkpt lat="46.62157" lon="5.57896">
        <ele>439</ele>
        <time>2022-04-30T13:08:31Z</time>
      </trkpt>
      <trkpt lat="46.62155" lon="5.57893">
        <ele>439.2</ele>
        <time>2022-04-30T13:08:32Z</time>
      </trkpt>
      <trkpt lat="46.62149" lon="5.5789">
        <ele>439.6</ele>
        <time>2022-04-30T13:08:34Z</time>
      </trkpt>
      <trkpt lat="46.62137" lon="5.57891">
        <ele>440.4</ele>
        <time>2022-04-30T13:08:38Z</time>
      </trkpt>
      <trkpt lat="46.62128" lon="5.57892">
        <ele>441.6</ele>
        <time>2022-04-30T13:08:41Z</time>
      </trkpt>
      <trkpt lat="46.62125" lon="5.57892">
        <ele>442</ele>
        <time>2022-04-30T13:08:42Z</time>
      </trkpt>
      <trkpt lat="46.62117" lon="5.57893">
        <ele>442.6</ele>
        <time>2022-04-30T13:08:45Z</time>
      </trkpt>
      <trkpt lat="46.62107" lon="5.57896">
        <ele>443.6</ele>
        <time>2022-04-30T13:08:48Z</time>
      </trkpt>
      <trkpt lat="46.62104" lon="5.57898">
        <ele>443.8</ele>
        <time>2022-04-30T13:08:49Z</time>
      </trkpt>
      <trkpt lat="46.62094" lon="5.57901">
        <ele>444.4</ele>
        <time>2022-04-30T13:08:52Z</time>
      </trkpt>
      <trkpt lat="46.62085" lon="5.57906">
        <ele>444.6</ele>
        <time>2022-04-30T13:08:55Z</time>
      </trkpt>
      <trkpt lat="46.6207" lon="5.57914">
        <ele>445.8</ele>
        <time>2022-04-30T13:08:59Z</time>
      </trkpt>
      <trkpt lat="46.62042" lon="5.57932">
        <ele>447</ele>
        <time>2022-04-30T13:09:07Z</time>
      </trkpt>
      <trkpt lat="46.6204" lon="5.57933">
        <ele>447.2</ele>
        <time>2022-04-30T13:09:08Z</time>
      </trkpt>
      <trkpt lat="46.62025" lon="5.57941">
        <ele>448</ele>
        <time>2022-04-30T13:09:12Z</time>
      </trkpt>
      <trkpt lat="46.62013" lon="5.57948">
        <ele>448.6</ele>
        <time>2022-04-30T13:09:16Z</time>
      </trkpt>
      <trkpt lat="46.62003" lon="5.57955">
        <ele>449.2</ele>
        <time>2022-04-30T13:09:19Z</time>
      </trkpt>
      <trkpt lat="46.61994" lon="5.57962">
        <ele>450.4</ele>
        <time>2022-04-30T13:09:22Z</time>
      </trkpt>
      <trkpt lat="46.61992" lon="5.57964">
        <ele>450.6</ele>
        <time>2022-04-30T13:09:23Z</time>
      </trkpt>
      <trkpt lat="46.61983" lon="5.57975">
        <ele>451.4</ele>
        <time>2022-04-30T13:09:26Z</time>
      </trkpt>
      <trkpt lat="46.61977" lon="5.5798">
        <ele>452</ele>
        <time>2022-04-30T13:09:28Z</time>
      </trkpt>
      <trkpt lat="46.61962" lon="5.57993">
        <ele>452.6</ele>
        <time>2022-04-30T13:09:33Z</time>
      </trkpt>
      <trkpt lat="46.61951" lon="5.58005">
        <ele>453.6</ele>
        <time>2022-04-30T13:09:37Z</time>
      </trkpt>
      <trkpt lat="46.61937" lon="5.58017">
        <ele>454.6</ele>
        <time>2022-04-30T13:09:42Z</time>
      </trkpt>
      <trkpt lat="46.61931" lon="5.58022">
        <ele>455.4</ele>
        <time>2022-04-30T13:09:44Z</time>
      </trkpt>
      <trkpt lat="46.61928" lon="5.58024">
        <ele>455.6</ele>
        <time>2022-04-30T13:09:45Z</time>
      </trkpt>
      <trkpt lat="46.61907" lon="5.58039">
        <ele>456.8</ele>
        <time>2022-04-30T13:09:52Z</time>
      </trkpt>
      <trkpt lat="46.61905" lon="5.58045">
        <ele>457.2</ele>
        <time>2022-04-30T13:09:54Z</time>
      </trkpt>
      <trkpt lat="46.61905" lon="5.5806">
        <ele>458</ele>
        <time>2022-04-30T13:09:57Z</time>
      </trkpt>
      <trkpt lat="46.61913" lon="5.58082">
        <ele>459.4</ele>
        <time>2022-04-30T13:10:03Z</time>
      </trkpt>
      <trkpt lat="46.61922" lon="5.58096">
        <ele>460.4</ele>
        <time>2022-04-30T13:10:07Z</time>
      </trkpt>
      <trkpt lat="46.61934" lon="5.58115">
        <ele>460.8</ele>
        <time>2022-04-30T13:10:12Z</time>
      </trkpt>
      <trkpt lat="46.6194" lon="5.58125">
        <ele>461.4</ele>
        <time>2022-04-30T13:10:15Z</time>
      </trkpt>
      <trkpt lat="46.61949" lon="5.5814">
        <ele>462.4</ele>
        <time>2022-04-30T13:10:19Z</time>
      </trkpt>
      <trkpt lat="46.61951" lon="5.58143">
        <ele>462.8</ele>
        <time>2022-04-30T13:10:20Z</time>
      </trkpt>
      <trkpt lat="46.61967" lon="5.58163">
        <ele>463.6</ele>
        <time>2022-04-30T13:10:27Z</time>
      </trkpt>
      <trkpt lat="46.61969" lon="5.58165">
        <ele>463.8</ele>
        <time>2022-04-30T13:10:28Z</time>
      </trkpt>
      <trkpt lat="46.61984" lon="5.58171">
        <ele>464.6</ele>
        <time>2022-04-30T13:10:33Z</time>
      </trkpt>
      <trkpt lat="46.61994" lon="5.58173">
        <ele>465.2</ele>
        <time>2022-04-30T13:10:36Z</time>
      </trkpt>
      <trkpt lat="46.62001" lon="5.58174">
        <ele>466</ele>
        <time>2022-04-30T13:10:38Z</time>
      </trkpt>
      <trkpt lat="46.62017" lon="5.58178">
        <ele>467.2</ele>
        <time>2022-04-30T13:10:43Z</time>
      </trkpt>
      <trkpt lat="46.62021" lon="5.58179">
        <ele>467.2</ele>
        <time>2022-04-30T13:10:44Z</time>
      </trkpt>
      <trkpt lat="46.62042" lon="5.58185">
        <ele>468.4</ele>
        <time>2022-04-30T13:10:50Z</time>
      </trkpt>
      <trkpt lat="46.62051" lon="5.58191">
        <ele>468.6</ele>
        <time>2022-04-30T13:10:53Z</time>
      </trkpt>
      <trkpt lat="46.62059" lon="5.582">
        <ele>469.4</ele>
        <time>2022-04-30T13:10:56Z</time>
      </trkpt>
      <trkpt lat="46.62064" lon="5.58206">
        <ele>469.8</ele>
        <time>2022-04-30T13:10:58Z</time>
      </trkpt>
      <trkpt lat="46.62071" lon="5.58216">
        <ele>470.4</ele>
        <time>2022-04-30T13:11:01Z</time>
      </trkpt>
      <trkpt lat="46.6208" lon="5.58225">
        <ele>471.4</ele>
        <time>2022-04-30T13:11:04Z</time>
      </trkpt>
      <trkpt lat="46.62088" lon="5.58234">
        <ele>472.2</ele>
        <time>2022-04-30T13:11:07Z</time>
      </trkpt>
      <trkpt lat="46.6209" lon="5.58236">
        <ele>472.8</ele>
        <time>2022-04-30T13:11:08Z</time>
      </trkpt>
      <trkpt lat="46.62105" lon="5.58257">
        <ele>473.6</ele>
        <time>2022-04-30T13:11:14Z</time>
      </trkpt>
      <trkpt lat="46.62105" lon="5.58261">
        <ele>473.8</ele>
        <time>2022-04-30T13:11:15Z</time>
      </trkpt>
      <trkpt lat="46.62103" lon="5.58266">
        <ele>474.2</ele>
        <time>2022-04-30T13:11:17Z</time>
      </trkpt>
      <trkpt lat="46.62091" lon="5.58264">
        <ele>474.8</ele>
        <time>2022-04-30T13:11:21Z</time>
      </trkpt>
      <trkpt lat="46.62083" lon="5.58253">
        <ele>475.8</ele>
        <time>2022-04-30T13:11:24Z</time>
      </trkpt>
      <trkpt lat="46.62078" lon="5.58247">
        <ele>476.4</ele>
        <time>2022-04-30T13:11:26Z</time>
      </trkpt>
      <trkpt lat="46.6207" lon="5.58239">
        <ele>477</ele>
        <time>2022-04-30T13:11:29Z</time>
      </trkpt>
      <trkpt lat="46.62066" lon="5.58237">
        <ele>477.4</ele>
        <time>2022-04-30T13:11:31Z</time>
      </trkpt>
      <trkpt lat="46.6206" lon="5.58234">
        <ele>478</ele>
        <time>2022-04-30T13:11:33Z</time>
      </trkpt>
      <trkpt lat="46.62046" lon="5.58227">
        <ele>478.8</ele>
        <time>2022-04-30T13:11:37Z</time>
      </trkpt>
      <trkpt lat="46.62026" lon="5.58224">
        <ele>480.2</ele>
        <time>2022-04-30T13:11:43Z</time>
      </trkpt>
      <trkpt lat="46.62023" lon="5.58224">
        <ele>480.4</ele>
        <time>2022-04-30T13:11:44Z</time>
      </trkpt>
      <trkpt lat="46.62009" lon="5.58226">
        <ele>481.2</ele>
        <time>2022-04-30T13:11:48Z</time>
      </trkpt>
      <trkpt lat="46.62006" lon="5.58226">
        <ele>481.2</ele>
        <time>2022-04-30T13:11:49Z</time>
      </trkpt>
      <trkpt lat="46.61989" lon="5.58225">
        <ele>482.2</ele>
        <time>2022-04-30T13:11:54Z</time>
      </trkpt>
      <trkpt lat="46.61986" lon="5.58224">
        <ele>482.4</ele>
        <time>2022-04-30T13:11:55Z</time>
      </trkpt>
      <trkpt lat="46.61969" lon="5.58223">
        <ele>483.2</ele>
        <time>2022-04-30T13:12:00Z</time>
      </trkpt>
      <trkpt lat="46.61966" lon="5.58223">
        <ele>483.4</ele>
        <time>2022-04-30T13:12:01Z</time>
      </trkpt>
      <trkpt lat="46.61953" lon="5.5822">
        <ele>484.2</ele>
        <time>2022-04-30T13:12:06Z</time>
      </trkpt>
      <trkpt lat="46.61947" lon="5.5822">
        <ele>484.8</ele>
        <time>2022-04-30T13:12:08Z</time>
      </trkpt>
      <trkpt lat="46.61937" lon="5.58222">
        <ele>485.6</ele>
        <time>2022-04-30T13:12:11Z</time>
      </trkpt>
      <trkpt lat="46.61931" lon="5.58222">
        <ele>486.2</ele>
        <time>2022-04-30T13:12:13Z</time>
      </trkpt>
      <trkpt lat="46.61921" lon="5.58221">
        <ele>486.8</ele>
        <time>2022-04-30T13:12:16Z</time>
      </trkpt>
      <trkpt lat="46.61902" lon="5.58222">
        <ele>487.6</ele>
        <time>2022-04-30T13:12:22Z</time>
      </trkpt>
      <trkpt lat="46.61898" lon="5.58222">
        <ele>488</ele>
        <time>2022-04-30T13:12:23Z</time>
      </trkpt>
      <trkpt lat="46.61878" lon="5.58219">
        <ele>489</ele>
        <time>2022-04-30T13:12:29Z</time>
      </trkpt>
      <trkpt lat="46.61875" lon="5.58218">
        <ele>489</ele>
        <time>2022-04-30T13:12:30Z</time>
      </trkpt>
      <trkpt lat="46.61864" lon="5.58214">
        <ele>489.8</ele>
        <time>2022-04-30T13:12:33Z</time>
      </trkpt>
      <trkpt lat="46.6185" lon="5.58207">
        <ele>490.8</ele>
        <time>2022-04-30T13:12:37Z</time>
      </trkpt>
      <trkpt lat="46.61847" lon="5.58205">
        <ele>491</ele>
        <time>2022-04-30T13:12:38Z</time>
      </trkpt>
      <trkpt lat="46.61831" lon="5.58194">
        <ele>492.2</ele>
        <time>2022-04-30T13:12:43Z</time>
      </trkpt>
      <trkpt lat="46.61825" lon="5.58191">
        <ele>492.8</ele>
        <time>2022-04-30T13:12:45Z</time>
      </trkpt>
      <trkpt lat="46.61818" lon="5.58187">
        <ele>493.4</ele>
        <time>2022-04-30T13:12:47Z</time>
      </trkpt>
      <trkpt lat="46.61805" lon="5.5818">
        <ele>494.6</ele>
        <time>2022-04-30T13:12:51Z</time>
      </trkpt>
      <trkpt lat="46.6179" lon="5.58172">
        <ele>495.8</ele>
        <time>2022-04-30T13:12:56Z</time>
      </trkpt>
      <trkpt lat="46.61778" lon="5.58165">
        <ele>497</ele>
        <time>2022-04-30T13:13:00Z</time>
      </trkpt>
      <trkpt lat="46.61768" lon="5.58162">
        <ele>497.4</ele>
        <time>2022-04-30T13:13:03Z</time>
      </trkpt>
      <trkpt lat="46.61758" lon="5.58159">
        <ele>498.2</ele>
        <time>2022-04-30T13:13:06Z</time>
      </trkpt>
      <trkpt lat="46.61744" lon="5.58155">
        <ele>499.2</ele>
        <time>2022-04-30T13:13:10Z</time>
      </trkpt>
      <trkpt lat="46.61741" lon="5.58154">
        <ele>499.4</ele>
        <time>2022-04-30T13:13:11Z</time>
      </trkpt>
      <trkpt lat="46.61731" lon="5.58152">
        <ele>500</ele>
        <time>2022-04-30T13:13:14Z</time>
      </trkpt>
      <trkpt lat="46.61718" lon="5.58149">
        <ele>501</ele>
        <time>2022-04-30T13:13:18Z</time>
      </trkpt>
      <trkpt lat="46.61714" lon="5.58148">
        <ele>501.2</ele>
        <time>2022-04-30T13:13:19Z</time>
      </trkpt>
      <trkpt lat="46.61701" lon="5.58148">
        <ele>502.2</ele>
        <time>2022-04-30T13:13:23Z</time>
      </trkpt>
      <trkpt lat="46.61698" lon="5.58148">
        <ele>502.4</ele>
        <time>2022-04-30T13:13:24Z</time>
      </trkpt>
      <trkpt lat="46.61691" lon="5.58148">
        <ele>503.4</ele>
        <time>2022-04-30T13:13:26Z</time>
      </trkpt>
      <trkpt lat="46.61673" lon="5.58147">
        <ele>504.4</ele>
        <time>2022-04-30T13:13:31Z</time>
      </trkpt>
      <trkpt lat="46.61655" lon="5.58147">
        <ele>505.4</ele>
        <time>2022-04-30T13:13:36Z</time>
      </trkpt>
      <trkpt lat="46.61652" lon="5.58147">
        <ele>505.8</ele>
        <time>2022-04-30T13:13:37Z</time>
      </trkpt>
      <trkpt lat="46.61635" lon="5.58148">
        <ele>506.6</ele>
        <time>2022-04-30T13:13:42Z</time>
      </trkpt>
      <trkpt lat="46.61631" lon="5.58148">
        <ele>506.6</ele>
        <time>2022-04-30T13:13:43Z</time>
      </trkpt>
      <trkpt lat="46.61618" lon="5.58151">
        <ele>507.8</ele>
        <time>2022-04-30T13:13:47Z</time>
      </trkpt>
      <trkpt lat="46.61606" lon="5.58154">
        <ele>508.8</ele>
        <time>2022-04-30T13:13:51Z</time>
      </trkpt>
      <trkpt lat="46.61587" lon="5.5815">
        <ele>509.8</ele>
        <time>2022-04-30T13:13:57Z</time>
      </trkpt>
      <trkpt lat="46.61585" lon="5.58136">
        <ele>510.8</ele>
        <time>2022-04-30T13:14:00Z</time>
      </trkpt>
      <trkpt lat="46.61586" lon="5.58132">
        <ele>511</ele>
        <time>2022-04-30T13:14:01Z</time>
      </trkpt>
      <trkpt lat="46.61593" lon="5.58122">
        <ele>511.6</ele>
        <time>2022-04-30T13:14:04Z</time>
      </trkpt>
      <trkpt lat="46.616" lon="5.58115">
        <ele>512</ele>
        <time>2022-04-30T13:14:06Z</time>
      </trkpt>
      <trkpt lat="46.61613" lon="5.58101">
        <ele>513</ele>
        <time>2022-04-30T13:14:10Z</time>
      </trkpt>
      <trkpt lat="46.6162" lon="5.58095">
        <ele>513.2</ele>
        <time>2022-04-30T13:14:12Z</time>
      </trkpt>
      <trkpt lat="46.61623" lon="5.58092">
        <ele>513.4</ele>
        <time>2022-04-30T13:14:13Z</time>
      </trkpt>
      <trkpt lat="46.61635" lon="5.58085">
        <ele>513.4</ele>
        <time>2022-04-30T13:14:16Z</time>
      </trkpt>
      <trkpt lat="46.61647" lon="5.58079">
        <ele>513.6</ele>
        <time>2022-04-30T13:14:19Z</time>
      </trkpt>
      <trkpt lat="46.61658" lon="5.58075">
        <ele>514</ele>
        <time>2022-04-30T13:14:22Z</time>
      </trkpt>
      <trkpt lat="46.61686" lon="5.58061">
        <ele>514.6</ele>
        <time>2022-04-30T13:14:29Z</time>
      </trkpt>
      <trkpt lat="46.61707" lon="5.58044">
        <ele>515.2</ele>
        <time>2022-04-30T13:14:35Z</time>
      </trkpt>
      <trkpt lat="46.61721" lon="5.58032">
        <ele>516</ele>
        <time>2022-04-30T13:14:39Z</time>
      </trkpt>
      <trkpt lat="46.61723" lon="5.5803">
        <ele>516.4</ele>
        <time>2022-04-30T13:14:40Z</time>
      </trkpt>
      <trkpt lat="46.61747" lon="5.58007">
        <ele>517.6</ele>
        <time>2022-04-30T13:14:47Z</time>
      </trkpt>
      <trkpt lat="46.6175" lon="5.58003">
        <ele>517.6</ele>
        <time>2022-04-30T13:14:48Z</time>
      </trkpt>
      <trkpt lat="46.61753" lon="5.57994">
        <ele>517.8</ele>
        <time>2022-04-30T13:14:50Z</time>
      </trkpt>
      <trkpt lat="46.6175" lon="5.57986">
        <ele>518</ele>
        <time>2022-04-30T13:14:52Z</time>
      </trkpt>
      <trkpt lat="46.61747" lon="5.57983">
        <ele>518.2</ele>
        <time>2022-04-30T13:14:53Z</time>
      </trkpt>
      <trkpt lat="46.6174" lon="5.57983">
        <ele>518.4</ele>
        <time>2022-04-30T13:14:55Z</time>
      </trkpt>
      <trkpt lat="46.61737" lon="5.57984">
        <ele>518.8</ele>
        <time>2022-04-30T13:14:56Z</time>
      </trkpt>
      <trkpt lat="46.61729" lon="5.57991">
        <ele>519.8</ele>
        <time>2022-04-30T13:14:59Z</time>
      </trkpt>
      <trkpt lat="46.61726" lon="5.57994">
        <ele>520</ele>
        <time>2022-04-30T13:15:00Z</time>
      </trkpt>
      <trkpt lat="46.61723" lon="5.57997">
        <ele>520.4</ele>
        <time>2022-04-30T13:15:01Z</time>
      </trkpt>
      <trkpt lat="46.61717" lon="5.58002">
        <ele>521</ele>
        <time>2022-04-30T13:15:03Z</time>
      </trkpt>
      <trkpt lat="46.61712" lon="5.58007">
        <ele>521.4</ele>
        <time>2022-04-30T13:15:05Z</time>
      </trkpt>
      <trkpt lat="46.61703" lon="5.58016">
        <ele>522.4</ele>
        <time>2022-04-30T13:15:08Z</time>
      </trkpt>
      <trkpt lat="46.61692" lon="5.58028">
        <ele>523.4</ele>
        <time>2022-04-30T13:15:13Z</time>
      </trkpt>
      <trkpt lat="46.61689" lon="5.5803">
        <ele>523.6</ele>
        <time>2022-04-30T13:15:14Z</time>
      </trkpt>
      <trkpt lat="46.61678" lon="5.58038">
        <ele>524.4</ele>
        <time>2022-04-30T13:15:18Z</time>
      </trkpt>
      <trkpt lat="46.61669" lon="5.58041">
        <ele>524.8</ele>
        <time>2022-04-30T13:15:21Z</time>
      </trkpt>
      <trkpt lat="46.6166" lon="5.58044">
        <ele>525.6</ele>
        <time>2022-04-30T13:15:24Z</time>
      </trkpt>
      <trkpt lat="46.61648" lon="5.58047">
        <ele>526.6</ele>
        <time>2022-04-30T13:15:28Z</time>
      </trkpt>
      <trkpt lat="46.61646" lon="5.58048">
        <ele>526.8</ele>
        <time>2022-04-30T13:15:29Z</time>
      </trkpt>
      <trkpt lat="46.61641" lon="5.58049">
        <ele>527</ele>
        <time>2022-04-30T13:15:31Z</time>
      </trkpt>
      <trkpt lat="46.61632" lon="5.58052">
        <ele>527.8</ele>
        <time>2022-04-30T13:15:34Z</time>
      </trkpt>
      <trkpt lat="46.6163" lon="5.58052">
        <ele>528</ele>
        <time>2022-04-30T13:15:35Z</time>
      </trkpt>
      <trkpt lat="46.61619" lon="5.58056">
        <ele>528.8</ele>
        <time>2022-04-30T13:15:38Z</time>
      </trkpt>
      <trkpt lat="46.61608" lon="5.58063">
        <ele>529.2</ele>
        <time>2022-04-30T13:15:42Z</time>
      </trkpt>
      <trkpt lat="46.61591" lon="5.58075">
        <ele>529.8</ele>
        <time>2022-04-30T13:15:48Z</time>
      </trkpt>
      <trkpt lat="46.61589" lon="5.58077">
        <ele>530</ele>
        <time>2022-04-30T13:15:49Z</time>
      </trkpt>
      <trkpt lat="46.61577" lon="5.58087">
        <ele>531</ele>
        <time>2022-04-30T13:15:54Z</time>
      </trkpt>
      <trkpt lat="46.61572" lon="5.58091">
        <ele>531.4</ele>
        <time>2022-04-30T13:15:56Z</time>
      </trkpt>
      <trkpt lat="46.61566" lon="5.58096">
        <ele>532.2</ele>
        <time>2022-04-30T13:15:59Z</time>
      </trkpt>
      <trkpt lat="46.61558" lon="5.58104">
        <ele>532.6</ele>
        <time>2022-04-30T13:16:02Z</time>
      </trkpt>
      <trkpt lat="46.6155" lon="5.58112">
        <ele>533.2</ele>
        <time>2022-04-30T13:16:05Z</time>
      </trkpt>
      <trkpt lat="46.6154" lon="5.58122">
        <ele>534</ele>
        <time>2022-04-30T13:16:09Z</time>
      </trkpt>
      <trkpt lat="46.61538" lon="5.58125">
        <ele>534.4</ele>
        <time>2022-04-30T13:16:10Z</time>
      </trkpt>
      <trkpt lat="46.61525" lon="5.58138">
        <ele>535.6</ele>
        <time>2022-04-30T13:16:15Z</time>
      </trkpt>
      <trkpt lat="46.61521" lon="5.58142">
        <ele>535.8</ele>
        <time>2022-04-30T13:16:17Z</time>
      </trkpt>
      <trkpt lat="46.61513" lon="5.58149">
        <ele>536.6</ele>
        <time>2022-04-30T13:16:20Z</time>
      </trkpt>
      <trkpt lat="46.61505" lon="5.58157">
        <ele>537.4</ele>
        <time>2022-04-30T13:16:23Z</time>
      </trkpt>
      <trkpt lat="46.615" lon="5.58163">
        <ele>537.8</ele>
        <time>2022-04-30T13:16:25Z</time>
      </trkpt>
      <trkpt lat="46.61482" lon="5.5818">
        <ele>538.6</ele>
        <time>2022-04-30T13:16:31Z</time>
      </trkpt>
      <trkpt lat="46.61479" lon="5.58183">
        <ele>538.8</ele>
        <time>2022-04-30T13:16:32Z</time>
      </trkpt>
      <trkpt lat="46.61471" lon="5.58187">
        <ele>539.6</ele>
        <time>2022-04-30T13:16:35Z</time>
      </trkpt>
      <trkpt lat="46.61461" lon="5.58191">
        <ele>540.2</ele>
        <time>2022-04-30T13:16:38Z</time>
      </trkpt>
      <trkpt lat="46.61449" lon="5.58197">
        <ele>540.6</ele>
        <time>2022-04-30T13:16:41Z</time>
      </trkpt>
      <trkpt lat="46.61442" lon="5.58199">
        <ele>541</ele>
        <time>2022-04-30T13:16:43Z</time>
      </trkpt>
      <trkpt lat="46.61429" lon="5.58205">
        <ele>541.8</ele>
        <time>2022-04-30T13:16:47Z</time>
      </trkpt>
      <trkpt lat="46.61422" lon="5.58206">
        <ele>542.2</ele>
        <time>2022-04-30T13:16:49Z</time>
      </trkpt>
      <trkpt lat="46.61415" lon="5.58209">
        <ele>542.8</ele>
        <time>2022-04-30T13:16:51Z</time>
      </trkpt>
      <trkpt lat="46.614" lon="5.58213">
        <ele>543.8</ele>
        <time>2022-04-30T13:16:55Z</time>
      </trkpt>
      <trkpt lat="46.61386" lon="5.58217">
        <ele>545</ele>
        <time>2022-04-30T13:16:59Z</time>
      </trkpt>
      <trkpt lat="46.61382" lon="5.58219">
        <ele>545.2</ele>
        <time>2022-04-30T13:17:00Z</time>
      </trkpt>
      <trkpt lat="46.61364" lon="5.58224">
        <ele>546.2</ele>
        <time>2022-04-30T13:17:06Z</time>
      </trkpt>
      <trkpt lat="46.61352" lon="5.58228">
        <ele>546.8</ele>
        <time>2022-04-30T13:17:10Z</time>
      </trkpt>
      <trkpt lat="46.61349" lon="5.58229">
        <ele>547.2</ele>
        <time>2022-04-30T13:17:11Z</time>
      </trkpt>
      <trkpt lat="46.61333" lon="5.58242">
        <ele>548.2</ele>
        <time>2022-04-30T13:17:17Z</time>
      </trkpt>
      <trkpt lat="46.61333" lon="5.58258">
        <ele>549.2</ele>
        <time>2022-04-30T13:17:21Z</time>
      </trkpt>
      <trkpt lat="46.61334" lon="5.58261">
        <ele>549.6</ele>
        <time>2022-04-30T13:17:22Z</time>
      </trkpt>
      <trkpt lat="46.61341" lon="5.5827">
        <ele>550.2</ele>
        <time>2022-04-30T13:17:25Z</time>
      </trkpt>
      <trkpt lat="46.61354" lon="5.58275">
        <ele>550.8</ele>
        <time>2022-04-30T13:17:29Z</time>
      </trkpt>
      <trkpt lat="46.61357" lon="5.58275">
        <ele>550.8</ele>
        <time>2022-04-30T13:17:30Z</time>
      </trkpt>
      <trkpt lat="46.61367" lon="5.58275">
        <ele>551.8</ele>
        <time>2022-04-30T13:17:33Z</time>
      </trkpt>
      <trkpt lat="46.61386" lon="5.58273">
        <ele>553</ele>
        <time>2022-04-30T13:17:39Z</time>
      </trkpt>
      <trkpt lat="46.61389" lon="5.58271">
        <ele>553</ele>
        <time>2022-04-30T13:17:40Z</time>
      </trkpt>
      <trkpt lat="46.61405" lon="5.58269">
        <ele>554.2</ele>
        <time>2022-04-30T13:17:45Z</time>
      </trkpt>
      <trkpt lat="46.61411" lon="5.58269">
        <ele>554.6</ele>
        <time>2022-04-30T13:17:47Z</time>
      </trkpt>
      <trkpt lat="46.61421" lon="5.58269">
        <ele>555.2</ele>
        <time>2022-04-30T13:17:50Z</time>
      </trkpt>
      <trkpt lat="46.61437" lon="5.5827">
        <ele>556</ele>
        <time>2022-04-30T13:17:55Z</time>
      </trkpt>
      <trkpt lat="46.61443" lon="5.58271">
        <ele>556.4</ele>
        <time>2022-04-30T13:17:57Z</time>
      </trkpt>
      <trkpt lat="46.61464" lon="5.58277">
        <ele>557.6</ele>
        <time>2022-04-30T13:18:04Z</time>
      </trkpt>
      <trkpt lat="46.61466" lon="5.5828">
        <ele>557.8</ele>
        <time>2022-04-30T13:18:05Z</time>
      </trkpt>
      <trkpt lat="46.61472" lon="5.58288">
        <ele>558.8</ele>
        <time>2022-04-30T13:18:08Z</time>
      </trkpt>
      <trkpt lat="46.61473" lon="5.5829">
        <ele>559</ele>
        <time>2022-04-30T13:18:09Z</time>
      </trkpt>
      <trkpt lat="46.61477" lon="5.58305">
        <ele>559.8</ele>
        <time>2022-04-30T13:18:13Z</time>
      </trkpt>
      <trkpt lat="46.61477" lon="5.58308">
        <ele>560</ele>
        <time>2022-04-30T13:18:14Z</time>
      </trkpt>
      <trkpt lat="46.61479" lon="5.58325">
        <ele>561</ele>
        <time>2022-04-30T13:18:18Z</time>
      </trkpt>
      <trkpt lat="46.61481" lon="5.58339">
        <ele>561.8</ele>
        <time>2022-04-30T13:18:21Z</time>
      </trkpt>
      <trkpt lat="46.61481" lon="5.58343">
        <ele>562.2</ele>
        <time>2022-04-30T13:18:22Z</time>
      </trkpt>
      <trkpt lat="46.61485" lon="5.58363">
        <ele>563.6</ele>
        <time>2022-04-30T13:18:27Z</time>
      </trkpt>
      <trkpt lat="46.61487" lon="5.58375">
        <ele>563.8</ele>
        <time>2022-04-30T13:18:30Z</time>
      </trkpt>
      <trkpt lat="46.61488" lon="5.58395">
        <ele>564.8</ele>
        <time>2022-04-30T13:18:35Z</time>
      </trkpt>
      <trkpt lat="46.61487" lon="5.58403">
        <ele>565.2</ele>
        <time>2022-04-30T13:18:37Z</time>
      </trkpt>
      <trkpt lat="46.61485" lon="5.58411">
        <ele>565.8</ele>
        <time>2022-04-30T13:18:39Z</time>
      </trkpt>
      <trkpt lat="46.61481" lon="5.5843">
        <ele>566.8</ele>
        <time>2022-04-30T13:18:45Z</time>
      </trkpt>
      <trkpt lat="46.6148" lon="5.58435">
        <ele>567.2</ele>
        <time>2022-04-30T13:18:46Z</time>
      </trkpt>
      <trkpt lat="46.61477" lon="5.58445">
        <ele>568.4</ele>
        <time>2022-04-30T13:18:49Z</time>
      </trkpt>
      <trkpt lat="46.61475" lon="5.58455">
        <ele>568.8</ele>
        <time>2022-04-30T13:18:52Z</time>
      </trkpt>
      <trkpt lat="46.61472" lon="5.58474">
        <ele>569.4</ele>
        <time>2022-04-30T13:18:56Z</time>
      </trkpt>
      <trkpt lat="46.61471" lon="5.58483">
        <ele>569.6</ele>
        <time>2022-04-30T13:18:58Z</time>
      </trkpt>
      <trkpt lat="46.61467" lon="5.58505">
        <ele>570.4</ele>
        <time>2022-04-30T13:19:02Z</time>
      </trkpt>
      <trkpt lat="46.61464" lon="5.58531">
        <ele>571.6</ele>
        <time>2022-04-30T13:19:07Z</time>
      </trkpt>
      <trkpt lat="46.61463" lon="5.58559">
        <ele>572.6</ele>
        <time>2022-04-30T13:19:13Z</time>
      </trkpt>
      <trkpt lat="46.61468" lon="5.5858">
        <ele>573.6</ele>
        <time>2022-04-30T13:19:18Z</time>
      </trkpt>
      <trkpt lat="46.61472" lon="5.586">
        <ele>574.8</ele>
        <time>2022-04-30T13:19:23Z</time>
      </trkpt>
      <trkpt lat="46.61474" lon="5.58604">
        <ele>575.2</ele>
        <time>2022-04-30T13:19:24Z</time>
      </trkpt>
      <trkpt lat="46.61481" lon="5.58617">
        <ele>576.2</ele>
        <time>2022-04-30T13:19:28Z</time>
      </trkpt>
      <trkpt lat="46.61484" lon="5.58619">
        <ele>576.4</ele>
        <time>2022-04-30T13:19:29Z</time>
      </trkpt>
      <trkpt lat="46.61493" lon="5.58621">
        <ele>577.2</ele>
        <time>2022-04-30T13:19:32Z</time>
      </trkpt>
      <trkpt lat="46.61505" lon="5.58623">
        <ele>577.8</ele>
        <time>2022-04-30T13:19:36Z</time>
      </trkpt>
      <trkpt lat="46.61515" lon="5.58624">
        <ele>578.4</ele>
        <time>2022-04-30T13:19:39Z</time>
      </trkpt>
      <trkpt lat="46.61534" lon="5.58632">
        <ele>579.4</ele>
        <time>2022-04-30T13:19:45Z</time>
      </trkpt>
      <trkpt lat="46.61539" lon="5.58647">
        <ele>580.4</ele>
        <time>2022-04-30T13:19:49Z</time>
      </trkpt>
      <trkpt lat="46.61539" lon="5.58651">
        <ele>580.6</ele>
        <time>2022-04-30T13:19:50Z</time>
      </trkpt>
      <trkpt lat="46.61543" lon="5.58674">
        <ele>581.8</ele>
        <time>2022-04-30T13:19:55Z</time>
      </trkpt>
      <trkpt lat="46.61545" lon="5.58684">
        <ele>582.4</ele>
        <time>2022-04-30T13:19:57Z</time>
      </trkpt>
      <trkpt lat="46.61549" lon="5.58694">
        <ele>582.8</ele>
        <time>2022-04-30T13:19:59Z</time>
      </trkpt>
      <trkpt lat="46.61555" lon="5.5871">
        <ele>583.6</ele>
        <time>2022-04-30T13:20:02Z</time>
      </trkpt>
      <trkpt lat="46.6156" lon="5.5872">
        <ele>584.4</ele>
        <time>2022-04-30T13:20:04Z</time>
      </trkpt>
      <trkpt lat="46.61566" lon="5.58736">
        <ele>585.6</ele>
        <time>2022-04-30T13:20:07Z</time>
      </trkpt>
      <trkpt lat="46.61568" lon="5.58741">
        <ele>585.6</ele>
        <time>2022-04-30T13:20:08Z</time>
      </trkpt>
      <trkpt lat="46.61574" lon="5.58753">
        <ele>586</ele>
        <time>2022-04-30T13:20:10Z</time>
      </trkpt>
      <trkpt lat="46.61575" lon="5.58758">
        <ele>586.4</ele>
        <time>2022-04-30T13:20:11Z</time>
      </trkpt>
      <trkpt lat="46.6158" lon="5.58769">
        <ele>586.6</ele>
        <time>2022-04-30T13:20:13Z</time>
      </trkpt>
      <trkpt lat="46.61585" lon="5.58781">
        <ele>586.8</ele>
        <time>2022-04-30T13:20:15Z</time>
      </trkpt>
      <trkpt lat="46.61601" lon="5.58821">
        <ele>587.2</ele>
        <time>2022-04-30T13:20:21Z</time>
      </trkpt>
      <trkpt lat="46.61603" lon="5.58828">
        <ele>587.4</ele>
        <time>2022-04-30T13:20:22Z</time>
      </trkpt>
      <trkpt lat="46.61608" lon="5.58846">
        <ele>587.8</ele>
        <time>2022-04-30T13:20:25Z</time>
      </trkpt>
      <trkpt lat="46.61616" lon="5.5887">
        <ele>588.2</ele>
        <time>2022-04-30T13:20:29Z</time>
      </trkpt>
      <trkpt lat="46.61619" lon="5.58876">
        <ele>588.6</ele>
        <time>2022-04-30T13:20:30Z</time>
      </trkpt>
      <trkpt lat="46.61623" lon="5.58887">
        <ele>589</ele>
        <time>2022-04-30T13:20:32Z</time>
      </trkpt>
      <trkpt lat="46.6163" lon="5.58908">
        <ele>589.6</ele>
        <time>2022-04-30T13:20:36Z</time>
      </trkpt>
      <trkpt lat="46.61631" lon="5.58913">
        <ele>590</ele>
        <time>2022-04-30T13:20:37Z</time>
      </trkpt>
      <trkpt lat="46.61633" lon="5.58917">
        <ele>590.2</ele>
        <time>2022-04-30T13:20:38Z</time>
      </trkpt>
      <trkpt lat="46.61637" lon="5.5893">
        <ele>590.8</ele>
        <time>2022-04-30T13:20:40Z</time>
      </trkpt>
      <trkpt lat="46.61639" lon="5.58936">
        <ele>591.2</ele>
        <time>2022-04-30T13:20:41Z</time>
      </trkpt>
      <trkpt lat="46.61641" lon="5.58943">
        <ele>591.2</ele>
        <time>2022-04-30T13:20:42Z</time>
      </trkpt>
      <trkpt lat="46.61645" lon="5.58972">
        <ele>591.6</ele>
        <time>2022-04-30T13:20:46Z</time>
      </trkpt>
      <trkpt lat="46.61646" lon="5.58985">
        <ele>591.8</ele>
        <time>2022-04-30T13:20:48Z</time>
      </trkpt>
      <trkpt lat="46.61643" lon="5.59007">
        <ele>592.2</ele>
        <time>2022-04-30T13:20:51Z</time>
      </trkpt>
      <trkpt lat="46.6164" lon="5.59017">
        <ele>592.4</ele>
        <time>2022-04-30T13:20:53Z</time>
      </trkpt>
      <trkpt lat="46.61629" lon="5.5903">
        <ele>593</ele>
        <time>2022-04-30T13:20:57Z</time>
      </trkpt>
      <trkpt lat="46.61627" lon="5.5903">
        <ele>593.4</ele>
        <time>2022-04-30T13:20:58Z</time>
      </trkpt>
      <trkpt lat="46.6162" lon="5.59025">
        <ele>594.2</ele>
        <time>2022-04-30T13:21:00Z</time>
      </trkpt>
      <trkpt lat="46.61616" lon="5.59017">
        <ele>594.6</ele>
        <time>2022-04-30T13:21:02Z</time>
      </trkpt>
      <trkpt lat="46.6161" lon="5.59001">
        <ele>595.6</ele>
        <time>2022-04-30T13:21:06Z</time>
      </trkpt>
      <trkpt lat="46.61608" lon="5.58996">
        <ele>596</ele>
        <time>2022-04-30T13:21:07Z</time>
      </trkpt>
      <trkpt lat="46.61599" lon="5.58982">
        <ele>596.6</ele>
        <time>2022-04-30T13:21:10Z</time>
      </trkpt>
      <trkpt lat="46.61592" lon="5.58975">
        <ele>597.2</ele>
        <time>2022-04-30T13:21:12Z</time>
      </trkpt>
      <trkpt lat="46.61584" lon="5.58972">
        <ele>597.6</ele>
        <time>2022-04-30T13:21:14Z</time>
      </trkpt>
      <trkpt lat="46.61565" lon="5.58971">
        <ele>598.4</ele>
        <time>2022-04-30T13:21:19Z</time>
      </trkpt>
      <trkpt lat="46.61548" lon="5.58974">
        <ele>599.4</ele>
        <time>2022-04-30T13:21:24Z</time>
      </trkpt>
      <trkpt lat="46.61541" lon="5.58979">
        <ele>599.6</ele>
        <time>2022-04-30T13:21:26Z</time>
      </trkpt>
      <trkpt lat="46.61524" lon="5.59003">
        <ele>600.4</ele>
        <time>2022-04-30T13:21:32Z</time>
      </trkpt>
      <trkpt lat="46.61522" lon="5.59007">
        <ele>601</ele>
        <time>2022-04-30T13:21:33Z</time>
      </trkpt>
      <trkpt lat="46.61517" lon="5.59017">
        <ele>601.8</ele>
        <time>2022-04-30T13:21:35Z</time>
      </trkpt>
      <trkpt lat="46.61494" lon="5.5905">
        <ele>602.6</ele>
        <time>2022-04-30T13:21:42Z</time>
      </trkpt>
      <trkpt lat="46.61484" lon="5.5906">
        <ele>602.4</ele>
        <time>2022-04-30T13:21:44Z</time>
      </trkpt>
      <trkpt lat="46.61469" lon="5.59067">
        <ele>602.2</ele>
        <time>2022-04-30T13:21:46Z</time>
      </trkpt>
      <trkpt lat="46.6144" lon="5.59073">
        <ele>601.6</ele>
        <time>2022-04-30T13:21:50Z</time>
      </trkpt>
      <trkpt lat="46.61434" lon="5.59075">
        <ele>601.2</ele>
        <time>2022-04-30T13:21:51Z</time>
      </trkpt>
      <trkpt lat="46.61418" lon="5.59083">
        <ele>600.4</ele>
        <time>2022-04-30T13:21:53Z</time>
      </trkpt>
      <trkpt lat="46.61404" lon="5.59092">
        <ele>599.6</ele>
        <time>2022-04-30T13:21:55Z</time>
      </trkpt>
      <trkpt lat="46.61397" lon="5.59099">
        <ele>599.4</ele>
        <time>2022-04-30T13:21:56Z</time>
      </trkpt>
      <trkpt lat="46.6139" lon="5.59107">
        <ele>599.2</ele>
        <time>2022-04-30T13:21:57Z</time>
      </trkpt>
      <trkpt lat="46.61368" lon="5.59134">
        <ele>598.4</ele>
        <time>2022-04-30T13:22:00Z</time>
      </trkpt>
      <trkpt lat="46.61361" lon="5.59141">
        <ele>598.2</ele>
        <time>2022-04-30T13:22:01Z</time>
      </trkpt>
      <trkpt lat="46.61337" lon="5.59171">
        <ele>597.2</ele>
        <time>2022-04-30T13:22:04Z</time>
      </trkpt>
      <trkpt lat="46.61322" lon="5.5919">
        <ele>596</ele>
        <time>2022-04-30T13:22:06Z</time>
      </trkpt>
      <trkpt lat="46.61295" lon="5.59213">
        <ele>594.6</ele>
        <time>2022-04-30T13:22:09Z</time>
      </trkpt>
      <trkpt lat="46.61287" lon="5.5922">
        <ele>594.4</ele>
        <time>2022-04-30T13:22:10Z</time>
      </trkpt>
      <trkpt lat="46.61266" lon="5.59236">
        <ele>593.4</ele>
        <time>2022-04-30T13:22:12Z</time>
      </trkpt>
      <trkpt lat="46.61226" lon="5.59266">
        <ele>592</ele>
        <time>2022-04-30T13:22:16Z</time>
      </trkpt>
      <trkpt lat="46.61204" lon="5.5928">
        <ele>589.8</ele>
        <time>2022-04-30T13:22:18Z</time>
      </trkpt>
      <trkpt lat="46.6119" lon="5.59286">
        <ele>589</ele>
        <time>2022-04-30T13:22:19Z</time>
      </trkpt>
      <trkpt lat="46.61179" lon="5.5929">
        <ele>588.6</ele>
        <time>2022-04-30T13:22:20Z</time>
      </trkpt>
      <trkpt lat="46.61168" lon="5.59295">
        <ele>588</ele>
        <time>2022-04-30T13:22:21Z</time>
      </trkpt>
      <trkpt lat="46.61145" lon="5.59305">
        <ele>586.4</ele>
        <time>2022-04-30T13:22:23Z</time>
      </trkpt>
      <trkpt lat="46.61123" lon="5.59317">
        <ele>585</ele>
        <time>2022-04-30T13:22:25Z</time>
      </trkpt>
      <trkpt lat="46.61113" lon="5.59324">
        <ele>584.2</ele>
        <time>2022-04-30T13:22:26Z</time>
      </trkpt>
      <trkpt lat="46.61096" lon="5.59341">
        <ele>583.2</ele>
        <time>2022-04-30T13:22:28Z</time>
      </trkpt>
      <trkpt lat="46.61084" lon="5.59351">
        <ele>582.8</ele>
        <time>2022-04-30T13:22:29Z</time>
      </trkpt>
      <trkpt lat="46.61073" lon="5.59358">
        <ele>582</ele>
        <time>2022-04-30T13:22:30Z</time>
      </trkpt>
      <trkpt lat="46.61042" lon="5.59372">
        <ele>579.8</ele>
        <time>2022-04-30T13:22:33Z</time>
      </trkpt>
      <trkpt lat="46.61018" lon="5.59383">
        <ele>578.4</ele>
        <time>2022-04-30T13:22:35Z</time>
      </trkpt>
      <trkpt lat="46.61009" lon="5.59389">
        <ele>578</ele>
        <time>2022-04-30T13:22:36Z</time>
      </trkpt>
      <trkpt lat="46.60999" lon="5.59397">
        <ele>577.2</ele>
        <time>2022-04-30T13:22:37Z</time>
      </trkpt>
      <trkpt lat="46.60981" lon="5.59423">
        <ele>575.8</ele>
        <time>2022-04-30T13:22:39Z</time>
      </trkpt>
      <trkpt lat="46.60969" lon="5.59448">
        <ele>574.6</ele>
        <time>2022-04-30T13:22:41Z</time>
      </trkpt>
      <trkpt lat="46.60962" lon="5.59461">
        <ele>573.4</ele>
        <time>2022-04-30T13:22:42Z</time>
      </trkpt>
      <trkpt lat="46.6095" lon="5.59492">
        <ele>572.6</ele>
        <time>2022-04-30T13:22:44Z</time>
      </trkpt>
      <trkpt lat="46.60947" lon="5.59504">
        <ele>572.2</ele>
        <time>2022-04-30T13:22:45Z</time>
      </trkpt>
      <trkpt lat="46.60939" lon="5.59535">
        <ele>571.4</ele>
        <time>2022-04-30T13:22:47Z</time>
      </trkpt>
      <trkpt lat="46.60936" lon="5.59553">
        <ele>571.2</ele>
        <time>2022-04-30T13:22:48Z</time>
      </trkpt>
      <trkpt lat="46.60931" lon="5.59588">
        <ele>569.6</ele>
        <time>2022-04-30T13:22:51Z</time>
      </trkpt>
      <trkpt lat="46.60932" lon="5.59614">
        <ele>568.4</ele>
        <time>2022-04-30T13:22:53Z</time>
      </trkpt>
      <trkpt lat="46.60932" lon="5.59626">
        <ele>568.4</ele>
        <time>2022-04-30T13:22:54Z</time>
      </trkpt>
      <trkpt lat="46.60932" lon="5.59638">
        <ele>567.8</ele>
        <time>2022-04-30T13:22:55Z</time>
      </trkpt>
      <trkpt lat="46.6093" lon="5.5965">
        <ele>567.4</ele>
        <time>2022-04-30T13:22:56Z</time>
      </trkpt>
      <trkpt lat="46.60926" lon="5.5966">
        <ele>567.2</ele>
        <time>2022-04-30T13:22:57Z</time>
      </trkpt>
      <trkpt lat="46.60921" lon="5.59666">
        <ele>566.8</ele>
        <time>2022-04-30T13:22:58Z</time>
      </trkpt>
      <trkpt lat="46.60904" lon="5.59679">
        <ele>566.4</ele>
        <time>2022-04-30T13:23:00Z</time>
      </trkpt>
      <trkpt lat="46.60895" lon="5.59685">
        <ele>566.2</ele>
        <time>2022-04-30T13:23:01Z</time>
      </trkpt>
      <trkpt lat="46.60887" lon="5.59692">
        <ele>565.6</ele>
        <time>2022-04-30T13:23:02Z</time>
      </trkpt>
      <trkpt lat="46.60872" lon="5.59713">
        <ele>565.2</ele>
        <time>2022-04-30T13:23:04Z</time>
      </trkpt>
      <trkpt lat="46.60866" lon="5.59725">
        <ele>564.8</ele>
        <time>2022-04-30T13:23:05Z</time>
      </trkpt>
      <trkpt lat="46.6085" lon="5.59761">
        <ele>563.8</ele>
        <time>2022-04-30T13:23:08Z</time>
      </trkpt>
      <trkpt lat="46.60843" lon="5.59776">
        <ele>563.2</ele>
        <time>2022-04-30T13:23:09Z</time>
      </trkpt>
      <trkpt lat="46.60839" lon="5.59788">
        <ele>562.6</ele>
        <time>2022-04-30T13:23:10Z</time>
      </trkpt>
      <trkpt lat="46.60833" lon="5.59798">
        <ele>562</ele>
        <time>2022-04-30T13:23:11Z</time>
      </trkpt>
      <trkpt lat="46.60828" lon="5.59805">
        <ele>561.2</ele>
        <time>2022-04-30T13:23:12Z</time>
      </trkpt>
      <trkpt lat="46.60818" lon="5.59819">
        <ele>560.4</ele>
        <time>2022-04-30T13:23:14Z</time>
      </trkpt>
      <trkpt lat="46.60816" lon="5.59827">
        <ele>560.2</ele>
        <time>2022-04-30T13:23:15Z</time>
      </trkpt>
      <trkpt lat="46.60817" lon="5.59836">
        <ele>559.8</ele>
        <time>2022-04-30T13:23:16Z</time>
      </trkpt>
      <trkpt lat="46.6082" lon="5.59842">
        <ele>559.6</ele>
        <time>2022-04-30T13:23:17Z</time>
      </trkpt>
      <trkpt lat="46.60825" lon="5.59852">
        <ele>559.4</ele>
        <time>2022-04-30T13:23:18Z</time>
      </trkpt>
      <trkpt lat="46.6083" lon="5.59858">
        <ele>559.2</ele>
        <time>2022-04-30T13:23:19Z</time>
      </trkpt>
      <trkpt lat="46.60849" lon="5.59885">
        <ele>558.6</ele>
        <time>2022-04-30T13:23:22Z</time>
      </trkpt>
      <trkpt lat="46.60866" lon="5.5991">
        <ele>558</ele>
        <time>2022-04-30T13:23:25Z</time>
      </trkpt>
      <trkpt lat="46.60878" lon="5.59928">
        <ele>557.6</ele>
        <time>2022-04-30T13:23:27Z</time>
      </trkpt>
      <trkpt lat="46.60924" lon="5.59989">
        <ele>558.4</ele>
        <time>2022-04-30T13:23:34Z</time>
      </trkpt>
      <trkpt lat="46.6093" lon="5.59996">
        <ele>558.6</ele>
        <time>2022-04-30T13:23:35Z</time>
      </trkpt>
      <trkpt lat="46.60965" lon="5.60045">
        <ele>558.4</ele>
        <time>2022-04-30T13:23:40Z</time>
      </trkpt>
      <trkpt lat="46.60996" lon="5.60086">
        <ele>556.4</ele>
        <time>2022-04-30T13:23:44Z</time>
      </trkpt>
      <trkpt lat="46.61011" lon="5.60108">
        <ele>555.8</ele>
        <time>2022-04-30T13:23:46Z</time>
      </trkpt>
      <trkpt lat="46.61019" lon="5.6012">
        <ele>555.2</ele>
        <time>2022-04-30T13:23:47Z</time>
      </trkpt>
      <trkpt lat="46.61044" lon="5.60154">
        <ele>553.8</ele>
        <time>2022-04-30T13:23:50Z</time>
      </trkpt>
      <trkpt lat="46.61061" lon="5.60176">
        <ele>552.8</ele>
        <time>2022-04-30T13:23:52Z</time>
      </trkpt>
      <trkpt lat="46.61068" lon="5.60187">
        <ele>552</ele>
        <time>2022-04-30T13:23:53Z</time>
      </trkpt>
      <trkpt lat="46.61078" lon="5.602">
        <ele>551.2</ele>
        <time>2022-04-30T13:23:54Z</time>
      </trkpt>
      <trkpt lat="46.61108" lon="5.60242">
        <ele>549.8</ele>
        <time>2022-04-30T13:23:58Z</time>
      </trkpt>
      <trkpt lat="46.61138" lon="5.60283">
        <ele>548.6</ele>
        <time>2022-04-30T13:24:02Z</time>
      </trkpt>
      <trkpt lat="46.61174" lon="5.60334">
        <ele>547.4</ele>
        <time>2022-04-30T13:24:07Z</time>
      </trkpt>
      <trkpt lat="46.61204" lon="5.60375">
        <ele>546.4</ele>
        <time>2022-04-30T13:24:11Z</time>
      </trkpt>
      <trkpt lat="46.6121" lon="5.60384">
        <ele>546</ele>
        <time>2022-04-30T13:24:12Z</time>
      </trkpt>
      <trkpt lat="46.61243" lon="5.60429">
        <ele>544.8</ele>
        <time>2022-04-30T13:24:16Z</time>
      </trkpt>
      <trkpt lat="46.61259" lon="5.6045">
        <ele>544</ele>
        <time>2022-04-30T13:24:18Z</time>
      </trkpt>
      <trkpt lat="46.61266" lon="5.6046">
        <ele>543.6</ele>
        <time>2022-04-30T13:24:19Z</time>
      </trkpt>
      <trkpt lat="46.61308" lon="5.60517">
        <ele>543</ele>
        <time>2022-04-30T13:24:25Z</time>
      </trkpt>
      <trkpt lat="46.61314" lon="5.60525">
        <ele>542.8</ele>
        <time>2022-04-30T13:24:26Z</time>
      </trkpt>
      <trkpt lat="46.61343" lon="5.60566">
        <ele>542.6</ele>
        <time>2022-04-30T13:24:31Z</time>
      </trkpt>
      <trkpt lat="46.61386" lon="5.60625">
        <ele>542.6</ele>
        <time>2022-04-30T13:24:38Z</time>
      </trkpt>
      <trkpt lat="46.61393" lon="5.60634">
        <ele>542.4</ele>
        <time>2022-04-30T13:24:39Z</time>
      </trkpt>
      <trkpt lat="46.61421" lon="5.60671">
        <ele>541.8</ele>
        <time>2022-04-30T13:24:43Z</time>
      </trkpt>
      <trkpt lat="46.61442" lon="5.60699">
        <ele>540.8</ele>
        <time>2022-04-30T13:24:46Z</time>
      </trkpt>
      <trkpt lat="46.61448" lon="5.60709">
        <ele>540.6</ele>
        <time>2022-04-30T13:24:47Z</time>
      </trkpt>
      <trkpt lat="46.61491" lon="5.60767">
        <ele>539.4</ele>
        <time>2022-04-30T13:24:54Z</time>
      </trkpt>
      <trkpt lat="46.61525" lon="5.60813">
        <ele>538.8</ele>
        <time>2022-04-30T13:25:00Z</time>
      </trkpt>
      <trkpt lat="46.61535" lon="5.60828">
        <ele>538.6</ele>
        <time>2022-04-30T13:25:02Z</time>
      </trkpt>
      <trkpt lat="46.61571" lon="5.60876">
        <ele>537.8</ele>
        <time>2022-04-30T13:25:09Z</time>
      </trkpt>
      <trkpt lat="46.61602" lon="5.60924">
        <ele>537.8</ele>
        <time>2022-04-30T13:25:16Z</time>
      </trkpt>
      <trkpt lat="46.61611" lon="5.60948">
        <ele>537.6</ele>
        <time>2022-04-30T13:25:19Z</time>
      </trkpt>
      <trkpt lat="46.61613" lon="5.60956">
        <ele>537.6</ele>
        <time>2022-04-30T13:25:20Z</time>
      </trkpt>
      <trkpt lat="46.61615" lon="5.60965">
        <ele>537.4</ele>
        <time>2022-04-30T13:25:21Z</time>
      </trkpt>
      <trkpt lat="46.61611" lon="5.60983">
        <ele>537.2</ele>
        <time>2022-04-30T13:25:23Z</time>
      </trkpt>
      <trkpt lat="46.61607" lon="5.60991">
        <ele>537.2</ele>
        <time>2022-04-30T13:25:24Z</time>
      </trkpt>
      <trkpt lat="46.61586" lon="5.61029">
        <ele>536.4</ele>
        <time>2022-04-30T13:25:28Z</time>
      </trkpt>
      <trkpt lat="46.6158" lon="5.61039">
        <ele>536.2</ele>
        <time>2022-04-30T13:25:29Z</time>
      </trkpt>
      <trkpt lat="46.61556" lon="5.61082">
        <ele>535.4</ele>
        <time>2022-04-30T13:25:33Z</time>
      </trkpt>
      <trkpt lat="46.61533" lon="5.61126">
        <ele>534.6</ele>
        <time>2022-04-30T13:25:37Z</time>
      </trkpt>
      <trkpt lat="46.61522" lon="5.61147">
        <ele>534.4</ele>
        <time>2022-04-30T13:25:39Z</time>
      </trkpt>
      <trkpt lat="46.61488" lon="5.61209">
        <ele>533.4</ele>
        <time>2022-04-30T13:25:45Z</time>
      </trkpt>
      <trkpt lat="46.61483" lon="5.61219">
        <ele>533.2</ele>
        <time>2022-04-30T13:25:46Z</time>
      </trkpt>
      <trkpt lat="46.61477" lon="5.61229">
        <ele>533.2</ele>
        <time>2022-04-30T13:25:47Z</time>
      </trkpt>
      <trkpt lat="46.61441" lon="5.61297">
        <ele>533.4</ele>
        <time>2022-04-30T13:25:54Z</time>
      </trkpt>
      <trkpt lat="46.61432" lon="5.61314">
        <ele>533.6</ele>
        <time>2022-04-30T13:25:56Z</time>
      </trkpt>
      <trkpt lat="46.61396" lon="5.61382">
        <ele>534</ele>
        <time>2022-04-30T13:26:03Z</time>
      </trkpt>
      <trkpt lat="46.61387" lon="5.61398">
        <ele>534.4</ele>
        <time>2022-04-30T13:26:05Z</time>
      </trkpt>
      <trkpt lat="46.61377" lon="5.61416">
        <ele>534.8</ele>
        <time>2022-04-30T13:26:07Z</time>
      </trkpt>
      <trkpt lat="46.6134" lon="5.61485">
        <ele>535.4</ele>
        <time>2022-04-30T13:26:15Z</time>
      </trkpt>
      <trkpt lat="46.61302" lon="5.61555">
        <ele>535.8</ele>
        <time>2022-04-30T13:26:23Z</time>
      </trkpt>
      <trkpt lat="46.61268" lon="5.61621">
        <ele>535.8</ele>
        <time>2022-04-30T13:26:30Z</time>
      </trkpt>
      <trkpt lat="46.61256" lon="5.61641">
        <ele>535.8</ele>
        <time>2022-04-30T13:26:32Z</time>
      </trkpt>
      <trkpt lat="46.61222" lon="5.61706">
        <ele>535.8</ele>
        <time>2022-04-30T13:26:39Z</time>
      </trkpt>
      <trkpt lat="46.61208" lon="5.61733">
        <ele>536.2</ele>
        <time>2022-04-30T13:26:42Z</time>
      </trkpt>
      <trkpt lat="46.61186" lon="5.61776">
        <ele>536.8</ele>
        <time>2022-04-30T13:26:47Z</time>
      </trkpt>
      <trkpt lat="46.61178" lon="5.61791">
        <ele>537.2</ele>
        <time>2022-04-30T13:26:49Z</time>
      </trkpt>
      <trkpt lat="46.61155" lon="5.61837">
        <ele>537.8</ele>
        <time>2022-04-30T13:26:54Z</time>
      </trkpt>
      <trkpt lat="46.61142" lon="5.61862">
        <ele>538.2</ele>
        <time>2022-04-30T13:26:57Z</time>
      </trkpt>
      <trkpt lat="46.61112" lon="5.61916">
        <ele>539</ele>
        <time>2022-04-30T13:27:03Z</time>
      </trkpt>
      <trkpt lat="46.61108" lon="5.61925">
        <ele>539.4</ele>
        <time>2022-04-30T13:27:04Z</time>
      </trkpt>
      <trkpt lat="46.61103" lon="5.61933">
        <ele>539.8</ele>
        <time>2022-04-30T13:27:05Z</time>
      </trkpt>
      <trkpt lat="46.61094" lon="5.6195">
        <ele>540.2</ele>
        <time>2022-04-30T13:27:07Z</time>
      </trkpt>
      <trkpt lat="46.61077" lon="5.61983">
        <ele>541</ele>
        <time>2022-04-30T13:27:11Z</time>
      </trkpt>
      <trkpt lat="46.61072" lon="5.61991">
        <ele>541.2</ele>
        <time>2022-04-30T13:27:12Z</time>
      </trkpt>
      <trkpt lat="46.61039" lon="5.62054">
        <ele>541.8</ele>
        <time>2022-04-30T13:27:20Z</time>
      </trkpt>
      <trkpt lat="46.61036" lon="5.6206">
        <ele>541.8</ele>
        <time>2022-04-30T13:27:21Z</time>
      </trkpt>
      <trkpt lat="46.61018" lon="5.62094">
        <ele>542.6</ele>
        <time>2022-04-30T13:27:25Z</time>
      </trkpt>
      <trkpt lat="46.60997" lon="5.62133">
        <ele>543.4</ele>
        <time>2022-04-30T13:27:30Z</time>
      </trkpt>
      <trkpt lat="46.60989" lon="5.62148">
        <ele>543.8</ele>
        <time>2022-04-30T13:27:32Z</time>
      </trkpt>
      <trkpt lat="46.60953" lon="5.62215">
        <ele>544.4</ele>
        <time>2022-04-30T13:27:40Z</time>
      </trkpt>
      <trkpt lat="46.60949" lon="5.62224">
        <ele>544.4</ele>
        <time>2022-04-30T13:27:41Z</time>
      </trkpt>
      <trkpt lat="46.60913" lon="5.62288">
        <ele>544.4</ele>
        <time>2022-04-30T13:27:48Z</time>
      </trkpt>
      <trkpt lat="46.60908" lon="5.62298">
        <ele>544.2</ele>
        <time>2022-04-30T13:27:49Z</time>
      </trkpt>
      <trkpt lat="46.60869" lon="5.6237">
        <ele>543.2</ele>
        <time>2022-04-30T13:27:56Z</time>
      </trkpt>
      <trkpt lat="46.60857" lon="5.62393">
        <ele>542.6</ele>
        <time>2022-04-30T13:27:58Z</time>
      </trkpt>
      <trkpt lat="46.60851" lon="5.62404">
        <ele>542.6</ele>
        <time>2022-04-30T13:27:59Z</time>
      </trkpt>
      <trkpt lat="46.60814" lon="5.62473">
        <ele>541.4</ele>
        <time>2022-04-30T13:28:05Z</time>
      </trkpt>
      <trkpt lat="46.60808" lon="5.62485">
        <ele>541.2</ele>
        <time>2022-04-30T13:28:06Z</time>
      </trkpt>
      <trkpt lat="46.60783" lon="5.62532">
        <ele>540.2</ele>
        <time>2022-04-30T13:28:10Z</time>
      </trkpt>
      <trkpt lat="46.60753" lon="5.62586">
        <ele>539.4</ele>
        <time>2022-04-30T13:28:15Z</time>
      </trkpt>
      <trkpt lat="46.60735" lon="5.62619">
        <ele>539.2</ele>
        <time>2022-04-30T13:28:18Z</time>
      </trkpt>
      <trkpt lat="46.60719" lon="5.62634">
        <ele>539.2</ele>
        <time>2022-04-30T13:28:20Z</time>
      </trkpt>
      <trkpt lat="46.60701" lon="5.62635">
        <ele>539.2</ele>
        <time>2022-04-30T13:28:22Z</time>
      </trkpt>
      <trkpt lat="46.60691" lon="5.62633">
        <ele>539.2</ele>
        <time>2022-04-30T13:28:23Z</time>
      </trkpt>
      <trkpt lat="46.60681" lon="5.62632">
        <ele>539.2</ele>
        <time>2022-04-30T13:28:24Z</time>
      </trkpt>
      <trkpt lat="46.60662" lon="5.62634">
        <ele>539</ele>
        <time>2022-04-30T13:28:26Z</time>
      </trkpt>
      <trkpt lat="46.60606" lon="5.62652">
        <ele>538.8</ele>
        <time>2022-04-30T13:28:32Z</time>
      </trkpt>
      <trkpt lat="46.60588" lon="5.62657">
        <ele>538.6</ele>
        <time>2022-04-30T13:28:34Z</time>
      </trkpt>
      <trkpt lat="46.60528" lon="5.62677">
        <ele>538.6</ele>
        <time>2022-04-30T13:28:41Z</time>
      </trkpt>
      <trkpt lat="46.60503" lon="5.62685">
        <ele>539</ele>
        <time>2022-04-30T13:28:44Z</time>
      </trkpt>
      <trkpt lat="46.60446" lon="5.62702">
        <ele>539.4</ele>
        <time>2022-04-30T13:28:51Z</time>
      </trkpt>
      <trkpt lat="46.60438" lon="5.62705">
        <ele>539.6</ele>
        <time>2022-04-30T13:28:52Z</time>
      </trkpt>
      <trkpt lat="46.60384" lon="5.62722">
        <ele>540.4</ele>
        <time>2022-04-30T13:28:59Z</time>
      </trkpt>
      <trkpt lat="46.60369" lon="5.62727">
        <ele>540.6</ele>
        <time>2022-04-30T13:29:01Z</time>
      </trkpt>
      <trkpt lat="46.60361" lon="5.6273">
        <ele>540.8</ele>
        <time>2022-04-30T13:29:02Z</time>
      </trkpt>
      <trkpt lat="46.60301" lon="5.62749">
        <ele>541.4</ele>
        <time>2022-04-30T13:29:10Z</time>
      </trkpt>
      <trkpt lat="46.60286" lon="5.62754">
        <ele>541.6</ele>
        <time>2022-04-30T13:29:12Z</time>
      </trkpt>
      <trkpt lat="46.60279" lon="5.62756">
        <ele>541.6</ele>
        <time>2022-04-30T13:29:13Z</time>
      </trkpt>
      <trkpt lat="46.60223" lon="5.62774">
        <ele>541.8</ele>
        <time>2022-04-30T13:29:20Z</time>
      </trkpt>
      <trkpt lat="46.60215" lon="5.62777">
        <ele>541.6</ele>
        <time>2022-04-30T13:29:21Z</time>
      </trkpt>
      <trkpt lat="46.60157" lon="5.62796">
        <ele>541</ele>
        <time>2022-04-30T13:29:28Z</time>
      </trkpt>
      <trkpt lat="46.60131" lon="5.62805">
        <ele>540.6</ele>
        <time>2022-04-30T13:29:31Z</time>
      </trkpt>
      <trkpt lat="46.60123" lon="5.62807">
        <ele>540.4</ele>
        <time>2022-04-30T13:29:32Z</time>
      </trkpt>
      <trkpt lat="46.60063" lon="5.62828">
        <ele>539.8</ele>
        <time>2022-04-30T13:29:39Z</time>
      </trkpt>
      <trkpt lat="46.60054" lon="5.62831">
        <ele>539.6</ele>
        <time>2022-04-30T13:29:40Z</time>
      </trkpt>
      <trkpt lat="46.60045" lon="5.62834">
        <ele>539.4</ele>
        <time>2022-04-30T13:29:41Z</time>
      </trkpt>
      <trkpt lat="46.59986" lon="5.62854">
        <ele>539</ele>
        <time>2022-04-30T13:29:48Z</time>
      </trkpt>
      <trkpt lat="46.59944" lon="5.62867">
        <ele>538.8</ele>
        <time>2022-04-30T13:29:53Z</time>
      </trkpt>
      <trkpt lat="46.59887" lon="5.62886">
        <ele>539.4</ele>
        <time>2022-04-30T13:30:00Z</time>
      </trkpt>
      <trkpt lat="46.59872" lon="5.62891">
        <ele>539.4</ele>
        <time>2022-04-30T13:30:02Z</time>
      </trkpt>
      <trkpt lat="46.59865" lon="5.62892">
        <ele>539.6</ele>
        <time>2022-04-30T13:30:03Z</time>
      </trkpt>
      <trkpt lat="46.59835" lon="5.62897">
        <ele>540</ele>
        <time>2022-04-30T13:30:07Z</time>
      </trkpt>
      <trkpt lat="46.59821" lon="5.629">
        <ele>540</ele>
        <time>2022-04-30T13:30:09Z</time>
      </trkpt>
      <trkpt lat="46.59761" lon="5.62911">
        <ele>540.6</ele>
        <time>2022-04-30T13:30:17Z</time>
      </trkpt>
      <trkpt lat="46.59754" lon="5.62912">
        <ele>540.8</ele>
        <time>2022-04-30T13:30:18Z</time>
      </trkpt>
      <trkpt lat="46.59717" lon="5.62915">
        <ele>541</ele>
        <time>2022-04-30T13:30:23Z</time>
      </trkpt>
      <trkpt lat="46.5971" lon="5.62916">
        <ele>541.4</ele>
        <time>2022-04-30T13:30:24Z</time>
      </trkpt>
      <trkpt lat="46.59696" lon="5.62919">
        <ele>541.8</ele>
        <time>2022-04-30T13:30:26Z</time>
      </trkpt>
      <trkpt lat="46.59689" lon="5.6292">
        <ele>542</ele>
        <time>2022-04-30T13:30:27Z</time>
      </trkpt>
      <trkpt lat="46.59654" lon="5.62928">
        <ele>542.8</ele>
        <time>2022-04-30T13:30:32Z</time>
      </trkpt>
      <trkpt lat="46.5964" lon="5.6293">
        <ele>543.2</ele>
        <time>2022-04-30T13:30:34Z</time>
      </trkpt>
      <trkpt lat="46.59627" lon="5.62932">
        <ele>543.4</ele>
        <time>2022-04-30T13:30:36Z</time>
      </trkpt>
      <trkpt lat="46.59607" lon="5.62936">
        <ele>544.2</ele>
        <time>2022-04-30T13:30:39Z</time>
      </trkpt>
      <trkpt lat="46.596" lon="5.62938">
        <ele>544.4</ele>
        <time>2022-04-30T13:30:40Z</time>
      </trkpt>
      <trkpt lat="46.5955" lon="5.62947">
        <ele>545</ele>
        <time>2022-04-30T13:30:48Z</time>
      </trkpt>
      <trkpt lat="46.59494" lon="5.62958">
        <ele>545</ele>
        <time>2022-04-30T13:30:57Z</time>
      </trkpt>
      <trkpt lat="46.59488" lon="5.62959">
        <ele>545.2</ele>
        <time>2022-04-30T13:30:58Z</time>
      </trkpt>
      <trkpt lat="46.59463" lon="5.62964">
        <ele>545.4</ele>
        <time>2022-04-30T13:31:02Z</time>
      </trkpt>
      <trkpt lat="46.59432" lon="5.62969">
        <ele>546.2</ele>
        <time>2022-04-30T13:31:07Z</time>
      </trkpt>
      <trkpt lat="46.59406" lon="5.62974">
        <ele>546.4</ele>
        <time>2022-04-30T13:31:11Z</time>
      </trkpt>
      <trkpt lat="46.59378" lon="5.62978">
        <ele>546.8</ele>
        <time>2022-04-30T13:31:15Z</time>
      </trkpt>
      <trkpt lat="46.59319" lon="5.62989">
        <ele>546.8</ele>
        <time>2022-04-30T13:31:23Z</time>
      </trkpt>
      <trkpt lat="46.59311" lon="5.6299">
        <ele>546.8</ele>
        <time>2022-04-30T13:31:24Z</time>
      </trkpt>
      <trkpt lat="46.59253" lon="5.62995">
        <ele>546.4</ele>
        <time>2022-04-30T13:31:31Z</time>
      </trkpt>
      <trkpt lat="46.59244" lon="5.62995">
        <ele>546.4</ele>
        <time>2022-04-30T13:31:32Z</time>
      </trkpt>
      <trkpt lat="46.59183" lon="5.62987">
        <ele>545.8</ele>
        <time>2022-04-30T13:31:39Z</time>
      </trkpt>
      <trkpt lat="46.59172" lon="5.62985">
        <ele>545.8</ele>
        <time>2022-04-30T13:31:40Z</time>
      </trkpt>
      <trkpt lat="46.59117" lon="5.62977">
        <ele>545.6</ele>
        <time>2022-04-30T13:31:46Z</time>
      </trkpt>
      <trkpt lat="46.59095" lon="5.62975">
        <ele>545.4</ele>
        <time>2022-04-30T13:31:48Z</time>
      </trkpt>
      <trkpt lat="46.59037" lon="5.62967">
        <ele>544.8</ele>
        <time>2022-04-30T13:31:54Z</time>
      </trkpt>
      <trkpt lat="46.58985" lon="5.62959">
        <ele>544.4</ele>
        <time>2022-04-30T13:31:59Z</time>
      </trkpt>
      <trkpt lat="46.58977" lon="5.62958">
        <ele>544.4</ele>
        <time>2022-04-30T13:32:00Z</time>
      </trkpt>
      <trkpt lat="46.58917" lon="5.6295">
        <ele>543.8</ele>
        <time>2022-04-30T13:32:06Z</time>
      </trkpt>
      <trkpt lat="46.58888" lon="5.62946">
        <ele>544</ele>
        <time>2022-04-30T13:32:09Z</time>
      </trkpt>
      <trkpt lat="46.58833" lon="5.62937">
        <ele>544.2</ele>
        <time>2022-04-30T13:32:15Z</time>
      </trkpt>
      <trkpt lat="46.58806" lon="5.62933">
        <ele>544.4</ele>
        <time>2022-04-30T13:32:18Z</time>
      </trkpt>
      <trkpt lat="46.58797" lon="5.62932">
        <ele>544.6</ele>
        <time>2022-04-30T13:32:19Z</time>
      </trkpt>
      <trkpt lat="46.58734" lon="5.62922">
        <ele>544.4</ele>
        <time>2022-04-30T13:32:26Z</time>
      </trkpt>
      <trkpt lat="46.5868" lon="5.62906">
        <ele>544.2</ele>
        <time>2022-04-30T13:32:32Z</time>
      </trkpt>
      <trkpt lat="46.58626" lon="5.62891">
        <ele>543.8</ele>
        <time>2022-04-30T13:32:38Z</time>
      </trkpt>
      <trkpt lat="46.58617" lon="5.62888">
        <ele>543.6</ele>
        <time>2022-04-30T13:32:39Z</time>
      </trkpt>
      <trkpt lat="46.58599" lon="5.62883">
        <ele>543.4</ele>
        <time>2022-04-30T13:32:41Z</time>
      </trkpt>
      <trkpt lat="46.58552" lon="5.6288">
        <ele>542.4</ele>
        <time>2022-04-30T13:32:46Z</time>
      </trkpt>
      <trkpt lat="46.58543" lon="5.62882">
        <ele>542.2</ele>
        <time>2022-04-30T13:32:47Z</time>
      </trkpt>
      <trkpt lat="46.58533" lon="5.62885">
        <ele>542</ele>
        <time>2022-04-30T13:32:48Z</time>
      </trkpt>
      <trkpt lat="46.58514" lon="5.62894">
        <ele>541.6</ele>
        <time>2022-04-30T13:32:50Z</time>
      </trkpt>
      <trkpt lat="46.58475" lon="5.62912">
        <ele>541</ele>
        <time>2022-04-30T13:32:54Z</time>
      </trkpt>
      <trkpt lat="46.58456" lon="5.62922">
        <ele>540.2</ele>
        <time>2022-04-30T13:32:56Z</time>
      </trkpt>
      <trkpt lat="46.58446" lon="5.62927">
        <ele>540</ele>
        <time>2022-04-30T13:32:57Z</time>
      </trkpt>
      <trkpt lat="46.58406" lon="5.62946">
        <ele>539</ele>
        <time>2022-04-30T13:33:01Z</time>
      </trkpt>
      <trkpt lat="46.58386" lon="5.62956">
        <ele>538.4</ele>
        <time>2022-04-30T13:33:03Z</time>
      </trkpt>
      <trkpt lat="46.58366" lon="5.62966">
        <ele>537.6</ele>
        <time>2022-04-30T13:33:05Z</time>
      </trkpt>
      <trkpt lat="46.58317" lon="5.6299">
        <ele>537</ele>
        <time>2022-04-30T13:33:10Z</time>
      </trkpt>
      <trkpt lat="46.58291" lon="5.63002">
        <ele>536.6</ele>
        <time>2022-04-30T13:33:13Z</time>
      </trkpt>
      <trkpt lat="46.58231" lon="5.63031">
        <ele>536.2</ele>
        <time>2022-04-30T13:33:19Z</time>
      </trkpt>
      <trkpt lat="46.58222" lon="5.63035">
        <ele>535.8</ele>
        <time>2022-04-30T13:33:20Z</time>
      </trkpt>
      <trkpt lat="46.58202" lon="5.63042">
        <ele>535.8</ele>
        <time>2022-04-30T13:33:22Z</time>
      </trkpt>
      <trkpt lat="46.58184" lon="5.63045">
        <ele>535.6</ele>
        <time>2022-04-30T13:33:24Z</time>
      </trkpt>
      <trkpt lat="46.58171" lon="5.63044">
        <ele>535.4</ele>
        <time>2022-04-30T13:33:25Z</time>
      </trkpt>
      <trkpt lat="46.58151" lon="5.63037">
        <ele>534.8</ele>
        <time>2022-04-30T13:33:27Z</time>
      </trkpt>
      <trkpt lat="46.58142" lon="5.63032">
        <ele>534.4</ele>
        <time>2022-04-30T13:33:28Z</time>
      </trkpt>
      <trkpt lat="46.58133" lon="5.63025">
        <ele>534.2</ele>
        <time>2022-04-30T13:33:29Z</time>
      </trkpt>
      <trkpt lat="46.58116" lon="5.63008">
        <ele>533.8</ele>
        <time>2022-04-30T13:33:31Z</time>
      </trkpt>
      <trkpt lat="46.58094" lon="5.62982">
        <ele>533.2</ele>
        <time>2022-04-30T13:33:34Z</time>
      </trkpt>
      <trkpt lat="46.58069" lon="5.62951">
        <ele>532.4</ele>
        <time>2022-04-30T13:33:37Z</time>
      </trkpt>
      <trkpt lat="46.58053" lon="5.62933">
        <ele>532</ele>
        <time>2022-04-30T13:33:39Z</time>
      </trkpt>
      <trkpt lat="46.58019" lon="5.62901">
        <ele>531</ele>
        <time>2022-04-30T13:33:43Z</time>
      </trkpt>
      <trkpt lat="46.58011" lon="5.62894">
        <ele>530.8</ele>
        <time>2022-04-30T13:33:44Z</time>
      </trkpt>
      <trkpt lat="46.57974" lon="5.6287">
        <ele>529.8</ele>
        <time>2022-04-30T13:33:48Z</time>
      </trkpt>
      <trkpt lat="46.57956" lon="5.62859">
        <ele>529.2</ele>
        <time>2022-04-30T13:33:50Z</time>
      </trkpt>
      <trkpt lat="46.57936" lon="5.62851">
        <ele>528.6</ele>
        <time>2022-04-30T13:33:52Z</time>
      </trkpt>
      <trkpt lat="46.57898" lon="5.62839">
        <ele>528</ele>
        <time>2022-04-30T13:33:56Z</time>
      </trkpt>
      <trkpt lat="46.57875" lon="5.62832">
        <ele>527.4</ele>
        <time>2022-04-30T13:33:58Z</time>
      </trkpt>
      <trkpt lat="46.57832" lon="5.6282">
        <ele>526.2</ele>
        <time>2022-04-30T13:34:02Z</time>
      </trkpt>
      <trkpt lat="46.578" lon="5.6281">
        <ele>525.4</ele>
        <time>2022-04-30T13:34:05Z</time>
      </trkpt>
      <trkpt lat="46.57747" lon="5.62789">
        <ele>524.4</ele>
        <time>2022-04-30T13:34:10Z</time>
      </trkpt>
      <trkpt lat="46.57737" lon="5.62784">
        <ele>524.4</ele>
        <time>2022-04-30T13:34:11Z</time>
      </trkpt>
      <trkpt lat="46.57727" lon="5.62779">
        <ele>523.8</ele>
        <time>2022-04-30T13:34:12Z</time>
      </trkpt>
      <trkpt lat="46.57687" lon="5.62758">
        <ele>523.2</ele>
        <time>2022-04-30T13:34:16Z</time>
      </trkpt>
      <trkpt lat="46.57636" lon="5.62733">
        <ele>521.8</ele>
        <time>2022-04-30T13:34:21Z</time>
      </trkpt>
      <trkpt lat="46.57626" lon="5.62728">
        <ele>521.8</ele>
        <time>2022-04-30T13:34:22Z</time>
      </trkpt>
      <trkpt lat="46.57576" lon="5.62701">
        <ele>521</ele>
        <time>2022-04-30T13:34:27Z</time>
      </trkpt>
      <trkpt lat="46.57548" lon="5.6268">
        <ele>519.8</ele>
        <time>2022-04-30T13:34:30Z</time>
      </trkpt>
      <trkpt lat="46.57522" lon="5.62656">
        <ele>518.8</ele>
        <time>2022-04-30T13:34:33Z</time>
      </trkpt>
      <trkpt lat="46.57489" lon="5.62625">
        <ele>518</ele>
        <time>2022-04-30T13:34:37Z</time>
      </trkpt>
      <trkpt lat="46.57465" lon="5.62603">
        <ele>517.6</ele>
        <time>2022-04-30T13:34:40Z</time>
      </trkpt>
      <trkpt lat="46.57442" lon="5.62581">
        <ele>517.2</ele>
        <time>2022-04-30T13:34:43Z</time>
      </trkpt>
      <trkpt lat="46.5741" lon="5.62554">
        <ele>516.4</ele>
        <time>2022-04-30T13:34:47Z</time>
      </trkpt>
      <trkpt lat="46.57377" lon="5.62531">
        <ele>516</ele>
        <time>2022-04-30T13:34:51Z</time>
      </trkpt>
      <trkpt lat="46.57334" lon="5.62517">
        <ele>515.8</ele>
        <time>2022-04-30T13:34:56Z</time>
      </trkpt>
      <trkpt lat="46.57325" lon="5.62514">
        <ele>515.8</ele>
        <time>2022-04-30T13:34:57Z</time>
      </trkpt>
      <trkpt lat="46.57308" lon="5.62508">
        <ele>515.6</ele>
        <time>2022-04-30T13:34:59Z</time>
      </trkpt>
      <trkpt lat="46.57249" lon="5.62491">
        <ele>515.8</ele>
        <time>2022-04-30T13:35:06Z</time>
      </trkpt>
      <trkpt lat="46.57232" lon="5.62489">
        <ele>516</ele>
        <time>2022-04-30T13:35:08Z</time>
      </trkpt>
      <trkpt lat="46.57216" lon="5.62489">
        <ele>516.2</ele>
        <time>2022-04-30T13:35:10Z</time>
      </trkpt>
      <trkpt lat="46.57199" lon="5.62492">
        <ele>516.4</ele>
        <time>2022-04-30T13:35:12Z</time>
      </trkpt>
      <trkpt lat="46.57142" lon="5.62495">
        <ele>517</ele>
        <time>2022-04-30T13:35:19Z</time>
      </trkpt>
      <trkpt lat="46.57127" lon="5.62489">
        <ele>517.2</ele>
        <time>2022-04-30T13:35:21Z</time>
      </trkpt>
      <trkpt lat="46.57112" lon="5.6248">
        <ele>517.2</ele>
        <time>2022-04-30T13:35:23Z</time>
      </trkpt>
      <trkpt lat="46.57063" lon="5.62436">
        <ele>517.2</ele>
        <time>2022-04-30T13:35:30Z</time>
      </trkpt>
      <trkpt lat="46.57026" lon="5.624">
        <ele>517.4</ele>
        <time>2022-04-30T13:35:35Z</time>
      </trkpt>
      <trkpt lat="46.57006" lon="5.62381">
        <ele>517.6</ele>
        <time>2022-04-30T13:35:38Z</time>
      </trkpt>
      <trkpt lat="46.56958" lon="5.62336">
        <ele>518</ele>
        <time>2022-04-30T13:35:45Z</time>
      </trkpt>
      <trkpt lat="46.56951" lon="5.6233">
        <ele>518</ele>
        <time>2022-04-30T13:35:46Z</time>
      </trkpt>
      <trkpt lat="46.56901" lon="5.62282">
        <ele>518</ele>
        <time>2022-04-30T13:35:53Z</time>
      </trkpt>
      <trkpt lat="46.56887" lon="5.6227">
        <ele>517.6</ele>
        <time>2022-04-30T13:35:55Z</time>
      </trkpt>
      <trkpt lat="46.56842" lon="5.62227">
        <ele>516.8</ele>
        <time>2022-04-30T13:36:01Z</time>
      </trkpt>
      <trkpt lat="46.56813" lon="5.62202">
        <ele>516.4</ele>
        <time>2022-04-30T13:36:05Z</time>
      </trkpt>
      <trkpt lat="46.56804" lon="5.62193">
        <ele>516.2</ele>
        <time>2022-04-30T13:36:06Z</time>
      </trkpt>
      <trkpt lat="46.56756" lon="5.62149">
        <ele>515.2</ele>
        <time>2022-04-30T13:36:12Z</time>
      </trkpt>
      <trkpt lat="46.56723" lon="5.62117">
        <ele>514.8</ele>
        <time>2022-04-30T13:36:16Z</time>
      </trkpt>
      <trkpt lat="46.56717" lon="5.62111">
        <ele>514.4</ele>
        <time>2022-04-30T13:36:17Z</time>
      </trkpt>
      <trkpt lat="46.56665" lon="5.62063">
        <ele>513.4</ele>
        <time>2022-04-30T13:36:23Z</time>
      </trkpt>
      <trkpt lat="46.56643" lon="5.62042">
        <ele>513</ele>
        <time>2022-04-30T13:36:26Z</time>
      </trkpt>
      <trkpt lat="46.56597" lon="5.61999">
        <ele>512.8</ele>
        <time>2022-04-30T13:36:32Z</time>
      </trkpt>
      <trkpt lat="46.5659" lon="5.61992">
        <ele>513</ele>
        <time>2022-04-30T13:36:33Z</time>
      </trkpt>
      <trkpt lat="46.56543" lon="5.61949">
        <ele>513.2</ele>
        <time>2022-04-30T13:36:40Z</time>
      </trkpt>
      <trkpt lat="46.56537" lon="5.61942">
        <ele>513.2</ele>
        <time>2022-04-30T13:36:41Z</time>
      </trkpt>
      <trkpt lat="46.56488" lon="5.61897">
        <ele>514</ele>
        <time>2022-04-30T13:36:49Z</time>
      </trkpt>
      <trkpt lat="46.56446" lon="5.61858">
        <ele>514.2</ele>
        <time>2022-04-30T13:36:56Z</time>
      </trkpt>
      <trkpt lat="46.56435" lon="5.61848">
        <ele>514.2</ele>
        <time>2022-04-30T13:36:58Z</time>
      </trkpt>
      <trkpt lat="46.56419" lon="5.61831">
        <ele>514.8</ele>
        <time>2022-04-30T13:37:01Z</time>
      </trkpt>
      <trkpt lat="46.56386" lon="5.61792">
        <ele>515.2</ele>
        <time>2022-04-30T13:37:07Z</time>
      </trkpt>
      <trkpt lat="46.56343" lon="5.61738">
        <ele>515.6</ele>
        <time>2022-04-30T13:37:15Z</time>
      </trkpt>
      <trkpt lat="46.56338" lon="5.61731">
        <ele>515.8</ele>
        <time>2022-04-30T13:37:16Z</time>
      </trkpt>
      <trkpt lat="46.56327" lon="5.61717">
        <ele>515.8</ele>
        <time>2022-04-30T13:37:18Z</time>
      </trkpt>
      <trkpt lat="46.56283" lon="5.61661">
        <ele>516</ele>
        <time>2022-04-30T13:37:26Z</time>
      </trkpt>
      <trkpt lat="46.56272" lon="5.61648">
        <ele>516</ele>
        <time>2022-04-30T13:37:28Z</time>
      </trkpt>
      <trkpt lat="46.56239" lon="5.61599">
        <ele>516</ele>
        <time>2022-04-30T13:37:35Z</time>
      </trkpt>
      <trkpt lat="46.56206" lon="5.61537">
        <ele>515.8</ele>
        <time>2022-04-30T13:37:43Z</time>
      </trkpt>
      <trkpt lat="46.56178" lon="5.61479">
        <ele>516</ele>
        <time>2022-04-30T13:37:50Z</time>
      </trkpt>
      <trkpt lat="46.56153" lon="5.61427">
        <ele>516.8</ele>
        <time>2022-04-30T13:37:56Z</time>
      </trkpt>
      <trkpt lat="46.56144" lon="5.61409">
        <ele>517</ele>
        <time>2022-04-30T13:37:58Z</time>
      </trkpt>
      <trkpt lat="46.56112" lon="5.61342">
        <ele>517.6</ele>
        <time>2022-04-30T13:38:06Z</time>
      </trkpt>
      <trkpt lat="46.56107" lon="5.61333">
        <ele>517.6</ele>
        <time>2022-04-30T13:38:07Z</time>
      </trkpt>
      <trkpt lat="46.56076" lon="5.61269">
        <ele>517.8</ele>
        <time>2022-04-30T13:38:15Z</time>
      </trkpt>
      <trkpt lat="46.56064" lon="5.61244">
        <ele>518</ele>
        <time>2022-04-30T13:38:18Z</time>
      </trkpt>
      <trkpt lat="46.5606" lon="5.61237">
        <ele>518.2</ele>
        <time>2022-04-30T13:38:19Z</time>
      </trkpt>
      <trkpt lat="46.56032" lon="5.61177">
        <ele>519.2</ele>
        <time>2022-04-30T13:38:27Z</time>
      </trkpt>
      <trkpt lat="46.56003" lon="5.61118">
        <ele>520.4</ele>
        <time>2022-04-30T13:38:35Z</time>
      </trkpt>
      <trkpt lat="46.55999" lon="5.6111">
        <ele>520.4</ele>
        <time>2022-04-30T13:38:36Z</time>
      </trkpt>
      <trkpt lat="46.55992" lon="5.61095">
        <ele>520.6</ele>
        <time>2022-04-30T13:38:38Z</time>
      </trkpt>
      <trkpt lat="46.55977" lon="5.61053">
        <ele>521</ele>
        <time>2022-04-30T13:38:43Z</time>
      </trkpt>
      <trkpt lat="46.55965" lon="5.61005">
        <ele>521.4</ele>
        <time>2022-04-30T13:38:48Z</time>
      </trkpt>
      <trkpt lat="46.55958" lon="5.60978">
        <ele>521.6</ele>
        <time>2022-04-30T13:38:51Z</time>
      </trkpt>
      <trkpt lat="46.55944" lon="5.60915">
        <ele>522</ele>
        <time>2022-04-30T13:38:58Z</time>
      </trkpt>
      <trkpt lat="46.55935" lon="5.60866">
        <ele>522.4</ele>
        <time>2022-04-30T13:39:03Z</time>
      </trkpt>
      <trkpt lat="46.55934" lon="5.60856">
        <ele>522.4</ele>
        <time>2022-04-30T13:39:04Z</time>
      </trkpt>
      <trkpt lat="46.55933" lon="5.60837">
        <ele>522.4</ele>
        <time>2022-04-30T13:39:06Z</time>
      </trkpt>
      <trkpt lat="46.55931" lon="5.60798">
        <ele>522.8</ele>
        <time>2022-04-30T13:39:10Z</time>
      </trkpt>
      <trkpt lat="46.5593" lon="5.60777">
        <ele>522.8</ele>
        <time>2022-04-30T13:39:12Z</time>
      </trkpt>
      <trkpt lat="46.55921" lon="5.60727">
        <ele>523.4</ele>
        <time>2022-04-30T13:39:17Z</time>
      </trkpt>
      <trkpt lat="46.55903" lon="5.60653">
        <ele>522.6</ele>
        <time>2022-04-30T13:39:24Z</time>
      </trkpt>
      <trkpt lat="46.55898" lon="5.60631">
        <ele>522.2</ele>
        <time>2022-04-30T13:39:26Z</time>
      </trkpt>
      <trkpt lat="46.5589" lon="5.606">
        <ele>521.4</ele>
        <time>2022-04-30T13:39:29Z</time>
      </trkpt>
      <trkpt lat="46.55883" lon="5.60581">
        <ele>521</ele>
        <time>2022-04-30T13:39:31Z</time>
      </trkpt>
      <trkpt lat="46.55878" lon="5.60572">
        <ele>521</ele>
        <time>2022-04-30T13:39:32Z</time>
      </trkpt>
      <trkpt lat="46.55872" lon="5.60564">
        <ele>520.8</ele>
        <time>2022-04-30T13:39:33Z</time>
      </trkpt>
      <trkpt lat="46.55859" lon="5.6055">
        <ele>520.6</ele>
        <time>2022-04-30T13:39:35Z</time>
      </trkpt>
      <trkpt lat="46.55851" lon="5.60545">
        <ele>520.4</ele>
        <time>2022-04-30T13:39:36Z</time>
      </trkpt>
      <trkpt lat="46.55844" lon="5.6054">
        <ele>520.4</ele>
        <time>2022-04-30T13:39:37Z</time>
      </trkpt>
      <trkpt lat="46.55819" lon="5.60532">
        <ele>520.2</ele>
        <time>2022-04-30T13:39:40Z</time>
      </trkpt>
      <trkpt lat="46.55801" lon="5.60529">
        <ele>519.4</ele>
        <time>2022-04-30T13:39:42Z</time>
      </trkpt>
      <trkpt lat="46.55792" lon="5.60527">
        <ele>519.2</ele>
        <time>2022-04-30T13:39:43Z</time>
      </trkpt>
      <trkpt lat="46.55766" lon="5.60519">
        <ele>518.4</ele>
        <time>2022-04-30T13:39:46Z</time>
      </trkpt>
      <trkpt lat="46.55757" lon="5.60515">
        <ele>518</ele>
        <time>2022-04-30T13:39:47Z</time>
      </trkpt>
      <trkpt lat="46.55749" lon="5.60509">
        <ele>517.8</ele>
        <time>2022-04-30T13:39:48Z</time>
      </trkpt>
      <trkpt lat="46.55735" lon="5.60493">
        <ele>517</ele>
        <time>2022-04-30T13:39:50Z</time>
      </trkpt>
      <trkpt lat="46.55728" lon="5.60484">
        <ele>516.8</ele>
        <time>2022-04-30T13:39:51Z</time>
      </trkpt>
      <trkpt lat="46.55723" lon="5.60474">
        <ele>516.8</ele>
        <time>2022-04-30T13:39:52Z</time>
      </trkpt>
      <trkpt lat="46.55713" lon="5.60451">
        <ele>516.4</ele>
        <time>2022-04-30T13:39:54Z</time>
      </trkpt>
      <trkpt lat="46.55692" lon="5.60404">
        <ele>515.8</ele>
        <time>2022-04-30T13:39:58Z</time>
      </trkpt>
      <trkpt lat="46.5568" lon="5.60384">
        <ele>515.6</ele>
        <time>2022-04-30T13:40:00Z</time>
      </trkpt>
      <trkpt lat="46.55673" lon="5.60376">
        <ele>515.4</ele>
        <time>2022-04-30T13:40:01Z</time>
      </trkpt>
      <trkpt lat="46.55658" lon="5.60361">
        <ele>514.8</ele>
        <time>2022-04-30T13:40:03Z</time>
      </trkpt>
      <trkpt lat="46.55649" lon="5.60356">
        <ele>514.4</ele>
        <time>2022-04-30T13:40:04Z</time>
      </trkpt>
      <trkpt lat="46.5564" lon="5.60353">
        <ele>514.2</ele>
        <time>2022-04-30T13:40:05Z</time>
      </trkpt>
      <trkpt lat="46.55612" lon="5.6035">
        <ele>513.8</ele>
        <time>2022-04-30T13:40:08Z</time>
      </trkpt>
      <trkpt lat="46.55594" lon="5.60348">
        <ele>513.2</ele>
        <time>2022-04-30T13:40:10Z</time>
      </trkpt>
      <trkpt lat="46.55553" lon="5.60345">
        <ele>512.4</ele>
        <time>2022-04-30T13:40:14Z</time>
      </trkpt>
      <trkpt lat="46.55543" lon="5.60345">
        <ele>512.2</ele>
        <time>2022-04-30T13:40:15Z</time>
      </trkpt>
      <trkpt lat="46.55495" lon="5.60335">
        <ele>511</ele>
        <time>2022-04-30T13:40:20Z</time>
      </trkpt>
      <trkpt lat="46.55485" lon="5.60332">
        <ele>510.8</ele>
        <time>2022-04-30T13:40:21Z</time>
      </trkpt>
      <trkpt lat="46.55458" lon="5.60323">
        <ele>509.8</ele>
        <time>2022-04-30T13:40:24Z</time>
      </trkpt>
      <trkpt lat="46.55408" lon="5.60305">
        <ele>508.6</ele>
        <time>2022-04-30T13:40:29Z</time>
      </trkpt>
      <trkpt lat="46.55399" lon="5.60301">
        <ele>508.4</ele>
        <time>2022-04-30T13:40:30Z</time>
      </trkpt>
      <trkpt lat="46.5536" lon="5.60289">
        <ele>507.6</ele>
        <time>2022-04-30T13:40:34Z</time>
      </trkpt>
      <trkpt lat="46.55312" lon="5.60279">
        <ele>507.4</ele>
        <time>2022-04-30T13:40:39Z</time>
      </trkpt>
      <trkpt lat="46.55292" lon="5.60282">
        <ele>507.2</ele>
        <time>2022-04-30T13:40:41Z</time>
      </trkpt>
      <trkpt lat="46.55273" lon="5.6029">
        <ele>507.2</ele>
        <time>2022-04-30T13:40:43Z</time>
      </trkpt>
      <trkpt lat="46.55246" lon="5.60303">
        <ele>506.6</ele>
        <time>2022-04-30T13:40:46Z</time>
      </trkpt>
      <trkpt lat="46.55186" lon="5.60324">
        <ele>505.8</ele>
        <time>2022-04-30T13:40:52Z</time>
      </trkpt>
      <trkpt lat="46.55178" lon="5.60324">
        <ele>505.8</ele>
        <time>2022-04-30T13:40:53Z</time>
      </trkpt>
      <trkpt lat="46.55166" lon="5.60322">
        <ele>505.6</ele>
        <time>2022-04-30T13:40:54Z</time>
      </trkpt>
      <trkpt lat="46.55156" lon="5.60318">
        <ele>505.4</ele>
        <time>2022-04-30T13:40:55Z</time>
      </trkpt>
      <trkpt lat="46.55146" lon="5.60313">
        <ele>505.2</ele>
        <time>2022-04-30T13:40:56Z</time>
      </trkpt>
      <trkpt lat="46.55128" lon="5.60298">
        <ele>504.8</ele>
        <time>2022-04-30T13:40:58Z</time>
      </trkpt>
      <trkpt lat="46.55119" lon="5.60289">
        <ele>504.6</ele>
        <time>2022-04-30T13:40:59Z</time>
      </trkpt>
      <trkpt lat="46.55112" lon="5.60279">
        <ele>504.4</ele>
        <time>2022-04-30T13:41:00Z</time>
      </trkpt>
      <trkpt lat="46.55093" lon="5.60244">
        <ele>503.6</ele>
        <time>2022-04-30T13:41:03Z</time>
      </trkpt>
      <trkpt lat="46.55086" lon="5.60233">
        <ele>503.4</ele>
        <time>2022-04-30T13:41:04Z</time>
      </trkpt>
      <trkpt lat="46.55051" lon="5.60183">
        <ele>503.2</ele>
        <time>2022-04-30T13:41:09Z</time>
      </trkpt>
      <trkpt lat="46.55016" lon="5.60155">
        <ele>503</ele>
        <time>2022-04-30T13:41:13Z</time>
      </trkpt>
      <trkpt lat="46.54971" lon="5.60125">
        <ele>502.2</ele>
        <time>2022-04-30T13:41:18Z</time>
      </trkpt>
      <trkpt lat="46.54945" lon="5.60101">
        <ele>502</ele>
        <time>2022-04-30T13:41:21Z</time>
      </trkpt>
      <trkpt lat="46.54904" lon="5.60058">
        <ele>501.2</ele>
        <time>2022-04-30T13:41:26Z</time>
      </trkpt>
      <trkpt lat="46.54895" lon="5.60053">
        <ele>501.2</ele>
        <time>2022-04-30T13:41:27Z</time>
      </trkpt>
      <trkpt lat="46.54866" lon="5.60042">
        <ele>501</ele>
        <time>2022-04-30T13:41:30Z</time>
      </trkpt>
      <trkpt lat="46.54811" lon="5.60021">
        <ele>500.2</ele>
        <time>2022-04-30T13:41:36Z</time>
      </trkpt>
      <trkpt lat="46.548" lon="5.60013">
        <ele>500.2</ele>
        <time>2022-04-30T13:41:37Z</time>
      </trkpt>
      <trkpt lat="46.54792" lon="5.60003">
        <ele>500.2</ele>
        <time>2022-04-30T13:41:38Z</time>
      </trkpt>
      <trkpt lat="46.54785" lon="5.59993">
        <ele>500.2</ele>
        <time>2022-04-30T13:41:39Z</time>
      </trkpt>
      <trkpt lat="46.54758" lon="5.59952">
        <ele>499.8</ele>
        <time>2022-04-30T13:41:43Z</time>
      </trkpt>
      <trkpt lat="46.5475" lon="5.59943">
        <ele>499.8</ele>
        <time>2022-04-30T13:41:44Z</time>
      </trkpt>
      <trkpt lat="46.54742" lon="5.59938">
        <ele>499.8</ele>
        <time>2022-04-30T13:41:45Z</time>
      </trkpt>
      <trkpt lat="46.54721" lon="5.59931">
        <ele>499.4</ele>
        <time>2022-04-30T13:41:47Z</time>
      </trkpt>
      <trkpt lat="46.54701" lon="5.59934">
        <ele>499.4</ele>
        <time>2022-04-30T13:41:49Z</time>
      </trkpt>
      <trkpt lat="46.54694" lon="5.59937">
        <ele>499.6</ele>
        <time>2022-04-30T13:41:50Z</time>
      </trkpt>
      <trkpt lat="46.54674" lon="5.59948">
        <ele>499.2</ele>
        <time>2022-04-30T13:41:52Z</time>
      </trkpt>
      <trkpt lat="46.5464" lon="5.59968">
        <ele>498.8</ele>
        <time>2022-04-30T13:41:56Z</time>
      </trkpt>
      <trkpt lat="46.54597" lon="5.59981">
        <ele>498.4</ele>
        <time>2022-04-30T13:42:01Z</time>
      </trkpt>
      <trkpt lat="46.5458" lon="5.59983">
        <ele>498.2</ele>
        <time>2022-04-30T13:42:03Z</time>
      </trkpt>
      <trkpt lat="46.54556" lon="5.5998">
        <ele>498</ele>
        <time>2022-04-30T13:42:06Z</time>
      </trkpt>
      <trkpt lat="46.54509" lon="5.59964">
        <ele>497.2</ele>
        <time>2022-04-30T13:42:12Z</time>
      </trkpt>
      <trkpt lat="46.54465" lon="5.59949">
        <ele>495.8</ele>
        <time>2022-04-30T13:42:17Z</time>
      </trkpt>
      <trkpt lat="46.54432" lon="5.59937">
        <ele>494.8</ele>
        <time>2022-04-30T13:42:21Z</time>
      </trkpt>
      <trkpt lat="46.54425" lon="5.59934">
        <ele>494.6</ele>
        <time>2022-04-30T13:42:22Z</time>
      </trkpt>
      <trkpt lat="46.54419" lon="5.59931">
        <ele>494.2</ele>
        <time>2022-04-30T13:42:23Z</time>
      </trkpt>
      <trkpt lat="46.54412" lon="5.59925">
        <ele>493.6</ele>
        <time>2022-04-30T13:42:25Z</time>
      </trkpt>
      <trkpt lat="46.54405" lon="5.59916">
        <ele>493.4</ele>
        <time>2022-04-30T13:42:27Z</time>
      </trkpt>
      <trkpt lat="46.54393" lon="5.599">
        <ele>493</ele>
        <time>2022-04-30T13:42:30Z</time>
      </trkpt>
      <trkpt lat="46.54392" lon="5.59881">
        <ele>492.6</ele>
        <time>2022-04-30T13:42:32Z</time>
      </trkpt>
      <trkpt lat="46.54394" lon="5.59871">
        <ele>492.4</ele>
        <time>2022-04-30T13:42:33Z</time>
      </trkpt>
      <trkpt lat="46.54397" lon="5.59849">
        <ele>492.4</ele>
        <time>2022-04-30T13:42:35Z</time>
      </trkpt>
      <trkpt lat="46.54402" lon="5.59808">
        <ele>492.2</ele>
        <time>2022-04-30T13:42:39Z</time>
      </trkpt>
      <trkpt lat="46.54412" lon="5.59729">
        <ele>492.6</ele>
        <time>2022-04-30T13:42:47Z</time>
      </trkpt>
      <trkpt lat="46.54421" lon="5.59652">
        <ele>493.2</ele>
        <time>2022-04-30T13:42:55Z</time>
      </trkpt>
      <trkpt lat="46.54423" lon="5.59634">
        <ele>493.4</ele>
        <time>2022-04-30T13:42:57Z</time>
      </trkpt>
      <trkpt lat="46.5443" lon="5.59576">
        <ele>494.4</ele>
        <time>2022-04-30T13:43:04Z</time>
      </trkpt>
      <trkpt lat="46.54435" lon="5.59529">
        <ele>495.8</ele>
        <time>2022-04-30T13:43:10Z</time>
      </trkpt>
      <trkpt lat="46.54437" lon="5.59507">
        <ele>496.4</ele>
        <time>2022-04-30T13:43:13Z</time>
      </trkpt>
      <trkpt lat="46.54438" lon="5.595">
        <ele>496.8</ele>
        <time>2022-04-30T13:43:14Z</time>
      </trkpt>
      <trkpt lat="46.54441" lon="5.5948">
        <ele>498</ele>
        <time>2022-04-30T13:43:17Z</time>
      </trkpt>
      <trkpt lat="46.54445" lon="5.5945">
        <ele>499.2</ele>
        <time>2022-04-30T13:43:21Z</time>
      </trkpt>
      <trkpt lat="46.54452" lon="5.59378">
        <ele>499.8</ele>
        <time>2022-04-30T13:43:31Z</time>
      </trkpt>
      <trkpt lat="46.54454" lon="5.59365">
        <ele>500.2</ele>
        <time>2022-04-30T13:43:33Z</time>
      </trkpt>
      <trkpt lat="46.54456" lon="5.5935">
        <ele>500.6</ele>
        <time>2022-04-30T13:43:35Z</time>
      </trkpt>
      <trkpt lat="46.54459" lon="5.59336">
        <ele>501</ele>
        <time>2022-04-30T13:43:37Z</time>
      </trkpt>
      <trkpt lat="46.54461" lon="5.59324">
        <ele>501.2</ele>
        <time>2022-04-30T13:43:39Z</time>
      </trkpt>
      <trkpt lat="46.5447" lon="5.59299">
        <ele>501.6</ele>
        <time>2022-04-30T13:43:43Z</time>
      </trkpt>
      <trkpt lat="46.54477" lon="5.59287">
        <ele>502</ele>
        <time>2022-04-30T13:43:45Z</time>
      </trkpt>
      <trkpt lat="46.54486" lon="5.59269">
        <ele>502.4</ele>
        <time>2022-04-30T13:43:48Z</time>
      </trkpt>
      <trkpt lat="46.54488" lon="5.59264">
        <ele>502.4</ele>
        <time>2022-04-30T13:43:49Z</time>
      </trkpt>
      <trkpt lat="46.54493" lon="5.59243">
        <ele>502.8</ele>
        <time>2022-04-30T13:43:52Z</time>
      </trkpt>
      <trkpt lat="46.54494" lon="5.59224">
        <ele>503.2</ele>
        <time>2022-04-30T13:43:54Z</time>
      </trkpt>
      <trkpt lat="46.54494" lon="5.59216">
        <ele>503.2</ele>
        <time>2022-04-30T13:43:55Z</time>
      </trkpt>
      <trkpt lat="46.54497" lon="5.59181">
        <ele>503.4</ele>
        <time>2022-04-30T13:43:59Z</time>
      </trkpt>
      <trkpt lat="46.54499" lon="5.59155">
        <ele>503.6</ele>
        <time>2022-04-30T13:44:02Z</time>
      </trkpt>
      <trkpt lat="46.54505" lon="5.59108">
        <ele>504.2</ele>
        <time>2022-04-30T13:44:08Z</time>
      </trkpt>
      <trkpt lat="46.54507" lon="5.59087">
        <ele>504.6</ele>
        <time>2022-04-30T13:44:11Z</time>
      </trkpt>
      <trkpt lat="46.5451" lon="5.59052">
        <ele>505.4</ele>
        <time>2022-04-30T13:44:16Z</time>
      </trkpt>
      <trkpt lat="46.54512" lon="5.59016">
        <ele>505.8</ele>
        <time>2022-04-30T13:44:21Z</time>
      </trkpt>
      <trkpt lat="46.54512" lon="5.5898">
        <ele>506.8</ele>
        <time>2022-04-30T13:44:25Z</time>
      </trkpt>
      <trkpt lat="46.54513" lon="5.58972">
        <ele>506.8</ele>
        <time>2022-04-30T13:44:26Z</time>
      </trkpt>
      <trkpt lat="46.54514" lon="5.58902">
        <ele>507</ele>
        <time>2022-04-30T13:44:33Z</time>
      </trkpt>
      <trkpt lat="46.54515" lon="5.58816">
        <ele>506.8</ele>
        <time>2022-04-30T13:44:42Z</time>
      </trkpt>
      <trkpt lat="46.54516" lon="5.58799">
        <ele>506.8</ele>
        <time>2022-04-30T13:44:44Z</time>
      </trkpt>
      <trkpt lat="46.54518" lon="5.58726">
        <ele>507</ele>
        <time>2022-04-30T13:44:52Z</time>
      </trkpt>
      <trkpt lat="46.54524" lon="5.58655">
        <ele>507.8</ele>
        <time>2022-04-30T13:45:00Z</time>
      </trkpt>
      <trkpt lat="46.54526" lon="5.58637">
        <ele>508</ele>
        <time>2022-04-30T13:45:02Z</time>
      </trkpt>
      <trkpt lat="46.54534" lon="5.58578">
        <ele>508.2</ele>
        <time>2022-04-30T13:45:08Z</time>
      </trkpt>
      <trkpt lat="46.5454" lon="5.58517">
        <ele>508</ele>
        <time>2022-04-30T13:45:15Z</time>
      </trkpt>
      <trkpt lat="46.54542" lon="5.58458">
        <ele>508.2</ele>
        <time>2022-04-30T13:45:22Z</time>
      </trkpt>
      <trkpt lat="46.54541" lon="5.58442">
        <ele>508.2</ele>
        <time>2022-04-30T13:45:24Z</time>
      </trkpt>
      <trkpt lat="46.54534" lon="5.58427">
        <ele>508.2</ele>
        <time>2022-04-30T13:45:26Z</time>
      </trkpt>
      <trkpt lat="46.54524" lon="5.58421">
        <ele>508.2</ele>
        <time>2022-04-30T13:45:28Z</time>
      </trkpt>
      <trkpt lat="46.54516" lon="5.5842">
        <ele>508.4</ele>
        <time>2022-04-30T13:45:29Z</time>
      </trkpt>
      <trkpt lat="46.54477" lon="5.58413">
        <ele>508.4</ele>
        <time>2022-04-30T13:45:34Z</time>
      </trkpt>
      <trkpt lat="46.54435" lon="5.58398">
        <ele>508</ele>
        <time>2022-04-30T13:45:39Z</time>
      </trkpt>
      <trkpt lat="46.54387" lon="5.58377">
        <ele>507</ele>
        <time>2022-04-30T13:45:45Z</time>
      </trkpt>
      <trkpt lat="46.54372" lon="5.58369">
        <ele>506.4</ele>
        <time>2022-04-30T13:45:47Z</time>
      </trkpt>
      <trkpt lat="46.54366" lon="5.58366">
        <ele>505.4</ele>
        <time>2022-04-30T13:45:48Z</time>
      </trkpt>
      <trkpt lat="46.54314" lon="5.58341">
        <ele>504.6</ele>
        <time>2022-04-30T13:45:54Z</time>
      </trkpt>
      <trkpt lat="46.54308" lon="5.58337">
        <ele>504.4</ele>
        <time>2022-04-30T13:45:55Z</time>
      </trkpt>
      <trkpt lat="46.54263" lon="5.58314">
        <ele>503.4</ele>
        <time>2022-04-30T13:46:00Z</time>
      </trkpt>
      <trkpt lat="46.54254" lon="5.5831">
        <ele>503.2</ele>
        <time>2022-04-30T13:46:01Z</time>
      </trkpt>
      <trkpt lat="46.54198" lon="5.58276">
        <ele>502.4</ele>
        <time>2022-04-30T13:46:08Z</time>
      </trkpt>
      <trkpt lat="46.54187" lon="5.58261">
        <ele>502.4</ele>
        <time>2022-04-30T13:46:10Z</time>
      </trkpt>
      <trkpt lat="46.54183" lon="5.58249">
        <ele>502.4</ele>
        <time>2022-04-30T13:46:11Z</time>
      </trkpt>
      <trkpt lat="46.54173" lon="5.58208">
        <ele>503</ele>
        <time>2022-04-30T13:46:15Z</time>
      </trkpt>
      <trkpt lat="46.5417" lon="5.58189">
        <ele>503.2</ele>
        <time>2022-04-30T13:46:17Z</time>
      </trkpt>
      <trkpt lat="46.54161" lon="5.58166">
        <ele>504</ele>
        <time>2022-04-30T13:46:20Z</time>
      </trkpt>
      <trkpt lat="46.54154" lon="5.58155">
        <ele>504.8</ele>
        <time>2022-04-30T13:46:22Z</time>
      </trkpt>
      <trkpt lat="46.54144" lon="5.58141">
        <ele>505.8</ele>
        <time>2022-04-30T13:46:24Z</time>
      </trkpt>
      <trkpt lat="46.5414" lon="5.58136">
        <ele>506.6</ele>
        <time>2022-04-30T13:46:25Z</time>
      </trkpt>
      <trkpt lat="46.54136" lon="5.58131">
        <ele>506.8</ele>
        <time>2022-04-30T13:46:26Z</time>
      </trkpt>
      <trkpt lat="46.54105" lon="5.581">
        <ele>508.2</ele>
        <time>2022-04-30T13:46:32Z</time>
      </trkpt>
      <trkpt lat="46.541" lon="5.58095">
        <ele>508.2</ele>
        <time>2022-04-30T13:46:33Z</time>
      </trkpt>
      <trkpt lat="46.54084" lon="5.58076">
        <ele>509.6</ele>
        <time>2022-04-30T13:46:37Z</time>
      </trkpt>
      <trkpt lat="46.5408" lon="5.58071">
        <ele>509.8</ele>
        <time>2022-04-30T13:46:38Z</time>
      </trkpt>
      <trkpt lat="46.54074" lon="5.58062">
        <ele>510.8</ele>
        <time>2022-04-30T13:46:40Z</time>
      </trkpt>
      <trkpt lat="46.54068" lon="5.58053">
        <ele>511.2</ele>
        <time>2022-04-30T13:46:42Z</time>
      </trkpt>
      <trkpt lat="46.54062" lon="5.58046">
        <ele>512</ele>
        <time>2022-04-30T13:46:44Z</time>
      </trkpt>
      <trkpt lat="46.54037" lon="5.58025">
        <ele>512.8</ele>
        <time>2022-04-30T13:46:51Z</time>
      </trkpt>
      <trkpt lat="46.54011" lon="5.58008">
        <ele>512.6</ele>
        <time>2022-04-30T13:46:56Z</time>
      </trkpt>
      <trkpt lat="46.53974" lon="5.57992">
        <ele>511.6</ele>
        <time>2022-04-30T13:47:02Z</time>
      </trkpt>
      <trkpt lat="46.53947" lon="5.57985">
        <ele>510.8</ele>
        <time>2022-04-30T13:47:05Z</time>
      </trkpt>
      <trkpt lat="46.5393" lon="5.57982">
        <ele>510.6</ele>
        <time>2022-04-30T13:47:07Z</time>
      </trkpt>
      <trkpt lat="46.53906" lon="5.57979">
        <ele>509.8</ele>
        <time>2022-04-30T13:47:09Z</time>
      </trkpt>
      <trkpt lat="46.53882" lon="5.57974">
        <ele>508.2</ele>
        <time>2022-04-30T13:47:11Z</time>
      </trkpt>
      <trkpt lat="46.53859" lon="5.57968">
        <ele>506.6</ele>
        <time>2022-04-30T13:47:13Z</time>
      </trkpt>
      <trkpt lat="46.53835" lon="5.57962">
        <ele>505.2</ele>
        <time>2022-04-30T13:47:15Z</time>
      </trkpt>
      <trkpt lat="46.53811" lon="5.57954">
        <ele>504</ele>
        <time>2022-04-30T13:47:17Z</time>
      </trkpt>
      <trkpt lat="46.53799" lon="5.5795">
        <ele>503.2</ele>
        <time>2022-04-30T13:47:18Z</time>
      </trkpt>
      <trkpt lat="46.53787" lon="5.57947">
        <ele>502.6</ele>
        <time>2022-04-30T13:47:19Z</time>
      </trkpt>
      <trkpt lat="46.53763" lon="5.57939">
        <ele>501</ele>
        <time>2022-04-30T13:47:21Z</time>
      </trkpt>
      <trkpt lat="46.53738" lon="5.57932">
        <ele>499.4</ele>
        <time>2022-04-30T13:47:23Z</time>
      </trkpt>
      <trkpt lat="46.53714" lon="5.57925">
        <ele>498.4</ele>
        <time>2022-04-30T13:47:25Z</time>
      </trkpt>
      <trkpt lat="46.53689" lon="5.57918">
        <ele>497.4</ele>
        <time>2022-04-30T13:47:27Z</time>
      </trkpt>
      <trkpt lat="46.53677" lon="5.57914">
        <ele>496.8</ele>
        <time>2022-04-30T13:47:28Z</time>
      </trkpt>
      <trkpt lat="46.53642" lon="5.57903">
        <ele>495.6</ele>
        <time>2022-04-30T13:47:31Z</time>
      </trkpt>
      <trkpt lat="46.53622" lon="5.57896">
        <ele>494.6</ele>
        <time>2022-04-30T13:47:33Z</time>
      </trkpt>
      <trkpt lat="46.53589" lon="5.57882">
        <ele>493.6</ele>
        <time>2022-04-30T13:47:36Z</time>
      </trkpt>
      <trkpt lat="46.53576" lon="5.57877">
        <ele>493.2</ele>
        <time>2022-04-30T13:47:37Z</time>
      </trkpt>
      <trkpt lat="46.5354" lon="5.57857">
        <ele>492.4</ele>
        <time>2022-04-30T13:47:41Z</time>
      </trkpt>
      <trkpt lat="46.53503" lon="5.57827">
        <ele>492.8</ele>
        <time>2022-04-30T13:47:46Z</time>
      </trkpt>
      <trkpt lat="46.53478" lon="5.578">
        <ele>493.6</ele>
        <time>2022-04-30T13:47:51Z</time>
      </trkpt>
      <trkpt lat="46.53473" lon="5.57794">
        <ele>494.2</ele>
        <time>2022-04-30T13:47:52Z</time>
      </trkpt>
      <trkpt lat="46.53469" lon="5.5779">
        <ele>495</ele>
        <time>2022-04-30T13:47:53Z</time>
      </trkpt>
      <trkpt lat="46.53465" lon="5.57787">
        <ele>495.4</ele>
        <time>2022-04-30T13:47:54Z</time>
      </trkpt>
      <trkpt lat="46.53455" lon="5.57781">
        <ele>496.2</ele>
        <time>2022-04-30T13:47:56Z</time>
      </trkpt>
      <trkpt lat="46.53441" lon="5.57772">
        <ele>496.6</ele>
        <time>2022-04-30T13:47:58Z</time>
      </trkpt>
      <trkpt lat="46.53428" lon="5.57766">
        <ele>496.8</ele>
        <time>2022-04-30T13:48:00Z</time>
      </trkpt>
      <trkpt lat="46.53377" lon="5.57748">
        <ele>497.4</ele>
        <time>2022-04-30T13:48:07Z</time>
      </trkpt>
      <trkpt lat="46.53355" lon="5.57741">
        <ele>497.6</ele>
        <time>2022-04-30T13:48:10Z</time>
      </trkpt>
      <trkpt lat="46.53348" lon="5.57738">
        <ele>497.6</ele>
        <time>2022-04-30T13:48:11Z</time>
      </trkpt>
      <trkpt lat="46.5333" lon="5.57727">
        <ele>497.8</ele>
        <time>2022-04-30T13:48:14Z</time>
      </trkpt>
      <trkpt lat="46.53319" lon="5.57719">
        <ele>497.8</ele>
        <time>2022-04-30T13:48:16Z</time>
      </trkpt>
      <trkpt lat="46.53306" lon="5.57704">
        <ele>498.2</ele>
        <time>2022-04-30T13:48:19Z</time>
      </trkpt>
      <trkpt lat="46.53298" lon="5.57692">
        <ele>498.2</ele>
        <time>2022-04-30T13:48:21Z</time>
      </trkpt>
      <trkpt lat="46.53293" lon="5.57678">
        <ele>498.4</ele>
        <time>2022-04-30T13:48:23Z</time>
      </trkpt>
      <trkpt lat="46.5329" lon="5.5767">
        <ele>498.8</ele>
        <time>2022-04-30T13:48:24Z</time>
      </trkpt>
      <trkpt lat="46.53289" lon="5.57661">
        <ele>499.2</ele>
        <time>2022-04-30T13:48:25Z</time>
      </trkpt>
      <trkpt lat="46.53288" lon="5.57644">
        <ele>500</ele>
        <time>2022-04-30T13:48:27Z</time>
      </trkpt>
      <trkpt lat="46.53289" lon="5.57604">
        <ele>500.2</ele>
        <time>2022-04-30T13:48:31Z</time>
      </trkpt>
      <trkpt lat="46.53288" lon="5.57579">
        <ele>500.2</ele>
        <time>2022-04-30T13:48:33Z</time>
      </trkpt>
      <trkpt lat="46.53285" lon="5.57559">
        <ele>500.2</ele>
        <time>2022-04-30T13:48:35Z</time>
      </trkpt>
      <trkpt lat="46.53283" lon="5.57548">
        <ele>500.2</ele>
        <time>2022-04-30T13:48:36Z</time>
      </trkpt>
      <trkpt lat="46.53262" lon="5.57479">
        <ele>499.6</ele>
        <time>2022-04-30T13:48:43Z</time>
      </trkpt>
      <trkpt lat="46.53257" lon="5.57468">
        <ele>499.6</ele>
        <time>2022-04-30T13:48:44Z</time>
      </trkpt>
      <trkpt lat="46.53242" lon="5.57445">
        <ele>499.8</ele>
        <time>2022-04-30T13:48:47Z</time>
      </trkpt>
      <trkpt lat="46.53237" lon="5.57439">
        <ele>499.8</ele>
        <time>2022-04-30T13:48:48Z</time>
      </trkpt>
      <trkpt lat="46.53203" lon="5.57398">
        <ele>500</ele>
        <time>2022-04-30T13:48:54Z</time>
      </trkpt>
      <trkpt lat="46.53168" lon="5.57367">
        <ele>499.8</ele>
        <time>2022-04-30T13:48:59Z</time>
      </trkpt>
      <trkpt lat="46.53139" lon="5.57344">
        <ele>498.8</ele>
        <time>2022-04-30T13:49:03Z</time>
      </trkpt>
      <trkpt lat="46.53123" lon="5.57334">
        <ele>498.6</ele>
        <time>2022-04-30T13:49:05Z</time>
      </trkpt>
      <trkpt lat="46.53116" lon="5.57328">
        <ele>498.4</ele>
        <time>2022-04-30T13:49:06Z</time>
      </trkpt>
      <trkpt lat="46.53102" lon="5.57314">
        <ele>498</ele>
        <time>2022-04-30T13:49:08Z</time>
      </trkpt>
      <trkpt lat="46.53096" lon="5.57305">
        <ele>498</ele>
        <time>2022-04-30T13:49:09Z</time>
      </trkpt>
      <trkpt lat="46.53085" lon="5.57286">
        <ele>497.8</ele>
        <time>2022-04-30T13:49:11Z</time>
      </trkpt>
      <trkpt lat="46.53072" lon="5.57256">
        <ele>496.8</ele>
        <time>2022-04-30T13:49:14Z</time>
      </trkpt>
      <trkpt lat="46.53067" lon="5.57246">
        <ele>496.4</ele>
        <time>2022-04-30T13:49:15Z</time>
      </trkpt>
      <trkpt lat="46.53046" lon="5.57193">
        <ele>496</ele>
        <time>2022-04-30T13:49:20Z</time>
      </trkpt>
      <trkpt lat="46.53029" lon="5.5715">
        <ele>495.4</ele>
        <time>2022-04-30T13:49:24Z</time>
      </trkpt>
      <trkpt lat="46.53011" lon="5.57106">
        <ele>494.6</ele>
        <time>2022-04-30T13:49:28Z</time>
      </trkpt>
      <trkpt lat="46.53007" lon="5.57095">
        <ele>494.2</ele>
        <time>2022-04-30T13:49:29Z</time>
      </trkpt>
      <trkpt lat="46.5299" lon="5.57056">
        <ele>493.8</ele>
        <time>2022-04-30T13:49:33Z</time>
      </trkpt>
      <trkpt lat="46.52981" lon="5.57038">
        <ele>493.8</ele>
        <time>2022-04-30T13:49:35Z</time>
      </trkpt>
      <trkpt lat="46.52954" lon="5.57">
        <ele>493.8</ele>
        <time>2022-04-30T13:49:40Z</time>
      </trkpt>
      <trkpt lat="46.52935" lon="5.56956">
        <ele>493.8</ele>
        <time>2022-04-30T13:49:45Z</time>
      </trkpt>
      <trkpt lat="46.52922" lon="5.56909">
        <ele>494</ele>
        <time>2022-04-30T13:49:50Z</time>
      </trkpt>
      <trkpt lat="46.52915" lon="5.56876">
        <ele>494.2</ele>
        <time>2022-04-30T13:49:54Z</time>
      </trkpt>
      <trkpt lat="46.52904" lon="5.56828">
        <ele>495</ele>
        <time>2022-04-30T13:49:59Z</time>
      </trkpt>
      <trkpt lat="46.529" lon="5.56809">
        <ele>495.2</ele>
        <time>2022-04-30T13:50:01Z</time>
      </trkpt>
      <trkpt lat="46.52883" lon="5.56739">
        <ele>495.4</ele>
        <time>2022-04-30T13:50:08Z</time>
      </trkpt>
      <trkpt lat="46.52867" lon="5.56665">
        <ele>494.8</ele>
        <time>2022-04-30T13:50:15Z</time>
      </trkpt>
      <trkpt lat="46.52856" lon="5.56614">
        <ele>494.2</ele>
        <time>2022-04-30T13:50:20Z</time>
      </trkpt>
      <trkpt lat="46.52846" lon="5.56573">
        <ele>493.8</ele>
        <time>2022-04-30T13:50:24Z</time>
      </trkpt>
      <trkpt lat="46.52839" lon="5.56542">
        <ele>493.4</ele>
        <time>2022-04-30T13:50:27Z</time>
      </trkpt>
      <trkpt lat="46.52828" lon="5.56499">
        <ele>493</ele>
        <time>2022-04-30T13:50:31Z</time>
      </trkpt>
      <trkpt lat="46.52825" lon="5.56487">
        <ele>493</ele>
        <time>2022-04-30T13:50:32Z</time>
      </trkpt>
      <trkpt lat="46.52814" lon="5.56441">
        <ele>491.8</ele>
        <time>2022-04-30T13:50:36Z</time>
      </trkpt>
      <trkpt lat="46.52806" lon="5.56409">
        <ele>491</ele>
        <time>2022-04-30T13:50:39Z</time>
      </trkpt>
      <trkpt lat="46.52804" lon="5.56398">
        <ele>490.8</ele>
        <time>2022-04-30T13:50:40Z</time>
      </trkpt>
      <trkpt lat="46.52786" lon="5.56327">
        <ele>490.2</ele>
        <time>2022-04-30T13:50:47Z</time>
      </trkpt>
      <trkpt lat="46.52769" lon="5.56258">
        <ele>489.6</ele>
        <time>2022-04-30T13:50:54Z</time>
      </trkpt>
      <trkpt lat="46.52766" lon="5.56245">
        <ele>489.6</ele>
        <time>2022-04-30T13:50:55Z</time>
      </trkpt>
      <trkpt lat="46.52746" lon="5.56167">
        <ele>489.2</ele>
        <time>2022-04-30T13:51:03Z</time>
      </trkpt>
      <trkpt lat="46.52744" lon="5.56158">
        <ele>489.2</ele>
        <time>2022-04-30T13:51:04Z</time>
      </trkpt>
      <trkpt lat="46.52727" lon="5.56097">
        <ele>489.2</ele>
        <time>2022-04-30T13:51:11Z</time>
      </trkpt>
      <trkpt lat="46.52725" lon="5.56089">
        <ele>489</ele>
        <time>2022-04-30T13:51:12Z</time>
      </trkpt>
      <trkpt lat="46.52716" lon="5.56078">
        <ele>489</ele>
        <time>2022-04-30T13:51:14Z</time>
      </trkpt>
      <trkpt lat="46.52711" lon="5.56078">
        <ele>488.8</ele>
        <time>2022-04-30T13:51:15Z</time>
      </trkpt>
      <trkpt lat="46.52705" lon="5.5608">
        <ele>488.8</ele>
        <time>2022-04-30T13:51:16Z</time>
      </trkpt>
      <trkpt lat="46.52692" lon="5.56086">
        <ele>488.6</ele>
        <time>2022-04-30T13:51:18Z</time>
      </trkpt>
      <trkpt lat="46.52685" lon="5.56089">
        <ele>488.4</ele>
        <time>2022-04-30T13:51:19Z</time>
      </trkpt>
      <trkpt lat="46.52632" lon="5.56113">
        <ele>487.8</ele>
        <time>2022-04-30T13:51:27Z</time>
      </trkpt>
      <trkpt lat="46.52627" lon="5.56115">
        <ele>487.8</ele>
        <time>2022-04-30T13:51:28Z</time>
      </trkpt>
      <trkpt lat="46.52618" lon="5.56113">
        <ele>487.8</ele>
        <time>2022-04-30T13:51:30Z</time>
      </trkpt>
      <trkpt lat="46.52616" lon="5.56111">
        <ele>487.8</ele>
        <time>2022-04-30T13:51:31Z</time>
      </trkpt>
      <trkpt lat="46.52614" lon="5.56104">
        <ele>487.8</ele>
        <time>2022-04-30T13:51:33Z</time>
      </trkpt>
      <trkpt lat="46.52616" lon="5.56088">
        <ele>487.6</ele>
        <time>2022-04-30T13:51:36Z</time>
      </trkpt>
      <trkpt lat="46.52617" lon="5.56079">
        <ele>487.4</ele>
        <time>2022-04-30T13:51:37Z</time>
      </trkpt>
      <trkpt lat="46.52623" lon="5.56034">
        <ele>487.4</ele>
        <time>2022-04-30T13:51:42Z</time>
      </trkpt>
      <trkpt lat="46.52629" lon="5.55957">
        <ele>487.8</ele>
        <time>2022-04-30T13:51:50Z</time>
      </trkpt>
      <trkpt lat="46.52634" lon="5.55889">
        <ele>488.4</ele>
        <time>2022-04-30T13:51:57Z</time>
      </trkpt>
      <trkpt lat="46.52634" lon="5.55879">
        <ele>488.6</ele>
        <time>2022-04-30T13:51:58Z</time>
      </trkpt>
      <trkpt lat="46.52641" lon="5.55809">
        <ele>488.4</ele>
        <time>2022-04-30T13:52:06Z</time>
      </trkpt>
      <trkpt lat="46.52646" lon="5.55726">
        <ele>488.2</ele>
        <time>2022-04-30T13:52:15Z</time>
      </trkpt>
      <trkpt lat="46.52647" lon="5.55707">
        <ele>488.2</ele>
        <time>2022-04-30T13:52:17Z</time>
      </trkpt>
      <trkpt lat="46.52648" lon="5.5569">
        <ele>488</ele>
        <time>2022-04-30T13:52:19Z</time>
      </trkpt>
      <trkpt lat="46.52651" lon="5.55661">
        <ele>488.2</ele>
        <time>2022-04-30T13:52:22Z</time>
      </trkpt>
      <trkpt lat="46.52656" lon="5.55578">
        <ele>488.4</ele>
        <time>2022-04-30T13:52:31Z</time>
      </trkpt>
      <trkpt lat="46.52658" lon="5.5556">
        <ele>488.4</ele>
        <time>2022-04-30T13:52:33Z</time>
      </trkpt>
      <trkpt lat="46.52664" lon="5.5548">
        <ele>487.6</ele>
        <time>2022-04-30T13:52:43Z</time>
      </trkpt>
      <trkpt lat="46.52665" lon="5.55463">
        <ele>487.6</ele>
        <time>2022-04-30T13:52:45Z</time>
      </trkpt>
      <trkpt lat="46.5267" lon="5.55413">
        <ele>488.4</ele>
        <time>2022-04-30T13:52:51Z</time>
      </trkpt>
      <trkpt lat="46.52676" lon="5.55336">
        <ele>488.8</ele>
        <time>2022-04-30T13:53:01Z</time>
      </trkpt>
      <trkpt lat="46.52678" lon="5.55321">
        <ele>489</ele>
        <time>2022-04-30T13:53:03Z</time>
      </trkpt>
      <trkpt lat="46.52682" lon="5.55267">
        <ele>490</ele>
        <time>2022-04-30T13:53:10Z</time>
      </trkpt>
      <trkpt lat="46.52683" lon="5.5525">
        <ele>490.2</ele>
        <time>2022-04-30T13:53:12Z</time>
      </trkpt>
      <trkpt lat="46.52689" lon="5.55176">
        <ele>490.6</ele>
        <time>2022-04-30T13:53:21Z</time>
      </trkpt>
      <trkpt lat="46.52695" lon="5.55095">
        <ele>490.8</ele>
        <time>2022-04-30T13:53:31Z</time>
      </trkpt>
      <trkpt lat="46.52699" lon="5.55035">
        <ele>490.8</ele>
        <time>2022-04-30T13:53:39Z</time>
      </trkpt>
      <trkpt lat="46.52702" lon="5.55006">
        <ele>491</ele>
        <time>2022-04-30T13:53:43Z</time>
      </trkpt>
      <trkpt lat="46.52704" lon="5.54972">
        <ele>491.4</ele>
        <time>2022-04-30T13:53:48Z</time>
      </trkpt>
      <trkpt lat="46.52707" lon="5.54939">
        <ele>492</ele>
        <time>2022-04-30T13:53:53Z</time>
      </trkpt>
      <trkpt lat="46.52709" lon="5.54917">
        <ele>492.6</ele>
        <time>2022-04-30T13:53:57Z</time>
      </trkpt>
      <trkpt lat="46.5271" lon="5.54894">
        <ele>493.2</ele>
        <time>2022-04-30T13:54:01Z</time>
      </trkpt>
      <trkpt lat="46.52712" lon="5.54871">
        <ele>493.8</ele>
        <time>2022-04-30T13:54:05Z</time>
      </trkpt>
      <trkpt lat="46.52713" lon="5.54845">
        <ele>494.2</ele>
        <time>2022-04-30T13:54:09Z</time>
      </trkpt>
      <trkpt lat="46.52715" lon="5.5482">
        <ele>494.8</ele>
        <time>2022-04-30T13:54:13Z</time>
      </trkpt>
      <trkpt lat="46.52717" lon="5.54788">
        <ele>495.4</ele>
        <time>2022-04-30T13:54:18Z</time>
      </trkpt>
      <trkpt lat="46.5272" lon="5.54749">
        <ele>496.4</ele>
        <time>2022-04-30T13:54:24Z</time>
      </trkpt>
      <trkpt lat="46.52722" lon="5.54736">
        <ele>496.6</ele>
        <time>2022-04-30T13:54:26Z</time>
      </trkpt>
      <trkpt lat="46.52723" lon="5.54709">
        <ele>497</ele>
        <time>2022-04-30T13:54:30Z</time>
      </trkpt>
      <trkpt lat="46.52725" lon="5.54695">
        <ele>497.2</ele>
        <time>2022-04-30T13:54:32Z</time>
      </trkpt>
      <trkpt lat="46.52727" lon="5.54663">
        <ele>497.8</ele>
        <time>2022-04-30T13:54:37Z</time>
      </trkpt>
      <trkpt lat="46.52729" lon="5.54643">
        <ele>498</ele>
        <time>2022-04-30T13:54:40Z</time>
      </trkpt>
      <trkpt lat="46.52732" lon="5.54631">
        <ele>498.2</ele>
        <time>2022-04-30T13:54:42Z</time>
      </trkpt>
      <trkpt lat="46.52737" lon="5.5462">
        <ele>498.8</ele>
        <time>2022-04-30T13:54:44Z</time>
      </trkpt>
      <trkpt lat="46.52741" lon="5.54616">
        <ele>499</ele>
        <time>2022-04-30T13:54:45Z</time>
      </trkpt>
      <trkpt lat="46.52748" lon="5.5461">
        <ele>499.2</ele>
        <time>2022-04-30T13:54:47Z</time>
      </trkpt>
      <trkpt lat="46.52755" lon="5.54608">
        <ele>499.4</ele>
        <time>2022-04-30T13:54:49Z</time>
      </trkpt>
      <trkpt lat="46.52763" lon="5.54607">
        <ele>500</ele>
        <time>2022-04-30T13:54:51Z</time>
      </trkpt>
      <trkpt lat="46.52779" lon="5.54609">
        <ele>501.6</ele>
        <time>2022-04-30T13:54:55Z</time>
      </trkpt>
      <trkpt lat="46.52795" lon="5.5461">
        <ele>502.6</ele>
        <time>2022-04-30T13:54:59Z</time>
      </trkpt>
      <trkpt lat="46.5281" lon="5.5461">
        <ele>503.8</ele>
        <time>2022-04-30T13:55:03Z</time>
      </trkpt>
      <trkpt lat="46.52828" lon="5.54612">
        <ele>504.8</ele>
        <time>2022-04-30T13:55:08Z</time>
      </trkpt>
      <trkpt lat="46.52837" lon="5.54613">
        <ele>505</ele>
        <time>2022-04-30T13:55:10Z</time>
      </trkpt>
      <trkpt lat="46.52847" lon="5.54614">
        <ele>505.8</ele>
        <time>2022-04-30T13:55:13Z</time>
      </trkpt>
      <trkpt lat="46.52866" lon="5.54616">
        <ele>507</ele>
        <time>2022-04-30T13:55:18Z</time>
      </trkpt>
      <trkpt lat="46.52893" lon="5.54617">
        <ele>508</ele>
        <time>2022-04-30T13:55:25Z</time>
      </trkpt>
      <trkpt lat="46.52901" lon="5.54617">
        <ele>508.2</ele>
        <time>2022-04-30T13:55:27Z</time>
      </trkpt>
      <trkpt lat="46.52923" lon="5.54619">
        <ele>509</ele>
        <time>2022-04-30T13:55:33Z</time>
      </trkpt>
      <trkpt lat="46.52927" lon="5.54619">
        <ele>509.2</ele>
        <time>2022-04-30T13:55:34Z</time>
      </trkpt>
      <trkpt lat="46.52948" lon="5.54621">
        <ele>510</ele>
        <time>2022-04-30T13:55:39Z</time>
      </trkpt>
      <trkpt lat="46.52975" lon="5.54623">
        <ele>510.8</ele>
        <time>2022-04-30T13:55:45Z</time>
      </trkpt>
      <trkpt lat="46.52995" lon="5.54625">
        <ele>511.2</ele>
        <time>2022-04-30T13:55:49Z</time>
      </trkpt>
      <trkpt lat="46.53018" lon="5.54628">
        <ele>511.6</ele>
        <time>2022-04-30T13:55:54Z</time>
      </trkpt>
      <trkpt lat="46.53041" lon="5.54631">
        <ele>512.2</ele>
        <time>2022-04-30T13:55:59Z</time>
      </trkpt>
      <trkpt lat="46.53054" lon="5.54631">
        <ele>512.6</ele>
        <time>2022-04-30T13:56:02Z</time>
      </trkpt>
      <trkpt lat="46.53075" lon="5.54631">
        <ele>513.4</ele>
        <time>2022-04-30T13:56:07Z</time>
      </trkpt>
      <trkpt lat="46.531" lon="5.54632">
        <ele>514.4</ele>
        <time>2022-04-30T13:56:12Z</time>
      </trkpt>
      <trkpt lat="46.53105" lon="5.54632">
        <ele>514.6</ele>
        <time>2022-04-30T13:56:13Z</time>
      </trkpt>
      <trkpt lat="46.53129" lon="5.54637">
        <ele>515.4</ele>
        <time>2022-04-30T13:56:18Z</time>
      </trkpt>
      <trkpt lat="46.53151" lon="5.54642">
        <ele>516.4</ele>
        <time>2022-04-30T13:56:23Z</time>
      </trkpt>
      <trkpt lat="46.53168" lon="5.54646">
        <ele>516.8</ele>
        <time>2022-04-30T13:56:27Z</time>
      </trkpt>
      <trkpt lat="46.53189" lon="5.54649">
        <ele>517.8</ele>
        <time>2022-04-30T13:56:32Z</time>
      </trkpt>
      <trkpt lat="46.53201" lon="5.54651">
        <ele>519</ele>
        <time>2022-04-30T13:56:35Z</time>
      </trkpt>
      <trkpt lat="46.53206" lon="5.54651">
        <ele>519.4</ele>
        <time>2022-04-30T13:56:36Z</time>
      </trkpt>
      <trkpt lat="46.5322" lon="5.54653">
        <ele>520</ele>
        <time>2022-04-30T13:56:39Z</time>
      </trkpt>
      <trkpt lat="46.53257" lon="5.54659">
        <ele>521</ele>
        <time>2022-04-30T13:56:47Z</time>
      </trkpt>
      <trkpt lat="46.53266" lon="5.54661">
        <ele>521</ele>
        <time>2022-04-30T13:56:49Z</time>
      </trkpt>
      <trkpt lat="46.53287" lon="5.54667">
        <ele>522.2</ele>
        <time>2022-04-30T13:56:54Z</time>
      </trkpt>
      <trkpt lat="46.53295" lon="5.54669">
        <ele>522.6</ele>
        <time>2022-04-30T13:56:56Z</time>
      </trkpt>
      <trkpt lat="46.53308" lon="5.54672">
        <ele>523.2</ele>
        <time>2022-04-30T13:56:59Z</time>
      </trkpt>
      <trkpt lat="46.53336" lon="5.54681">
        <ele>524.2</ele>
        <time>2022-04-30T13:57:06Z</time>
      </trkpt>
      <trkpt lat="46.53341" lon="5.54682">
        <ele>524.4</ele>
        <time>2022-04-30T13:57:07Z</time>
      </trkpt>
      <trkpt lat="46.53381" lon="5.54696">
        <ele>525.2</ele>
        <time>2022-04-30T13:57:16Z</time>
      </trkpt>
      <trkpt lat="46.53396" lon="5.547">
        <ele>525.4</ele>
        <time>2022-04-30T13:57:19Z</time>
      </trkpt>
      <trkpt lat="46.5341" lon="5.54706">
        <ele>525.8</ele>
        <time>2022-04-30T13:57:22Z</time>
      </trkpt>
      <trkpt lat="46.53435" lon="5.54714">
        <ele>526.4</ele>
        <time>2022-04-30T13:57:27Z</time>
      </trkpt>
      <trkpt lat="46.53454" lon="5.54721">
        <ele>526.8</ele>
        <time>2022-04-30T13:57:31Z</time>
      </trkpt>
      <trkpt lat="46.53483" lon="5.5473">
        <ele>527.6</ele>
        <time>2022-04-30T13:57:37Z</time>
      </trkpt>
      <trkpt lat="46.53502" lon="5.54737">
        <ele>528</ele>
        <time>2022-04-30T13:57:41Z</time>
      </trkpt>
      <trkpt lat="46.53521" lon="5.54743">
        <ele>528.4</ele>
        <time>2022-04-30T13:57:45Z</time>
      </trkpt>
      <trkpt lat="46.5355" lon="5.54753">
        <ele>529.4</ele>
        <time>2022-04-30T13:57:51Z</time>
      </trkpt>
      <trkpt lat="46.53555" lon="5.54755">
        <ele>529.4</ele>
        <time>2022-04-30T13:57:52Z</time>
      </trkpt>
      <trkpt lat="46.53578" lon="5.54763">
        <ele>530.6</ele>
        <time>2022-04-30T13:57:57Z</time>
      </trkpt>
      <trkpt lat="46.53592" lon="5.54767">
        <ele>531.2</ele>
        <time>2022-04-30T13:58:00Z</time>
      </trkpt>
      <trkpt lat="46.53606" lon="5.54772">
        <ele>531.8</ele>
        <time>2022-04-30T13:58:03Z</time>
      </trkpt>
      <trkpt lat="46.53625" lon="5.54778">
        <ele>532.8</ele>
        <time>2022-04-30T13:58:07Z</time>
      </trkpt>
      <trkpt lat="46.53643" lon="5.54784">
        <ele>533.2</ele>
        <time>2022-04-30T13:58:11Z</time>
      </trkpt>
      <trkpt lat="46.53667" lon="5.54791">
        <ele>534</ele>
        <time>2022-04-30T13:58:16Z</time>
      </trkpt>
      <trkpt lat="46.53681" lon="5.54796">
        <ele>534.6</ele>
        <time>2022-04-30T13:58:19Z</time>
      </trkpt>
      <trkpt lat="46.537" lon="5.54803">
        <ele>535.2</ele>
        <time>2022-04-30T13:58:23Z</time>
      </trkpt>
      <trkpt lat="46.53729" lon="5.54814">
        <ele>536.4</ele>
        <time>2022-04-30T13:58:29Z</time>
      </trkpt>
      <trkpt lat="46.53744" lon="5.54819">
        <ele>537</ele>
        <time>2022-04-30T13:58:32Z</time>
      </trkpt>
      <trkpt lat="46.53785" lon="5.54823">
        <ele>537.6</ele>
        <time>2022-04-30T13:58:40Z</time>
      </trkpt>
      <trkpt lat="46.53811" lon="5.54819">
        <ele>538.8</ele>
        <time>2022-04-30T13:58:45Z</time>
      </trkpt>
      <trkpt lat="46.53831" lon="5.54814">
        <ele>539.2</ele>
        <time>2022-04-30T13:58:49Z</time>
      </trkpt>
      <trkpt lat="46.5386" lon="5.54807">
        <ele>540</ele>
        <time>2022-04-30T13:58:55Z</time>
      </trkpt>
      <trkpt lat="46.53879" lon="5.54802">
        <ele>540.6</ele>
        <time>2022-04-30T13:58:59Z</time>
      </trkpt>
      <trkpt lat="46.53899" lon="5.54797">
        <ele>541</ele>
        <time>2022-04-30T13:59:03Z</time>
      </trkpt>
      <trkpt lat="46.53919" lon="5.54787">
        <ele>541.2</ele>
        <time>2022-04-30T13:59:07Z</time>
      </trkpt>
      <trkpt lat="46.53954" lon="5.54757">
        <ele>541.6</ele>
        <time>2022-04-30T13:59:15Z</time>
      </trkpt>
      <trkpt lat="46.53966" lon="5.54744">
        <ele>542</ele>
        <time>2022-04-30T13:59:18Z</time>
      </trkpt>
      <trkpt lat="46.53986" lon="5.54718">
        <ele>542.4</ele>
        <time>2022-04-30T13:59:23Z</time>
      </trkpt>
      <trkpt lat="46.54002" lon="5.54685">
        <ele>542.8</ele>
        <time>2022-04-30T13:59:28Z</time>
      </trkpt>
      <trkpt lat="46.54004" lon="5.54677">
        <ele>542.8</ele>
        <time>2022-04-30T13:59:29Z</time>
      </trkpt>
      <trkpt lat="46.54016" lon="5.54633">
        <ele>542.4</ele>
        <time>2022-04-30T13:59:34Z</time>
      </trkpt>
      <trkpt lat="46.54036" lon="5.54556">
        <ele>541</ele>
        <time>2022-04-30T13:59:42Z</time>
      </trkpt>
      <trkpt lat="46.54038" lon="5.54547">
        <ele>540.8</ele>
        <time>2022-04-30T13:59:43Z</time>
      </trkpt>
      <trkpt lat="46.54059" lon="5.54471">
        <ele>540.4</ele>
        <time>2022-04-30T13:59:51Z</time>
      </trkpt>
      <trkpt lat="46.54074" lon="5.54411">
        <ele>539.4</ele>
        <time>2022-04-30T13:59:57Z</time>
      </trkpt>
      <trkpt lat="46.54085" lon="5.54368">
        <ele>539</ele>
        <time>2022-04-30T14:00:01Z</time>
      </trkpt>
      <trkpt lat="46.54094" lon="5.54336">
        <ele>538.4</ele>
        <time>2022-04-30T14:00:04Z</time>
      </trkpt>
      <trkpt lat="46.54106" lon="5.54292">
        <ele>537.6</ele>
        <time>2022-04-30T14:00:08Z</time>
      </trkpt>
      <trkpt lat="46.54109" lon="5.54281">
        <ele>537</ele>
        <time>2022-04-30T14:00:09Z</time>
      </trkpt>
      <trkpt lat="46.54116" lon="5.54257">
        <ele>535.8</ele>
        <time>2022-04-30T14:00:11Z</time>
      </trkpt>
      <trkpt lat="46.54123" lon="5.54233">
        <ele>534.8</ele>
        <time>2022-04-30T14:00:13Z</time>
      </trkpt>
      <trkpt lat="46.54133" lon="5.54197">
        <ele>533.4</ele>
        <time>2022-04-30T14:00:16Z</time>
      </trkpt>
      <trkpt lat="46.54139" lon="5.54175">
        <ele>532</ele>
        <time>2022-04-30T14:00:18Z</time>
      </trkpt>
      <trkpt lat="46.54142" lon="5.54164">
        <ele>531.8</ele>
        <time>2022-04-30T14:00:19Z</time>
      </trkpt>
      <trkpt lat="46.54145" lon="5.54152">
        <ele>531</ele>
        <time>2022-04-30T14:00:20Z</time>
      </trkpt>
      <trkpt lat="46.54157" lon="5.54117">
        <ele>530</ele>
        <time>2022-04-30T14:00:23Z</time>
      </trkpt>
      <trkpt lat="46.54161" lon="5.54105">
        <ele>529.8</ele>
        <time>2022-04-30T14:00:24Z</time>
      </trkpt>
      <trkpt lat="46.54171" lon="5.54068">
        <ele>528.8</ele>
        <time>2022-04-30T14:00:27Z</time>
      </trkpt>
      <trkpt lat="46.54184" lon="5.5402">
        <ele>528</ele>
        <time>2022-04-30T14:00:31Z</time>
      </trkpt>
      <trkpt lat="46.5419" lon="5.53996">
        <ele>527.6</ele>
        <time>2022-04-30T14:00:33Z</time>
      </trkpt>
      <trkpt lat="46.542" lon="5.53949">
        <ele>526.8</ele>
        <time>2022-04-30T14:00:37Z</time>
      </trkpt>
      <trkpt lat="46.54202" lon="5.53912">
        <ele>526.6</ele>
        <time>2022-04-30T14:00:40Z</time>
      </trkpt>
      <trkpt lat="46.54203" lon="5.53876">
        <ele>526.4</ele>
        <time>2022-04-30T14:00:43Z</time>
      </trkpt>
      <trkpt lat="46.54204" lon="5.53818">
        <ele>526.2</ele>
        <time>2022-04-30T14:00:48Z</time>
      </trkpt>
      <trkpt lat="46.54206" lon="5.53753">
        <ele>526</ele>
        <time>2022-04-30T14:00:53Z</time>
      </trkpt>
      <trkpt lat="46.54208" lon="5.5371">
        <ele>525.6</ele>
        <time>2022-04-30T14:00:57Z</time>
      </trkpt>
      <trkpt lat="46.54211" lon="5.53689">
        <ele>525.6</ele>
        <time>2022-04-30T14:00:59Z</time>
      </trkpt>
      <trkpt lat="46.54212" lon="5.53676">
        <ele>525.4</ele>
        <time>2022-04-30T14:01:00Z</time>
      </trkpt>
      <trkpt lat="46.54218" lon="5.53652">
        <ele>524.8</ele>
        <time>2022-04-30T14:01:02Z</time>
      </trkpt>
      <trkpt lat="46.54236" lon="5.53616">
        <ele>524.4</ele>
        <time>2022-04-30T14:01:06Z</time>
      </trkpt>
      <trkpt lat="46.54246" lon="5.53599">
        <ele>524.2</ele>
        <time>2022-04-30T14:01:08Z</time>
      </trkpt>
      <trkpt lat="46.54272" lon="5.53545">
        <ele>524</ele>
        <time>2022-04-30T14:01:14Z</time>
      </trkpt>
      <trkpt lat="46.54276" lon="5.53536">
        <ele>524</ele>
        <time>2022-04-30T14:01:15Z</time>
      </trkpt>
      <trkpt lat="46.54295" lon="5.53481">
        <ele>523</ele>
        <time>2022-04-30T14:01:21Z</time>
      </trkpt>
      <trkpt lat="46.54309" lon="5.53457">
        <ele>522.6</ele>
        <time>2022-04-30T14:01:24Z</time>
      </trkpt>
      <trkpt lat="46.54321" lon="5.53443">
        <ele>522.4</ele>
        <time>2022-04-30T14:01:26Z</time>
      </trkpt>
      <trkpt lat="46.54332" lon="5.53427">
        <ele>522</ele>
        <time>2022-04-30T14:01:28Z</time>
      </trkpt>
      <trkpt lat="46.54348" lon="5.53401">
        <ele>521.8</ele>
        <time>2022-04-30T14:01:31Z</time>
      </trkpt>
      <trkpt lat="46.54355" lon="5.53381">
        <ele>521.4</ele>
        <time>2022-04-30T14:01:33Z</time>
      </trkpt>
      <trkpt lat="46.5436" lon="5.53359">
        <ele>520.8</ele>
        <time>2022-04-30T14:01:35Z</time>
      </trkpt>
      <trkpt lat="46.54373" lon="5.53306">
        <ele>520.2</ele>
        <time>2022-04-30T14:01:40Z</time>
      </trkpt>
      <trkpt lat="46.54384" lon="5.53288">
        <ele>520</ele>
        <time>2022-04-30T14:01:42Z</time>
      </trkpt>
      <trkpt lat="46.54391" lon="5.5328">
        <ele>519.4</ele>
        <time>2022-04-30T14:01:43Z</time>
      </trkpt>
      <trkpt lat="46.54398" lon="5.53273">
        <ele>518.8</ele>
        <time>2022-04-30T14:01:44Z</time>
      </trkpt>
      <trkpt lat="46.54405" lon="5.53268">
        <ele>518.6</ele>
        <time>2022-04-30T14:01:45Z</time>
      </trkpt>
      <trkpt lat="46.54413" lon="5.53264">
        <ele>518.2</ele>
        <time>2022-04-30T14:01:46Z</time>
      </trkpt>
      <trkpt lat="46.54429" lon="5.53259">
        <ele>517.6</ele>
        <time>2022-04-30T14:01:48Z</time>
      </trkpt>
      <trkpt lat="46.54454" lon="5.53254">
        <ele>516.6</ele>
        <time>2022-04-30T14:01:51Z</time>
      </trkpt>
      <trkpt lat="46.54481" lon="5.53249">
        <ele>515.2</ele>
        <time>2022-04-30T14:01:54Z</time>
      </trkpt>
      <trkpt lat="46.545" lon="5.53245">
        <ele>514</ele>
        <time>2022-04-30T14:01:56Z</time>
      </trkpt>
      <trkpt lat="46.54519" lon="5.5324">
        <ele>512</ele>
        <time>2022-04-30T14:01:58Z</time>
      </trkpt>
      <trkpt lat="46.54547" lon="5.53235">
        <ele>510.6</ele>
        <time>2022-04-30T14:02:01Z</time>
      </trkpt>
      <trkpt lat="46.54565" lon="5.5323">
        <ele>509.4</ele>
        <time>2022-04-30T14:02:03Z</time>
      </trkpt>
      <trkpt lat="46.54574" lon="5.53228">
        <ele>508.6</ele>
        <time>2022-04-30T14:02:04Z</time>
      </trkpt>
      <trkpt lat="46.54583" lon="5.53225">
        <ele>508</ele>
        <time>2022-04-30T14:02:05Z</time>
      </trkpt>
      <trkpt lat="46.54627" lon="5.53207">
        <ele>507</ele>
        <time>2022-04-30T14:02:10Z</time>
      </trkpt>
      <trkpt lat="46.54645" lon="5.53201">
        <ele>505.8</ele>
        <time>2022-04-30T14:02:12Z</time>
      </trkpt>
      <trkpt lat="46.54663" lon="5.53197">
        <ele>504.6</ele>
        <time>2022-04-30T14:02:14Z</time>
      </trkpt>
      <trkpt lat="46.54672" lon="5.53197">
        <ele>504.2</ele>
        <time>2022-04-30T14:02:15Z</time>
      </trkpt>
      <trkpt lat="46.54682" lon="5.53197">
        <ele>503.4</ele>
        <time>2022-04-30T14:02:16Z</time>
      </trkpt>
      <trkpt lat="46.5471" lon="5.532">
        <ele>502.2</ele>
        <time>2022-04-30T14:02:19Z</time>
      </trkpt>
      <trkpt lat="46.54729" lon="5.53201">
        <ele>500.6</ele>
        <time>2022-04-30T14:02:21Z</time>
      </trkpt>
      <trkpt lat="46.54747" lon="5.53201">
        <ele>499.4</ele>
        <time>2022-04-30T14:02:23Z</time>
      </trkpt>
      <trkpt lat="46.54764" lon="5.532">
        <ele>498.4</ele>
        <time>2022-04-30T14:02:25Z</time>
      </trkpt>
      <trkpt lat="46.54772" lon="5.53197">
        <ele>497.8</ele>
        <time>2022-04-30T14:02:26Z</time>
      </trkpt>
      <trkpt lat="46.5478" lon="5.53194">
        <ele>497</ele>
        <time>2022-04-30T14:02:27Z</time>
      </trkpt>
      <trkpt lat="46.54786" lon="5.53189">
        <ele>496.6</ele>
        <time>2022-04-30T14:02:28Z</time>
      </trkpt>
      <trkpt lat="46.5479" lon="5.53181">
        <ele>496.4</ele>
        <time>2022-04-30T14:02:29Z</time>
      </trkpt>
      <trkpt lat="46.5479" lon="5.53162">
        <ele>495.6</ele>
        <time>2022-04-30T14:02:31Z</time>
      </trkpt>
      <trkpt lat="46.5478" lon="5.5315">
        <ele>495</ele>
        <time>2022-04-30T14:02:33Z</time>
      </trkpt>
      <trkpt lat="46.54766" lon="5.53145">
        <ele>494.4</ele>
        <time>2022-04-30T14:02:35Z</time>
      </trkpt>
      <trkpt lat="46.5475" lon="5.53143">
        <ele>493.4</ele>
        <time>2022-04-30T14:02:37Z</time>
      </trkpt>
      <trkpt lat="46.54742" lon="5.53141">
        <ele>493.2</ele>
        <time>2022-04-30T14:02:38Z</time>
      </trkpt>
      <trkpt lat="46.54717" lon="5.53132">
        <ele>492.4</ele>
        <time>2022-04-30T14:02:41Z</time>
      </trkpt>
      <trkpt lat="46.54708" lon="5.53128">
        <ele>492.2</ele>
        <time>2022-04-30T14:02:42Z</time>
      </trkpt>
      <trkpt lat="46.54666" lon="5.53105">
        <ele>491.6</ele>
        <time>2022-04-30T14:02:47Z</time>
      </trkpt>
      <trkpt lat="46.54619" lon="5.53076">
        <ele>491.4</ele>
        <time>2022-04-30T14:02:53Z</time>
      </trkpt>
      <trkpt lat="46.54603" lon="5.53067">
        <ele>491.4</ele>
        <time>2022-04-30T14:02:55Z</time>
      </trkpt>
      <trkpt lat="46.54561" lon="5.53042">
        <ele>491.6</ele>
        <time>2022-04-30T14:03:01Z</time>
      </trkpt>
      <trkpt lat="46.54555" lon="5.53036">
        <ele>491.6</ele>
        <time>2022-04-30T14:03:02Z</time>
      </trkpt>
      <trkpt lat="46.54532" lon="5.53009">
        <ele>491.8</ele>
        <time>2022-04-30T14:03:06Z</time>
      </trkpt>
      <trkpt lat="46.54508" lon="5.52974">
        <ele>492.2</ele>
        <time>2022-04-30T14:03:11Z</time>
      </trkpt>
      <trkpt lat="46.54502" lon="5.52969">
        <ele>492.4</ele>
        <time>2022-04-30T14:03:12Z</time>
      </trkpt>
      <trkpt lat="46.54496" lon="5.52965">
        <ele>492.6</ele>
        <time>2022-04-30T14:03:13Z</time>
      </trkpt>
      <trkpt lat="46.54478" lon="5.52958">
        <ele>493</ele>
        <time>2022-04-30T14:03:16Z</time>
      </trkpt>
      <trkpt lat="46.5445" lon="5.52946">
        <ele>493.6</ele>
        <time>2022-04-30T14:03:20Z</time>
      </trkpt>
      <trkpt lat="46.54443" lon="5.52943">
        <ele>493.6</ele>
        <time>2022-04-30T14:03:21Z</time>
      </trkpt>
      <trkpt lat="46.54385" lon="5.52921">
        <ele>493.8</ele>
        <time>2022-04-30T14:03:29Z</time>
      </trkpt>
      <trkpt lat="46.54378" lon="5.52919">
        <ele>493.8</ele>
        <time>2022-04-30T14:03:30Z</time>
      </trkpt>
      <trkpt lat="46.54324" lon="5.52909">
        <ele>493.6</ele>
        <time>2022-04-30T14:03:37Z</time>
      </trkpt>
      <trkpt lat="46.54277" lon="5.52907">
        <ele>492.2</ele>
        <time>2022-04-30T14:03:42Z</time>
      </trkpt>
      <trkpt lat="46.54247" lon="5.52915">
        <ele>490.8</ele>
        <time>2022-04-30T14:03:45Z</time>
      </trkpt>
      <trkpt lat="46.54237" lon="5.52922">
        <ele>490.2</ele>
        <time>2022-04-30T14:03:46Z</time>
      </trkpt>
      <trkpt lat="46.54228" lon="5.52931">
        <ele>490</ele>
        <time>2022-04-30T14:03:47Z</time>
      </trkpt>
      <trkpt lat="46.54221" lon="5.52942">
        <ele>489.4</ele>
        <time>2022-04-30T14:03:48Z</time>
      </trkpt>
      <trkpt lat="46.54216" lon="5.52955">
        <ele>489</ele>
        <time>2022-04-30T14:03:49Z</time>
      </trkpt>
      <trkpt lat="46.54213" lon="5.52969">
        <ele>488.4</ele>
        <time>2022-04-30T14:03:50Z</time>
      </trkpt>
      <trkpt lat="46.54211" lon="5.52983">
        <ele>488.2</ele>
        <time>2022-04-30T14:03:51Z</time>
      </trkpt>
      <trkpt lat="46.54209" lon="5.5301">
        <ele>487.2</ele>
        <time>2022-04-30T14:03:53Z</time>
      </trkpt>
      <trkpt lat="46.54207" lon="5.53035">
        <ele>487</ele>
        <time>2022-04-30T14:03:55Z</time>
      </trkpt>
      <trkpt lat="46.54204" lon="5.53086">
        <ele>487.8</ele>
        <time>2022-04-30T14:04:00Z</time>
      </trkpt>
      <trkpt lat="46.54202" lon="5.53103">
        <ele>488.4</ele>
        <time>2022-04-30T14:04:02Z</time>
      </trkpt>
      <trkpt lat="46.54198" lon="5.53119">
        <ele>489</ele>
        <time>2022-04-30T14:04:04Z</time>
      </trkpt>
      <trkpt lat="46.54194" lon="5.53135">
        <ele>489.4</ele>
        <time>2022-04-30T14:04:06Z</time>
      </trkpt>
      <trkpt lat="46.54187" lon="5.53157">
        <ele>490.8</ele>
        <time>2022-04-30T14:04:09Z</time>
      </trkpt>
      <trkpt lat="46.54182" lon="5.53171">
        <ele>491.4</ele>
        <time>2022-04-30T14:04:11Z</time>
      </trkpt>
      <trkpt lat="46.54177" lon="5.53184">
        <ele>491.8</ele>
        <time>2022-04-30T14:04:13Z</time>
      </trkpt>
      <trkpt lat="46.54168" lon="5.53203">
        <ele>492.8</ele>
        <time>2022-04-30T14:04:16Z</time>
      </trkpt>
      <trkpt lat="46.54162" lon="5.53217">
        <ele>493.4</ele>
        <time>2022-04-30T14:04:18Z</time>
      </trkpt>
      <trkpt lat="46.54156" lon="5.53231">
        <ele>493.8</ele>
        <time>2022-04-30T14:04:20Z</time>
      </trkpt>
      <trkpt lat="46.5414" lon="5.53268">
        <ele>495</ele>
        <time>2022-04-30T14:04:25Z</time>
      </trkpt>
      <trkpt lat="46.54136" lon="5.53284">
        <ele>495.4</ele>
        <time>2022-04-30T14:04:27Z</time>
      </trkpt>
      <trkpt lat="46.54133" lon="5.53291">
        <ele>495.4</ele>
        <time>2022-04-30T14:04:28Z</time>
      </trkpt>
      <trkpt lat="46.54126" lon="5.53311">
        <ele>495.8</ele>
        <time>2022-04-30T14:04:31Z</time>
      </trkpt>
      <trkpt lat="46.54119" lon="5.53323">
        <ele>496.2</ele>
        <time>2022-04-30T14:04:33Z</time>
      </trkpt>
      <trkpt lat="46.5411" lon="5.5333">
        <ele>496.6</ele>
        <time>2022-04-30T14:04:35Z</time>
      </trkpt>
      <trkpt lat="46.54105" lon="5.53331">
        <ele>497</ele>
        <time>2022-04-30T14:04:36Z</time>
      </trkpt>
      <trkpt lat="46.54099" lon="5.53332">
        <ele>497.2</ele>
        <time>2022-04-30T14:04:37Z</time>
      </trkpt>
      <trkpt lat="46.54093" lon="5.53332">
        <ele>497.4</ele>
        <time>2022-04-30T14:04:38Z</time>
      </trkpt>
      <trkpt lat="46.54081" lon="5.5333">
        <ele>497.6</ele>
        <time>2022-04-30T14:04:40Z</time>
      </trkpt>
      <trkpt lat="46.54042" lon="5.5333">
        <ele>497.8</ele>
        <time>2022-04-30T14:04:46Z</time>
      </trkpt>
      <trkpt lat="46.54011" lon="5.53345">
        <ele>497.8</ele>
        <time>2022-04-30T14:04:51Z</time>
      </trkpt>
      <trkpt lat="46.53989" lon="5.53368">
        <ele>498.4</ele>
        <time>2022-04-30T14:04:56Z</time>
      </trkpt>
      <trkpt lat="46.53985" lon="5.53374">
        <ele>499</ele>
        <time>2022-04-30T14:04:57Z</time>
      </trkpt>
      <trkpt lat="46.53965" lon="5.53416">
        <ele>500.2</ele>
        <time>2022-04-30T14:05:04Z</time>
      </trkpt>
      <trkpt lat="46.53959" lon="5.53428">
        <ele>500.8</ele>
        <time>2022-04-30T14:05:06Z</time>
      </trkpt>
      <trkpt lat="46.53951" lon="5.53437">
        <ele>501</ele>
        <time>2022-04-30T14:05:08Z</time>
      </trkpt>
      <trkpt lat="46.53947" lon="5.5344">
        <ele>501.2</ele>
        <time>2022-04-30T14:05:09Z</time>
      </trkpt>
      <trkpt lat="46.53942" lon="5.53443">
        <ele>501.4</ele>
        <time>2022-04-30T14:05:10Z</time>
      </trkpt>
      <trkpt lat="46.53915" lon="5.53456">
        <ele>502.2</ele>
        <time>2022-04-30T14:05:15Z</time>
      </trkpt>
      <trkpt lat="46.53904" lon="5.53462">
        <ele>502.4</ele>
        <time>2022-04-30T14:05:17Z</time>
      </trkpt>
      <trkpt lat="46.53891" lon="5.53467">
        <ele>502.4</ele>
        <time>2022-04-30T14:05:19Z</time>
      </trkpt>
      <trkpt lat="46.53885" lon="5.53468">
        <ele>502.4</ele>
        <time>2022-04-30T14:05:20Z</time>
      </trkpt>
      <trkpt lat="46.53845" lon="5.53462">
        <ele>502.2</ele>
        <time>2022-04-30T14:05:25Z</time>
      </trkpt>
      <trkpt lat="46.53801" lon="5.53456">
        <ele>501.2</ele>
        <time>2022-04-30T14:05:30Z</time>
      </trkpt>
      <trkpt lat="46.53784" lon="5.53456">
        <ele>500</ele>
        <time>2022-04-30T14:05:32Z</time>
      </trkpt>
      <trkpt lat="46.53746" lon="5.53459">
        <ele>499.6</ele>
        <time>2022-04-30T14:05:37Z</time>
      </trkpt>
      <trkpt lat="46.5369" lon="5.53461">
        <ele>500.2</ele>
        <time>2022-04-30T14:05:44Z</time>
      </trkpt>
      <trkpt lat="46.53653" lon="5.53471">
        <ele>500.6</ele>
        <time>2022-04-30T14:05:49Z</time>
      </trkpt>
      <trkpt lat="46.53604" lon="5.53477">
        <ele>500.6</ele>
        <time>2022-04-30T14:05:55Z</time>
      </trkpt>
      <trkpt lat="46.53557" lon="5.53464">
        <ele>499.8</ele>
        <time>2022-04-30T14:06:00Z</time>
      </trkpt>
      <trkpt lat="46.53537" lon="5.53458">
        <ele>498.8</ele>
        <time>2022-04-30T14:06:02Z</time>
      </trkpt>
      <trkpt lat="46.53517" lon="5.53451">
        <ele>497.4</ele>
        <time>2022-04-30T14:06:04Z</time>
      </trkpt>
      <trkpt lat="46.53497" lon="5.53445">
        <ele>496.6</ele>
        <time>2022-04-30T14:06:06Z</time>
      </trkpt>
      <trkpt lat="46.53487" lon="5.53442">
        <ele>496.4</ele>
        <time>2022-04-30T14:06:07Z</time>
      </trkpt>
      <trkpt lat="46.53468" lon="5.5344">
        <ele>495.8</ele>
        <time>2022-04-30T14:06:09Z</time>
      </trkpt>
      <trkpt lat="46.53458" lon="5.53441">
        <ele>495.6</ele>
        <time>2022-04-30T14:06:10Z</time>
      </trkpt>
      <trkpt lat="46.53416" lon="5.53451">
        <ele>495.6</ele>
        <time>2022-04-30T14:06:15Z</time>
      </trkpt>
      <trkpt lat="46.53378" lon="5.5345">
        <ele>496</ele>
        <time>2022-04-30T14:06:20Z</time>
      </trkpt>
      <trkpt lat="46.53323" lon="5.53434">
        <ele>497</ele>
        <time>2022-04-30T14:06:27Z</time>
      </trkpt>
      <trkpt lat="46.53306" lon="5.5343">
        <ele>497.4</ele>
        <time>2022-04-30T14:06:29Z</time>
      </trkpt>
      <trkpt lat="46.53256" lon="5.53417">
        <ele>497.2</ele>
        <time>2022-04-30T14:06:35Z</time>
      </trkpt>
      <trkpt lat="46.53203" lon="5.53411">
        <ele>497</ele>
        <time>2022-04-30T14:06:41Z</time>
      </trkpt>
      <trkpt lat="46.53142" lon="5.53418">
        <ele>496.8</ele>
        <time>2022-04-30T14:06:48Z</time>
      </trkpt>
      <trkpt lat="46.53133" lon="5.53419">
        <ele>496.8</ele>
        <time>2022-04-30T14:06:49Z</time>
      </trkpt>
      <trkpt lat="46.53079" lon="5.53427">
        <ele>496.2</ele>
        <time>2022-04-30T14:06:55Z</time>
      </trkpt>
      <trkpt lat="46.53027" lon="5.5344">
        <ele>496</ele>
        <time>2022-04-30T14:07:01Z</time>
      </trkpt>
      <trkpt lat="46.52984" lon="5.53447">
        <ele>496.2</ele>
        <time>2022-04-30T14:07:06Z</time>
      </trkpt>
      <trkpt lat="46.52932" lon="5.53438">
        <ele>496.2</ele>
        <time>2022-04-30T14:07:12Z</time>
      </trkpt>
      <trkpt lat="46.52876" lon="5.53427">
        <ele>495.8</ele>
        <time>2022-04-30T14:07:18Z</time>
      </trkpt>
      <trkpt lat="46.52868" lon="5.53425">
        <ele>495.8</ele>
        <time>2022-04-30T14:07:19Z</time>
      </trkpt>
      <trkpt lat="46.52817" lon="5.53415">
        <ele>495.6</ele>
        <time>2022-04-30T14:07:25Z</time>
      </trkpt>
      <trkpt lat="46.5277" lon="5.53396">
        <ele>495.6</ele>
        <time>2022-04-30T14:07:30Z</time>
      </trkpt>
      <trkpt lat="46.5276" lon="5.53392">
        <ele>495.4</ele>
        <time>2022-04-30T14:07:31Z</time>
      </trkpt>
      <trkpt lat="46.5273" lon="5.53379">
        <ele>494.2</ele>
        <time>2022-04-30T14:07:34Z</time>
      </trkpt>
      <trkpt lat="46.5271" lon="5.53369">
        <ele>493.8</ele>
        <time>2022-04-30T14:07:36Z</time>
      </trkpt>
      <trkpt lat="46.52701" lon="5.53362">
        <ele>493.6</ele>
        <time>2022-04-30T14:07:37Z</time>
      </trkpt>
      <trkpt lat="46.52692" lon="5.53355">
        <ele>493.2</ele>
        <time>2022-04-30T14:07:38Z</time>
      </trkpt>
      <trkpt lat="46.52686" lon="5.53347">
        <ele>493</ele>
        <time>2022-04-30T14:07:39Z</time>
      </trkpt>
      <trkpt lat="46.52672" lon="5.53322">
        <ele>492</ele>
        <time>2022-04-30T14:07:41Z</time>
      </trkpt>
      <trkpt lat="46.52654" lon="5.53289">
        <ele>491.8</ele>
        <time>2022-04-30T14:07:44Z</time>
      </trkpt>
      <trkpt lat="46.5262" lon="5.53242">
        <ele>491.4</ele>
        <time>2022-04-30T14:07:49Z</time>
      </trkpt>
      <trkpt lat="46.52596" lon="5.53221">
        <ele>491</ele>
        <time>2022-04-30T14:07:52Z</time>
      </trkpt>
      <trkpt lat="46.5259" lon="5.53217">
        <ele>491</ele>
        <time>2022-04-30T14:07:53Z</time>
      </trkpt>
      <trkpt lat="46.5258" lon="5.53213">
        <ele>490.8</ele>
        <time>2022-04-30T14:07:54Z</time>
      </trkpt>
      <trkpt lat="46.5257" lon="5.53211">
        <ele>490.8</ele>
        <time>2022-04-30T14:07:55Z</time>
      </trkpt>
      <trkpt lat="46.52542" lon="5.53211">
        <ele>490.2</ele>
        <time>2022-04-30T14:07:58Z</time>
      </trkpt>
      <trkpt lat="46.52532" lon="5.53212">
        <ele>489.8</ele>
        <time>2022-04-30T14:07:59Z</time>
      </trkpt>
      <trkpt lat="46.52484" lon="5.53211">
        <ele>488.6</ele>
        <time>2022-04-30T14:08:04Z</time>
      </trkpt>
      <trkpt lat="46.52475" lon="5.5321">
        <ele>488.6</ele>
        <time>2022-04-30T14:08:05Z</time>
      </trkpt>
      <trkpt lat="46.52429" lon="5.53198">
        <ele>487.6</ele>
        <time>2022-04-30T14:08:10Z</time>
      </trkpt>
      <trkpt lat="46.52419" lon="5.53195">
        <ele>487.2</ele>
        <time>2022-04-30T14:08:11Z</time>
      </trkpt>
      <trkpt lat="46.5239" lon="5.53188">
        <ele>486.6</ele>
        <time>2022-04-30T14:08:14Z</time>
      </trkpt>
      <trkpt lat="46.5238" lon="5.53188">
        <ele>486.2</ele>
        <time>2022-04-30T14:08:15Z</time>
      </trkpt>
      <trkpt lat="46.52369" lon="5.53188">
        <ele>486</ele>
        <time>2022-04-30T14:08:16Z</time>
      </trkpt>
      <trkpt lat="46.52334" lon="5.53188">
        <ele>484.2</ele>
        <time>2022-04-30T14:08:19Z</time>
      </trkpt>
      <trkpt lat="46.5231" lon="5.53185">
        <ele>482.8</ele>
        <time>2022-04-30T14:08:21Z</time>
      </trkpt>
      <trkpt lat="46.52299" lon="5.53182">
        <ele>482</ele>
        <time>2022-04-30T14:08:22Z</time>
      </trkpt>
      <trkpt lat="46.52288" lon="5.53178">
        <ele>481.2</ele>
        <time>2022-04-30T14:08:23Z</time>
      </trkpt>
      <trkpt lat="46.52278" lon="5.53173">
        <ele>480.2</ele>
        <time>2022-04-30T14:08:24Z</time>
      </trkpt>
      <trkpt lat="46.52258" lon="5.53162">
        <ele>478.4</ele>
        <time>2022-04-30T14:08:26Z</time>
      </trkpt>
      <trkpt lat="46.52249" lon="5.53155">
        <ele>477.2</ele>
        <time>2022-04-30T14:08:27Z</time>
      </trkpt>
      <trkpt lat="46.52231" lon="5.53143">
        <ele>476.2</ele>
        <time>2022-04-30T14:08:29Z</time>
      </trkpt>
      <trkpt lat="46.52195" lon="5.5312">
        <ele>475</ele>
        <time>2022-04-30T14:08:33Z</time>
      </trkpt>
      <trkpt lat="46.52166" lon="5.53111">
        <ele>474.4</ele>
        <time>2022-04-30T14:08:36Z</time>
      </trkpt>
      <trkpt lat="46.52156" lon="5.53112">
        <ele>474.4</ele>
        <time>2022-04-30T14:08:37Z</time>
      </trkpt>
      <trkpt lat="46.52119" lon="5.53121">
        <ele>474</ele>
        <time>2022-04-30T14:08:41Z</time>
      </trkpt>
      <trkpt lat="46.52101" lon="5.53126">
        <ele>474</ele>
        <time>2022-04-30T14:08:43Z</time>
      </trkpt>
      <trkpt lat="46.52048" lon="5.53136">
        <ele>474</ele>
        <time>2022-04-30T14:08:49Z</time>
      </trkpt>
      <trkpt lat="46.51994" lon="5.53148">
        <ele>473.8</ele>
        <time>2022-04-30T14:08:55Z</time>
      </trkpt>
      <trkpt lat="46.51985" lon="5.5315">
        <ele>473.8</ele>
        <time>2022-04-30T14:08:56Z</time>
      </trkpt>
      <trkpt lat="46.5193" lon="5.53163">
        <ele>473.4</ele>
        <time>2022-04-30T14:09:02Z</time>
      </trkpt>
      <trkpt lat="46.51912" lon="5.53167">
        <ele>473.4</ele>
        <time>2022-04-30T14:09:04Z</time>
      </trkpt>
      <trkpt lat="46.51875" lon="5.53175">
        <ele>472.8</ele>
        <time>2022-04-30T14:09:08Z</time>
      </trkpt>
      <trkpt lat="46.5182" lon="5.53191">
        <ele>471.6</ele>
        <time>2022-04-30T14:09:14Z</time>
      </trkpt>
      <trkpt lat="46.51766" lon="5.53207">
        <ele>471.2</ele>
        <time>2022-04-30T14:09:20Z</time>
      </trkpt>
      <trkpt lat="46.5173" lon="5.53218">
        <ele>471.2</ele>
        <time>2022-04-30T14:09:24Z</time>
      </trkpt>
      <trkpt lat="46.51676" lon="5.53234">
        <ele>470.6</ele>
        <time>2022-04-30T14:09:30Z</time>
      </trkpt>
      <trkpt lat="46.51667" lon="5.53237">
        <ele>470.6</ele>
        <time>2022-04-30T14:09:31Z</time>
      </trkpt>
      <trkpt lat="46.51658" lon="5.5324">
        <ele>470.4</ele>
        <time>2022-04-30T14:09:32Z</time>
      </trkpt>
      <trkpt lat="46.51603" lon="5.53258">
        <ele>469.6</ele>
        <time>2022-04-30T14:09:38Z</time>
      </trkpt>
      <trkpt lat="46.51585" lon="5.53263">
        <ele>469.6</ele>
        <time>2022-04-30T14:09:40Z</time>
      </trkpt>
      <trkpt lat="46.51567" lon="5.53268">
        <ele>469.6</ele>
        <time>2022-04-30T14:09:42Z</time>
      </trkpt>
      <trkpt lat="46.51508" lon="5.53287">
        <ele>469.6</ele>
        <time>2022-04-30T14:09:49Z</time>
      </trkpt>
      <trkpt lat="46.51483" lon="5.53294">
        <ele>469.8</ele>
        <time>2022-04-30T14:09:52Z</time>
      </trkpt>
      <trkpt lat="46.51426" lon="5.53313">
        <ele>470.6</ele>
        <time>2022-04-30T14:09:59Z</time>
      </trkpt>
      <trkpt lat="46.51418" lon="5.53316">
        <ele>470.8</ele>
        <time>2022-04-30T14:10:00Z</time>
      </trkpt>
      <trkpt lat="46.5136" lon="5.53333">
        <ele>470.8</ele>
        <time>2022-04-30T14:10:07Z</time>
      </trkpt>
      <trkpt lat="46.51335" lon="5.5334">
        <ele>470.8</ele>
        <time>2022-04-30T14:10:10Z</time>
      </trkpt>
      <trkpt lat="46.51281" lon="5.53357">
        <ele>471.4</ele>
        <time>2022-04-30T14:10:17Z</time>
      </trkpt>
      <trkpt lat="46.51273" lon="5.5336">
        <ele>471.4</ele>
        <time>2022-04-30T14:10:18Z</time>
      </trkpt>
      <trkpt lat="46.51265" lon="5.53362">
        <ele>471.6</ele>
        <time>2022-04-30T14:10:19Z</time>
      </trkpt>
      <trkpt lat="46.51257" lon="5.53364">
        <ele>471.6</ele>
        <time>2022-04-30T14:10:20Z</time>
      </trkpt>
      <trkpt lat="46.51207" lon="5.5338">
        <ele>471.4</ele>
        <time>2022-04-30T14:10:26Z</time>
      </trkpt>
      <trkpt lat="46.51153" lon="5.53397">
        <ele>470.8</ele>
        <time>2022-04-30T14:10:32Z</time>
      </trkpt>
      <trkpt lat="46.51144" lon="5.534">
        <ele>470.6</ele>
        <time>2022-04-30T14:10:33Z</time>
      </trkpt>
      <trkpt lat="46.51117" lon="5.53408">
        <ele>470</ele>
        <time>2022-04-30T14:10:36Z</time>
      </trkpt>
      <trkpt lat="46.51099" lon="5.53414">
        <ele>469.6</ele>
        <time>2022-04-30T14:10:38Z</time>
      </trkpt>
      <trkpt lat="46.5104" lon="5.53433">
        <ele>469.4</ele>
        <time>2022-04-30T14:10:45Z</time>
      </trkpt>
      <trkpt lat="46.51032" lon="5.53435">
        <ele>469.4</ele>
        <time>2022-04-30T14:10:46Z</time>
      </trkpt>
      <trkpt lat="46.50979" lon="5.53453">
        <ele>470.4</ele>
        <time>2022-04-30T14:10:53Z</time>
      </trkpt>
      <trkpt lat="46.50972" lon="5.53455">
        <ele>470.8</ele>
        <time>2022-04-30T14:10:54Z</time>
      </trkpt>
      <trkpt lat="46.50929" lon="5.53468">
        <ele>471.8</ele>
        <time>2022-04-30T14:11:00Z</time>
      </trkpt>
      <trkpt lat="46.50915" lon="5.53472">
        <ele>472</ele>
        <time>2022-04-30T14:11:02Z</time>
      </trkpt>
      <trkpt lat="46.50889" lon="5.53481">
        <ele>472.8</ele>
        <time>2022-04-30T14:11:06Z</time>
      </trkpt>
      <trkpt lat="46.50882" lon="5.53483">
        <ele>473</ele>
        <time>2022-04-30T14:11:07Z</time>
      </trkpt>
      <trkpt lat="46.50862" lon="5.53488">
        <ele>474</ele>
        <time>2022-04-30T14:11:10Z</time>
      </trkpt>
      <trkpt lat="46.50841" lon="5.53491">
        <ele>474.2</ele>
        <time>2022-04-30T14:11:13Z</time>
      </trkpt>
      <trkpt lat="46.50814" lon="5.53491">
        <ele>474.6</ele>
        <time>2022-04-30T14:11:17Z</time>
      </trkpt>
      <trkpt lat="46.50786" lon="5.53494">
        <ele>474.8</ele>
        <time>2022-04-30T14:11:21Z</time>
      </trkpt>
      <trkpt lat="46.50773" lon="5.53494">
        <ele>474.8</ele>
        <time>2022-04-30T14:11:23Z</time>
      </trkpt>
      <trkpt lat="46.50714" lon="5.53497">
        <ele>474.8</ele>
        <time>2022-04-30T14:11:31Z</time>
      </trkpt>
      <trkpt lat="46.50691" lon="5.53498">
        <ele>474.8</ele>
        <time>2022-04-30T14:11:34Z</time>
      </trkpt>
      <trkpt lat="46.50636" lon="5.53504">
        <ele>474.8</ele>
        <time>2022-04-30T14:11:41Z</time>
      </trkpt>
      <trkpt lat="46.5062" lon="5.53507">
        <ele>474.8</ele>
        <time>2022-04-30T14:11:43Z</time>
      </trkpt>
      <trkpt lat="46.50561" lon="5.53522">
        <ele>474.4</ele>
        <time>2022-04-30T14:11:50Z</time>
      </trkpt>
      <trkpt lat="46.50544" lon="5.53526">
        <ele>474.2</ele>
        <time>2022-04-30T14:11:52Z</time>
      </trkpt>
      <trkpt lat="46.50485" lon="5.53535">
        <ele>473.6</ele>
        <time>2022-04-30T14:11:59Z</time>
      </trkpt>
      <trkpt lat="46.50443" lon="5.53523">
        <ele>473.4</ele>
        <time>2022-04-30T14:12:04Z</time>
      </trkpt>
      <trkpt lat="46.50388" lon="5.53504">
        <ele>473.6</ele>
        <time>2022-04-30T14:12:11Z</time>
      </trkpt>
      <trkpt lat="46.50332" lon="5.535">
        <ele>473.8</ele>
        <time>2022-04-30T14:12:18Z</time>
      </trkpt>
      <trkpt lat="46.50324" lon="5.53499">
        <ele>473.8</ele>
        <time>2022-04-30T14:12:19Z</time>
      </trkpt>
      <trkpt lat="46.50267" lon="5.53497">
        <ele>473.4</ele>
        <time>2022-04-30T14:12:26Z</time>
      </trkpt>
      <trkpt lat="46.50253" lon="5.53496">
        <ele>473.4</ele>
        <time>2022-04-30T14:12:28Z</time>
      </trkpt>
      <trkpt lat="46.50232" lon="5.53492">
        <ele>473.6</ele>
        <time>2022-04-30T14:12:32Z</time>
      </trkpt>
      <trkpt lat="46.50205" lon="5.53484">
        <ele>473.8</ele>
        <time>2022-04-30T14:12:37Z</time>
      </trkpt>
      <trkpt lat="46.50169" lon="5.53469">
        <ele>474.2</ele>
        <time>2022-04-30T14:12:43Z</time>
      </trkpt>
      <trkpt lat="46.50156" lon="5.53463">
        <ele>474.4</ele>
        <time>2022-04-30T14:12:45Z</time>
      </trkpt>
      <trkpt lat="46.50126" lon="5.53445">
        <ele>475.4</ele>
        <time>2022-04-30T14:12:50Z</time>
      </trkpt>
      <trkpt lat="46.50105" lon="5.53433">
        <ele>476.4</ele>
        <time>2022-04-30T14:12:54Z</time>
      </trkpt>
      <trkpt lat="46.50099" lon="5.53429">
        <ele>476.8</ele>
        <time>2022-04-30T14:12:55Z</time>
      </trkpt>
      <trkpt lat="46.50089" lon="5.53424">
        <ele>477</ele>
        <time>2022-04-30T14:12:57Z</time>
      </trkpt>
      <trkpt lat="46.50082" lon="5.53421">
        <ele>477.2</ele>
        <time>2022-04-30T14:12:58Z</time>
      </trkpt>
      <trkpt lat="46.50071" lon="5.53414">
        <ele>477.8</ele>
        <time>2022-04-30T14:13:00Z</time>
      </trkpt>
      <trkpt lat="46.50054" lon="5.53404">
        <ele>478.2</ele>
        <time>2022-04-30T14:13:03Z</time>
      </trkpt>
      <trkpt lat="46.50031" lon="5.53392">
        <ele>478.8</ele>
        <time>2022-04-30T14:13:07Z</time>
      </trkpt>
      <trkpt lat="46.50009" lon="5.5338">
        <ele>479.2</ele>
        <time>2022-04-30T14:13:11Z</time>
      </trkpt>
      <trkpt lat="46.49988" lon="5.53364">
        <ele>480.2</ele>
        <time>2022-04-30T14:13:15Z</time>
      </trkpt>
      <trkpt lat="46.49978" lon="5.53356">
        <ele>480.4</ele>
        <time>2022-04-30T14:13:17Z</time>
      </trkpt>
      <trkpt lat="46.49951" lon="5.53333">
        <ele>481.2</ele>
        <time>2022-04-30T14:13:23Z</time>
      </trkpt>
      <trkpt lat="46.49946" lon="5.53328">
        <ele>481.6</ele>
        <time>2022-04-30T14:13:24Z</time>
      </trkpt>
      <trkpt lat="46.49942" lon="5.53324">
        <ele>481.8</ele>
        <time>2022-04-30T14:13:25Z</time>
      </trkpt>
      <trkpt lat="46.49938" lon="5.53319">
        <ele>482</ele>
        <time>2022-04-30T14:13:26Z</time>
      </trkpt>
      <trkpt lat="46.4993" lon="5.53309">
        <ele>482.4</ele>
        <time>2022-04-30T14:13:28Z</time>
      </trkpt>
      <trkpt lat="46.49917" lon="5.53295">
        <ele>483.2</ele>
        <time>2022-04-30T14:13:31Z</time>
      </trkpt>
      <trkpt lat="46.49908" lon="5.53286">
        <ele>483.4</ele>
        <time>2022-04-30T14:13:33Z</time>
      </trkpt>
      <trkpt lat="46.49883" lon="5.53268">
        <ele>484</ele>
        <time>2022-04-30T14:13:38Z</time>
      </trkpt>
      <trkpt lat="46.4985" lon="5.5325">
        <ele>484.2</ele>
        <time>2022-04-30T14:13:44Z</time>
      </trkpt>
      <trkpt lat="46.4981" lon="5.53233">
        <ele>484</ele>
        <time>2022-04-30T14:13:50Z</time>
      </trkpt>
      <trkpt lat="46.49763" lon="5.53218">
        <ele>484</ele>
        <time>2022-04-30T14:13:57Z</time>
      </trkpt>
      <trkpt lat="46.49749" lon="5.53214">
        <ele>484</ele>
        <time>2022-04-30T14:13:59Z</time>
      </trkpt>
      <trkpt lat="46.49737" lon="5.5321">
        <ele>484</ele>
        <time>2022-04-30T14:14:01Z</time>
      </trkpt>
      <trkpt lat="46.49716" lon="5.53201">
        <ele>484.2</ele>
        <time>2022-04-30T14:14:04Z</time>
      </trkpt>
      <trkpt lat="46.49684" lon="5.53188">
        <ele>484.4</ele>
        <time>2022-04-30T14:14:09Z</time>
      </trkpt>
      <trkpt lat="46.49647" lon="5.53174">
        <ele>485.6</ele>
        <time>2022-04-30T14:14:15Z</time>
      </trkpt>
      <trkpt lat="46.49641" lon="5.53173">
        <ele>485.6</ele>
        <time>2022-04-30T14:14:16Z</time>
      </trkpt>
      <trkpt lat="46.49588" lon="5.53161">
        <ele>486.6</ele>
        <time>2022-04-30T14:14:24Z</time>
      </trkpt>
      <trkpt lat="46.49535" lon="5.53148">
        <ele>487</ele>
        <time>2022-04-30T14:14:31Z</time>
      </trkpt>
      <trkpt lat="46.49476" lon="5.53137">
        <ele>486</ele>
        <time>2022-04-30T14:14:39Z</time>
      </trkpt>
      <trkpt lat="46.49469" lon="5.53136">
        <ele>486.2</ele>
        <time>2022-04-30T14:14:40Z</time>
      </trkpt>
      <trkpt lat="46.4944" lon="5.5313">
        <ele>486.2</ele>
        <time>2022-04-30T14:14:44Z</time>
      </trkpt>
      <trkpt lat="46.49425" lon="5.53124">
        <ele>486.4</ele>
        <time>2022-04-30T14:14:46Z</time>
      </trkpt>
      <trkpt lat="46.49371" lon="5.53096">
        <ele>486.6</ele>
        <time>2022-04-30T14:14:54Z</time>
      </trkpt>
      <trkpt lat="46.49321" lon="5.53065">
        <ele>486.4</ele>
        <time>2022-04-30T14:15:01Z</time>
      </trkpt>
      <trkpt lat="46.49272" lon="5.53028">
        <ele>486.2</ele>
        <time>2022-04-30T14:15:08Z</time>
      </trkpt>
      <trkpt lat="46.49223" lon="5.5299">
        <ele>487</ele>
        <time>2022-04-30T14:15:15Z</time>
      </trkpt>
      <trkpt lat="46.49217" lon="5.52986">
        <ele>487.2</ele>
        <time>2022-04-30T14:15:16Z</time>
      </trkpt>
      <trkpt lat="46.49175" lon="5.52955">
        <ele>487.8</ele>
        <time>2022-04-30T14:15:22Z</time>
      </trkpt>
      <trkpt lat="46.49163" lon="5.52945">
        <ele>488</ele>
        <time>2022-04-30T14:15:24Z</time>
      </trkpt>
      <trkpt lat="46.49133" lon="5.52918">
        <ele>488</ele>
        <time>2022-04-30T14:15:29Z</time>
      </trkpt>
      <trkpt lat="46.49119" lon="5.52904">
        <ele>488</ele>
        <time>2022-04-30T14:15:31Z</time>
      </trkpt>
      <trkpt lat="46.49071" lon="5.52859">
        <ele>487.6</ele>
        <time>2022-04-30T14:15:38Z</time>
      </trkpt>
      <trkpt lat="46.49064" lon="5.52853">
        <ele>487.6</ele>
        <time>2022-04-30T14:15:39Z</time>
      </trkpt>
      <trkpt lat="46.49012" lon="5.52805">
        <ele>487.6</ele>
        <time>2022-04-30T14:15:46Z</time>
      </trkpt>
      <trkpt lat="46.48959" lon="5.52757">
        <ele>487.2</ele>
        <time>2022-04-30T14:15:53Z</time>
      </trkpt>
      <trkpt lat="46.48944" lon="5.52744">
        <ele>487</ele>
        <time>2022-04-30T14:15:55Z</time>
      </trkpt>
      <trkpt lat="46.48934" lon="5.52735">
        <ele>486.8</ele>
        <time>2022-04-30T14:15:56Z</time>
      </trkpt>
      <trkpt lat="46.48882" lon="5.52693">
        <ele>485.6</ele>
        <time>2022-04-30T14:16:02Z</time>
      </trkpt>
      <trkpt lat="46.48848" lon="5.52655">
        <ele>484.6</ele>
        <time>2022-04-30T14:16:06Z</time>
      </trkpt>
      <trkpt lat="46.4884" lon="5.52645">
        <ele>484.4</ele>
        <time>2022-04-30T14:16:07Z</time>
      </trkpt>
      <trkpt lat="46.488" lon="5.52608">
        <ele>483.8</ele>
        <time>2022-04-30T14:16:12Z</time>
      </trkpt>
      <trkpt lat="46.48754" lon="5.52571">
        <ele>485</ele>
        <time>2022-04-30T14:16:18Z</time>
      </trkpt>
      <trkpt lat="46.48739" lon="5.52561">
        <ele>486</ele>
        <time>2022-04-30T14:16:20Z</time>
      </trkpt>
      <trkpt lat="46.48709" lon="5.52543">
        <ele>487.2</ele>
        <time>2022-04-30T14:16:24Z</time>
      </trkpt>
      <trkpt lat="46.48664" lon="5.52528">
        <ele>488</ele>
        <time>2022-04-30T14:16:29Z</time>
      </trkpt>
      <trkpt lat="46.48607" lon="5.52515">
        <ele>487.4</ele>
        <time>2022-04-30T14:16:35Z</time>
      </trkpt>
      <trkpt lat="46.48597" lon="5.52512">
        <ele>487.4</ele>
        <time>2022-04-30T14:16:36Z</time>
      </trkpt>
      <trkpt lat="46.48543" lon="5.52486">
        <ele>487</ele>
        <time>2022-04-30T14:16:42Z</time>
      </trkpt>
      <trkpt lat="46.48534" lon="5.52482">
        <ele>486.6</ele>
        <time>2022-04-30T14:16:43Z</time>
      </trkpt>
      <trkpt lat="46.4848" lon="5.52464">
        <ele>486.4</ele>
        <time>2022-04-30T14:16:49Z</time>
      </trkpt>
      <trkpt lat="46.48472" lon="5.52461">
        <ele>486.4</ele>
        <time>2022-04-30T14:16:50Z</time>
      </trkpt>
      <trkpt lat="46.48422" lon="5.52441">
        <ele>487.8</ele>
        <time>2022-04-30T14:16:57Z</time>
      </trkpt>
      <trkpt lat="46.48413" lon="5.52438">
        <ele>488.2</ele>
        <time>2022-04-30T14:16:58Z</time>
      </trkpt>
      <trkpt lat="46.48386" lon="5.52428">
        <ele>489.4</ele>
        <time>2022-04-30T14:17:02Z</time>
      </trkpt>
      <trkpt lat="46.48372" lon="5.52424">
        <ele>489.6</ele>
        <time>2022-04-30T14:17:04Z</time>
      </trkpt>
      <trkpt lat="46.4832" lon="5.52409">
        <ele>490.2</ele>
        <time>2022-04-30T14:17:11Z</time>
      </trkpt>
      <trkpt lat="46.48261" lon="5.52392">
        <ele>490.2</ele>
        <time>2022-04-30T14:17:19Z</time>
      </trkpt>
      <trkpt lat="46.48217" lon="5.5238">
        <ele>490.2</ele>
        <time>2022-04-30T14:17:25Z</time>
      </trkpt>
      <trkpt lat="46.48184" lon="5.52363">
        <ele>490.4</ele>
        <time>2022-04-30T14:17:30Z</time>
      </trkpt>
      <trkpt lat="46.48178" lon="5.52359">
        <ele>490.6</ele>
        <time>2022-04-30T14:17:31Z</time>
      </trkpt>
      <trkpt lat="46.48153" lon="5.52342">
        <ele>491.6</ele>
        <time>2022-04-30T14:17:35Z</time>
      </trkpt>
      <trkpt lat="46.48146" lon="5.52339">
        <ele>491.8</ele>
        <time>2022-04-30T14:17:36Z</time>
      </trkpt>
      <trkpt lat="46.48139" lon="5.52336">
        <ele>491.8</ele>
        <time>2022-04-30T14:17:37Z</time>
      </trkpt>
      <trkpt lat="46.48112" lon="5.5233">
        <ele>492</ele>
        <time>2022-04-30T14:17:41Z</time>
      </trkpt>
      <trkpt lat="46.48076" lon="5.52323">
        <ele>491.6</ele>
        <time>2022-04-30T14:17:46Z</time>
      </trkpt>
      <trkpt lat="46.48068" lon="5.5232">
        <ele>491.4</ele>
        <time>2022-04-30T14:17:47Z</time>
      </trkpt>
      <trkpt lat="46.4806" lon="5.52314">
        <ele>491.4</ele>
        <time>2022-04-30T14:17:48Z</time>
      </trkpt>
      <trkpt lat="46.48044" lon="5.52301">
        <ele>490.8</ele>
        <time>2022-04-30T14:17:50Z</time>
      </trkpt>
      <trkpt lat="46.48018" lon="5.52281">
        <ele>489.8</ele>
        <time>2022-04-30T14:17:53Z</time>
      </trkpt>
      <trkpt lat="46.48003" lon="5.5227">
        <ele>488.8</ele>
        <time>2022-04-30T14:17:55Z</time>
      </trkpt>
      <trkpt lat="46.47977" lon="5.52252">
        <ele>487.6</ele>
        <time>2022-04-30T14:17:58Z</time>
      </trkpt>
      <trkpt lat="46.4796" lon="5.52244">
        <ele>486.6</ele>
        <time>2022-04-30T14:18:00Z</time>
      </trkpt>
      <trkpt lat="46.4795" lon="5.52239">
        <ele>486.6</ele>
        <time>2022-04-30T14:18:01Z</time>
      </trkpt>
      <trkpt lat="46.47943" lon="5.52232">
        <ele>486.4</ele>
        <time>2022-04-30T14:18:02Z</time>
      </trkpt>
      <trkpt lat="46.4794" lon="5.52224">
        <ele>486.2</ele>
        <time>2022-04-30T14:18:03Z</time>
      </trkpt>
      <trkpt lat="46.47935" lon="5.522">
        <ele>486</ele>
        <time>2022-04-30T14:18:05Z</time>
      </trkpt>
      <trkpt lat="46.47933" lon="5.52187">
        <ele>486</ele>
        <time>2022-04-30T14:18:06Z</time>
      </trkpt>
      <trkpt lat="46.47928" lon="5.52175">
        <ele>486</ele>
        <time>2022-04-30T14:18:07Z</time>
      </trkpt>
      <trkpt lat="46.47916" lon="5.52155">
        <ele>485.8</ele>
        <time>2022-04-30T14:18:09Z</time>
      </trkpt>
      <trkpt lat="46.4791" lon="5.52147">
        <ele>485.8</ele>
        <time>2022-04-30T14:18:10Z</time>
      </trkpt>
      <trkpt lat="46.47898" lon="5.52135">
        <ele>485.6</ele>
        <time>2022-04-30T14:18:12Z</time>
      </trkpt>
      <trkpt lat="46.47892" lon="5.52129">
        <ele>485.6</ele>
        <time>2022-04-30T14:18:13Z</time>
      </trkpt>
      <trkpt lat="46.47857" lon="5.52105">
        <ele>486.4</ele>
        <time>2022-04-30T14:18:18Z</time>
      </trkpt>
      <trkpt lat="46.47837" lon="5.52098">
        <ele>487</ele>
        <time>2022-04-30T14:18:21Z</time>
      </trkpt>
      <trkpt lat="46.4783" lon="5.52097">
        <ele>487.4</ele>
        <time>2022-04-30T14:18:22Z</time>
      </trkpt>
      <trkpt lat="46.47805" lon="5.52093">
        <ele>488.6</ele>
        <time>2022-04-30T14:18:26Z</time>
      </trkpt>
      <trkpt lat="46.47794" lon="5.52091">
        <ele>489.2</ele>
        <time>2022-04-30T14:18:28Z</time>
      </trkpt>
      <trkpt lat="46.47789" lon="5.52089">
        <ele>489.4</ele>
        <time>2022-04-30T14:18:29Z</time>
      </trkpt>
      <trkpt lat="46.47784" lon="5.52086">
        <ele>489.8</ele>
        <time>2022-04-30T14:18:30Z</time>
      </trkpt>
      <trkpt lat="46.47774" lon="5.52082">
        <ele>490.2</ele>
        <time>2022-04-30T14:18:32Z</time>
      </trkpt>
      <trkpt lat="46.47759" lon="5.52077">
        <ele>490.8</ele>
        <time>2022-04-30T14:18:35Z</time>
      </trkpt>
      <trkpt lat="46.47744" lon="5.52075">
        <ele>491.6</ele>
        <time>2022-04-30T14:18:38Z</time>
      </trkpt>
      <trkpt lat="46.47735" lon="5.52074">
        <ele>492</ele>
        <time>2022-04-30T14:18:40Z</time>
      </trkpt>
      <trkpt lat="46.47717" lon="5.52072">
        <ele>493</ele>
        <time>2022-04-30T14:18:44Z</time>
      </trkpt>
      <trkpt lat="46.47708" lon="5.52069">
        <ele>493.2</ele>
        <time>2022-04-30T14:18:46Z</time>
      </trkpt>
      <trkpt lat="46.47703" lon="5.52068">
        <ele>493.4</ele>
        <time>2022-04-30T14:18:47Z</time>
      </trkpt>
      <trkpt lat="46.477" lon="5.52066">
        <ele>493.4</ele>
        <time>2022-04-30T14:18:48Z</time>
      </trkpt>
      <trkpt lat="46.47691" lon="5.5206">
        <ele>493.6</ele>
        <time>2022-04-30T14:18:50Z</time>
      </trkpt>
      <trkpt lat="46.47684" lon="5.52053">
        <ele>494</ele>
        <time>2022-04-30T14:18:52Z</time>
      </trkpt>
      <trkpt lat="46.4768" lon="5.5205">
        <ele>494.2</ele>
        <time>2022-04-30T14:18:53Z</time>
      </trkpt>
      <trkpt lat="46.47661" lon="5.52035">
        <ele>495.4</ele>
        <time>2022-04-30T14:18:58Z</time>
      </trkpt>
      <trkpt lat="46.47658" lon="5.52033">
        <ele>495.8</ele>
        <time>2022-04-30T14:18:59Z</time>
      </trkpt>
      <trkpt lat="46.4765" lon="5.52028">
        <ele>496.4</ele>
        <time>2022-04-30T14:19:01Z</time>
      </trkpt>
      <trkpt lat="46.47642" lon="5.52023">
        <ele>497</ele>
        <time>2022-04-30T14:19:03Z</time>
      </trkpt>
      <trkpt lat="46.4763" lon="5.52019">
        <ele>497.6</ele>
        <time>2022-04-30T14:19:06Z</time>
      </trkpt>
      <trkpt lat="46.47625" lon="5.52018">
        <ele>497.6</ele>
        <time>2022-04-30T14:19:07Z</time>
      </trkpt>
      <trkpt lat="46.47601" lon="5.5201">
        <ele>498.4</ele>
        <time>2022-04-30T14:19:13Z</time>
      </trkpt>
      <trkpt lat="46.47596" lon="5.52009">
        <ele>498.6</ele>
        <time>2022-04-30T14:19:14Z</time>
      </trkpt>
      <trkpt lat="46.47591" lon="5.52008">
        <ele>498.8</ele>
        <time>2022-04-30T14:19:15Z</time>
      </trkpt>
      <trkpt lat="46.47569" lon="5.52005">
        <ele>499.6</ele>
        <time>2022-04-30T14:19:20Z</time>
      </trkpt>
      <trkpt lat="46.47564" lon="5.52005">
        <ele>499.6</ele>
        <time>2022-04-30T14:19:21Z</time>
      </trkpt>
      <trkpt lat="46.47543" lon="5.52005">
        <ele>500.2</ele>
        <time>2022-04-30T14:19:26Z</time>
      </trkpt>
      <trkpt lat="46.47534" lon="5.52005">
        <ele>500.4</ele>
        <time>2022-04-30T14:19:28Z</time>
      </trkpt>
      <trkpt lat="46.47529" lon="5.52006">
        <ele>500.6</ele>
        <time>2022-04-30T14:19:29Z</time>
      </trkpt>
      <trkpt lat="46.47525" lon="5.52007">
        <ele>500.8</ele>
        <time>2022-04-30T14:19:30Z</time>
      </trkpt>
      <trkpt lat="46.47497" lon="5.52012">
        <ele>501.8</ele>
        <time>2022-04-30T14:19:36Z</time>
      </trkpt>
      <trkpt lat="46.47493" lon="5.52013">
        <ele>502.2</ele>
        <time>2022-04-30T14:19:37Z</time>
      </trkpt>
      <trkpt lat="46.4747" lon="5.52023">
        <ele>502.8</ele>
        <time>2022-04-30T14:19:42Z</time>
      </trkpt>
      <trkpt lat="46.47466" lon="5.52026">
        <ele>503</ele>
        <time>2022-04-30T14:19:43Z</time>
      </trkpt>
      <trkpt lat="46.47442" lon="5.52042">
        <ele>504</ele>
        <time>2022-04-30T14:19:49Z</time>
      </trkpt>
      <trkpt lat="46.47438" lon="5.52045">
        <ele>504.4</ele>
        <time>2022-04-30T14:19:50Z</time>
      </trkpt>
      <trkpt lat="46.47431" lon="5.52052">
        <ele>505</ele>
        <time>2022-04-30T14:19:52Z</time>
      </trkpt>
      <trkpt lat="46.47427" lon="5.52055">
        <ele>505.2</ele>
        <time>2022-04-30T14:19:53Z</time>
      </trkpt>
      <trkpt lat="46.47405" lon="5.52078">
        <ele>506</ele>
        <time>2022-04-30T14:19:59Z</time>
      </trkpt>
      <trkpt lat="46.47401" lon="5.52081">
        <ele>506.2</ele>
        <time>2022-04-30T14:20:00Z</time>
      </trkpt>
      <trkpt lat="46.47388" lon="5.5209">
        <ele>506.4</ele>
        <time>2022-04-30T14:20:03Z</time>
      </trkpt>
      <trkpt lat="46.47379" lon="5.52093">
        <ele>506.4</ele>
        <time>2022-04-30T14:20:05Z</time>
      </trkpt>
      <trkpt lat="46.47375" lon="5.52094">
        <ele>506.4</ele>
        <time>2022-04-30T14:20:06Z</time>
      </trkpt>
      <trkpt lat="46.47351" lon="5.52094">
        <ele>507</ele>
        <time>2022-04-30T14:20:11Z</time>
      </trkpt>
      <trkpt lat="46.47343" lon="5.52092">
        <ele>507.4</ele>
        <time>2022-04-30T14:20:13Z</time>
      </trkpt>
      <trkpt lat="46.47337" lon="5.52092">
        <ele>507.6</ele>
        <time>2022-04-30T14:20:14Z</time>
      </trkpt>
      <trkpt lat="46.47327" lon="5.5209">
        <ele>508</ele>
        <time>2022-04-30T14:20:16Z</time>
      </trkpt>
      <trkpt lat="46.47317" lon="5.52087">
        <ele>508.2</ele>
        <time>2022-04-30T14:20:18Z</time>
      </trkpt>
      <trkpt lat="46.47312" lon="5.52086">
        <ele>508.4</ele>
        <time>2022-04-30T14:20:19Z</time>
      </trkpt>
      <trkpt lat="46.47289" lon="5.52075">
        <ele>509.2</ele>
        <time>2022-04-30T14:20:24Z</time>
      </trkpt>
      <trkpt lat="46.4728" lon="5.5207">
        <ele>509.6</ele>
        <time>2022-04-30T14:20:26Z</time>
      </trkpt>
      <trkpt lat="46.47275" lon="5.52066">
        <ele>510</ele>
        <time>2022-04-30T14:20:27Z</time>
      </trkpt>
      <trkpt lat="46.47267" lon="5.52059">
        <ele>510.2</ele>
        <time>2022-04-30T14:20:29Z</time>
      </trkpt>
      <trkpt lat="46.47255" lon="5.52048">
        <ele>511</ele>
        <time>2022-04-30T14:20:32Z</time>
      </trkpt>
      <trkpt lat="46.47248" lon="5.5204">
        <ele>511.4</ele>
        <time>2022-04-30T14:20:34Z</time>
      </trkpt>
      <trkpt lat="46.47229" lon="5.52019">
        <ele>512.6</ele>
        <time>2022-04-30T14:20:39Z</time>
      </trkpt>
      <trkpt lat="46.47225" lon="5.52017">
        <ele>512.6</ele>
        <time>2022-04-30T14:20:40Z</time>
      </trkpt>
      <trkpt lat="46.47207" lon="5.52011">
        <ele>513.8</ele>
        <time>2022-04-30T14:20:44Z</time>
      </trkpt>
      <trkpt lat="46.47197" lon="5.5201">
        <ele>514</ele>
        <time>2022-04-30T14:20:46Z</time>
      </trkpt>
      <trkpt lat="46.47187" lon="5.52008">
        <ele>514.2</ele>
        <time>2022-04-30T14:20:48Z</time>
      </trkpt>
      <trkpt lat="46.47174" lon="5.52006">
        <ele>514.6</ele>
        <time>2022-04-30T14:20:51Z</time>
      </trkpt>
      <trkpt lat="46.47166" lon="5.52005">
        <ele>515</ele>
        <time>2022-04-30T14:20:53Z</time>
      </trkpt>
      <trkpt lat="46.4715" lon="5.52">
        <ele>515.2</ele>
        <time>2022-04-30T14:20:57Z</time>
      </trkpt>
      <trkpt lat="46.47147" lon="5.51998">
        <ele>515.4</ele>
        <time>2022-04-30T14:20:58Z</time>
      </trkpt>
      <trkpt lat="46.47132" lon="5.51991">
        <ele>515.8</ele>
        <time>2022-04-30T14:21:01Z</time>
      </trkpt>
      <trkpt lat="46.47128" lon="5.51989">
        <ele>516</ele>
        <time>2022-04-30T14:21:02Z</time>
      </trkpt>
      <trkpt lat="46.47111" lon="5.51982">
        <ele>516.6</ele>
        <time>2022-04-30T14:21:06Z</time>
      </trkpt>
      <trkpt lat="46.47093" lon="5.51974">
        <ele>517.2</ele>
        <time>2022-04-30T14:21:09Z</time>
      </trkpt>
      <trkpt lat="46.47087" lon="5.51971">
        <ele>517.2</ele>
        <time>2022-04-30T14:21:10Z</time>
      </trkpt>
      <trkpt lat="46.47071" lon="5.51963">
        <ele>517.8</ele>
        <time>2022-04-30T14:21:13Z</time>
      </trkpt>
      <trkpt lat="46.47059" lon="5.51959">
        <ele>518.2</ele>
        <time>2022-04-30T14:21:15Z</time>
      </trkpt>
      <trkpt lat="46.47032" lon="5.51953">
        <ele>519</ele>
        <time>2022-04-30T14:21:20Z</time>
      </trkpt>
      <trkpt lat="46.47027" lon="5.51952">
        <ele>519.4</ele>
        <time>2022-04-30T14:21:21Z</time>
      </trkpt>
      <trkpt lat="46.47008" lon="5.51945">
        <ele>520.2</ele>
        <time>2022-04-30T14:21:25Z</time>
      </trkpt>
      <trkpt lat="46.47004" lon="5.51942">
        <ele>520.6</ele>
        <time>2022-04-30T14:21:26Z</time>
      </trkpt>
      <trkpt lat="46.46995" lon="5.51936">
        <ele>520.8</ele>
        <time>2022-04-30T14:21:28Z</time>
      </trkpt>
      <trkpt lat="46.46983" lon="5.51925">
        <ele>521.2</ele>
        <time>2022-04-30T14:21:31Z</time>
      </trkpt>
      <trkpt lat="46.46976" lon="5.51917">
        <ele>521.6</ele>
        <time>2022-04-30T14:21:33Z</time>
      </trkpt>
      <trkpt lat="46.46964" lon="5.51903">
        <ele>522</ele>
        <time>2022-04-30T14:21:36Z</time>
      </trkpt>
      <trkpt lat="46.46953" lon="5.5189">
        <ele>522.2</ele>
        <time>2022-04-30T14:21:39Z</time>
      </trkpt>
      <trkpt lat="46.46944" lon="5.51884">
        <ele>522.6</ele>
        <time>2022-04-30T14:21:41Z</time>
      </trkpt>
      <trkpt lat="46.46939" lon="5.51883">
        <ele>522.8</ele>
        <time>2022-04-30T14:21:42Z</time>
      </trkpt>
      <trkpt lat="46.46933" lon="5.51882">
        <ele>523</ele>
        <time>2022-04-30T14:21:43Z</time>
      </trkpt>
      <trkpt lat="46.46923" lon="5.51883">
        <ele>523.2</ele>
        <time>2022-04-30T14:21:45Z</time>
      </trkpt>
      <trkpt lat="46.46913" lon="5.51885">
        <ele>523.6</ele>
        <time>2022-04-30T14:21:47Z</time>
      </trkpt>
      <trkpt lat="46.46904" lon="5.51888">
        <ele>523.8</ele>
        <time>2022-04-30T14:21:49Z</time>
      </trkpt>
      <trkpt lat="46.46898" lon="5.5189">
        <ele>523.8</ele>
        <time>2022-04-30T14:21:50Z</time>
      </trkpt>
      <trkpt lat="46.46893" lon="5.51891">
        <ele>524</ele>
        <time>2022-04-30T14:21:51Z</time>
      </trkpt>
      <trkpt lat="46.46884" lon="5.51892">
        <ele>524.2</ele>
        <time>2022-04-30T14:21:53Z</time>
      </trkpt>
      <trkpt lat="46.4688" lon="5.51893">
        <ele>524.4</ele>
        <time>2022-04-30T14:21:54Z</time>
      </trkpt>
      <trkpt lat="46.4687" lon="5.51897">
        <ele>525</ele>
        <time>2022-04-30T14:21:56Z</time>
      </trkpt>
      <trkpt lat="46.46861" lon="5.51902">
        <ele>525.2</ele>
        <time>2022-04-30T14:21:58Z</time>
      </trkpt>
      <trkpt lat="46.46851" lon="5.51909">
        <ele>525.6</ele>
        <time>2022-04-30T14:22:00Z</time>
      </trkpt>
      <trkpt lat="46.46844" lon="5.51912">
        <ele>526</ele>
        <time>2022-04-30T14:22:02Z</time>
      </trkpt>
      <trkpt lat="46.46839" lon="5.51914">
        <ele>526.2</ele>
        <time>2022-04-30T14:22:03Z</time>
      </trkpt>
      <trkpt lat="46.46833" lon="5.51915">
        <ele>526.4</ele>
        <time>2022-04-30T14:22:04Z</time>
      </trkpt>
      <trkpt lat="46.46823" lon="5.51915">
        <ele>526.6</ele>
        <time>2022-04-30T14:22:06Z</time>
      </trkpt>
      <trkpt lat="46.46813" lon="5.51916">
        <ele>527</ele>
        <time>2022-04-30T14:22:08Z</time>
      </trkpt>
      <trkpt lat="46.46808" lon="5.51916">
        <ele>527.4</ele>
        <time>2022-04-30T14:22:09Z</time>
      </trkpt>
      <trkpt lat="46.46797" lon="5.51915">
        <ele>527.6</ele>
        <time>2022-04-30T14:22:11Z</time>
      </trkpt>
      <trkpt lat="46.46787" lon="5.51918">
        <ele>527.8</ele>
        <time>2022-04-30T14:22:13Z</time>
      </trkpt>
      <trkpt lat="46.46781" lon="5.5192">
        <ele>528</ele>
        <time>2022-04-30T14:22:14Z</time>
      </trkpt>
      <trkpt lat="46.46776" lon="5.51921">
        <ele>528</ele>
        <time>2022-04-30T14:22:15Z</time>
      </trkpt>
      <trkpt lat="46.46755" lon="5.51918">
        <ele>528.6</ele>
        <time>2022-04-30T14:22:19Z</time>
      </trkpt>
      <trkpt lat="46.46751" lon="5.51916">
        <ele>528.6</ele>
        <time>2022-04-30T14:22:20Z</time>
      </trkpt>
      <trkpt lat="46.46746" lon="5.51913">
        <ele>528.8</ele>
        <time>2022-04-30T14:22:21Z</time>
      </trkpt>
      <trkpt lat="46.4673" lon="5.519">
        <ele>529.6</ele>
        <time>2022-04-30T14:22:25Z</time>
      </trkpt>
      <trkpt lat="46.46725" lon="5.51898">
        <ele>530</ele>
        <time>2022-04-30T14:22:26Z</time>
      </trkpt>
      <trkpt lat="46.46716" lon="5.51894">
        <ele>530.4</ele>
        <time>2022-04-30T14:22:28Z</time>
      </trkpt>
      <trkpt lat="46.46711" lon="5.51893">
        <ele>530.6</ele>
        <time>2022-04-30T14:22:29Z</time>
      </trkpt>
      <trkpt lat="46.46702" lon="5.51892">
        <ele>531</ele>
        <time>2022-04-30T14:22:31Z</time>
      </trkpt>
      <trkpt lat="46.46697" lon="5.51892">
        <ele>531.2</ele>
        <time>2022-04-30T14:22:32Z</time>
      </trkpt>
      <trkpt lat="46.46692" lon="5.51893">
        <ele>531.6</ele>
        <time>2022-04-30T14:22:33Z</time>
      </trkpt>
      <trkpt lat="46.46688" lon="5.51896">
        <ele>531.8</ele>
        <time>2022-04-30T14:22:34Z</time>
      </trkpt>
      <trkpt lat="46.4668" lon="5.51904">
        <ele>532</ele>
        <time>2022-04-30T14:22:36Z</time>
      </trkpt>
      <trkpt lat="46.46668" lon="5.51924">
        <ele>532.4</ele>
        <time>2022-04-30T14:22:40Z</time>
      </trkpt>
      <trkpt lat="46.46662" lon="5.51932">
        <ele>532.8</ele>
        <time>2022-04-30T14:22:42Z</time>
      </trkpt>
      <trkpt lat="46.46658" lon="5.51936">
        <ele>532.8</ele>
        <time>2022-04-30T14:22:43Z</time>
      </trkpt>
      <trkpt lat="46.46654" lon="5.51941">
        <ele>533.4</ele>
        <time>2022-04-30T14:22:44Z</time>
      </trkpt>
      <trkpt lat="46.46645" lon="5.51952">
        <ele>534</ele>
        <time>2022-04-30T14:22:46Z</time>
      </trkpt>
      <trkpt lat="46.4664" lon="5.51955">
        <ele>534</ele>
        <time>2022-04-30T14:22:47Z</time>
      </trkpt>
      <trkpt lat="46.46627" lon="5.51963">
        <ele>534.6</ele>
        <time>2022-04-30T14:22:50Z</time>
      </trkpt>
      <trkpt lat="46.46623" lon="5.51966">
        <ele>534.8</ele>
        <time>2022-04-30T14:22:51Z</time>
      </trkpt>
      <trkpt lat="46.46619" lon="5.51967">
        <ele>535</ele>
        <time>2022-04-30T14:22:52Z</time>
      </trkpt>
      <trkpt lat="46.46608" lon="5.51966">
        <ele>535.6</ele>
        <time>2022-04-30T14:22:54Z</time>
      </trkpt>
      <trkpt lat="46.46604" lon="5.51964">
        <ele>535.8</ele>
        <time>2022-04-30T14:22:55Z</time>
      </trkpt>
      <trkpt lat="46.46598" lon="5.51961">
        <ele>536.2</ele>
        <time>2022-04-30T14:22:56Z</time>
      </trkpt>
      <trkpt lat="46.46589" lon="5.51955">
        <ele>536.6</ele>
        <time>2022-04-30T14:22:58Z</time>
      </trkpt>
      <trkpt lat="46.46583" lon="5.51951">
        <ele>536.6</ele>
        <time>2022-04-30T14:22:59Z</time>
      </trkpt>
      <trkpt lat="46.46572" lon="5.51946">
        <ele>537</ele>
        <time>2022-04-30T14:23:01Z</time>
      </trkpt>
      <trkpt lat="46.46567" lon="5.51945">
        <ele>537.2</ele>
        <time>2022-04-30T14:23:02Z</time>
      </trkpt>
      <trkpt lat="46.46562" lon="5.51948">
        <ele>537.2</ele>
        <time>2022-04-30T14:23:03Z</time>
      </trkpt>
      <trkpt lat="46.4655" lon="5.51954">
        <ele>537.8</ele>
        <time>2022-04-30T14:23:06Z</time>
      </trkpt>
      <trkpt lat="46.46535" lon="5.51962">
        <ele>538.2</ele>
        <time>2022-04-30T14:23:09Z</time>
      </trkpt>
      <trkpt lat="46.46514" lon="5.51966">
        <ele>538.8</ele>
        <time>2022-04-30T14:23:13Z</time>
      </trkpt>
      <trkpt lat="46.465" lon="5.51968">
        <ele>539.2</ele>
        <time>2022-04-30T14:23:16Z</time>
      </trkpt>
      <trkpt lat="46.46485" lon="5.51971">
        <ele>540</ele>
        <time>2022-04-30T14:23:19Z</time>
      </trkpt>
      <trkpt lat="46.46481" lon="5.51973">
        <ele>540</ele>
        <time>2022-04-30T14:23:20Z</time>
      </trkpt>
      <trkpt lat="46.46472" lon="5.51977">
        <ele>540.4</ele>
        <time>2022-04-30T14:23:22Z</time>
      </trkpt>
      <trkpt lat="46.46453" lon="5.51984">
        <ele>541.4</ele>
        <time>2022-04-30T14:23:26Z</time>
      </trkpt>
      <trkpt lat="46.46448" lon="5.51985">
        <ele>541.6</ele>
        <time>2022-04-30T14:23:27Z</time>
      </trkpt>
      <trkpt lat="46.46438" lon="5.51983">
        <ele>542</ele>
        <time>2022-04-30T14:23:29Z</time>
      </trkpt>
      <trkpt lat="46.46428" lon="5.51979">
        <ele>542.2</ele>
        <time>2022-04-30T14:23:31Z</time>
      </trkpt>
      <trkpt lat="46.4642" lon="5.51976">
        <ele>542.8</ele>
        <time>2022-04-30T14:23:33Z</time>
      </trkpt>
      <trkpt lat="46.46415" lon="5.51974">
        <ele>543.2</ele>
        <time>2022-04-30T14:23:34Z</time>
      </trkpt>
      <trkpt lat="46.46405" lon="5.51975">
        <ele>543.8</ele>
        <time>2022-04-30T14:23:36Z</time>
      </trkpt>
      <trkpt lat="46.46397" lon="5.5198">
        <ele>544.6</ele>
        <time>2022-04-30T14:23:38Z</time>
      </trkpt>
      <trkpt lat="46.4639" lon="5.51988">
        <ele>545</ele>
        <time>2022-04-30T14:23:40Z</time>
      </trkpt>
      <trkpt lat="46.46379" lon="5.52004">
        <ele>545.6</ele>
        <time>2022-04-30T14:23:44Z</time>
      </trkpt>
      <trkpt lat="46.46373" lon="5.52017">
        <ele>546</ele>
        <time>2022-04-30T14:23:47Z</time>
      </trkpt>
      <trkpt lat="46.4637" lon="5.52026">
        <ele>546</ele>
        <time>2022-04-30T14:23:49Z</time>
      </trkpt>
      <trkpt lat="46.46367" lon="5.52031">
        <ele>546.4</ele>
        <time>2022-04-30T14:23:50Z</time>
      </trkpt>
      <trkpt lat="46.46365" lon="5.52035">
        <ele>546.8</ele>
        <time>2022-04-30T14:23:51Z</time>
      </trkpt>
      <trkpt lat="46.46361" lon="5.52042">
        <ele>547</ele>
        <time>2022-04-30T14:23:52Z</time>
      </trkpt>
      <trkpt lat="46.46354" lon="5.52054">
        <ele>547.4</ele>
        <time>2022-04-30T14:23:54Z</time>
      </trkpt>
      <trkpt lat="46.46344" lon="5.52073">
        <ele>548</ele>
        <time>2022-04-30T14:23:57Z</time>
      </trkpt>
      <trkpt lat="46.46341" lon="5.52077">
        <ele>548.2</ele>
        <time>2022-04-30T14:23:58Z</time>
      </trkpt>
      <trkpt lat="46.46329" lon="5.52087">
        <ele>548.8</ele>
        <time>2022-04-30T14:24:01Z</time>
      </trkpt>
      <trkpt lat="46.46324" lon="5.5209">
        <ele>549</ele>
        <time>2022-04-30T14:24:02Z</time>
      </trkpt>
      <trkpt lat="46.46319" lon="5.52092">
        <ele>549.2</ele>
        <time>2022-04-30T14:24:03Z</time>
      </trkpt>
      <trkpt lat="46.46291" lon="5.52094">
        <ele>550.2</ele>
        <time>2022-04-30T14:24:09Z</time>
      </trkpt>
      <trkpt lat="46.46286" lon="5.52093">
        <ele>550.4</ele>
        <time>2022-04-30T14:24:10Z</time>
      </trkpt>
      <trkpt lat="46.46272" lon="5.52089">
        <ele>551.4</ele>
        <time>2022-04-30T14:24:13Z</time>
      </trkpt>
      <trkpt lat="46.46264" lon="5.52087">
        <ele>551.8</ele>
        <time>2022-04-30T14:24:15Z</time>
      </trkpt>
      <trkpt lat="46.46237" lon="5.52092">
        <ele>552.6</ele>
        <time>2022-04-30T14:24:21Z</time>
      </trkpt>
      <trkpt lat="46.4623" lon="5.52094">
        <ele>553.2</ele>
        <time>2022-04-30T14:24:23Z</time>
      </trkpt>
      <trkpt lat="46.46216" lon="5.52094">
        <ele>553.6</ele>
        <time>2022-04-30T14:24:26Z</time>
      </trkpt>
      <trkpt lat="46.46207" lon="5.52093">
        <ele>554</ele>
        <time>2022-04-30T14:24:28Z</time>
      </trkpt>
      <trkpt lat="46.46199" lon="5.52091">
        <ele>554.2</ele>
        <time>2022-04-30T14:24:30Z</time>
      </trkpt>
      <trkpt lat="46.4619" lon="5.52088">
        <ele>554.4</ele>
        <time>2022-04-30T14:24:32Z</time>
      </trkpt>
      <trkpt lat="46.46186" lon="5.52085">
        <ele>554.4</ele>
        <time>2022-04-30T14:24:33Z</time>
      </trkpt>
      <trkpt lat="46.46179" lon="5.52079">
        <ele>555</ele>
        <time>2022-04-30T14:24:35Z</time>
      </trkpt>
      <trkpt lat="46.4616" lon="5.52063">
        <ele>555.6</ele>
        <time>2022-04-30T14:24:40Z</time>
      </trkpt>
      <trkpt lat="46.46149" lon="5.52055">
        <ele>556</ele>
        <time>2022-04-30T14:24:43Z</time>
      </trkpt>
      <trkpt lat="46.46142" lon="5.52051">
        <ele>556.6</ele>
        <time>2022-04-30T14:24:45Z</time>
      </trkpt>
      <trkpt lat="46.46133" lon="5.52049">
        <ele>557</ele>
        <time>2022-04-30T14:24:47Z</time>
      </trkpt>
      <trkpt lat="46.4613" lon="5.52048">
        <ele>557.2</ele>
        <time>2022-04-30T14:24:48Z</time>
      </trkpt>
      <trkpt lat="46.46108" lon="5.52046">
        <ele>558.2</ele>
        <time>2022-04-30T14:24:53Z</time>
      </trkpt>
      <trkpt lat="46.46099" lon="5.52044">
        <ele>558.6</ele>
        <time>2022-04-30T14:24:55Z</time>
      </trkpt>
      <trkpt lat="46.46091" lon="5.52041">
        <ele>559</ele>
        <time>2022-04-30T14:24:57Z</time>
      </trkpt>
      <trkpt lat="46.46083" lon="5.52036">
        <ele>559.4</ele>
        <time>2022-04-30T14:24:59Z</time>
      </trkpt>
      <trkpt lat="46.46074" lon="5.52029">
        <ele>559.6</ele>
        <time>2022-04-30T14:25:01Z</time>
      </trkpt>
      <trkpt lat="46.46054" lon="5.52015">
        <ele>560.4</ele>
        <time>2022-04-30T14:25:06Z</time>
      </trkpt>
      <trkpt lat="46.46046" lon="5.52012">
        <ele>560.8</ele>
        <time>2022-04-30T14:25:08Z</time>
      </trkpt>
      <trkpt lat="46.46033" lon="5.52007">
        <ele>561</ele>
        <time>2022-04-30T14:25:11Z</time>
      </trkpt>
      <trkpt lat="46.46025" lon="5.52005">
        <ele>561.4</ele>
        <time>2022-04-30T14:25:13Z</time>
      </trkpt>
      <trkpt lat="46.46021" lon="5.52003">
        <ele>561.6</ele>
        <time>2022-04-30T14:25:14Z</time>
      </trkpt>
      <trkpt lat="46.46017" lon="5.52001">
        <ele>561.8</ele>
        <time>2022-04-30T14:25:15Z</time>
      </trkpt>
      <trkpt lat="46.46006" lon="5.51995">
        <ele>562.6</ele>
        <time>2022-04-30T14:25:18Z</time>
      </trkpt>
      <trkpt lat="46.45987" lon="5.51987">
        <ele>563.8</ele>
        <time>2022-04-30T14:25:23Z</time>
      </trkpt>
      <trkpt lat="46.45983" lon="5.51985">
        <ele>564</ele>
        <time>2022-04-30T14:25:24Z</time>
      </trkpt>
      <trkpt lat="46.45975" lon="5.51979">
        <ele>564.8</ele>
        <time>2022-04-30T14:25:26Z</time>
      </trkpt>
      <trkpt lat="46.45955" lon="5.51966">
        <ele>566</ele>
        <time>2022-04-30T14:25:31Z</time>
      </trkpt>
      <trkpt lat="46.4595" lon="5.51962">
        <ele>566.4</ele>
        <time>2022-04-30T14:25:32Z</time>
      </trkpt>
      <trkpt lat="46.45929" lon="5.51948">
        <ele>567</ele>
        <time>2022-04-30T14:25:37Z</time>
      </trkpt>
      <trkpt lat="46.45925" lon="5.51944">
        <ele>567.2</ele>
        <time>2022-04-30T14:25:38Z</time>
      </trkpt>
      <trkpt lat="46.45922" lon="5.51941">
        <ele>567.4</ele>
        <time>2022-04-30T14:25:39Z</time>
      </trkpt>
      <trkpt lat="46.45901" lon="5.5193">
        <ele>568.2</ele>
        <time>2022-04-30T14:25:44Z</time>
      </trkpt>
      <trkpt lat="46.45882" lon="5.51918">
        <ele>569.2</ele>
        <time>2022-04-30T14:25:49Z</time>
      </trkpt>
      <trkpt lat="46.45865" lon="5.51905">
        <ele>570.4</ele>
        <time>2022-04-30T14:25:53Z</time>
      </trkpt>
      <trkpt lat="46.45854" lon="5.51892">
        <ele>570.8</ele>
        <time>2022-04-30T14:25:56Z</time>
      </trkpt>
      <trkpt lat="46.45842" lon="5.51883">
        <ele>571.4</ele>
        <time>2022-04-30T14:25:59Z</time>
      </trkpt>
      <trkpt lat="46.45837" lon="5.51881">
        <ele>571.6</ele>
        <time>2022-04-30T14:26:00Z</time>
      </trkpt>
      <trkpt lat="46.45829" lon="5.51877">
        <ele>571.8</ele>
        <time>2022-04-30T14:26:02Z</time>
      </trkpt>
      <trkpt lat="46.45813" lon="5.5187">
        <ele>572.8</ele>
        <time>2022-04-30T14:26:06Z</time>
      </trkpt>
      <trkpt lat="46.45801" lon="5.51863">
        <ele>573.4</ele>
        <time>2022-04-30T14:26:09Z</time>
      </trkpt>
      <trkpt lat="46.45792" lon="5.51856">
        <ele>574</ele>
        <time>2022-04-30T14:26:12Z</time>
      </trkpt>
      <trkpt lat="46.45781" lon="5.5185">
        <ele>574.8</ele>
        <time>2022-04-30T14:26:15Z</time>
      </trkpt>
      <trkpt lat="46.45777" lon="5.51848">
        <ele>575</ele>
        <time>2022-04-30T14:26:16Z</time>
      </trkpt>
      <trkpt lat="46.45762" lon="5.5184">
        <ele>576.2</ele>
        <time>2022-04-30T14:26:20Z</time>
      </trkpt>
      <trkpt lat="46.4575" lon="5.51833">
        <ele>576.8</ele>
        <time>2022-04-30T14:26:23Z</time>
      </trkpt>
      <trkpt lat="46.45735" lon="5.51825">
        <ele>577.8</ele>
        <time>2022-04-30T14:26:27Z</time>
      </trkpt>
      <trkpt lat="46.45717" lon="5.51813">
        <ele>579</ele>
        <time>2022-04-30T14:26:32Z</time>
      </trkpt>
      <trkpt lat="46.45706" lon="5.51805">
        <ele>579.4</ele>
        <time>2022-04-30T14:26:35Z</time>
      </trkpt>
      <trkpt lat="46.45685" lon="5.51789">
        <ele>580.2</ele>
        <time>2022-04-30T14:26:41Z</time>
      </trkpt>
      <trkpt lat="46.45679" lon="5.51785">
        <ele>580.6</ele>
        <time>2022-04-30T14:26:43Z</time>
      </trkpt>
      <trkpt lat="46.45664" lon="5.51776">
        <ele>581.2</ele>
        <time>2022-04-30T14:26:47Z</time>
      </trkpt>
      <trkpt lat="46.4565" lon="5.51765">
        <ele>582.2</ele>
        <time>2022-04-30T14:26:51Z</time>
      </trkpt>
      <trkpt lat="46.45647" lon="5.51762">
        <ele>582.4</ele>
        <time>2022-04-30T14:26:52Z</time>
      </trkpt>
      <trkpt lat="46.45623" lon="5.51742">
        <ele>583.4</ele>
        <time>2022-04-30T14:26:59Z</time>
      </trkpt>
      <trkpt lat="46.4562" lon="5.51739">
        <ele>583.6</ele>
        <time>2022-04-30T14:27:00Z</time>
      </trkpt>
      <trkpt lat="46.4561" lon="5.51732">
        <ele>584.4</ele>
        <time>2022-04-30T14:27:03Z</time>
      </trkpt>
      <trkpt lat="46.45593" lon="5.5172">
        <ele>585.6</ele>
        <time>2022-04-30T14:27:08Z</time>
      </trkpt>
      <trkpt lat="46.45562" lon="5.51701">
        <ele>586.8</ele>
        <time>2022-04-30T14:27:16Z</time>
      </trkpt>
      <trkpt lat="46.45545" lon="5.51688">
        <ele>587.8</ele>
        <time>2022-04-30T14:27:21Z</time>
      </trkpt>
      <trkpt lat="46.45525" lon="5.51673">
        <ele>589</ele>
        <time>2022-04-30T14:27:27Z</time>
      </trkpt>
      <trkpt lat="46.45511" lon="5.51662">
        <ele>590</ele>
        <time>2022-04-30T14:27:31Z</time>
      </trkpt>
      <trkpt lat="46.45508" lon="5.51659">
        <ele>590.2</ele>
        <time>2022-04-30T14:27:32Z</time>
      </trkpt>
      <trkpt lat="46.45484" lon="5.51633">
        <ele>591.6</ele>
        <time>2022-04-30T14:27:39Z</time>
      </trkpt>
      <trkpt lat="46.45481" lon="5.51629">
        <ele>591.6</ele>
        <time>2022-04-30T14:27:40Z</time>
      </trkpt>
      <trkpt lat="46.45464" lon="5.51599">
        <ele>592.6</ele>
        <time>2022-04-30T14:27:46Z</time>
      </trkpt>
      <trkpt lat="46.45459" lon="5.51588">
        <ele>593</ele>
        <time>2022-04-30T14:27:48Z</time>
      </trkpt>
      <trkpt lat="46.45455" lon="5.51576">
        <ele>593.2</ele>
        <time>2022-04-30T14:27:50Z</time>
      </trkpt>
      <trkpt lat="46.45446" lon="5.51557">
        <ele>593.4</ele>
        <time>2022-04-30T14:27:53Z</time>
      </trkpt>
      <trkpt lat="46.45442" lon="5.51551">
        <ele>593.4</ele>
        <time>2022-04-30T14:27:54Z</time>
      </trkpt>
      <trkpt lat="46.45437" lon="5.51546">
        <ele>593.4</ele>
        <time>2022-04-30T14:27:55Z</time>
      </trkpt>
      <trkpt lat="46.45417" lon="5.51529">
        <ele>593</ele>
        <time>2022-04-30T14:27:59Z</time>
      </trkpt>
      <trkpt lat="46.454" lon="5.51518">
        <ele>592.4</ele>
        <time>2022-04-30T14:28:02Z</time>
      </trkpt>
      <trkpt lat="46.45376" lon="5.51502">
        <ele>591.6</ele>
        <time>2022-04-30T14:28:06Z</time>
      </trkpt>
      <trkpt lat="46.45365" lon="5.51491">
        <ele>591.4</ele>
        <time>2022-04-30T14:28:08Z</time>
      </trkpt>
      <trkpt lat="46.4535" lon="5.51472">
        <ele>591.2</ele>
        <time>2022-04-30T14:28:11Z</time>
      </trkpt>
      <trkpt lat="46.4533" lon="5.51445">
        <ele>591.2</ele>
        <time>2022-04-30T14:28:16Z</time>
      </trkpt>
      <trkpt lat="46.45306" lon="5.51417">
        <ele>593</ele>
        <time>2022-04-30T14:28:22Z</time>
      </trkpt>
      <trkpt lat="46.45302" lon="5.5141">
        <ele>593.4</ele>
        <time>2022-04-30T14:28:23Z</time>
      </trkpt>
      <trkpt lat="46.45299" lon="5.51402">
        <ele>593.4</ele>
        <time>2022-04-30T14:28:24Z</time>
      </trkpt>
      <trkpt lat="46.45296" lon="5.51394">
        <ele>593.8</ele>
        <time>2022-04-30T14:28:25Z</time>
      </trkpt>
      <trkpt lat="46.45295" lon="5.51378">
        <ele>594.2</ele>
        <time>2022-04-30T14:28:27Z</time>
      </trkpt>
      <trkpt lat="46.45296" lon="5.51358">
        <ele>594.4</ele>
        <time>2022-04-30T14:28:29Z</time>
      </trkpt>
      <trkpt lat="46.45298" lon="5.51339">
        <ele>594.8</ele>
        <time>2022-04-30T14:28:31Z</time>
      </trkpt>
      <trkpt lat="46.45299" lon="5.51332">
        <ele>594.8</ele>
        <time>2022-04-30T14:28:32Z</time>
      </trkpt>
      <trkpt lat="46.45299" lon="5.51314">
        <ele>595</ele>
        <time>2022-04-30T14:28:34Z</time>
      </trkpt>
      <trkpt lat="46.45297" lon="5.51306">
        <ele>595</ele>
        <time>2022-04-30T14:28:35Z</time>
      </trkpt>
      <trkpt lat="46.45292" lon="5.513">
        <ele>595</ele>
        <time>2022-04-30T14:28:36Z</time>
      </trkpt>
      <trkpt lat="46.4528" lon="5.51294">
        <ele>595</ele>
        <time>2022-04-30T14:28:38Z</time>
      </trkpt>
      <trkpt lat="46.45268" lon="5.51288">
        <ele>595</ele>
        <time>2022-04-30T14:28:40Z</time>
      </trkpt>
      <trkpt lat="46.45264" lon="5.51278">
        <ele>594.8</ele>
        <time>2022-04-30T14:28:42Z</time>
      </trkpt>
      <trkpt lat="46.45269" lon="5.51263">
        <ele>594.4</ele>
        <time>2022-04-30T14:28:44Z</time>
      </trkpt>
      <trkpt lat="46.45284" lon="5.51235">
        <ele>593.6</ele>
        <time>2022-04-30T14:28:47Z</time>
      </trkpt>
      <trkpt lat="46.4529" lon="5.51225">
        <ele>593</ele>
        <time>2022-04-30T14:28:48Z</time>
      </trkpt>
      <trkpt lat="46.453" lon="5.51204">
        <ele>592</ele>
        <time>2022-04-30T14:28:50Z</time>
      </trkpt>
      <trkpt lat="46.45304" lon="5.51192">
        <ele>591.8</ele>
        <time>2022-04-30T14:28:51Z</time>
      </trkpt>
      <trkpt lat="46.45306" lon="5.51178">
        <ele>591.2</ele>
        <time>2022-04-30T14:28:52Z</time>
      </trkpt>
      <trkpt lat="46.45306" lon="5.51163">
        <ele>590.8</ele>
        <time>2022-04-30T14:28:53Z</time>
      </trkpt>
      <trkpt lat="46.45305" lon="5.51132">
        <ele>589.6</ele>
        <time>2022-04-30T14:28:55Z</time>
      </trkpt>
      <trkpt lat="46.45305" lon="5.51101">
        <ele>588.6</ele>
        <time>2022-04-30T14:28:57Z</time>
      </trkpt>
      <trkpt lat="46.45305" lon="5.51084">
        <ele>588.4</ele>
        <time>2022-04-30T14:28:58Z</time>
      </trkpt>
      <trkpt lat="46.45307" lon="5.51052">
        <ele>587.4</ele>
        <time>2022-04-30T14:29:00Z</time>
      </trkpt>
      <trkpt lat="46.45312" lon="5.51037">
        <ele>587</ele>
        <time>2022-04-30T14:29:01Z</time>
      </trkpt>
      <trkpt lat="46.45319" lon="5.51024">
        <ele>586</ele>
        <time>2022-04-30T14:29:02Z</time>
      </trkpt>
      <trkpt lat="46.45328" lon="5.51013">
        <ele>585.4</ele>
        <time>2022-04-30T14:29:03Z</time>
      </trkpt>
      <trkpt lat="46.45338" lon="5.51005">
        <ele>584.2</ele>
        <time>2022-04-30T14:29:04Z</time>
      </trkpt>
      <trkpt lat="46.45354" lon="5.50991">
        <ele>582.4</ele>
        <time>2022-04-30T14:29:06Z</time>
      </trkpt>
      <trkpt lat="46.45355" lon="5.50979">
        <ele>581.8</ele>
        <time>2022-04-30T14:29:07Z</time>
      </trkpt>
      <trkpt lat="46.45354" lon="5.50966">
        <ele>581.6</ele>
        <time>2022-04-30T14:29:08Z</time>
      </trkpt>
      <trkpt lat="46.45349" lon="5.50956">
        <ele>580.6</ele>
        <time>2022-04-30T14:29:09Z</time>
      </trkpt>
      <trkpt lat="46.45334" lon="5.50946">
        <ele>579.2</ele>
        <time>2022-04-30T14:29:11Z</time>
      </trkpt>
      <trkpt lat="46.45304" lon="5.50938">
        <ele>577.6</ele>
        <time>2022-04-30T14:29:14Z</time>
      </trkpt>
      <trkpt lat="46.45293" lon="5.50938">
        <ele>577.2</ele>
        <time>2022-04-30T14:29:15Z</time>
      </trkpt>
      <trkpt lat="46.45283" lon="5.50941">
        <ele>576.6</ele>
        <time>2022-04-30T14:29:16Z</time>
      </trkpt>
      <trkpt lat="46.45261" lon="5.50948">
        <ele>575.6</ele>
        <time>2022-04-30T14:29:18Z</time>
      </trkpt>
      <trkpt lat="46.45249" lon="5.50951">
        <ele>575.4</ele>
        <time>2022-04-30T14:29:19Z</time>
      </trkpt>
      <trkpt lat="46.45224" lon="5.5095">
        <ele>574.4</ele>
        <time>2022-04-30T14:29:21Z</time>
      </trkpt>
      <trkpt lat="46.45199" lon="5.50945">
        <ele>572.8</ele>
        <time>2022-04-30T14:29:23Z</time>
      </trkpt>
      <trkpt lat="46.45173" lon="5.50937">
        <ele>571.4</ele>
        <time>2022-04-30T14:29:25Z</time>
      </trkpt>
      <trkpt lat="46.45149" lon="5.50924">
        <ele>569.4</ele>
        <time>2022-04-30T14:29:27Z</time>
      </trkpt>
      <trkpt lat="46.45137" lon="5.50914">
        <ele>568.6</ele>
        <time>2022-04-30T14:29:28Z</time>
      </trkpt>
      <trkpt lat="46.45123" lon="5.509">
        <ele>566.8</ele>
        <time>2022-04-30T14:29:29Z</time>
      </trkpt>
      <trkpt lat="46.45112" lon="5.50886">
        <ele>565.4</ele>
        <time>2022-04-30T14:29:30Z</time>
      </trkpt>
      <trkpt lat="46.45102" lon="5.50871">
        <ele>565</ele>
        <time>2022-04-30T14:29:31Z</time>
      </trkpt>
      <trkpt lat="46.45092" lon="5.50856">
        <ele>564</ele>
        <time>2022-04-30T14:29:32Z</time>
      </trkpt>
      <trkpt lat="46.45072" lon="5.50823">
        <ele>562.4</ele>
        <time>2022-04-30T14:29:34Z</time>
      </trkpt>
      <trkpt lat="46.45064" lon="5.50806">
        <ele>561.6</ele>
        <time>2022-04-30T14:29:35Z</time>
      </trkpt>
      <trkpt lat="46.45056" lon="5.50787">
        <ele>560.2</ele>
        <time>2022-04-30T14:29:36Z</time>
      </trkpt>
      <trkpt lat="46.45049" lon="5.50768">
        <ele>558.6</ele>
        <time>2022-04-30T14:29:37Z</time>
      </trkpt>
      <trkpt lat="46.45043" lon="5.50749">
        <ele>558.2</ele>
        <time>2022-04-30T14:29:38Z</time>
      </trkpt>
      <trkpt lat="46.45037" lon="5.50729">
        <ele>557</ele>
        <time>2022-04-30T14:29:39Z</time>
      </trkpt>
      <trkpt lat="46.4503" lon="5.50711">
        <ele>556.6</ele>
        <time>2022-04-30T14:29:40Z</time>
      </trkpt>
      <trkpt lat="46.4502" lon="5.50695">
        <ele>555</ele>
        <time>2022-04-30T14:29:41Z</time>
      </trkpt>
      <trkpt lat="46.45009" lon="5.50682">
        <ele>554</ele>
        <time>2022-04-30T14:29:42Z</time>
      </trkpt>
      <trkpt lat="46.44997" lon="5.50671">
        <ele>552.6</ele>
        <time>2022-04-30T14:29:43Z</time>
      </trkpt>
      <trkpt lat="46.44985" lon="5.50659">
        <ele>551.4</ele>
        <time>2022-04-30T14:29:44Z</time>
      </trkpt>
      <trkpt lat="46.44964" lon="5.5064">
        <ele>549.2</ele>
        <time>2022-04-30T14:29:46Z</time>
      </trkpt>
      <trkpt lat="46.44951" lon="5.50629">
        <ele>548.2</ele>
        <time>2022-04-30T14:29:47Z</time>
      </trkpt>
      <trkpt lat="46.44942" lon="5.50626">
        <ele>547.2</ele>
        <time>2022-04-30T14:29:48Z</time>
      </trkpt>
      <trkpt lat="46.44929" lon="5.50623">
        <ele>546.4</ele>
        <time>2022-04-30T14:29:49Z</time>
      </trkpt>
      <trkpt lat="46.44914" lon="5.50623">
        <ele>544.6</ele>
        <time>2022-04-30T14:29:50Z</time>
      </trkpt>
      <trkpt lat="46.44898" lon="5.50627">
        <ele>543.8</ele>
        <time>2022-04-30T14:29:51Z</time>
      </trkpt>
      <trkpt lat="46.44885" lon="5.50629">
        <ele>542</ele>
        <time>2022-04-30T14:29:52Z</time>
      </trkpt>
      <trkpt lat="46.44872" lon="5.50626">
        <ele>540.2</ele>
        <time>2022-04-30T14:29:53Z</time>
      </trkpt>
      <trkpt lat="46.44848" lon="5.50611">
        <ele>537.6</ele>
        <time>2022-04-30T14:29:55Z</time>
      </trkpt>
      <trkpt lat="46.44835" lon="5.50602">
        <ele>536.8</ele>
        <time>2022-04-30T14:29:56Z</time>
      </trkpt>
      <trkpt lat="46.44822" lon="5.50594">
        <ele>535.6</ele>
        <time>2022-04-30T14:29:57Z</time>
      </trkpt>
      <trkpt lat="46.44795" lon="5.50578">
        <ele>533.6</ele>
        <time>2022-04-30T14:29:59Z</time>
      </trkpt>
      <trkpt lat="46.44781" lon="5.50572">
        <ele>532</ele>
        <time>2022-04-30T14:30:00Z</time>
      </trkpt>
      <trkpt lat="46.4477" lon="5.50568">
        <ele>531.2</ele>
        <time>2022-04-30T14:30:01Z</time>
      </trkpt>
      <trkpt lat="46.44754" lon="5.50563">
        <ele>529.6</ele>
        <time>2022-04-30T14:30:02Z</time>
      </trkpt>
      <trkpt lat="46.44731" lon="5.50556">
        <ele>527.6</ele>
        <time>2022-04-30T14:30:04Z</time>
      </trkpt>
      <trkpt lat="46.44708" lon="5.50546">
        <ele>525.2</ele>
        <time>2022-04-30T14:30:06Z</time>
      </trkpt>
      <trkpt lat="46.44699" lon="5.50542">
        <ele>523.8</ele>
        <time>2022-04-30T14:30:07Z</time>
      </trkpt>
      <trkpt lat="46.44693" lon="5.5054">
        <ele>522.8</ele>
        <time>2022-04-30T14:30:08Z</time>
      </trkpt>
      <trkpt lat="46.44684" lon="5.50542">
        <ele>521.4</ele>
        <time>2022-04-30T14:30:09Z</time>
      </trkpt>
      <trkpt lat="46.44679" lon="5.50548">
        <ele>520.6</ele>
        <time>2022-04-30T14:30:10Z</time>
      </trkpt>
      <trkpt lat="46.44677" lon="5.50557">
        <ele>518.8</ele>
        <time>2022-04-30T14:30:11Z</time>
      </trkpt>
      <trkpt lat="46.44676" lon="5.50577">
        <ele>516.8</ele>
        <time>2022-04-30T14:30:13Z</time>
      </trkpt>
      <trkpt lat="46.44676" lon="5.50586">
        <ele>514.8</ele>
        <time>2022-04-30T14:30:14Z</time>
      </trkpt>
      <trkpt lat="46.4468" lon="5.50595">
        <ele>514.2</ele>
        <time>2022-04-30T14:30:15Z</time>
      </trkpt>
      <trkpt lat="46.4469" lon="5.50605">
        <ele>513</ele>
        <time>2022-04-30T14:30:16Z</time>
      </trkpt>
      <trkpt lat="46.447" lon="5.50612">
        <ele>512.6</ele>
        <time>2022-04-30T14:30:17Z</time>
      </trkpt>
      <trkpt lat="46.44713" lon="5.50622">
        <ele>512</ele>
        <time>2022-04-30T14:30:18Z</time>
      </trkpt>
      <trkpt lat="46.44724" lon="5.5063">
        <ele>511.8</ele>
        <time>2022-04-30T14:30:19Z</time>
      </trkpt>
      <trkpt lat="46.44746" lon="5.50648">
        <ele>510.6</ele>
        <time>2022-04-30T14:30:21Z</time>
      </trkpt>
      <trkpt lat="46.44767" lon="5.50666">
        <ele>509</ele>
        <time>2022-04-30T14:30:23Z</time>
      </trkpt>
      <trkpt lat="46.44785" lon="5.50676">
        <ele>508</ele>
        <time>2022-04-30T14:30:25Z</time>
      </trkpt>
      <trkpt lat="46.44793" lon="5.5068">
        <ele>507.6</ele>
        <time>2022-04-30T14:30:26Z</time>
      </trkpt>
      <trkpt lat="46.44799" lon="5.50685">
        <ele>506.6</ele>
        <time>2022-04-30T14:30:27Z</time>
      </trkpt>
      <trkpt lat="46.44802" lon="5.50691">
        <ele>506.2</ele>
        <time>2022-04-30T14:30:28Z</time>
      </trkpt>
      <trkpt lat="46.44802" lon="5.50697">
        <ele>505.6</ele>
        <time>2022-04-30T14:30:29Z</time>
      </trkpt>
      <trkpt lat="46.44798" lon="5.50702">
        <ele>505.2</ele>
        <time>2022-04-30T14:30:30Z</time>
      </trkpt>
      <trkpt lat="46.44793" lon="5.50705">
        <ele>504.8</ele>
        <time>2022-04-30T14:30:31Z</time>
      </trkpt>
      <trkpt lat="46.44786" lon="5.50706">
        <ele>504.2</ele>
        <time>2022-04-30T14:30:32Z</time>
      </trkpt>
      <trkpt lat="46.44777" lon="5.507">
        <ele>503.6</ele>
        <time>2022-04-30T14:30:33Z</time>
      </trkpt>
      <trkpt lat="46.44766" lon="5.50693">
        <ele>502.6</ele>
        <time>2022-04-30T14:30:34Z</time>
      </trkpt>
      <trkpt lat="46.44756" lon="5.50685">
        <ele>502.4</ele>
        <time>2022-04-30T14:30:35Z</time>
      </trkpt>
      <trkpt lat="46.44735" lon="5.50675">
        <ele>501</ele>
        <time>2022-04-30T14:30:37Z</time>
      </trkpt>
      <trkpt lat="46.44713" lon="5.50663">
        <ele>499.6</ele>
        <time>2022-04-30T14:30:39Z</time>
      </trkpt>
      <trkpt lat="46.44702" lon="5.50656">
        <ele>498.6</ele>
        <time>2022-04-30T14:30:40Z</time>
      </trkpt>
      <trkpt lat="46.4469" lon="5.50649">
        <ele>497.6</ele>
        <time>2022-04-30T14:30:41Z</time>
      </trkpt>
      <trkpt lat="46.44667" lon="5.50636">
        <ele>496</ele>
        <time>2022-04-30T14:30:43Z</time>
      </trkpt>
      <trkpt lat="46.44644" lon="5.50622">
        <ele>494.8</ele>
        <time>2022-04-30T14:30:45Z</time>
      </trkpt>
      <trkpt lat="46.44619" lon="5.50608">
        <ele>493.2</ele>
        <time>2022-04-30T14:30:47Z</time>
      </trkpt>
      <trkpt lat="46.44607" lon="5.506">
        <ele>491.8</ele>
        <time>2022-04-30T14:30:48Z</time>
      </trkpt>
      <trkpt lat="46.44581" lon="5.50585">
        <ele>490</ele>
        <time>2022-04-30T14:30:50Z</time>
      </trkpt>
      <trkpt lat="46.44554" lon="5.50571">
        <ele>487.8</ele>
        <time>2022-04-30T14:30:52Z</time>
      </trkpt>
      <trkpt lat="46.4454" lon="5.50563">
        <ele>486.2</ele>
        <time>2022-04-30T14:30:53Z</time>
      </trkpt>
      <trkpt lat="46.44516" lon="5.50545">
        <ele>483.6</ele>
        <time>2022-04-30T14:30:55Z</time>
      </trkpt>
      <trkpt lat="46.44506" lon="5.50533">
        <ele>483</ele>
        <time>2022-04-30T14:30:56Z</time>
      </trkpt>
      <trkpt lat="46.44499" lon="5.50522">
        <ele>481</ele>
        <time>2022-04-30T14:30:57Z</time>
      </trkpt>
      <trkpt lat="46.44491" lon="5.50506">
        <ele>480</ele>
        <time>2022-04-30T14:30:58Z</time>
      </trkpt>
      <trkpt lat="46.44483" lon="5.50485">
        <ele>477.8</ele>
        <time>2022-04-30T14:30:59Z</time>
      </trkpt>
      <trkpt lat="46.44475" lon="5.50468">
        <ele>476</ele>
        <time>2022-04-30T14:31:00Z</time>
      </trkpt>
      <trkpt lat="46.44472" lon="5.50447">
        <ele>475</ele>
        <time>2022-04-30T14:31:01Z</time>
      </trkpt>
      <trkpt lat="46.44467" lon="5.50432">
        <ele>473.4</ele>
        <time>2022-04-30T14:31:02Z</time>
      </trkpt>
      <trkpt lat="46.44458" lon="5.50411">
        <ele>472.4</ele>
        <time>2022-04-30T14:31:03Z</time>
      </trkpt>
      <trkpt lat="46.4445" lon="5.50395">
        <ele>470.6</ele>
        <time>2022-04-30T14:31:04Z</time>
      </trkpt>
      <trkpt lat="46.44441" lon="5.50379">
        <ele>469.6</ele>
        <time>2022-04-30T14:31:05Z</time>
      </trkpt>
      <trkpt lat="46.44434" lon="5.50367">
        <ele>468</ele>
        <time>2022-04-30T14:31:06Z</time>
      </trkpt>
      <trkpt lat="46.44424" lon="5.50351">
        <ele>466</ele>
        <time>2022-04-30T14:31:07Z</time>
      </trkpt>
      <trkpt lat="46.44416" lon="5.50338">
        <ele>465</ele>
        <time>2022-04-30T14:31:08Z</time>
      </trkpt>
      <trkpt lat="46.4441" lon="5.50325">
        <ele>463.8</ele>
        <time>2022-04-30T14:31:09Z</time>
      </trkpt>
      <trkpt lat="46.44407" lon="5.5031">
        <ele>463</ele>
        <time>2022-04-30T14:31:10Z</time>
      </trkpt>
      <trkpt lat="46.44406" lon="5.50295">
        <ele>460.8</ele>
        <time>2022-04-30T14:31:11Z</time>
      </trkpt>
      <trkpt lat="46.44407" lon="5.5028">
        <ele>459.4</ele>
        <time>2022-04-30T14:31:12Z</time>
      </trkpt>
      <trkpt lat="46.44412" lon="5.50263">
        <ele>456.8</ele>
        <time>2022-04-30T14:31:13Z</time>
      </trkpt>
      <trkpt lat="46.44417" lon="5.50244">
        <ele>455.6</ele>
        <time>2022-04-30T14:31:14Z</time>
      </trkpt>
      <trkpt lat="46.44421" lon="5.50224">
        <ele>453</ele>
        <time>2022-04-30T14:31:15Z</time>
      </trkpt>
      <trkpt lat="46.44423" lon="5.50203">
        <ele>451.2</ele>
        <time>2022-04-30T14:31:16Z</time>
      </trkpt>
      <trkpt lat="46.44424" lon="5.50184">
        <ele>450.4</ele>
        <time>2022-04-30T14:31:17Z</time>
      </trkpt>
      <trkpt lat="46.44427" lon="5.50165">
        <ele>447.6</ele>
        <time>2022-04-30T14:31:18Z</time>
      </trkpt>
      <trkpt lat="46.44431" lon="5.50151">
        <ele>446.6</ele>
        <time>2022-04-30T14:31:19Z</time>
      </trkpt>
      <trkpt lat="46.4444" lon="5.50134">
        <ele>445.2</ele>
        <time>2022-04-30T14:31:20Z</time>
      </trkpt>
      <trkpt lat="46.44449" lon="5.50121">
        <ele>444.4</ele>
        <time>2022-04-30T14:31:21Z</time>
      </trkpt>
      <trkpt lat="46.4446" lon="5.5011">
        <ele>442.4</ele>
        <time>2022-04-30T14:31:22Z</time>
      </trkpt>
      <trkpt lat="46.44471" lon="5.50098">
        <ele>440.8</ele>
        <time>2022-04-30T14:31:23Z</time>
      </trkpt>
      <trkpt lat="46.44491" lon="5.50074">
        <ele>438.4</ele>
        <time>2022-04-30T14:31:25Z</time>
      </trkpt>
      <trkpt lat="46.44499" lon="5.50063">
        <ele>437.8</ele>
        <time>2022-04-30T14:31:26Z</time>
      </trkpt>
      <trkpt lat="46.44504" lon="5.50049">
        <ele>436.6</ele>
        <time>2022-04-30T14:31:27Z</time>
      </trkpt>
      <trkpt lat="46.44502" lon="5.50023">
        <ele>435</ele>
        <time>2022-04-30T14:31:29Z</time>
      </trkpt>
      <trkpt lat="46.44496" lon="5.50012">
        <ele>433.2</ele>
        <time>2022-04-30T14:31:30Z</time>
      </trkpt>
      <trkpt lat="46.44484" lon="5.49991">
        <ele>431.8</ele>
        <time>2022-04-30T14:31:32Z</time>
      </trkpt>
      <trkpt lat="46.44473" lon="5.49966">
        <ele>429.8</ele>
        <time>2022-04-30T14:31:34Z</time>
      </trkpt>
      <trkpt lat="46.4447" lon="5.49951">
        <ele>429</ele>
        <time>2022-04-30T14:31:35Z</time>
      </trkpt>
      <trkpt lat="46.44469" lon="5.49935">
        <ele>428</ele>
        <time>2022-04-30T14:31:36Z</time>
      </trkpt>
      <trkpt lat="46.4447" lon="5.4992">
        <ele>426.8</ele>
        <time>2022-04-30T14:31:37Z</time>
      </trkpt>
      <trkpt lat="46.4447" lon="5.49892">
        <ele>425</ele>
        <time>2022-04-30T14:31:39Z</time>
      </trkpt>
      <trkpt lat="46.44466" lon="5.49879">
        <ele>424.6</ele>
        <time>2022-04-30T14:31:40Z</time>
      </trkpt>
      <trkpt lat="46.4446" lon="5.49872">
        <ele>423.8</ele>
        <time>2022-04-30T14:31:41Z</time>
      </trkpt>
      <trkpt lat="46.44449" lon="5.49866">
        <ele>423.4</ele>
        <time>2022-04-30T14:31:42Z</time>
      </trkpt>
      <trkpt lat="46.44439" lon="5.49864">
        <ele>421.8</ele>
        <time>2022-04-30T14:31:43Z</time>
      </trkpt>
      <trkpt lat="46.44412" lon="5.4986">
        <ele>419.4</ele>
        <time>2022-04-30T14:31:45Z</time>
      </trkpt>
      <trkpt lat="46.44402" lon="5.4986">
        <ele>417.8</ele>
        <time>2022-04-30T14:31:46Z</time>
      </trkpt>
      <trkpt lat="46.44376" lon="5.49863">
        <ele>415.8</ele>
        <time>2022-04-30T14:31:48Z</time>
      </trkpt>
      <trkpt lat="46.44366" lon="5.49864">
        <ele>414.6</ele>
        <time>2022-04-30T14:31:49Z</time>
      </trkpt>
      <trkpt lat="46.44358" lon="5.49857">
        <ele>413.2</ele>
        <time>2022-04-30T14:31:50Z</time>
      </trkpt>
      <trkpt lat="46.44347" lon="5.49836">
        <ele>411.6</ele>
        <time>2022-04-30T14:31:52Z</time>
      </trkpt>
      <trkpt lat="46.44333" lon="5.49809">
        <ele>410.4</ele>
        <time>2022-04-30T14:31:54Z</time>
      </trkpt>
      <trkpt lat="46.44325" lon="5.49799">
        <ele>410</ele>
        <time>2022-04-30T14:31:55Z</time>
      </trkpt>
      <trkpt lat="46.44309" lon="5.49783">
        <ele>409.2</ele>
        <time>2022-04-30T14:31:57Z</time>
      </trkpt>
      <trkpt lat="46.44292" lon="5.49773">
        <ele>408.6</ele>
        <time>2022-04-30T14:31:59Z</time>
      </trkpt>
      <trkpt lat="46.44269" lon="5.49756">
        <ele>408.4</ele>
        <time>2022-04-30T14:32:02Z</time>
      </trkpt>
      <trkpt lat="46.4426" lon="5.49746">
        <ele>408.4</ele>
        <time>2022-04-30T14:32:03Z</time>
      </trkpt>
      <trkpt lat="46.4424" lon="5.49718">
        <ele>408</ele>
        <time>2022-04-30T14:32:06Z</time>
      </trkpt>
      <trkpt lat="46.44228" lon="5.49701">
        <ele>407.8</ele>
        <time>2022-04-30T14:32:08Z</time>
      </trkpt>
      <trkpt lat="46.44181" lon="5.49648">
        <ele>406.8</ele>
        <time>2022-04-30T14:32:14Z</time>
      </trkpt>
      <trkpt lat="46.44174" lon="5.49639">
        <ele>406.6</ele>
        <time>2022-04-30T14:32:15Z</time>
      </trkpt>
      <trkpt lat="46.44142" lon="5.4959">
        <ele>405.8</ele>
        <time>2022-04-30T14:32:20Z</time>
      </trkpt>
      <trkpt lat="46.44107" lon="5.49546">
        <ele>404.8</ele>
        <time>2022-04-30T14:32:25Z</time>
      </trkpt>
      <trkpt lat="46.44089" lon="5.49521">
        <ele>404.4</ele>
        <time>2022-04-30T14:32:28Z</time>
      </trkpt>
      <trkpt lat="46.44062" lon="5.49487">
        <ele>403.4</ele>
        <time>2022-04-30T14:32:32Z</time>
      </trkpt>
      <trkpt lat="46.44039" lon="5.49462">
        <ele>402.8</ele>
        <time>2022-04-30T14:32:35Z</time>
      </trkpt>
      <trkpt lat="46.44024" lon="5.49447">
        <ele>402.4</ele>
        <time>2022-04-30T14:32:37Z</time>
      </trkpt>
      <trkpt lat="46.44015" lon="5.49435">
        <ele>402</ele>
        <time>2022-04-30T14:32:38Z</time>
      </trkpt>
      <trkpt lat="46.44002" lon="5.49415">
        <ele>401.6</ele>
        <time>2022-04-30T14:32:40Z</time>
      </trkpt>
      <trkpt lat="46.4399" lon="5.49393">
        <ele>401.4</ele>
        <time>2022-04-30T14:32:42Z</time>
      </trkpt>
      <trkpt lat="46.43975" lon="5.49359">
        <ele>400.8</ele>
        <time>2022-04-30T14:32:45Z</time>
      </trkpt>
      <trkpt lat="46.43953" lon="5.49301">
        <ele>400.4</ele>
        <time>2022-04-30T14:32:50Z</time>
      </trkpt>
      <trkpt lat="46.43945" lon="5.49277">
        <ele>400.2</ele>
        <time>2022-04-30T14:32:52Z</time>
      </trkpt>
      <trkpt lat="46.43931" lon="5.49241">
        <ele>399.6</ele>
        <time>2022-04-30T14:32:55Z</time>
      </trkpt>
      <trkpt lat="46.43919" lon="5.49221">
        <ele>399.2</ele>
        <time>2022-04-30T14:32:57Z</time>
      </trkpt>
      <trkpt lat="46.43877" lon="5.49166">
        <ele>398.4</ele>
        <time>2022-04-30T14:33:03Z</time>
      </trkpt>
      <trkpt lat="46.4387" lon="5.49155">
        <ele>398.2</ele>
        <time>2022-04-30T14:33:04Z</time>
      </trkpt>
      <trkpt lat="46.43862" lon="5.49144">
        <ele>398</ele>
        <time>2022-04-30T14:33:05Z</time>
      </trkpt>
      <trkpt lat="46.43847" lon="5.49129">
        <ele>397.8</ele>
        <time>2022-04-30T14:33:07Z</time>
      </trkpt>
      <trkpt lat="46.43815" lon="5.49099">
        <ele>396.8</ele>
        <time>2022-04-30T14:33:11Z</time>
      </trkpt>
      <trkpt lat="46.43806" lon="5.49088">
        <ele>396.8</ele>
        <time>2022-04-30T14:33:12Z</time>
      </trkpt>
      <trkpt lat="46.43769" lon="5.49028">
        <ele>396</ele>
        <time>2022-04-30T14:33:18Z</time>
      </trkpt>
      <trkpt lat="46.4376" lon="5.49005">
        <ele>395.8</ele>
        <time>2022-04-30T14:33:20Z</time>
      </trkpt>
      <trkpt lat="46.43757" lon="5.48993">
        <ele>395.8</ele>
        <time>2022-04-30T14:33:21Z</time>
      </trkpt>
      <trkpt lat="46.43753" lon="5.48979">
        <ele>395.6</ele>
        <time>2022-04-30T14:33:22Z</time>
      </trkpt>
      <trkpt lat="46.43742" lon="5.48906">
        <ele>395.4</ele>
        <time>2022-04-30T14:33:28Z</time>
      </trkpt>
      <trkpt lat="46.43725" lon="5.48846">
        <ele>395.2</ele>
        <time>2022-04-30T14:33:33Z</time>
      </trkpt>
      <trkpt lat="46.43707" lon="5.48792">
        <ele>394.6</ele>
        <time>2022-04-30T14:33:38Z</time>
      </trkpt>
      <trkpt lat="46.43701" lon="5.48769">
        <ele>394.4</ele>
        <time>2022-04-30T14:33:40Z</time>
      </trkpt>
      <trkpt lat="46.43702" lon="5.48757">
        <ele>394.4</ele>
        <time>2022-04-30T14:33:41Z</time>
      </trkpt>
      <trkpt lat="46.43704" lon="5.48745">
        <ele>394.4</ele>
        <time>2022-04-30T14:33:42Z</time>
      </trkpt>
      <trkpt lat="46.43712" lon="5.48724">
        <ele>394.2</ele>
        <time>2022-04-30T14:33:44Z</time>
      </trkpt>
      <trkpt lat="46.43721" lon="5.48706">
        <ele>394.2</ele>
        <time>2022-04-30T14:33:46Z</time>
      </trkpt>
      <trkpt lat="46.43724" lon="5.48696">
        <ele>394.2</ele>
        <time>2022-04-30T14:33:47Z</time>
      </trkpt>
      <trkpt lat="46.43724" lon="5.48685">
        <ele>394.6</ele>
        <time>2022-04-30T14:33:48Z</time>
      </trkpt>
      <trkpt lat="46.43722" lon="5.48676">
        <ele>394.4</ele>
        <time>2022-04-30T14:33:49Z</time>
      </trkpt>
      <trkpt lat="46.43718" lon="5.48667">
        <ele>394.8</ele>
        <time>2022-04-30T14:33:50Z</time>
      </trkpt>
      <trkpt lat="46.43704" lon="5.48645">
        <ele>395.2</ele>
        <time>2022-04-30T14:33:53Z</time>
      </trkpt>
      <trkpt lat="46.43682" lon="5.48613">
        <ele>396.2</ele>
        <time>2022-04-30T14:33:58Z</time>
      </trkpt>
      <trkpt lat="46.43675" lon="5.48603">
        <ele>397</ele>
        <time>2022-04-30T14:34:00Z</time>
      </trkpt>
      <trkpt lat="46.43667" lon="5.48592">
        <ele>397.2</ele>
        <time>2022-04-30T14:34:02Z</time>
      </trkpt>
      <trkpt lat="46.43653" lon="5.48574">
        <ele>398.4</ele>
        <time>2022-04-30T14:34:06Z</time>
      </trkpt>
      <trkpt lat="46.4365" lon="5.4857">
        <ele>398.4</ele>
        <time>2022-04-30T14:34:07Z</time>
      </trkpt>
      <trkpt lat="46.43644" lon="5.48561">
        <ele>399.4</ele>
        <time>2022-04-30T14:34:09Z</time>
      </trkpt>
      <trkpt lat="46.43638" lon="5.4855">
        <ele>400.2</ele>
        <time>2022-04-30T14:34:11Z</time>
      </trkpt>
      <trkpt lat="46.43636" lon="5.48544">
        <ele>400.2</ele>
        <time>2022-04-30T14:34:12Z</time>
      </trkpt>
      <trkpt lat="46.43634" lon="5.48538">
        <ele>400.6</ele>
        <time>2022-04-30T14:34:13Z</time>
      </trkpt>
      <trkpt lat="46.43627" lon="5.48505">
        <ele>401.6</ele>
        <time>2022-04-30T14:34:18Z</time>
      </trkpt>
      <trkpt lat="46.43625" lon="5.48499">
        <ele>401.6</ele>
        <time>2022-04-30T14:34:19Z</time>
      </trkpt>
      <trkpt lat="46.43619" lon="5.48482">
        <ele>401.8</ele>
        <time>2022-04-30T14:34:21Z</time>
      </trkpt>
      <trkpt lat="46.4361" lon="5.48466">
        <ele>401.8</ele>
        <time>2022-04-30T14:34:23Z</time>
      </trkpt>
      <trkpt lat="46.43583" lon="5.4844">
        <ele>401.2</ele>
        <time>2022-04-30T14:34:27Z</time>
      </trkpt>
      <trkpt lat="46.43566" lon="5.48429">
        <ele>400.6</ele>
        <time>2022-04-30T14:34:29Z</time>
      </trkpt>
      <trkpt lat="46.4355" lon="5.48419">
        <ele>399.4</ele>
        <time>2022-04-30T14:34:31Z</time>
      </trkpt>
      <trkpt lat="46.43534" lon="5.48411">
        <ele>398.6</ele>
        <time>2022-04-30T14:34:33Z</time>
      </trkpt>
      <trkpt lat="46.43509" lon="5.48399">
        <ele>398.2</ele>
        <time>2022-04-30T14:34:36Z</time>
      </trkpt>
      <trkpt lat="46.435" lon="5.48393">
        <ele>398.2</ele>
        <time>2022-04-30T14:34:37Z</time>
      </trkpt>
      <trkpt lat="46.43485" lon="5.4838">
        <ele>398</ele>
        <time>2022-04-30T14:34:39Z</time>
      </trkpt>
      <trkpt lat="46.43459" lon="5.48338">
        <ele>397.8</ele>
        <time>2022-04-30T14:34:44Z</time>
      </trkpt>
      <trkpt lat="46.43434" lon="5.48292">
        <ele>398</ele>
        <time>2022-04-30T14:34:50Z</time>
      </trkpt>
      <trkpt lat="46.43421" lon="5.4827">
        <ele>398.4</ele>
        <time>2022-04-30T14:34:54Z</time>
      </trkpt>
      <trkpt lat="46.43413" lon="5.48254">
        <ele>399.6</ele>
        <time>2022-04-30T14:34:57Z</time>
      </trkpt>
      <trkpt lat="46.43406" lon="5.48243">
        <ele>400.4</ele>
        <time>2022-04-30T14:34:59Z</time>
      </trkpt>
      <trkpt lat="46.43405" lon="5.4824">
        <ele>400.8</ele>
        <time>2022-04-30T14:35:00Z</time>
      </trkpt>
      <trkpt lat="46.43398" lon="5.48227">
        <ele>402</ele>
        <time>2022-04-30T14:35:03Z</time>
      </trkpt>
      <trkpt lat="46.43392" lon="5.48214">
        <ele>403.6</ele>
        <time>2022-04-30T14:35:06Z</time>
      </trkpt>
      <trkpt lat="46.43383" lon="5.48201">
        <ele>404.8</ele>
        <time>2022-04-30T14:35:09Z</time>
      </trkpt>
      <trkpt lat="46.43372" lon="5.48185">
        <ele>406</ele>
        <time>2022-04-30T14:35:13Z</time>
      </trkpt>
      <trkpt lat="46.43368" lon="5.4818">
        <ele>406.4</ele>
        <time>2022-04-30T14:35:14Z</time>
      </trkpt>
      <trkpt lat="46.43356" lon="5.48164">
        <ele>407.2</ele>
        <time>2022-04-30T14:35:18Z</time>
      </trkpt>
      <trkpt lat="46.43345" lon="5.48149">
        <ele>408.4</ele>
        <time>2022-04-30T14:35:22Z</time>
      </trkpt>
      <trkpt lat="46.43339" lon="5.48143">
        <ele>408.8</ele>
        <time>2022-04-30T14:35:24Z</time>
      </trkpt>
      <trkpt lat="46.43328" lon="5.48135">
        <ele>409.4</ele>
        <time>2022-04-30T14:35:27Z</time>
      </trkpt>
      <trkpt lat="46.43312" lon="5.48131">
        <ele>410.6</ele>
        <time>2022-04-30T14:35:31Z</time>
      </trkpt>
      <trkpt lat="46.43301" lon="5.48131">
        <ele>411.6</ele>
        <time>2022-04-30T14:35:34Z</time>
      </trkpt>
      <trkpt lat="46.43289" lon="5.48132">
        <ele>412.6</ele>
        <time>2022-04-30T14:35:37Z</time>
      </trkpt>
      <trkpt lat="46.43284" lon="5.48131">
        <ele>412.8</ele>
        <time>2022-04-30T14:35:38Z</time>
      </trkpt>
      <trkpt lat="46.43279" lon="5.4813">
        <ele>413</ele>
        <time>2022-04-30T14:35:39Z</time>
      </trkpt>
      <trkpt lat="46.43265" lon="5.48123">
        <ele>413.4</ele>
        <time>2022-04-30T14:35:42Z</time>
      </trkpt>
      <trkpt lat="46.4325" lon="5.48114">
        <ele>413.6</ele>
        <time>2022-04-30T14:35:45Z</time>
      </trkpt>
      <trkpt lat="46.43235" lon="5.48106">
        <ele>413.8</ele>
        <time>2022-04-30T14:35:48Z</time>
      </trkpt>
      <trkpt lat="46.43228" lon="5.48101">
        <ele>414.2</ele>
        <time>2022-04-30T14:35:50Z</time>
      </trkpt>
      <trkpt lat="46.43215" lon="5.48093">
        <ele>414.8</ele>
        <time>2022-04-30T14:35:53Z</time>
      </trkpt>
      <trkpt lat="46.43197" lon="5.48081">
        <ele>416</ele>
        <time>2022-04-30T14:35:58Z</time>
      </trkpt>
      <trkpt lat="46.43179" lon="5.48069">
        <ele>417</ele>
        <time>2022-04-30T14:36:03Z</time>
      </trkpt>
      <trkpt lat="46.43168" lon="5.48061">
        <ele>417.2</ele>
        <time>2022-04-30T14:36:06Z</time>
      </trkpt>
      <trkpt lat="46.43157" lon="5.48051">
        <ele>418.2</ele>
        <time>2022-04-30T14:36:09Z</time>
      </trkpt>
      <trkpt lat="46.43154" lon="5.48049">
        <ele>418.4</ele>
        <time>2022-04-30T14:36:10Z</time>
      </trkpt>
      <trkpt lat="46.43148" lon="5.4804">
        <ele>418.6</ele>
        <time>2022-04-30T14:36:12Z</time>
      </trkpt>
      <trkpt lat="46.43138" lon="5.48023">
        <ele>419.2</ele>
        <time>2022-04-30T14:36:15Z</time>
      </trkpt>
      <trkpt lat="46.43132" lon="5.48012">
        <ele>419.4</ele>
        <time>2022-04-30T14:36:17Z</time>
      </trkpt>
      <trkpt lat="46.43125" lon="5.48001">
        <ele>419.6</ele>
        <time>2022-04-30T14:36:19Z</time>
      </trkpt>
      <trkpt lat="46.43114" lon="5.47978">
        <ele>420.2</ele>
        <time>2022-04-30T14:36:23Z</time>
      </trkpt>
      <trkpt lat="46.43089" lon="5.47928">
        <ele>420.8</ele>
        <time>2022-04-30T14:36:31Z</time>
      </trkpt>
      <trkpt lat="46.43056" lon="5.47884">
        <ele>421</ele>
        <time>2022-04-30T14:36:39Z</time>
      </trkpt>
      <trkpt lat="46.43053" lon="5.4788">
        <ele>421</ele>
        <time>2022-04-30T14:36:40Z</time>
      </trkpt>
      <trkpt lat="46.43048" lon="5.47866">
        <ele>421.2</ele>
        <time>2022-04-30T14:36:42Z</time>
      </trkpt>
      <trkpt lat="46.43047" lon="5.47858">
        <ele>421.2</ele>
        <time>2022-04-30T14:36:43Z</time>
      </trkpt>
      <trkpt lat="46.43048" lon="5.47849">
        <ele>421.2</ele>
        <time>2022-04-30T14:36:44Z</time>
      </trkpt>
      <trkpt lat="46.43052" lon="5.4783">
        <ele>421.2</ele>
        <time>2022-04-30T14:36:46Z</time>
      </trkpt>
      <trkpt lat="46.43054" lon="5.47821">
        <ele>421.2</ele>
        <time>2022-04-30T14:36:47Z</time>
      </trkpt>
      <trkpt lat="46.43065" lon="5.47763">
        <ele>421</ele>
        <time>2022-04-30T14:36:53Z</time>
      </trkpt>
      <trkpt lat="46.43069" lon="5.47725">
        <ele>420.8</ele>
        <time>2022-04-30T14:36:57Z</time>
      </trkpt>
      <trkpt lat="46.43066" lon="5.47704">
        <ele>420.8</ele>
        <time>2022-04-30T14:36:59Z</time>
      </trkpt>
      <trkpt lat="46.43059" lon="5.47688">
        <ele>421</ele>
        <time>2022-04-30T14:37:01Z</time>
      </trkpt>
      <trkpt lat="46.43052" lon="5.47678">
        <ele>421</ele>
        <time>2022-04-30T14:37:02Z</time>
      </trkpt>
      <trkpt lat="46.43033" lon="5.47657">
        <ele>420.6</ele>
        <time>2022-04-30T14:37:05Z</time>
      </trkpt>
      <trkpt lat="46.43023" lon="5.47635">
        <ele>420.2</ele>
        <time>2022-04-30T14:37:07Z</time>
      </trkpt>
      <trkpt lat="46.43011" lon="5.47604">
        <ele>419.4</ele>
        <time>2022-04-30T14:37:10Z</time>
      </trkpt>
      <trkpt lat="46.43004" lon="5.47592">
        <ele>419.2</ele>
        <time>2022-04-30T14:37:11Z</time>
      </trkpt>
      <trkpt lat="46.42998" lon="5.47585">
        <ele>418.2</ele>
        <time>2022-04-30T14:37:12Z</time>
      </trkpt>
      <trkpt lat="46.42989" lon="5.47576">
        <ele>417.4</ele>
        <time>2022-04-30T14:37:13Z</time>
      </trkpt>
      <trkpt lat="46.42973" lon="5.47566">
        <ele>416</ele>
        <time>2022-04-30T14:37:15Z</time>
      </trkpt>
      <trkpt lat="46.42946" lon="5.4755">
        <ele>414.2</ele>
        <time>2022-04-30T14:37:18Z</time>
      </trkpt>
      <trkpt lat="46.42936" lon="5.47545">
        <ele>413.6</ele>
        <time>2022-04-30T14:37:19Z</time>
      </trkpt>
      <trkpt lat="46.42925" lon="5.47539">
        <ele>413.6</ele>
        <time>2022-04-30T14:37:20Z</time>
      </trkpt>
      <trkpt lat="46.42914" lon="5.47536">
        <ele>413.2</ele>
        <time>2022-04-30T14:37:21Z</time>
      </trkpt>
      <trkpt lat="46.42904" lon="5.47535">
        <ele>412.8</ele>
        <time>2022-04-30T14:37:22Z</time>
      </trkpt>
      <trkpt lat="46.42885" lon="5.47533">
        <ele>411.8</ele>
        <time>2022-04-30T14:37:24Z</time>
      </trkpt>
      <trkpt lat="46.42881" lon="5.4753">
        <ele>411</ele>
        <time>2022-04-30T14:37:25Z</time>
      </trkpt>
      <trkpt lat="46.42876" lon="5.47524">
        <ele>410.4</ele>
        <time>2022-04-30T14:37:26Z</time>
      </trkpt>
      <trkpt lat="46.42875" lon="5.47518">
        <ele>410.2</ele>
        <time>2022-04-30T14:37:27Z</time>
      </trkpt>
      <trkpt lat="46.42878" lon="5.47511">
        <ele>409.6</ele>
        <time>2022-04-30T14:37:28Z</time>
      </trkpt>
      <trkpt lat="46.42885" lon="5.47506">
        <ele>409.2</ele>
        <time>2022-04-30T14:37:29Z</time>
      </trkpt>
      <trkpt lat="46.42893" lon="5.47505">
        <ele>408.6</ele>
        <time>2022-04-30T14:37:30Z</time>
      </trkpt>
      <trkpt lat="46.42908" lon="5.47505">
        <ele>407.6</ele>
        <time>2022-04-30T14:37:32Z</time>
      </trkpt>
      <trkpt lat="46.42937" lon="5.47502">
        <ele>406.4</ele>
        <time>2022-04-30T14:37:35Z</time>
      </trkpt>
      <trkpt lat="46.42955" lon="5.47499">
        <ele>405.8</ele>
        <time>2022-04-30T14:37:37Z</time>
      </trkpt>
      <trkpt lat="46.42974" lon="5.47493">
        <ele>404.8</ele>
        <time>2022-04-30T14:37:39Z</time>
      </trkpt>
      <trkpt lat="46.43004" lon="5.47484">
        <ele>403.6</ele>
        <time>2022-04-30T14:37:42Z</time>
      </trkpt>
      <trkpt lat="46.43024" lon="5.47477">
        <ele>402.4</ele>
        <time>2022-04-30T14:37:44Z</time>
      </trkpt>
      <trkpt lat="46.43044" lon="5.47467">
        <ele>401.4</ele>
        <time>2022-04-30T14:37:46Z</time>
      </trkpt>
      <trkpt lat="46.43054" lon="5.47459">
        <ele>401</ele>
        <time>2022-04-30T14:37:47Z</time>
      </trkpt>
      <trkpt lat="46.43088" lon="5.47423">
        <ele>399.6</ele>
        <time>2022-04-30T14:37:51Z</time>
      </trkpt>
      <trkpt lat="46.43097" lon="5.47413">
        <ele>399.2</ele>
        <time>2022-04-30T14:37:52Z</time>
      </trkpt>
      <trkpt lat="46.43116" lon="5.47396">
        <ele>398.4</ele>
        <time>2022-04-30T14:37:54Z</time>
      </trkpt>
      <trkpt lat="46.43137" lon="5.47382">
        <ele>397.6</ele>
        <time>2022-04-30T14:37:56Z</time>
      </trkpt>
      <trkpt lat="46.43145" lon="5.47376">
        <ele>397.2</ele>
        <time>2022-04-30T14:37:57Z</time>
      </trkpt>
      <trkpt lat="46.43155" lon="5.4737">
        <ele>396</ele>
        <time>2022-04-30T14:37:58Z</time>
      </trkpt>
      <trkpt lat="46.43174" lon="5.47355">
        <ele>394.6</ele>
        <time>2022-04-30T14:38:00Z</time>
      </trkpt>
      <trkpt lat="46.43193" lon="5.47339">
        <ele>393.2</ele>
        <time>2022-04-30T14:38:02Z</time>
      </trkpt>
      <trkpt lat="46.43202" lon="5.47331">
        <ele>392.8</ele>
        <time>2022-04-30T14:38:03Z</time>
      </trkpt>
      <trkpt lat="46.43212" lon="5.4732">
        <ele>392.4</ele>
        <time>2022-04-30T14:38:04Z</time>
      </trkpt>
      <trkpt lat="46.43217" lon="5.47311">
        <ele>391.2</ele>
        <time>2022-04-30T14:38:05Z</time>
      </trkpt>
      <trkpt lat="46.43224" lon="5.47298">
        <ele>390.8</ele>
        <time>2022-04-30T14:38:06Z</time>
      </trkpt>
      <trkpt lat="46.43228" lon="5.47284">
        <ele>390</ele>
        <time>2022-04-30T14:38:07Z</time>
      </trkpt>
      <trkpt lat="46.4323" lon="5.47269">
        <ele>389.6</ele>
        <time>2022-04-30T14:38:08Z</time>
      </trkpt>
      <trkpt lat="46.4323" lon="5.47251">
        <ele>389</ele>
        <time>2022-04-30T14:38:09Z</time>
      </trkpt>
      <trkpt lat="46.43228" lon="5.47236">
        <ele>388</ele>
        <time>2022-04-30T14:38:10Z</time>
      </trkpt>
      <trkpt lat="46.43222" lon="5.47209">
        <ele>386.8</ele>
        <time>2022-04-30T14:38:12Z</time>
      </trkpt>
      <trkpt lat="46.43217" lon="5.47192">
        <ele>386.6</ele>
        <time>2022-04-30T14:38:13Z</time>
      </trkpt>
      <trkpt lat="46.43208" lon="5.47166">
        <ele>385.4</ele>
        <time>2022-04-30T14:38:15Z</time>
      </trkpt>
      <trkpt lat="46.43203" lon="5.47153">
        <ele>384.4</ele>
        <time>2022-04-30T14:38:16Z</time>
      </trkpt>
      <trkpt lat="46.43194" lon="5.47139">
        <ele>383.8</ele>
        <time>2022-04-30T14:38:17Z</time>
      </trkpt>
      <trkpt lat="46.43186" lon="5.47128">
        <ele>383.4</ele>
        <time>2022-04-30T14:38:18Z</time>
      </trkpt>
      <trkpt lat="46.43179" lon="5.47119">
        <ele>382.8</ele>
        <time>2022-04-30T14:38:19Z</time>
      </trkpt>
      <trkpt lat="46.43159" lon="5.471">
        <ele>382.2</ele>
        <time>2022-04-30T14:38:21Z</time>
      </trkpt>
      <trkpt lat="46.4314" lon="5.47082">
        <ele>381.4</ele>
        <time>2022-04-30T14:38:23Z</time>
      </trkpt>
      <trkpt lat="46.43115" lon="5.47056">
        <ele>380.6</ele>
        <time>2022-04-30T14:38:26Z</time>
      </trkpt>
      <trkpt lat="46.43109" lon="5.47045">
        <ele>380.4</ele>
        <time>2022-04-30T14:38:27Z</time>
      </trkpt>
      <trkpt lat="46.43106" lon="5.47035">
        <ele>380.2</ele>
        <time>2022-04-30T14:38:28Z</time>
      </trkpt>
      <trkpt lat="46.43105" lon="5.47007">
        <ele>379.8</ele>
        <time>2022-04-30T14:38:30Z</time>
      </trkpt>
      <trkpt lat="46.4311" lon="5.46976">
        <ele>379.2</ele>
        <time>2022-04-30T14:38:32Z</time>
      </trkpt>
      <trkpt lat="46.43114" lon="5.46966">
        <ele>378.8</ele>
        <time>2022-04-30T14:38:33Z</time>
      </trkpt>
      <trkpt lat="46.43117" lon="5.46953">
        <ele>378.4</ele>
        <time>2022-04-30T14:38:34Z</time>
      </trkpt>
      <trkpt lat="46.4313" lon="5.46917">
        <ele>377.6</ele>
        <time>2022-04-30T14:38:37Z</time>
      </trkpt>
      <trkpt lat="46.43145" lon="5.46871">
        <ele>377</ele>
        <time>2022-04-30T14:38:41Z</time>
      </trkpt>
      <trkpt lat="46.43163" lon="5.46804">
        <ele>377.4</ele>
        <time>2022-04-30T14:38:47Z</time>
      </trkpt>
      <trkpt lat="46.43168" lon="5.46771">
        <ele>377.4</ele>
        <time>2022-04-30T14:38:51Z</time>
      </trkpt>
      <trkpt lat="46.43174" lon="5.46708">
        <ele>377.8</ele>
        <time>2022-04-30T14:38:59Z</time>
      </trkpt>
      <trkpt lat="46.43188" lon="5.46637">
        <ele>378.2</ele>
        <time>2022-04-30T14:39:07Z</time>
      </trkpt>
      <trkpt lat="46.4319" lon="5.46629">
        <ele>378.4</ele>
        <time>2022-04-30T14:39:08Z</time>
      </trkpt>
      <trkpt lat="46.432" lon="5.46606">
        <ele>378.4</ele>
        <time>2022-04-30T14:39:11Z</time>
      </trkpt>
      <trkpt lat="46.4322" lon="5.4657">
        <ele>378.8</ele>
        <time>2022-04-30T14:39:17Z</time>
      </trkpt>
      <trkpt lat="46.43242" lon="5.46541">
        <ele>379.2</ele>
        <time>2022-04-30T14:39:23Z</time>
      </trkpt>
      <trkpt lat="46.43268" lon="5.46505">
        <ele>380.2</ele>
        <time>2022-04-30T14:39:30Z</time>
      </trkpt>
      <trkpt lat="46.43272" lon="5.46499">
        <ele>380.4</ele>
        <time>2022-04-30T14:39:31Z</time>
      </trkpt>
      <trkpt lat="46.43284" lon="5.46472">
        <ele>380.4</ele>
        <time>2022-04-30T14:39:35Z</time>
      </trkpt>
      <trkpt lat="46.43288" lon="5.46455">
        <ele>380.4</ele>
        <time>2022-04-30T14:39:37Z</time>
      </trkpt>
      <trkpt lat="46.43301" lon="5.46394">
        <ele>379.8</ele>
        <time>2022-04-30T14:39:44Z</time>
      </trkpt>
      <trkpt lat="46.4332" lon="5.46328">
        <ele>379.8</ele>
        <time>2022-04-30T14:39:52Z</time>
      </trkpt>
      <trkpt lat="46.43346" lon="5.46268">
        <ele>379.6</ele>
        <time>2022-04-30T14:40:00Z</time>
      </trkpt>
      <trkpt lat="46.43365" lon="5.46232">
        <ele>379.4</ele>
        <time>2022-04-30T14:40:05Z</time>
      </trkpt>
      <trkpt lat="46.43371" lon="5.46224">
        <ele>379.2</ele>
        <time>2022-04-30T14:40:06Z</time>
      </trkpt>
      <trkpt lat="46.43376" lon="5.46218">
        <ele>379</ele>
        <time>2022-04-30T14:40:07Z</time>
      </trkpt>
      <trkpt lat="46.43401" lon="5.46196">
        <ele>378.2</ele>
        <time>2022-04-30T14:40:11Z</time>
      </trkpt>
      <trkpt lat="46.43415" lon="5.46185">
        <ele>377.8</ele>
        <time>2022-04-30T14:40:13Z</time>
      </trkpt>
      <trkpt lat="46.43442" lon="5.46162">
        <ele>377</ele>
        <time>2022-04-30T14:40:17Z</time>
      </trkpt>
      <trkpt lat="46.43467" lon="5.4614">
        <ele>376.2</ele>
        <time>2022-04-30T14:40:21Z</time>
      </trkpt>
      <trkpt lat="46.43478" lon="5.4613">
        <ele>376</ele>
        <time>2022-04-30T14:40:23Z</time>
      </trkpt>
      <trkpt lat="46.43502" lon="5.46109">
        <ele>375.6</ele>
        <time>2022-04-30T14:40:27Z</time>
      </trkpt>
      <trkpt lat="46.43548" lon="5.46084">
        <ele>375.2</ele>
        <time>2022-04-30T14:40:34Z</time>
      </trkpt>
      <trkpt lat="46.43593" lon="5.46073">
        <ele>375.2</ele>
        <time>2022-04-30T14:40:41Z</time>
      </trkpt>
      <trkpt lat="46.43634" lon="5.46065">
        <ele>374.8</ele>
        <time>2022-04-30T14:40:47Z</time>
      </trkpt>
      <trkpt lat="46.43655" lon="5.46058">
        <ele>374.8</ele>
        <time>2022-04-30T14:40:50Z</time>
      </trkpt>
      <trkpt lat="46.43677" lon="5.46046">
        <ele>374.4</ele>
        <time>2022-04-30T14:40:53Z</time>
      </trkpt>
      <trkpt lat="46.43688" lon="5.46034">
        <ele>374.2</ele>
        <time>2022-04-30T14:40:55Z</time>
      </trkpt>
      <trkpt lat="46.43694" lon="5.46025">
        <ele>374.2</ele>
        <time>2022-04-30T14:40:56Z</time>
      </trkpt>
      <trkpt lat="46.43708" lon="5.46001">
        <ele>373.8</ele>
        <time>2022-04-30T14:40:59Z</time>
      </trkpt>
      <trkpt lat="46.43713" lon="5.45994">
        <ele>373.8</ele>
        <time>2022-04-30T14:41:00Z</time>
      </trkpt>
      <trkpt lat="46.43742" lon="5.45959">
        <ele>373</ele>
        <time>2022-04-30T14:41:05Z</time>
      </trkpt>
      <trkpt lat="46.43767" lon="5.45929">
        <ele>373</ele>
        <time>2022-04-30T14:41:10Z</time>
      </trkpt>
      <trkpt lat="46.43787" lon="5.4591">
        <ele>373.2</ele>
        <time>2022-04-30T14:41:14Z</time>
      </trkpt>
      <trkpt lat="46.43793" lon="5.45906">
        <ele>373.2</ele>
        <time>2022-04-30T14:41:15Z</time>
      </trkpt>
      <trkpt lat="46.43799" lon="5.45903">
        <ele>373.2</ele>
        <time>2022-04-30T14:41:16Z</time>
      </trkpt>
      <trkpt lat="46.43827" lon="5.45889">
        <ele>373.8</ele>
        <time>2022-04-30T14:41:21Z</time>
      </trkpt>
      <trkpt lat="46.43882" lon="5.4586">
        <ele>374.2</ele>
        <time>2022-04-30T14:41:30Z</time>
      </trkpt>
      <trkpt lat="46.43896" lon="5.45843">
        <ele>373.8</ele>
        <time>2022-04-30T14:41:33Z</time>
      </trkpt>
      <trkpt lat="46.43899" lon="5.45835">
        <ele>373.6</ele>
        <time>2022-04-30T14:41:34Z</time>
      </trkpt>
      <trkpt lat="46.43901" lon="5.45826">
        <ele>373.6</ele>
        <time>2022-04-30T14:41:35Z</time>
      </trkpt>
      <trkpt lat="46.43899" lon="5.45806">
        <ele>373.4</ele>
        <time>2022-04-30T14:41:37Z</time>
      </trkpt>
      <trkpt lat="46.43895" lon="5.4579">
        <ele>373</ele>
        <time>2022-04-30T14:41:39Z</time>
      </trkpt>
      <trkpt lat="46.4389" lon="5.45774">
        <ele>372.6</ele>
        <time>2022-04-30T14:41:41Z</time>
      </trkpt>
      <trkpt lat="46.43887" lon="5.45765">
        <ele>372.6</ele>
        <time>2022-04-30T14:41:42Z</time>
      </trkpt>
      <trkpt lat="46.43878" lon="5.45719">
        <ele>372.4</ele>
        <time>2022-04-30T14:41:48Z</time>
      </trkpt>
      <trkpt lat="46.43879" lon="5.45707">
        <ele>372.4</ele>
        <time>2022-04-30T14:41:50Z</time>
      </trkpt>
      <trkpt lat="46.43883" lon="5.45698">
        <ele>372.4</ele>
        <time>2022-04-30T14:41:52Z</time>
      </trkpt>
      <trkpt lat="46.4389" lon="5.45695">
        <ele>372.4</ele>
        <time>2022-04-30T14:41:54Z</time>
      </trkpt>
      <trkpt lat="46.43895" lon="5.45694">
        <ele>372.4</ele>
        <time>2022-04-30T14:41:55Z</time>
      </trkpt>
      <trkpt lat="46.43924" lon="5.4569">
        <ele>372.2</ele>
        <time>2022-04-30T14:42:00Z</time>
      </trkpt>
      <trkpt lat="46.43966" lon="5.45683">
        <ele>372.2</ele>
        <time>2022-04-30T14:42:07Z</time>
      </trkpt>
      <trkpt lat="46.44015" lon="5.45674">
        <ele>372.8</ele>
        <time>2022-04-30T14:42:15Z</time>
      </trkpt>
      <trkpt lat="46.44073" lon="5.45663">
        <ele>373.4</ele>
        <time>2022-04-30T14:42:25Z</time>
      </trkpt>
      <trkpt lat="46.44079" lon="5.45662">
        <ele>373.4</ele>
        <time>2022-04-30T14:42:26Z</time>
      </trkpt>
      <trkpt lat="46.44116" lon="5.45656">
        <ele>374</ele>
        <time>2022-04-30T14:42:33Z</time>
      </trkpt>
      <trkpt lat="46.44126" lon="5.45654">
        <ele>374.2</ele>
        <time>2022-04-30T14:42:35Z</time>
      </trkpt>
      <trkpt lat="46.44163" lon="5.45646">
        <ele>374.4</ele>
        <time>2022-04-30T14:42:42Z</time>
      </trkpt>
      <trkpt lat="46.44214" lon="5.45637">
        <ele>374.8</ele>
        <time>2022-04-30T14:42:52Z</time>
      </trkpt>
      <trkpt lat="46.44249" lon="5.45631">
        <ele>375.4</ele>
        <time>2022-04-30T14:42:59Z</time>
      </trkpt>
      <trkpt lat="46.44259" lon="5.4563">
        <ele>375.6</ele>
        <time>2022-04-30T14:43:01Z</time>
      </trkpt>
      <trkpt lat="46.44289" lon="5.45631">
        <ele>376.2</ele>
        <time>2022-04-30T14:43:07Z</time>
      </trkpt>
      <trkpt lat="46.44294" lon="5.45631">
        <ele>376.4</ele>
        <time>2022-04-30T14:43:08Z</time>
      </trkpt>
      <trkpt lat="46.44299" lon="5.45631">
        <ele>376.4</ele>
        <time>2022-04-30T14:43:09Z</time>
      </trkpt>
      <trkpt lat="46.44341" lon="5.45636">
        <ele>377</ele>
        <time>2022-04-30T14:43:17Z</time>
      </trkpt>
      <trkpt lat="46.44361" lon="5.45638">
        <ele>377.4</ele>
        <time>2022-04-30T14:43:21Z</time>
      </trkpt>
      <trkpt lat="46.44382" lon="5.4564">
        <ele>377.8</ele>
        <time>2022-04-30T14:43:25Z</time>
      </trkpt>
      <trkpt lat="46.44431" lon="5.45646">
        <ele>378.6</ele>
        <time>2022-04-30T14:43:35Z</time>
      </trkpt>
      <trkpt lat="46.44465" lon="5.4565">
        <ele>379.6</ele>
        <time>2022-04-30T14:43:42Z</time>
      </trkpt>
      <trkpt lat="46.44479" lon="5.45651">
        <ele>380</ele>
        <time>2022-04-30T14:43:45Z</time>
      </trkpt>
      <trkpt lat="46.44512" lon="5.45658">
        <ele>380.8</ele>
        <time>2022-04-30T14:43:51Z</time>
      </trkpt>
      <trkpt lat="46.44535" lon="5.45665">
        <ele>380.8</ele>
        <time>2022-04-30T14:43:55Z</time>
      </trkpt>
      <trkpt lat="46.4459" lon="5.45682">
        <ele>380.6</ele>
        <time>2022-04-30T14:44:04Z</time>
      </trkpt>
      <trkpt lat="46.44639" lon="5.45698">
        <ele>380.4</ele>
        <time>2022-04-30T14:44:12Z</time>
      </trkpt>
      <trkpt lat="46.44692" lon="5.45717">
        <ele>380.2</ele>
        <time>2022-04-30T14:44:21Z</time>
      </trkpt>
      <trkpt lat="46.44698" lon="5.45719">
        <ele>380.2</ele>
        <time>2022-04-30T14:44:22Z</time>
      </trkpt>
      <trkpt lat="46.44746" lon="5.45742">
        <ele>380.2</ele>
        <time>2022-04-30T14:44:31Z</time>
      </trkpt>
      <trkpt lat="46.44794" lon="5.45768">
        <ele>381</ele>
        <time>2022-04-30T14:44:40Z</time>
      </trkpt>
      <trkpt lat="46.44847" lon="5.45797">
        <ele>381.6</ele>
        <time>2022-04-30T14:44:50Z</time>
      </trkpt>
      <trkpt lat="46.44852" lon="5.45801">
        <ele>381.6</ele>
        <time>2022-04-30T14:44:51Z</time>
      </trkpt>
      <trkpt lat="46.44889" lon="5.45822">
        <ele>382</ele>
        <time>2022-04-30T14:44:58Z</time>
      </trkpt>
      <trkpt lat="46.44915" lon="5.45838">
        <ele>382.2</ele>
        <time>2022-04-30T14:45:03Z</time>
      </trkpt>
      <trkpt lat="46.44961" lon="5.45864">
        <ele>381.6</ele>
        <time>2022-04-30T14:45:11Z</time>
      </trkpt>
      <trkpt lat="46.44979" lon="5.45875">
        <ele>381.2</ele>
        <time>2022-04-30T14:45:14Z</time>
      </trkpt>
      <trkpt lat="46.45014" lon="5.45897">
        <ele>380</ele>
        <time>2022-04-30T14:45:20Z</time>
      </trkpt>
      <trkpt lat="46.4506" lon="5.45924">
        <ele>378.8</ele>
        <time>2022-04-30T14:45:27Z</time>
      </trkpt>
      <trkpt lat="46.45111" lon="5.45949">
        <ele>378</ele>
        <time>2022-04-30T14:45:35Z</time>
      </trkpt>
      <trkpt lat="46.45141" lon="5.45972">
        <ele>378</ele>
        <time>2022-04-30T14:45:41Z</time>
      </trkpt>
      <trkpt lat="46.4517" lon="5.45993">
        <ele>378</ele>
        <time>2022-04-30T14:45:47Z</time>
      </trkpt>
      <trkpt lat="46.45185" lon="5.46002">
        <ele>378.4</ele>
        <time>2022-04-30T14:45:50Z</time>
      </trkpt>
      <trkpt lat="46.45195" lon="5.46007">
        <ele>378.8</ele>
        <time>2022-04-30T14:45:52Z</time>
      </trkpt>
      <trkpt lat="46.45221" lon="5.46035">
        <ele>379.8</ele>
        <time>2022-04-30T14:45:59Z</time>
      </trkpt>
      <trkpt lat="46.45224" lon="5.46039">
        <ele>380</ele>
        <time>2022-04-30T14:46:00Z</time>
      </trkpt>
      <trkpt lat="46.45228" lon="5.46041">
        <ele>380</ele>
        <time>2022-04-30T14:46:01Z</time>
      </trkpt>
      <trkpt lat="46.45237" lon="5.46044">
        <ele>380.6</ele>
        <time>2022-04-30T14:46:03Z</time>
      </trkpt>
      <trkpt lat="46.45241" lon="5.46043">
        <ele>380.8</ele>
        <time>2022-04-30T14:46:04Z</time>
      </trkpt>
      <trkpt lat="46.45244" lon="5.4604">
        <ele>381</ele>
        <time>2022-04-30T14:46:05Z</time>
      </trkpt>
      <trkpt lat="46.45249" lon="5.46031">
        <ele>381.8</ele>
        <time>2022-04-30T14:46:07Z</time>
      </trkpt>
      <trkpt lat="46.45252" lon="5.46025">
        <ele>382</ele>
        <time>2022-04-30T14:46:08Z</time>
      </trkpt>
      <trkpt lat="46.45255" lon="5.46018">
        <ele>382</ele>
        <time>2022-04-30T14:46:09Z</time>
      </trkpt>
      <trkpt lat="46.45269" lon="5.45984">
        <ele>382</ele>
        <time>2022-04-30T14:46:13Z</time>
      </trkpt>
      <trkpt lat="46.45284" lon="5.45917">
        <ele>381</ele>
        <time>2022-04-30T14:46:19Z</time>
      </trkpt>
      <trkpt lat="46.45293" lon="5.45883">
        <ele>379.8</ele>
        <time>2022-04-30T14:46:22Z</time>
      </trkpt>
      <trkpt lat="46.45297" lon="5.4587">
        <ele>378.6</ele>
        <time>2022-04-30T14:46:23Z</time>
      </trkpt>
      <trkpt lat="46.45303" lon="5.4585">
        <ele>377.6</ele>
        <time>2022-04-30T14:46:25Z</time>
      </trkpt>
      <trkpt lat="46.45307" lon="5.4584">
        <ele>377.2</ele>
        <time>2022-04-30T14:46:26Z</time>
      </trkpt>
      <trkpt lat="46.45319" lon="5.45797">
        <ele>376</ele>
        <time>2022-04-30T14:46:30Z</time>
      </trkpt>
      <trkpt lat="46.4532" lon="5.45787">
        <ele>375.8</ele>
        <time>2022-04-30T14:46:31Z</time>
      </trkpt>
      <trkpt lat="46.45332" lon="5.45715">
        <ele>375.2</ele>
        <time>2022-04-30T14:46:38Z</time>
      </trkpt>
      <trkpt lat="46.45345" lon="5.45635">
        <ele>375</ele>
        <time>2022-04-30T14:46:46Z</time>
      </trkpt>
      <trkpt lat="46.45349" lon="5.45626">
        <ele>375</ele>
        <time>2022-04-30T14:46:47Z</time>
      </trkpt>
      <trkpt lat="46.45357" lon="5.4561">
        <ele>375</ele>
        <time>2022-04-30T14:46:49Z</time>
      </trkpt>
      <trkpt lat="46.45363" lon="5.45605">
        <ele>375</ele>
        <time>2022-04-30T14:46:50Z</time>
      </trkpt>
      <trkpt lat="46.45369" lon="5.45601">
        <ele>375</ele>
        <time>2022-04-30T14:46:51Z</time>
      </trkpt>
      <trkpt lat="46.45381" lon="5.45596">
        <ele>375.2</ele>
        <time>2022-04-30T14:46:53Z</time>
      </trkpt>
      <trkpt lat="46.45387" lon="5.45594">
        <ele>375.2</ele>
        <time>2022-04-30T14:46:54Z</time>
      </trkpt>
      <trkpt lat="46.45393" lon="5.45594">
        <ele>375.2</ele>
        <time>2022-04-30T14:46:55Z</time>
      </trkpt>
      <trkpt lat="46.45405" lon="5.45596">
        <ele>375.2</ele>
        <time>2022-04-30T14:46:57Z</time>
      </trkpt>
      <trkpt lat="46.4541" lon="5.45599">
        <ele>375.2</ele>
        <time>2022-04-30T14:46:58Z</time>
      </trkpt>
      <trkpt lat="46.4544" lon="5.45621">
        <ele>375.4</ele>
        <time>2022-04-30T14:47:04Z</time>
      </trkpt>
      <trkpt lat="46.45473" lon="5.45649">
        <ele>376.8</ele>
        <time>2022-04-30T14:47:12Z</time>
      </trkpt>
      <trkpt lat="46.45482" lon="5.45655">
        <ele>377</ele>
        <time>2022-04-30T14:47:14Z</time>
      </trkpt>
      <trkpt lat="46.45503" lon="5.45669">
        <ele>377.8</ele>
        <time>2022-04-30T14:47:19Z</time>
      </trkpt>
      <trkpt lat="46.45519" lon="5.45678">
        <ele>378.2</ele>
        <time>2022-04-30T14:47:23Z</time>
      </trkpt>
      <trkpt lat="46.45526" lon="5.45682">
        <ele>378.6</ele>
        <time>2022-04-30T14:47:25Z</time>
      </trkpt>
      <trkpt lat="46.45536" lon="5.45687">
        <ele>379.2</ele>
        <time>2022-04-30T14:47:28Z</time>
      </trkpt>
      <trkpt lat="46.4554" lon="5.4569">
        <ele>379.4</ele>
        <time>2022-04-30T14:47:29Z</time>
      </trkpt>
      <trkpt lat="46.45553" lon="5.45696">
        <ele>380.6</ele>
        <time>2022-04-30T14:47:33Z</time>
      </trkpt>
      <trkpt lat="46.45568" lon="5.457">
        <ele>381.4</ele>
        <time>2022-04-30T14:47:37Z</time>
      </trkpt>
      <trkpt lat="46.45575" lon="5.45703">
        <ele>381.8</ele>
        <time>2022-04-30T14:47:39Z</time>
      </trkpt>
      <trkpt lat="46.45595" lon="5.45706">
        <ele>383</ele>
        <time>2022-04-30T14:47:44Z</time>
      </trkpt>
      <trkpt lat="46.45599" lon="5.45705">
        <ele>383</ele>
        <time>2022-04-30T14:47:45Z</time>
      </trkpt>
      <trkpt lat="46.45618" lon="5.45699">
        <ele>384</ele>
        <time>2022-04-30T14:47:50Z</time>
      </trkpt>
      <trkpt lat="46.45634" lon="5.45692">
        <ele>385.2</ele>
        <time>2022-04-30T14:47:54Z</time>
      </trkpt>
      <trkpt lat="46.45638" lon="5.4569">
        <ele>385.2</ele>
        <time>2022-04-30T14:47:55Z</time>
      </trkpt>
      <trkpt lat="46.45664" lon="5.45675">
        <ele>386.2</ele>
        <time>2022-04-30T14:48:02Z</time>
      </trkpt>
      <trkpt lat="46.45671" lon="5.4567">
        <ele>386.6</ele>
        <time>2022-04-30T14:48:04Z</time>
      </trkpt>
      <trkpt lat="46.45709" lon="5.45647">
        <ele>387.4</ele>
        <time>2022-04-30T14:48:14Z</time>
      </trkpt>
      <trkpt lat="46.45751" lon="5.45623">
        <ele>388.4</ele>
        <time>2022-04-30T14:48:24Z</time>
      </trkpt>
      <trkpt lat="46.45778" lon="5.45608">
        <ele>388.8</ele>
        <time>2022-04-30T14:48:30Z</time>
      </trkpt>
      <trkpt lat="46.45792" lon="5.456">
        <ele>388.8</ele>
        <time>2022-04-30T14:48:33Z</time>
      </trkpt>
      <trkpt lat="46.45837" lon="5.45575">
        <ele>388.6</ele>
        <time>2022-04-30T14:48:42Z</time>
      </trkpt>
      <trkpt lat="46.45867" lon="5.45558">
        <ele>388.4</ele>
        <time>2022-04-30T14:48:47Z</time>
      </trkpt>
      <trkpt lat="46.45898" lon="5.4554">
        <ele>387.6</ele>
        <time>2022-04-30T14:48:52Z</time>
      </trkpt>
      <trkpt lat="46.45918" lon="5.45529">
        <ele>386.8</ele>
        <time>2022-04-30T14:48:55Z</time>
      </trkpt>
      <trkpt lat="46.4594" lon="5.45516">
        <ele>386.4</ele>
        <time>2022-04-30T14:48:58Z</time>
      </trkpt>
      <trkpt lat="46.45974" lon="5.45496">
        <ele>385.2</ele>
        <time>2022-04-30T14:49:03Z</time>
      </trkpt>
      <trkpt lat="46.46007" lon="5.45477">
        <ele>383.8</ele>
        <time>2022-04-30T14:49:08Z</time>
      </trkpt>
      <trkpt lat="46.46034" lon="5.45461">
        <ele>383</ele>
        <time>2022-04-30T14:49:12Z</time>
      </trkpt>
      <trkpt lat="46.46047" lon="5.45454">
        <ele>382.8</ele>
        <time>2022-04-30T14:49:14Z</time>
      </trkpt>
      <trkpt lat="46.46089" lon="5.45428">
        <ele>382.4</ele>
        <time>2022-04-30T14:49:21Z</time>
      </trkpt>
      <trkpt lat="46.46131" lon="5.45401">
        <ele>381.6</ele>
        <time>2022-04-30T14:49:28Z</time>
      </trkpt>
      <trkpt lat="46.46149" lon="5.45389">
        <ele>381.4</ele>
        <time>2022-04-30T14:49:31Z</time>
      </trkpt>
      <trkpt lat="46.462" lon="5.45352">
        <ele>380.4</ele>
        <time>2022-04-30T14:49:40Z</time>
      </trkpt>
      <trkpt lat="46.46211" lon="5.45345">
        <ele>380.2</ele>
        <time>2022-04-30T14:49:42Z</time>
      </trkpt>
      <trkpt lat="46.46259" lon="5.45309">
        <ele>380.2</ele>
        <time>2022-04-30T14:49:51Z</time>
      </trkpt>
      <trkpt lat="46.46292" lon="5.45282">
        <ele>380.2</ele>
        <time>2022-04-30T14:49:57Z</time>
      </trkpt>
      <trkpt lat="46.46336" lon="5.45246">
        <ele>379.8</ele>
        <time>2022-04-30T14:50:05Z</time>
      </trkpt>
      <trkpt lat="46.46343" lon="5.45241">
        <ele>379.6</ele>
        <time>2022-04-30T14:50:06Z</time>
      </trkpt>
      <trkpt lat="46.46382" lon="5.45218">
        <ele>379</ele>
        <time>2022-04-30T14:50:13Z</time>
      </trkpt>
      <trkpt lat="46.46405" lon="5.45202">
        <ele>379.2</ele>
        <time>2022-04-30T14:50:17Z</time>
      </trkpt>
      <trkpt lat="46.4641" lon="5.45197">
        <ele>379.2</ele>
        <time>2022-04-30T14:50:18Z</time>
      </trkpt>
      <trkpt lat="46.46417" lon="5.45186">
        <ele>379.4</ele>
        <time>2022-04-30T14:50:20Z</time>
      </trkpt>
      <trkpt lat="46.46424" lon="5.45173">
        <ele>379.6</ele>
        <time>2022-04-30T14:50:22Z</time>
      </trkpt>
      <trkpt lat="46.46427" lon="5.45165">
        <ele>379.6</ele>
        <time>2022-04-30T14:50:23Z</time>
      </trkpt>
      <trkpt lat="46.46429" lon="5.45157">
        <ele>379.6</ele>
        <time>2022-04-30T14:50:24Z</time>
      </trkpt>
      <trkpt lat="46.46432" lon="5.45142">
        <ele>379.8</ele>
        <time>2022-04-30T14:50:26Z</time>
      </trkpt>
      <trkpt lat="46.46434" lon="5.45133">
        <ele>379.8</ele>
        <time>2022-04-30T14:50:27Z</time>
      </trkpt>
      <trkpt lat="46.46433" lon="5.45125">
        <ele>379.8</ele>
        <time>2022-04-30T14:50:28Z</time>
      </trkpt>
      <trkpt lat="46.46429" lon="5.45093">
        <ele>380.2</ele>
        <time>2022-04-30T14:50:32Z</time>
      </trkpt>
      <trkpt lat="46.46423" lon="5.4506">
        <ele>380.8</ele>
        <time>2022-04-30T14:50:36Z</time>
      </trkpt>
      <trkpt lat="46.46419" lon="5.45044">
        <ele>380.8</ele>
        <time>2022-04-30T14:50:38Z</time>
      </trkpt>
      <trkpt lat="46.464" lon="5.44976">
        <ele>380.4</ele>
        <time>2022-04-30T14:50:46Z</time>
      </trkpt>
      <trkpt lat="46.46392" lon="5.44934">
        <ele>381</ele>
        <time>2022-04-30T14:50:52Z</time>
      </trkpt>
      <trkpt lat="46.46387" lon="5.44921">
        <ele>380.8</ele>
        <time>2022-04-30T14:50:56Z</time>
      </trkpt>
      <trkpt lat="46.46385" lon="5.44918">
        <ele>381.2</ele>
        <time>2022-04-30T14:50:58Z</time>
      </trkpt>
      <trkpt lat="46.46385" lon="5.44918">
        <ele>381.4</ele>
        <time>2022-04-30T14:51:00Z</time>
      </trkpt>
      <trkpt lat="46.46382" lon="5.44912">
        <ele>380.8</ele>
        <time>2022-04-30T14:52:20Z</time>
      </trkpt>
      <trkpt lat="46.46376" lon="5.44904">
        <ele>380.8</ele>
        <time>2022-04-30T14:52:23Z</time>
      </trkpt>
      <trkpt lat="46.46363" lon="5.44883">
        <ele>381.2</ele>
        <time>2022-04-30T14:52:29Z</time>
      </trkpt>
      <trkpt lat="46.46355" lon="5.44859">
        <ele>381.6</ele>
        <time>2022-04-30T14:52:34Z</time>
      </trkpt>
      <trkpt lat="46.46354" lon="5.44855">
        <ele>381.6</ele>
        <time>2022-04-30T14:52:35Z</time>
      </trkpt>
      <trkpt lat="46.46351" lon="5.44813">
        <ele>382.2</ele>
        <time>2022-04-30T14:52:42Z</time>
      </trkpt>
      <trkpt lat="46.46352" lon="5.44801">
        <ele>382.4</ele>
        <time>2022-04-30T14:52:44Z</time>
      </trkpt>
      <trkpt lat="46.46353" lon="5.44789">
        <ele>382.6</ele>
        <time>2022-04-30T14:52:46Z</time>
      </trkpt>
      <trkpt lat="46.46353" lon="5.44778">
        <ele>383</ele>
        <time>2022-04-30T14:52:48Z</time>
      </trkpt>
      <trkpt lat="46.46354" lon="5.44763">
        <ele>383.6</ele>
        <time>2022-04-30T14:52:51Z</time>
      </trkpt>
      <trkpt lat="46.46355" lon="5.44742">
        <ele>384.8</ele>
        <time>2022-04-30T14:52:55Z</time>
      </trkpt>
      <trkpt lat="46.46354" lon="5.44737">
        <ele>385</ele>
        <time>2022-04-30T14:52:56Z</time>
      </trkpt>
      <trkpt lat="46.46354" lon="5.44723">
        <ele>386</ele>
        <time>2022-04-30T14:52:59Z</time>
      </trkpt>
      <trkpt lat="46.46353" lon="5.44719">
        <ele>386</ele>
        <time>2022-04-30T14:53:00Z</time>
      </trkpt>
      <trkpt lat="46.46348" lon="5.44711">
        <ele>386.6</ele>
        <time>2022-04-30T14:53:02Z</time>
      </trkpt>
      <trkpt lat="46.46344" lon="5.44709">
        <ele>386.6</ele>
        <time>2022-04-30T14:53:03Z</time>
      </trkpt>
      <trkpt lat="46.4634" lon="5.44707">
        <ele>387.2</ele>
        <time>2022-04-30T14:53:04Z</time>
      </trkpt>
      <trkpt lat="46.46331" lon="5.44703">
        <ele>387.6</ele>
        <time>2022-04-30T14:53:06Z</time>
      </trkpt>
      <trkpt lat="46.46323" lon="5.447">
        <ele>387.8</ele>
        <time>2022-04-30T14:53:08Z</time>
      </trkpt>
      <trkpt lat="46.46312" lon="5.44693">
        <ele>388.2</ele>
        <time>2022-04-30T14:53:11Z</time>
      </trkpt>
      <trkpt lat="46.46305" lon="5.44689">
        <ele>388.6</ele>
        <time>2022-04-30T14:53:13Z</time>
      </trkpt>
      <trkpt lat="46.46283" lon="5.44678">
        <ele>389.6</ele>
        <time>2022-04-30T14:53:19Z</time>
      </trkpt>
      <trkpt lat="46.4628" lon="5.44677">
        <ele>390</ele>
        <time>2022-04-30T14:53:20Z</time>
      </trkpt>
      <trkpt lat="46.46266" lon="5.44669">
        <ele>390.6</ele>
        <time>2022-04-30T14:53:24Z</time>
      </trkpt>
      <trkpt lat="46.46248" lon="5.44659">
        <ele>391.8</ele>
        <time>2022-04-30T14:53:29Z</time>
      </trkpt>
      <trkpt lat="46.46238" lon="5.44653">
        <ele>392</ele>
        <time>2022-04-30T14:53:32Z</time>
      </trkpt>
      <trkpt lat="46.46226" lon="5.44643">
        <ele>392.8</ele>
        <time>2022-04-30T14:53:36Z</time>
      </trkpt>
      <trkpt lat="46.46218" lon="5.44634">
        <ele>394</ele>
        <time>2022-04-30T14:53:39Z</time>
      </trkpt>
      <trkpt lat="46.46209" lon="5.44619">
        <ele>395</ele>
        <time>2022-04-30T14:53:43Z</time>
      </trkpt>
      <trkpt lat="46.46207" lon="5.44615">
        <ele>395</ele>
        <time>2022-04-30T14:53:44Z</time>
      </trkpt>
      <trkpt lat="46.46198" lon="5.4458">
        <ele>396</ele>
        <time>2022-04-30T14:53:51Z</time>
      </trkpt>
      <trkpt lat="46.46195" lon="5.44551">
        <ele>397</ele>
        <time>2022-04-30T14:53:57Z</time>
      </trkpt>
      <trkpt lat="46.46195" lon="5.44545">
        <ele>397.2</ele>
        <time>2022-04-30T14:53:58Z</time>
      </trkpt>
      <trkpt lat="46.46195" lon="5.44532">
        <ele>398</ele>
        <time>2022-04-30T14:54:01Z</time>
      </trkpt>
      <trkpt lat="46.46194" lon="5.44516">
        <ele>398.8</ele>
        <time>2022-04-30T14:54:04Z</time>
      </trkpt>
      <trkpt lat="46.46193" lon="5.44507">
        <ele>399.2</ele>
        <time>2022-04-30T14:54:06Z</time>
      </trkpt>
      <trkpt lat="46.46192" lon="5.44477">
        <ele>400.4</ele>
        <time>2022-04-30T14:54:12Z</time>
      </trkpt>
      <trkpt lat="46.46192" lon="5.44468">
        <ele>401</ele>
        <time>2022-04-30T14:54:14Z</time>
      </trkpt>
      <trkpt lat="46.46192" lon="5.44447">
        <ele>401.4</ele>
        <time>2022-04-30T14:54:18Z</time>
      </trkpt>
      <trkpt lat="46.46192" lon="5.44422">
        <ele>402.6</ele>
        <time>2022-04-30T14:54:23Z</time>
      </trkpt>
      <trkpt lat="46.46191" lon="5.44415">
        <ele>402.6</ele>
        <time>2022-04-30T14:54:24Z</time>
      </trkpt>
      <trkpt lat="46.46192" lon="5.44396">
        <ele>403.8</ele>
        <time>2022-04-30T14:54:28Z</time>
      </trkpt>
      <trkpt lat="46.46192" lon="5.44381">
        <ele>404.2</ele>
        <time>2022-04-30T14:54:31Z</time>
      </trkpt>
      <trkpt lat="46.46192" lon="5.44355">
        <ele>405</ele>
        <time>2022-04-30T14:54:36Z</time>
      </trkpt>
      <trkpt lat="46.46194" lon="5.44325">
        <ele>405.8</ele>
        <time>2022-04-30T14:54:42Z</time>
      </trkpt>
      <trkpt lat="46.46194" lon="5.4432">
        <ele>406</ele>
        <time>2022-04-30T14:54:43Z</time>
      </trkpt>
      <trkpt lat="46.46193" lon="5.44295">
        <ele>407</ele>
        <time>2022-04-30T14:54:48Z</time>
      </trkpt>
      <trkpt lat="46.46192" lon="5.4429">
        <ele>407.2</ele>
        <time>2022-04-30T14:54:49Z</time>
      </trkpt>
      <trkpt lat="46.46188" lon="5.44265">
        <ele>408.2</ele>
        <time>2022-04-30T14:54:54Z</time>
      </trkpt>
      <trkpt lat="46.46186" lon="5.44254">
        <ele>408.6</ele>
        <time>2022-04-30T14:54:56Z</time>
      </trkpt>
      <trkpt lat="46.46181" lon="5.44232">
        <ele>409.4</ele>
        <time>2022-04-30T14:55:00Z</time>
      </trkpt>
      <trkpt lat="46.46174" lon="5.4421">
        <ele>410</ele>
        <time>2022-04-30T14:55:04Z</time>
      </trkpt>
      <trkpt lat="46.46171" lon="5.442">
        <ele>410.4</ele>
        <time>2022-04-30T14:55:06Z</time>
      </trkpt>
      <trkpt lat="46.46162" lon="5.44173">
        <ele>411.2</ele>
        <time>2022-04-30T14:55:11Z</time>
      </trkpt>
      <trkpt lat="46.46161" lon="5.44169">
        <ele>411.6</ele>
        <time>2022-04-30T14:55:12Z</time>
      </trkpt>
      <trkpt lat="46.46155" lon="5.44154">
        <ele>412</ele>
        <time>2022-04-30T14:55:15Z</time>
      </trkpt>
      <trkpt lat="46.4615" lon="5.44137">
        <ele>412.6</ele>
        <time>2022-04-30T14:55:18Z</time>
      </trkpt>
      <trkpt lat="46.46148" lon="5.4413">
        <ele>413</ele>
        <time>2022-04-30T14:55:19Z</time>
      </trkpt>
      <trkpt lat="46.46144" lon="5.4411">
        <ele>413.8</ele>
        <time>2022-04-30T14:55:23Z</time>
      </trkpt>
      <trkpt lat="46.46142" lon="5.44101">
        <ele>414.4</ele>
        <time>2022-04-30T14:55:25Z</time>
      </trkpt>
      <trkpt lat="46.4614" lon="5.44087">
        <ele>415</ele>
        <time>2022-04-30T14:55:28Z</time>
      </trkpt>
      <trkpt lat="46.46137" lon="5.44076">
        <ele>415.4</ele>
        <time>2022-04-30T14:55:30Z</time>
      </trkpt>
      <trkpt lat="46.46133" lon="5.44056">
        <ele>416</ele>
        <time>2022-04-30T14:55:33Z</time>
      </trkpt>
      <trkpt lat="46.46132" lon="5.44051">
        <ele>416.6</ele>
        <time>2022-04-30T14:55:34Z</time>
      </trkpt>
      <trkpt lat="46.46129" lon="5.44034">
        <ele>417.4</ele>
        <time>2022-04-30T14:55:37Z</time>
      </trkpt>
      <trkpt lat="46.46127" lon="5.44017">
        <ele>418.2</ele>
        <time>2022-04-30T14:55:40Z</time>
      </trkpt>
      <trkpt lat="46.46127" lon="5.4401">
        <ele>418.4</ele>
        <time>2022-04-30T14:55:41Z</time>
      </trkpt>
      <trkpt lat="46.46132" lon="5.43968">
        <ele>419.6</ele>
        <time>2022-04-30T14:55:49Z</time>
      </trkpt>
      <trkpt lat="46.46139" lon="5.43942">
        <ele>420.6</ele>
        <time>2022-04-30T14:55:54Z</time>
      </trkpt>
      <trkpt lat="46.46145" lon="5.43922">
        <ele>421.4</ele>
        <time>2022-04-30T14:55:58Z</time>
      </trkpt>
      <trkpt lat="46.46146" lon="5.43916">
        <ele>421.8</ele>
        <time>2022-04-30T14:55:59Z</time>
      </trkpt>
      <trkpt lat="46.46155" lon="5.43885">
        <ele>423</ele>
        <time>2022-04-30T14:56:05Z</time>
      </trkpt>
      <trkpt lat="46.46162" lon="5.43859">
        <ele>424</ele>
        <time>2022-04-30T14:56:10Z</time>
      </trkpt>
      <trkpt lat="46.46167" lon="5.43839">
        <ele>425.4</ele>
        <time>2022-04-30T14:56:14Z</time>
      </trkpt>
      <trkpt lat="46.46174" lon="5.43816">
        <ele>426.4</ele>
        <time>2022-04-30T14:56:19Z</time>
      </trkpt>
      <trkpt lat="46.46182" lon="5.43787">
        <ele>427.6</ele>
        <time>2022-04-30T14:56:25Z</time>
      </trkpt>
      <trkpt lat="46.46187" lon="5.43766">
        <ele>428.4</ele>
        <time>2022-04-30T14:56:29Z</time>
      </trkpt>
      <trkpt lat="46.46189" lon="5.4375">
        <ele>428.8</ele>
        <time>2022-04-30T14:56:32Z</time>
      </trkpt>
      <trkpt lat="46.4619" lon="5.43724">
        <ele>429.8</ele>
        <time>2022-04-30T14:56:37Z</time>
      </trkpt>
      <trkpt lat="46.4619" lon="5.43718">
        <ele>430</ele>
        <time>2022-04-30T14:56:38Z</time>
      </trkpt>
      <trkpt lat="46.46184" lon="5.43672">
        <ele>431.4</ele>
        <time>2022-04-30T14:56:46Z</time>
      </trkpt>
      <trkpt lat="46.46177" lon="5.43649">
        <ele>432.6</ele>
        <time>2022-04-30T14:56:50Z</time>
      </trkpt>
      <trkpt lat="46.46171" lon="5.43632">
        <ele>433.2</ele>
        <time>2022-04-30T14:56:53Z</time>
      </trkpt>
      <trkpt lat="46.46148" lon="5.43597">
        <ele>433.2</ele>
        <time>2022-04-30T14:57:00Z</time>
      </trkpt>
      <trkpt lat="46.46134" lon="5.43584">
        <ele>433.4</ele>
        <time>2022-04-30T14:57:03Z</time>
      </trkpt>
      <trkpt lat="46.46123" lon="5.43577">
        <ele>433.2</ele>
        <time>2022-04-30T14:57:05Z</time>
      </trkpt>
      <trkpt lat="46.46109" lon="5.4357">
        <ele>433</ele>
        <time>2022-04-30T14:57:07Z</time>
      </trkpt>
      <trkpt lat="46.4609" lon="5.43565">
        <ele>432.8</ele>
        <time>2022-04-30T14:57:10Z</time>
      </trkpt>
      <trkpt lat="46.46082" lon="5.43564">
        <ele>432.4</ele>
        <time>2022-04-30T14:57:11Z</time>
      </trkpt>
      <trkpt lat="46.46051" lon="5.43562">
        <ele>431.6</ele>
        <time>2022-04-30T14:57:15Z</time>
      </trkpt>
      <trkpt lat="46.46042" lon="5.43561">
        <ele>431.4</ele>
        <time>2022-04-30T14:57:16Z</time>
      </trkpt>
      <trkpt lat="46.46014" lon="5.43554">
        <ele>430.4</ele>
        <time>2022-04-30T14:57:19Z</time>
      </trkpt>
      <trkpt lat="46.46005" lon="5.43551">
        <ele>430.2</ele>
        <time>2022-04-30T14:57:20Z</time>
      </trkpt>
      <trkpt lat="46.45979" lon="5.43536">
        <ele>429.2</ele>
        <time>2022-04-30T14:57:23Z</time>
      </trkpt>
      <trkpt lat="46.45971" lon="5.43529">
        <ele>429</ele>
        <time>2022-04-30T14:57:24Z</time>
      </trkpt>
      <trkpt lat="46.45938" lon="5.43504">
        <ele>428</ele>
        <time>2022-04-30T14:57:28Z</time>
      </trkpt>
      <trkpt lat="46.45909" lon="5.43482">
        <ele>426.8</ele>
        <time>2022-04-30T14:57:31Z</time>
      </trkpt>
      <trkpt lat="46.45882" lon="5.43462">
        <ele>426.2</ele>
        <time>2022-04-30T14:57:34Z</time>
      </trkpt>
      <trkpt lat="46.45873" lon="5.43455">
        <ele>425.8</ele>
        <time>2022-04-30T14:57:35Z</time>
      </trkpt>
      <trkpt lat="46.45839" lon="5.43429">
        <ele>424.4</ele>
        <time>2022-04-30T14:57:39Z</time>
      </trkpt>
      <trkpt lat="46.4582" lon="5.43414">
        <ele>423</ele>
        <time>2022-04-30T14:57:41Z</time>
      </trkpt>
      <trkpt lat="46.45793" lon="5.43393">
        <ele>421.8</ele>
        <time>2022-04-30T14:57:44Z</time>
      </trkpt>
      <trkpt lat="46.45766" lon="5.43371">
        <ele>420.4</ele>
        <time>2022-04-30T14:57:47Z</time>
      </trkpt>
      <trkpt lat="46.45743" lon="5.43345">
        <ele>419.2</ele>
        <time>2022-04-30T14:57:50Z</time>
      </trkpt>
      <trkpt lat="46.45728" lon="5.43325">
        <ele>418.2</ele>
        <time>2022-04-30T14:57:52Z</time>
      </trkpt>
      <trkpt lat="46.45707" lon="5.4329">
        <ele>417.2</ele>
        <time>2022-04-30T14:57:55Z</time>
      </trkpt>
      <trkpt lat="46.45701" lon="5.43278">
        <ele>416.2</ele>
        <time>2022-04-30T14:57:56Z</time>
      </trkpt>
      <trkpt lat="46.45685" lon="5.43241">
        <ele>415</ele>
        <time>2022-04-30T14:57:59Z</time>
      </trkpt>
      <trkpt lat="46.45668" lon="5.43205">
        <ele>414.2</ele>
        <time>2022-04-30T14:58:02Z</time>
      </trkpt>
      <trkpt lat="46.45653" lon="5.43169">
        <ele>413.6</ele>
        <time>2022-04-30T14:58:05Z</time>
      </trkpt>
      <trkpt lat="46.45626" lon="5.4311">
        <ele>412.8</ele>
        <time>2022-04-30T14:58:10Z</time>
      </trkpt>
      <trkpt lat="46.45611" lon="5.43076">
        <ele>412.4</ele>
        <time>2022-04-30T14:58:13Z</time>
      </trkpt>
      <trkpt lat="46.45588" lon="5.43027">
        <ele>412.2</ele>
        <time>2022-04-30T14:58:18Z</time>
      </trkpt>
      <trkpt lat="46.45558" lon="5.42979">
        <ele>412.4</ele>
        <time>2022-04-30T14:58:24Z</time>
      </trkpt>
      <trkpt lat="46.45525" lon="5.42936">
        <ele>413.6</ele>
        <time>2022-04-30T14:58:31Z</time>
      </trkpt>
      <trkpt lat="46.4552" lon="5.42929">
        <ele>413.8</ele>
        <time>2022-04-30T14:58:32Z</time>
      </trkpt>
      <trkpt lat="46.45507" lon="5.42913">
        <ele>414.6</ele>
        <time>2022-04-30T14:58:35Z</time>
      </trkpt>
      <trkpt lat="46.45493" lon="5.42895">
        <ele>415.6</ele>
        <time>2022-04-30T14:58:38Z</time>
      </trkpt>
      <trkpt lat="46.45467" lon="5.42862">
        <ele>416.8</ele>
        <time>2022-04-30T14:58:44Z</time>
      </trkpt>
      <trkpt lat="46.45459" lon="5.42853">
        <ele>417</ele>
        <time>2022-04-30T14:58:46Z</time>
      </trkpt>
      <trkpt lat="46.45441" lon="5.42833">
        <ele>417.8</ele>
        <time>2022-04-30T14:58:50Z</time>
      </trkpt>
      <trkpt lat="46.45416" lon="5.4281">
        <ele>418.4</ele>
        <time>2022-04-30T14:58:55Z</time>
      </trkpt>
      <trkpt lat="46.45399" lon="5.42793">
        <ele>419</ele>
        <time>2022-04-30T14:58:59Z</time>
      </trkpt>
      <trkpt lat="46.45382" lon="5.42773">
        <ele>419.6</ele>
        <time>2022-04-30T14:59:03Z</time>
      </trkpt>
      <trkpt lat="46.4537" lon="5.42756">
        <ele>420.2</ele>
        <time>2022-04-30T14:59:06Z</time>
      </trkpt>
      <trkpt lat="46.45352" lon="5.42728">
        <ele>420.6</ele>
        <time>2022-04-30T14:59:11Z</time>
      </trkpt>
      <trkpt lat="46.45342" lon="5.42711">
        <ele>421.2</ele>
        <time>2022-04-30T14:59:14Z</time>
      </trkpt>
      <trkpt lat="46.45329" lon="5.42687">
        <ele>422.4</ele>
        <time>2022-04-30T14:59:18Z</time>
      </trkpt>
      <trkpt lat="46.4532" lon="5.4267">
        <ele>422.8</ele>
        <time>2022-04-30T14:59:21Z</time>
      </trkpt>
      <trkpt lat="46.45307" lon="5.42647">
        <ele>423.4</ele>
        <time>2022-04-30T14:59:25Z</time>
      </trkpt>
      <trkpt lat="46.45289" lon="5.42613">
        <ele>424.2</ele>
        <time>2022-04-30T14:59:31Z</time>
      </trkpt>
      <trkpt lat="46.45283" lon="5.42602">
        <ele>424.8</ele>
        <time>2022-04-30T14:59:33Z</time>
      </trkpt>
      <trkpt lat="46.45264" lon="5.42568">
        <ele>425.8</ele>
        <time>2022-04-30T14:59:39Z</time>
      </trkpt>
      <trkpt lat="46.45258" lon="5.42556">
        <ele>426.2</ele>
        <time>2022-04-30T14:59:41Z</time>
      </trkpt>
      <trkpt lat="46.45248" lon="5.42538">
        <ele>426.8</ele>
        <time>2022-04-30T14:59:44Z</time>
      </trkpt>
      <trkpt lat="46.45223" lon="5.42493">
        <ele>428</ele>
        <time>2022-04-30T14:59:52Z</time>
      </trkpt>
      <trkpt lat="46.45212" lon="5.42474">
        <ele>428.8</ele>
        <time>2022-04-30T14:59:55Z</time>
      </trkpt>
      <trkpt lat="46.45205" lon="5.42462">
        <ele>429</ele>
        <time>2022-04-30T14:59:57Z</time>
      </trkpt>
      <trkpt lat="46.4519" lon="5.42434">
        <ele>430</ele>
        <time>2022-04-30T15:00:02Z</time>
      </trkpt>
      <trkpt lat="46.45181" lon="5.42417">
        <ele>430.4</ele>
        <time>2022-04-30T15:00:05Z</time>
      </trkpt>
      <trkpt lat="46.45175" lon="5.42407">
        <ele>431</ele>
        <time>2022-04-30T15:00:07Z</time>
      </trkpt>
      <trkpt lat="46.45155" lon="5.42374">
        <ele>432.2</ele>
        <time>2022-04-30T15:00:13Z</time>
      </trkpt>
      <trkpt lat="46.45144" lon="5.4236">
        <ele>432.8</ele>
        <time>2022-04-30T15:00:16Z</time>
      </trkpt>
      <trkpt lat="46.45129" lon="5.42342">
        <ele>433.4</ele>
        <time>2022-04-30T15:00:20Z</time>
      </trkpt>
      <trkpt lat="46.4512" lon="5.42328">
        <ele>433.6</ele>
        <time>2022-04-30T15:00:23Z</time>
      </trkpt>
      <trkpt lat="46.45106" lon="5.42311">
        <ele>434.6</ele>
        <time>2022-04-30T15:00:27Z</time>
      </trkpt>
      <trkpt lat="46.451" lon="5.42302">
        <ele>435</ele>
        <time>2022-04-30T15:00:29Z</time>
      </trkpt>
      <trkpt lat="46.45096" lon="5.42298">
        <ele>435.2</ele>
        <time>2022-04-30T15:00:30Z</time>
      </trkpt>
      <trkpt lat="46.4509" lon="5.42286">
        <ele>435.4</ele>
        <time>2022-04-30T15:00:32Z</time>
      </trkpt>
      <trkpt lat="46.45087" lon="5.42275">
        <ele>435.6</ele>
        <time>2022-04-30T15:00:34Z</time>
      </trkpt>
      <trkpt lat="46.45086" lon="5.42268">
        <ele>435.8</ele>
        <time>2022-04-30T15:00:35Z</time>
      </trkpt>
      <trkpt lat="46.45079" lon="5.4222">
        <ele>436.8</ele>
        <time>2022-04-30T15:00:42Z</time>
      </trkpt>
      <trkpt lat="46.45078" lon="5.42208">
        <ele>437.2</ele>
        <time>2022-04-30T15:00:44Z</time>
      </trkpt>
      <trkpt lat="46.45076" lon="5.42193">
        <ele>437.8</ele>
        <time>2022-04-30T15:00:46Z</time>
      </trkpt>
      <trkpt lat="46.45074" lon="5.4218">
        <ele>438.2</ele>
        <time>2022-04-30T15:00:48Z</time>
      </trkpt>
      <trkpt lat="46.45069" lon="5.42161">
        <ele>438.6</ele>
        <time>2022-04-30T15:00:51Z</time>
      </trkpt>
      <trkpt lat="46.45067" lon="5.42154">
        <ele>438.8</ele>
        <time>2022-04-30T15:00:52Z</time>
      </trkpt>
      <trkpt lat="46.45044" lon="5.42096">
        <ele>440</ele>
        <time>2022-04-30T15:01:00Z</time>
      </trkpt>
      <trkpt lat="46.45017" lon="5.42046">
        <ele>440.4</ele>
        <time>2022-04-30T15:01:08Z</time>
      </trkpt>
      <trkpt lat="46.44995" lon="5.4201">
        <ele>441</ele>
        <time>2022-04-30T15:01:14Z</time>
      </trkpt>
      <trkpt lat="46.44974" lon="5.41976">
        <ele>442</ele>
        <time>2022-04-30T15:01:20Z</time>
      </trkpt>
      <trkpt lat="46.44959" lon="5.4194">
        <ele>443</ele>
        <time>2022-04-30T15:01:26Z</time>
      </trkpt>
      <trkpt lat="46.44958" lon="5.41927">
        <ele>443.4</ele>
        <time>2022-04-30T15:01:28Z</time>
      </trkpt>
      <trkpt lat="46.44959" lon="5.41914">
        <ele>444.2</ele>
        <time>2022-04-30T15:01:30Z</time>
      </trkpt>
      <trkpt lat="46.4497" lon="5.41863">
        <ele>445</ele>
        <time>2022-04-30T15:01:37Z</time>
      </trkpt>
      <trkpt lat="46.44972" lon="5.41856">
        <ele>445.2</ele>
        <time>2022-04-30T15:01:38Z</time>
      </trkpt>
      <trkpt lat="46.44981" lon="5.41839">
        <ele>445.6</ele>
        <time>2022-04-30T15:01:41Z</time>
      </trkpt>
      <trkpt lat="46.4499" lon="5.41824">
        <ele>446.2</ele>
        <time>2022-04-30T15:01:44Z</time>
      </trkpt>
      <trkpt lat="46.44994" lon="5.41819">
        <ele>446.4</ele>
        <time>2022-04-30T15:01:45Z</time>
      </trkpt>
      <trkpt lat="46.45003" lon="5.41811">
        <ele>446.8</ele>
        <time>2022-04-30T15:01:47Z</time>
      </trkpt>
      <trkpt lat="46.45012" lon="5.41806">
        <ele>447</ele>
        <time>2022-04-30T15:01:49Z</time>
      </trkpt>
      <trkpt lat="46.45017" lon="5.41804">
        <ele>447.2</ele>
        <time>2022-04-30T15:01:50Z</time>
      </trkpt>
      <trkpt lat="46.45022" lon="5.41803">
        <ele>447.2</ele>
        <time>2022-04-30T15:01:51Z</time>
      </trkpt>
      <trkpt lat="46.45027" lon="5.41803">
        <ele>447.4</ele>
        <time>2022-04-30T15:01:52Z</time>
      </trkpt>
      <trkpt lat="46.45036" lon="5.41804">
        <ele>447.6</ele>
        <time>2022-04-30T15:01:54Z</time>
      </trkpt>
      <trkpt lat="46.45042" lon="5.41806">
        <ele>447.6</ele>
        <time>2022-04-30T15:01:55Z</time>
      </trkpt>
      <trkpt lat="46.45064" lon="5.41812">
        <ele>447.8</ele>
        <time>2022-04-30T15:02:00Z</time>
      </trkpt>
      <trkpt lat="46.45098" lon="5.41814">
        <ele>447.8</ele>
        <time>2022-04-30T15:02:06Z</time>
      </trkpt>
      <trkpt lat="46.45133" lon="5.41805">
        <ele>447.2</ele>
        <time>2022-04-30T15:02:12Z</time>
      </trkpt>
      <trkpt lat="46.45164" lon="5.41783">
        <ele>447.2</ele>
        <time>2022-04-30T15:02:18Z</time>
      </trkpt>
      <trkpt lat="46.4517" lon="5.41777">
        <ele>447.2</ele>
        <time>2022-04-30T15:02:19Z</time>
      </trkpt>
      <trkpt lat="46.45187" lon="5.41752">
        <ele>447.4</ele>
        <time>2022-04-30T15:02:23Z</time>
      </trkpt>
      <trkpt lat="46.45209" lon="5.41703">
        <ele>447.6</ele>
        <time>2022-04-30T15:02:30Z</time>
      </trkpt>
      <trkpt lat="46.45227" lon="5.41648">
        <ele>448.4</ele>
        <time>2022-04-30T15:02:38Z</time>
      </trkpt>
      <trkpt lat="46.45228" lon="5.41641">
        <ele>448.6</ele>
        <time>2022-04-30T15:02:39Z</time>
      </trkpt>
      <trkpt lat="46.45236" lon="5.41603">
        <ele>449.4</ele>
        <time>2022-04-30T15:02:45Z</time>
      </trkpt>
      <trkpt lat="46.45238" lon="5.41596">
        <ele>449.8</ele>
        <time>2022-04-30T15:02:46Z</time>
      </trkpt>
      <trkpt lat="46.45245" lon="5.4157">
        <ele>450.4</ele>
        <time>2022-04-30T15:02:50Z</time>
      </trkpt>
      <trkpt lat="46.45252" lon="5.41558">
        <ele>450.8</ele>
        <time>2022-04-30T15:02:52Z</time>
      </trkpt>
      <trkpt lat="46.45259" lon="5.41546">
        <ele>451</ele>
        <time>2022-04-30T15:02:54Z</time>
      </trkpt>
      <trkpt lat="46.45268" lon="5.41537">
        <ele>451.4</ele>
        <time>2022-04-30T15:02:56Z</time>
      </trkpt>
      <trkpt lat="46.45274" lon="5.41534">
        <ele>451.4</ele>
        <time>2022-04-30T15:02:57Z</time>
      </trkpt>
      <trkpt lat="46.45279" lon="5.41531">
        <ele>451.4</ele>
        <time>2022-04-30T15:02:58Z</time>
      </trkpt>
      <trkpt lat="46.45284" lon="5.41529">
        <ele>451.6</ele>
        <time>2022-04-30T15:02:59Z</time>
      </trkpt>
      <trkpt lat="46.45299" lon="5.41528">
        <ele>451.8</ele>
        <time>2022-04-30T15:03:02Z</time>
      </trkpt>
      <trkpt lat="46.45318" lon="5.41531">
        <ele>452.6</ele>
        <time>2022-04-30T15:03:06Z</time>
      </trkpt>
      <trkpt lat="46.45331" lon="5.41534">
        <ele>452.8</ele>
        <time>2022-04-30T15:03:09Z</time>
      </trkpt>
      <trkpt lat="46.45345" lon="5.41536">
        <ele>453.6</ele>
        <time>2022-04-30T15:03:12Z</time>
      </trkpt>
      <trkpt lat="46.45364" lon="5.41537">
        <ele>454</ele>
        <time>2022-04-30T15:03:16Z</time>
      </trkpt>
      <trkpt lat="46.45394" lon="5.41533">
        <ele>454.6</ele>
        <time>2022-04-30T15:03:22Z</time>
      </trkpt>
      <trkpt lat="46.45398" lon="5.41531">
        <ele>454.6</ele>
        <time>2022-04-30T15:03:23Z</time>
      </trkpt>
      <trkpt lat="46.45441" lon="5.41516">
        <ele>455.6</ele>
        <time>2022-04-30T15:03:32Z</time>
      </trkpt>
      <trkpt lat="46.4545" lon="5.41512">
        <ele>456</ele>
        <time>2022-04-30T15:03:34Z</time>
      </trkpt>
      <trkpt lat="46.45462" lon="5.41508">
        <ele>456.8</ele>
        <time>2022-04-30T15:03:37Z</time>
      </trkpt>
      <trkpt lat="46.45486" lon="5.41497">
        <ele>457.8</ele>
        <time>2022-04-30T15:03:42Z</time>
      </trkpt>
      <trkpt lat="46.45515" lon="5.41483">
        <ele>458.8</ele>
        <time>2022-04-30T15:03:48Z</time>
      </trkpt>
      <trkpt lat="46.45528" lon="5.41476">
        <ele>459.2</ele>
        <time>2022-04-30T15:03:51Z</time>
      </trkpt>
      <trkpt lat="46.45562" lon="5.41456">
        <ele>459.4</ele>
        <time>2022-04-30T15:03:58Z</time>
      </trkpt>
      <trkpt lat="46.45594" lon="5.41423">
        <ele>459.8</ele>
        <time>2022-04-30T15:04:05Z</time>
      </trkpt>
      <trkpt lat="46.45601" lon="5.41412">
        <ele>459.8</ele>
        <time>2022-04-30T15:04:07Z</time>
      </trkpt>
      <trkpt lat="46.45614" lon="5.41387">
        <ele>460</ele>
        <time>2022-04-30T15:04:11Z</time>
      </trkpt>
      <trkpt lat="46.45617" lon="5.41381">
        <ele>460</ele>
        <time>2022-04-30T15:04:12Z</time>
      </trkpt>
      <trkpt lat="46.45639" lon="5.41333">
        <ele>460.6</ele>
        <time>2022-04-30T15:04:20Z</time>
      </trkpt>
      <trkpt lat="46.45658" lon="5.41305">
        <ele>461</ele>
        <time>2022-04-30T15:04:25Z</time>
      </trkpt>
      <trkpt lat="46.45671" lon="5.41288">
        <ele>461.2</ele>
        <time>2022-04-30T15:04:28Z</time>
      </trkpt>
      <trkpt lat="46.45704" lon="5.4125">
        <ele>460.8</ele>
        <time>2022-04-30T15:04:35Z</time>
      </trkpt>
      <trkpt lat="46.45739" lon="5.41211">
        <ele>460.8</ele>
        <time>2022-04-30T15:04:43Z</time>
      </trkpt>
      <trkpt lat="46.45755" lon="5.41187">
        <ele>461</ele>
        <time>2022-04-30T15:04:47Z</time>
      </trkpt>
      <trkpt lat="46.4576" lon="5.41175">
        <ele>461</ele>
        <time>2022-04-30T15:04:49Z</time>
      </trkpt>
      <trkpt lat="46.45777" lon="5.41116">
        <ele>461.8</ele>
        <time>2022-04-30T15:04:57Z</time>
      </trkpt>
      <trkpt lat="46.45785" lon="5.41079">
        <ele>462.2</ele>
        <time>2022-04-30T15:05:02Z</time>
      </trkpt>
      <trkpt lat="46.45789" lon="5.41057">
        <ele>462.4</ele>
        <time>2022-04-30T15:05:05Z</time>
      </trkpt>
      <trkpt lat="46.4581" lon="5.40989">
        <ele>463</ele>
        <time>2022-04-30T15:05:15Z</time>
      </trkpt>
      <trkpt lat="46.45814" lon="5.40977">
        <ele>463.4</ele>
        <time>2022-04-30T15:05:17Z</time>
      </trkpt>
      <trkpt lat="46.45824" lon="5.40933">
        <ele>464</ele>
        <time>2022-04-30T15:05:24Z</time>
      </trkpt>
      <trkpt lat="46.45839" lon="5.40854">
        <ele>464.2</ele>
        <time>2022-04-30T15:05:35Z</time>
      </trkpt>
      <trkpt lat="46.45846" lon="5.40785">
        <ele>464</ele>
        <time>2022-04-30T15:05:44Z</time>
      </trkpt>
      <trkpt lat="46.45847" lon="5.40777">
        <ele>464</ele>
        <time>2022-04-30T15:05:45Z</time>
      </trkpt>
      <trkpt lat="46.45851" lon="5.40736">
        <ele>464</ele>
        <time>2022-04-30T15:05:50Z</time>
      </trkpt>
      <trkpt lat="46.45855" lon="5.40715">
        <ele>463.8</ele>
        <time>2022-04-30T15:05:53Z</time>
      </trkpt>
      <trkpt lat="46.45857" lon="5.40708">
        <ele>463.8</ele>
        <time>2022-04-30T15:05:54Z</time>
      </trkpt>
      <trkpt lat="46.45864" lon="5.40684">
        <ele>464</ele>
        <time>2022-04-30T15:05:58Z</time>
      </trkpt>
      <trkpt lat="46.45872" lon="5.40665">
        <ele>464.2</ele>
        <time>2022-04-30T15:06:02Z</time>
      </trkpt>
      <trkpt lat="46.45874" lon="5.40659">
        <ele>464.8</ele>
        <time>2022-04-30T15:06:03Z</time>
      </trkpt>
      <trkpt lat="46.45878" lon="5.4065">
        <ele>465.4</ele>
        <time>2022-04-30T15:06:05Z</time>
      </trkpt>
      <trkpt lat="46.45881" lon="5.40643">
        <ele>465.8</ele>
        <time>2022-04-30T15:06:07Z</time>
      </trkpt>
      <trkpt lat="46.45886" lon="5.4063">
        <ele>467</ele>
        <time>2022-04-30T15:06:10Z</time>
      </trkpt>
      <trkpt lat="46.45888" lon="5.40626">
        <ele>467.2</ele>
        <time>2022-04-30T15:06:11Z</time>
      </trkpt>
      <trkpt lat="46.45893" lon="5.40615">
        <ele>468</ele>
        <time>2022-04-30T15:06:14Z</time>
      </trkpt>
      <trkpt lat="46.45901" lon="5.40599">
        <ele>469.4</ele>
        <time>2022-04-30T15:06:18Z</time>
      </trkpt>
      <trkpt lat="46.45906" lon="5.40586">
        <ele>470.6</ele>
        <time>2022-04-30T15:06:21Z</time>
      </trkpt>
      <trkpt lat="46.45913" lon="5.40572">
        <ele>471.6</ele>
        <time>2022-04-30T15:06:25Z</time>
      </trkpt>
      <trkpt lat="46.45915" lon="5.40568">
        <ele>471.8</ele>
        <time>2022-04-30T15:06:26Z</time>
      </trkpt>
      <trkpt lat="46.45922" lon="5.40554">
        <ele>473</ele>
        <time>2022-04-30T15:06:30Z</time>
      </trkpt>
      <trkpt lat="46.45924" lon="5.4055">
        <ele>473.2</ele>
        <time>2022-04-30T15:06:31Z</time>
      </trkpt>
      <trkpt lat="46.45928" lon="5.40543">
        <ele>474.2</ele>
        <time>2022-04-30T15:06:33Z</time>
      </trkpt>
      <trkpt lat="46.45936" lon="5.4053">
        <ele>474.6</ele>
        <time>2022-04-30T15:06:37Z</time>
      </trkpt>
      <trkpt lat="46.45944" lon="5.40518">
        <ele>475.2</ele>
        <time>2022-04-30T15:06:41Z</time>
      </trkpt>
      <trkpt lat="46.45951" lon="5.4051">
        <ele>476.4</ele>
        <time>2022-04-30T15:06:44Z</time>
      </trkpt>
      <trkpt lat="46.45953" lon="5.40507">
        <ele>476.6</ele>
        <time>2022-04-30T15:06:45Z</time>
      </trkpt>
      <trkpt lat="46.45959" lon="5.40497">
        <ele>477.6</ele>
        <time>2022-04-30T15:06:48Z</time>
      </trkpt>
      <trkpt lat="46.45967" lon="5.40483">
        <ele>478.6</ele>
        <time>2022-04-30T15:06:52Z</time>
      </trkpt>
      <trkpt lat="46.45977" lon="5.40463">
        <ele>479.8</ele>
        <time>2022-04-30T15:06:57Z</time>
      </trkpt>
      <trkpt lat="46.45985" lon="5.40449">
        <ele>480.8</ele>
        <time>2022-04-30T15:07:01Z</time>
      </trkpt>
      <trkpt lat="46.45998" lon="5.40425">
        <ele>482</ele>
        <time>2022-04-30T15:07:08Z</time>
      </trkpt>
      <trkpt lat="46.46" lon="5.40422">
        <ele>482.4</ele>
        <time>2022-04-30T15:07:09Z</time>
      </trkpt>
      <trkpt lat="46.46003" lon="5.40414">
        <ele>483</ele>
        <time>2022-04-30T15:07:11Z</time>
      </trkpt>
      <trkpt lat="46.46015" lon="5.40393">
        <ele>484.2</ele>
        <time>2022-04-30T15:07:18Z</time>
      </trkpt>
      <trkpt lat="46.46021" lon="5.40384">
        <ele>485.6</ele>
        <time>2022-04-30T15:07:21Z</time>
      </trkpt>
      <trkpt lat="46.46025" lon="5.40373">
        <ele>486.2</ele>
        <time>2022-04-30T15:07:24Z</time>
      </trkpt>
      <trkpt lat="46.46029" lon="5.40365">
        <ele>486.8</ele>
        <time>2022-04-30T15:07:26Z</time>
      </trkpt>
      <trkpt lat="46.4604" lon="5.40343">
        <ele>488</ele>
        <time>2022-04-30T15:07:32Z</time>
      </trkpt>
      <trkpt lat="46.46043" lon="5.40341">
        <ele>488.4</ele>
        <time>2022-04-30T15:07:33Z</time>
      </trkpt>
      <trkpt lat="46.46055" lon="5.40331">
        <ele>489.4</ele>
        <time>2022-04-30T15:07:37Z</time>
      </trkpt>
      <trkpt lat="46.46069" lon="5.40324">
        <ele>490.2</ele>
        <time>2022-04-30T15:07:42Z</time>
      </trkpt>
      <trkpt lat="46.46085" lon="5.40317">
        <ele>491.2</ele>
        <time>2022-04-30T15:07:47Z</time>
      </trkpt>
      <trkpt lat="46.461" lon="5.40309">
        <ele>492.2</ele>
        <time>2022-04-30T15:07:52Z</time>
      </trkpt>
      <trkpt lat="46.46103" lon="5.40308">
        <ele>492.6</ele>
        <time>2022-04-30T15:07:53Z</time>
      </trkpt>
      <trkpt lat="46.46116" lon="5.40299">
        <ele>493.8</ele>
        <time>2022-04-30T15:07:58Z</time>
      </trkpt>
      <trkpt lat="46.46131" lon="5.40282">
        <ele>495</ele>
        <time>2022-04-30T15:08:03Z</time>
      </trkpt>
      <trkpt lat="46.46134" lon="5.40277">
        <ele>495</ele>
        <time>2022-04-30T15:08:04Z</time>
      </trkpt>
      <trkpt lat="46.4614" lon="5.40267">
        <ele>495.4</ele>
        <time>2022-04-30T15:08:06Z</time>
      </trkpt>
      <trkpt lat="46.46147" lon="5.40253">
        <ele>496</ele>
        <time>2022-04-30T15:08:09Z</time>
      </trkpt>
      <trkpt lat="46.46158" lon="5.40234">
        <ele>496.2</ele>
        <time>2022-04-30T15:08:13Z</time>
      </trkpt>
      <trkpt lat="46.46179" lon="5.40193">
        <ele>497</ele>
        <time>2022-04-30T15:08:22Z</time>
      </trkpt>
      <trkpt lat="46.46181" lon="5.40189">
        <ele>497.2</ele>
        <time>2022-04-30T15:08:23Z</time>
      </trkpt>
      <trkpt lat="46.46195" lon="5.40163">
        <ele>498.2</ele>
        <time>2022-04-30T15:08:29Z</time>
      </trkpt>
      <trkpt lat="46.46201" lon="5.40155">
        <ele>498.4</ele>
        <time>2022-04-30T15:08:31Z</time>
      </trkpt>
      <trkpt lat="46.46218" lon="5.4013">
        <ele>499.2</ele>
        <time>2022-04-30T15:08:36Z</time>
      </trkpt>
      <trkpt lat="46.46229" lon="5.40116">
        <ele>499.6</ele>
        <time>2022-04-30T15:08:39Z</time>
      </trkpt>
      <trkpt lat="46.46249" lon="5.40098">
        <ele>499.8</ele>
        <time>2022-04-30T15:08:44Z</time>
      </trkpt>
      <trkpt lat="46.46254" lon="5.40095">
        <ele>499.8</ele>
        <time>2022-04-30T15:08:45Z</time>
      </trkpt>
      <trkpt lat="46.46262" lon="5.40091">
        <ele>500</ele>
        <time>2022-04-30T15:08:47Z</time>
      </trkpt>
      <trkpt lat="46.46271" lon="5.40089">
        <ele>500.2</ele>
        <time>2022-04-30T15:08:49Z</time>
      </trkpt>
      <trkpt lat="46.46274" lon="5.40089">
        <ele>500.4</ele>
        <time>2022-04-30T15:08:50Z</time>
      </trkpt>
      <trkpt lat="46.46292" lon="5.40091">
        <ele>501.4</ele>
        <time>2022-04-30T15:08:55Z</time>
      </trkpt>
      <trkpt lat="46.46299" lon="5.40093">
        <ele>501.8</ele>
        <time>2022-04-30T15:08:57Z</time>
      </trkpt>
      <trkpt lat="46.46306" lon="5.40094">
        <ele>502</ele>
        <time>2022-04-30T15:08:59Z</time>
      </trkpt>
      <trkpt lat="46.46313" lon="5.40095">
        <ele>502.6</ele>
        <time>2022-04-30T15:09:01Z</time>
      </trkpt>
      <trkpt lat="46.46327" lon="5.40095">
        <ele>503.2</ele>
        <time>2022-04-30T15:09:04Z</time>
      </trkpt>
      <trkpt lat="46.46336" lon="5.40094">
        <ele>503.6</ele>
        <time>2022-04-30T15:09:06Z</time>
      </trkpt>
      <trkpt lat="46.46355" lon="5.40091">
        <ele>504.8</ele>
        <time>2022-04-30T15:09:10Z</time>
      </trkpt>
      <trkpt lat="46.46374" lon="5.40088">
        <ele>506</ele>
        <time>2022-04-30T15:09:14Z</time>
      </trkpt>
      <trkpt lat="46.46379" lon="5.40087">
        <ele>506</ele>
        <time>2022-04-30T15:09:15Z</time>
      </trkpt>
      <trkpt lat="46.46409" lon="5.40082">
        <ele>507</ele>
        <time>2022-04-30T15:09:22Z</time>
      </trkpt>
      <trkpt lat="46.46416" lon="5.4008">
        <ele>507.2</ele>
        <time>2022-04-30T15:09:24Z</time>
      </trkpt>
      <trkpt lat="46.46433" lon="5.40077">
        <ele>508.2</ele>
        <time>2022-04-30T15:09:29Z</time>
      </trkpt>
      <trkpt lat="46.46437" lon="5.40076">
        <ele>508.4</ele>
        <time>2022-04-30T15:09:30Z</time>
      </trkpt>
      <trkpt lat="46.46466" lon="5.4007">
        <ele>509.4</ele>
        <time>2022-04-30T15:09:38Z</time>
      </trkpt>
      <trkpt lat="46.46473" lon="5.40069">
        <ele>510</ele>
        <time>2022-04-30T15:09:40Z</time>
      </trkpt>
      <trkpt lat="46.4649" lon="5.4007">
        <ele>510.4</ele>
        <time>2022-04-30T15:09:44Z</time>
      </trkpt>
      <trkpt lat="46.46504" lon="5.40072">
        <ele>510.8</ele>
        <time>2022-04-30T15:09:47Z</time>
      </trkpt>
      <trkpt lat="46.46509" lon="5.40074">
        <ele>510.8</ele>
        <time>2022-04-30T15:09:48Z</time>
      </trkpt>
      <trkpt lat="46.46546" lon="5.40092">
        <ele>511.2</ele>
        <time>2022-04-30T15:09:57Z</time>
      </trkpt>
      <trkpt lat="46.4655" lon="5.40094">
        <ele>511.6</ele>
        <time>2022-04-30T15:09:58Z</time>
      </trkpt>
      <trkpt lat="46.46573" lon="5.40105">
        <ele>512.6</ele>
        <time>2022-04-30T15:10:03Z</time>
      </trkpt>
      <trkpt lat="46.4659" lon="5.40115">
        <ele>513</ele>
        <time>2022-04-30T15:10:07Z</time>
      </trkpt>
      <trkpt lat="46.46608" lon="5.40125">
        <ele>513.8</ele>
        <time>2022-04-30T15:10:12Z</time>
      </trkpt>
      <trkpt lat="46.46622" lon="5.40132">
        <ele>514.6</ele>
        <time>2022-04-30T15:10:16Z</time>
      </trkpt>
      <trkpt lat="46.46625" lon="5.40133">
        <ele>515</ele>
        <time>2022-04-30T15:10:17Z</time>
      </trkpt>
      <trkpt lat="46.46649" lon="5.40146">
        <ele>516.2</ele>
        <time>2022-04-30T15:10:24Z</time>
      </trkpt>
      <trkpt lat="46.46656" lon="5.40149">
        <ele>516.6</ele>
        <time>2022-04-30T15:10:26Z</time>
      </trkpt>
      <trkpt lat="46.46667" lon="5.40155">
        <ele>517.4</ele>
        <time>2022-04-30T15:10:30Z</time>
      </trkpt>
      <trkpt lat="46.46683" lon="5.40163">
        <ele>518.6</ele>
        <time>2022-04-30T15:10:35Z</time>
      </trkpt>
      <trkpt lat="46.46686" lon="5.40164">
        <ele>518.8</ele>
        <time>2022-04-30T15:10:36Z</time>
      </trkpt>
      <trkpt lat="46.46707" lon="5.40175">
        <ele>519.8</ele>
        <time>2022-04-30T15:10:43Z</time>
      </trkpt>
      <trkpt lat="46.46711" lon="5.40176">
        <ele>520.2</ele>
        <time>2022-04-30T15:10:44Z</time>
      </trkpt>
      <trkpt lat="46.4672" lon="5.40181">
        <ele>520.8</ele>
        <time>2022-04-30T15:10:47Z</time>
      </trkpt>
      <trkpt lat="46.46729" lon="5.40186">
        <ele>521.8</ele>
        <time>2022-04-30T15:10:50Z</time>
      </trkpt>
      <trkpt lat="46.46731" lon="5.40187">
        <ele>522</ele>
        <time>2022-04-30T15:10:51Z</time>
      </trkpt>
      <trkpt lat="46.46746" lon="5.40195">
        <ele>523</ele>
        <time>2022-04-30T15:10:56Z</time>
      </trkpt>
      <trkpt lat="46.46754" lon="5.40198">
        <ele>523.4</ele>
        <time>2022-04-30T15:10:58Z</time>
      </trkpt>
      <trkpt lat="46.46768" lon="5.40205">
        <ele>524.2</ele>
        <time>2022-04-30T15:11:02Z</time>
      </trkpt>
      <trkpt lat="46.46774" lon="5.40208">
        <ele>524.8</ele>
        <time>2022-04-30T15:11:04Z</time>
      </trkpt>
      <trkpt lat="46.4678" lon="5.40211">
        <ele>525.2</ele>
        <time>2022-04-30T15:11:06Z</time>
      </trkpt>
      <trkpt lat="46.46791" lon="5.40218">
        <ele>526.2</ele>
        <time>2022-04-30T15:11:10Z</time>
      </trkpt>
      <trkpt lat="46.46794" lon="5.4022">
        <ele>526.2</ele>
        <time>2022-04-30T15:11:11Z</time>
      </trkpt>
      <trkpt lat="46.46812" lon="5.40228">
        <ele>527.4</ele>
        <time>2022-04-30T15:11:16Z</time>
      </trkpt>
      <trkpt lat="46.46829" lon="5.40237">
        <ele>528.4</ele>
        <time>2022-04-30T15:11:21Z</time>
      </trkpt>
      <trkpt lat="46.46832" lon="5.40239">
        <ele>528.4</ele>
        <time>2022-04-30T15:11:22Z</time>
      </trkpt>
      <trkpt lat="46.46851" lon="5.40247">
        <ele>529.4</ele>
        <time>2022-04-30T15:11:28Z</time>
      </trkpt>
      <trkpt lat="46.46857" lon="5.4025">
        <ele>530</ele>
        <time>2022-04-30T15:11:30Z</time>
      </trkpt>
      <trkpt lat="46.46865" lon="5.40254">
        <ele>530.6</ele>
        <time>2022-04-30T15:11:33Z</time>
      </trkpt>
      <trkpt lat="46.46878" lon="5.40262">
        <ele>531.4</ele>
        <time>2022-04-30T15:11:37Z</time>
      </trkpt>
      <trkpt lat="46.46886" lon="5.40265">
        <ele>531.6</ele>
        <time>2022-04-30T15:11:39Z</time>
      </trkpt>
      <trkpt lat="46.46896" lon="5.40271">
        <ele>532.2</ele>
        <time>2022-04-30T15:11:41Z</time>
      </trkpt>
      <trkpt lat="46.46905" lon="5.40275">
        <ele>532.6</ele>
        <time>2022-04-30T15:11:43Z</time>
      </trkpt>
      <trkpt lat="46.46937" lon="5.40292">
        <ele>533.6</ele>
        <time>2022-04-30T15:11:51Z</time>
      </trkpt>
      <trkpt lat="46.46944" lon="5.40296">
        <ele>534</ele>
        <time>2022-04-30T15:11:53Z</time>
      </trkpt>
      <trkpt lat="46.46963" lon="5.40304">
        <ele>534.8</ele>
        <time>2022-04-30T15:11:58Z</time>
      </trkpt>
      <trkpt lat="46.46978" lon="5.40309">
        <ele>535.8</ele>
        <time>2022-04-30T15:12:02Z</time>
      </trkpt>
      <trkpt lat="46.46983" lon="5.4031">
        <ele>536</ele>
        <time>2022-04-30T15:12:03Z</time>
      </trkpt>
      <trkpt lat="46.47004" lon="5.40317">
        <ele>536.8</ele>
        <time>2022-04-30T15:12:08Z</time>
      </trkpt>
      <trkpt lat="46.47009" lon="5.40318">
        <ele>537</ele>
        <time>2022-04-30T15:12:09Z</time>
      </trkpt>
      <trkpt lat="46.47013" lon="5.40319">
        <ele>537.2</ele>
        <time>2022-04-30T15:12:10Z</time>
      </trkpt>
      <trkpt lat="46.47051" lon="5.40321">
        <ele>537.6</ele>
        <time>2022-04-30T15:12:18Z</time>
      </trkpt>
      <trkpt lat="46.47057" lon="5.40322">
        <ele>537.6</ele>
        <time>2022-04-30T15:12:19Z</time>
      </trkpt>
      <trkpt lat="46.4708" lon="5.40326">
        <ele>537.4</ele>
        <time>2022-04-30T15:12:22Z</time>
      </trkpt>
      <trkpt lat="46.47112" lon="5.40329">
        <ele>535.8</ele>
        <time>2022-04-30T15:12:26Z</time>
      </trkpt>
      <trkpt lat="46.47129" lon="5.40331">
        <ele>534.6</ele>
        <time>2022-04-30T15:12:28Z</time>
      </trkpt>
      <trkpt lat="46.47146" lon="5.40335">
        <ele>534.2</ele>
        <time>2022-04-30T15:12:30Z</time>
      </trkpt>
      <trkpt lat="46.47173" lon="5.40346">
        <ele>533.4</ele>
        <time>2022-04-30T15:12:33Z</time>
      </trkpt>
      <trkpt lat="46.47182" lon="5.40351">
        <ele>532.8</ele>
        <time>2022-04-30T15:12:34Z</time>
      </trkpt>
      <trkpt lat="46.47192" lon="5.40357">
        <ele>532</ele>
        <time>2022-04-30T15:12:35Z</time>
      </trkpt>
      <trkpt lat="46.47202" lon="5.40365">
        <ele>531.4</ele>
        <time>2022-04-30T15:12:36Z</time>
      </trkpt>
      <trkpt lat="46.4722" lon="5.40387">
        <ele>530.4</ele>
        <time>2022-04-30T15:12:38Z</time>
      </trkpt>
      <trkpt lat="46.47227" lon="5.40398">
        <ele>530</ele>
        <time>2022-04-30T15:12:39Z</time>
      </trkpt>
      <trkpt lat="46.47237" lon="5.40409">
        <ele>529.2</ele>
        <time>2022-04-30T15:12:40Z</time>
      </trkpt>
      <trkpt lat="46.47244" lon="5.40415">
        <ele>528.8</ele>
        <time>2022-04-30T15:12:41Z</time>
      </trkpt>
      <trkpt lat="46.47265" lon="5.40426">
        <ele>527.8</ele>
        <time>2022-04-30T15:12:43Z</time>
      </trkpt>
      <trkpt lat="46.47289" lon="5.40434">
        <ele>526.4</ele>
        <time>2022-04-30T15:12:45Z</time>
      </trkpt>
      <trkpt lat="46.47312" lon="5.4044">
        <ele>525</ele>
        <time>2022-04-30T15:12:47Z</time>
      </trkpt>
      <trkpt lat="46.47356" lon="5.40447">
        <ele>524</ele>
        <time>2022-04-30T15:12:51Z</time>
      </trkpt>
      <trkpt lat="46.47375" lon="5.40449">
        <ele>522.6</ele>
        <time>2022-04-30T15:12:53Z</time>
      </trkpt>
      <trkpt lat="46.47399" lon="5.40449">
        <ele>521.4</ele>
        <time>2022-04-30T15:12:55Z</time>
      </trkpt>
      <trkpt lat="46.47418" lon="5.40447">
        <ele>520.6</ele>
        <time>2022-04-30T15:12:57Z</time>
      </trkpt>
      <trkpt lat="46.47431" lon="5.40446">
        <ele>520.2</ele>
        <time>2022-04-30T15:12:58Z</time>
      </trkpt>
      <trkpt lat="46.47461" lon="5.40448">
        <ele>518.6</ele>
        <time>2022-04-30T15:13:01Z</time>
      </trkpt>
      <trkpt lat="46.47468" lon="5.40449">
        <ele>517.8</ele>
        <time>2022-04-30T15:13:02Z</time>
      </trkpt>
      <trkpt lat="46.47477" lon="5.40451">
        <ele>516.8</ele>
        <time>2022-04-30T15:13:03Z</time>
      </trkpt>
      <trkpt lat="46.47484" lon="5.40455">
        <ele>516.4</ele>
        <time>2022-04-30T15:13:04Z</time>
      </trkpt>
      <trkpt lat="46.4749" lon="5.4046">
        <ele>515.4</ele>
        <time>2022-04-30T15:13:05Z</time>
      </trkpt>
      <trkpt lat="46.4751" lon="5.40475">
        <ele>514.4</ele>
        <time>2022-04-30T15:13:07Z</time>
      </trkpt>
      <trkpt lat="46.47518" lon="5.40478">
        <ele>513.4</ele>
        <time>2022-04-30T15:13:08Z</time>
      </trkpt>
      <trkpt lat="46.47539" lon="5.40478">
        <ele>511.8</ele>
        <time>2022-04-30T15:13:10Z</time>
      </trkpt>
      <trkpt lat="46.47549" lon="5.40476">
        <ele>511.4</ele>
        <time>2022-04-30T15:13:11Z</time>
      </trkpt>
      <trkpt lat="46.47556" lon="5.40473">
        <ele>510.8</ele>
        <time>2022-04-30T15:13:12Z</time>
      </trkpt>
      <trkpt lat="46.47568" lon="5.40453">
        <ele>509.8</ele>
        <time>2022-04-30T15:13:14Z</time>
      </trkpt>
      <trkpt lat="46.47564" lon="5.40433">
        <ele>509.4</ele>
        <time>2022-04-30T15:13:15Z</time>
      </trkpt>
      <trkpt lat="46.47558" lon="5.40412">
        <ele>509.4</ele>
        <time>2022-04-30T15:13:16Z</time>
      </trkpt>
      <trkpt lat="46.47545" lon="5.40373">
        <ele>508.8</ele>
        <time>2022-04-30T15:13:18Z</time>
      </trkpt>
      <trkpt lat="46.47539" lon="5.40351">
        <ele>508.2</ele>
        <time>2022-04-30T15:13:19Z</time>
      </trkpt>
      <trkpt lat="46.47536" lon="5.40331">
        <ele>507.4</ele>
        <time>2022-04-30T15:13:20Z</time>
      </trkpt>
      <trkpt lat="46.47539" lon="5.40311">
        <ele>506.6</ele>
        <time>2022-04-30T15:13:21Z</time>
      </trkpt>
      <trkpt lat="46.47542" lon="5.403">
        <ele>506.2</ele>
        <time>2022-04-30T15:13:22Z</time>
      </trkpt>
      <trkpt lat="46.47547" lon="5.40289">
        <ele>505.8</ele>
        <time>2022-04-30T15:13:23Z</time>
      </trkpt>
      <trkpt lat="46.47556" lon="5.40278">
        <ele>505.4</ele>
        <time>2022-04-30T15:13:24Z</time>
      </trkpt>
      <trkpt lat="46.47565" lon="5.40269">
        <ele>505.2</ele>
        <time>2022-04-30T15:13:25Z</time>
      </trkpt>
      <trkpt lat="46.47577" lon="5.4026">
        <ele>504.4</ele>
        <time>2022-04-30T15:13:26Z</time>
      </trkpt>
      <trkpt lat="46.47585" lon="5.40257">
        <ele>503.8</ele>
        <time>2022-04-30T15:13:27Z</time>
      </trkpt>
      <trkpt lat="46.47596" lon="5.40254">
        <ele>502.8</ele>
        <time>2022-04-30T15:13:28Z</time>
      </trkpt>
      <trkpt lat="46.47607" lon="5.40252">
        <ele>501.6</ele>
        <time>2022-04-30T15:13:29Z</time>
      </trkpt>
      <trkpt lat="46.47644" lon="5.40244">
        <ele>500.6</ele>
        <time>2022-04-30T15:13:32Z</time>
      </trkpt>
      <trkpt lat="46.47655" lon="5.40243">
        <ele>499.4</ele>
        <time>2022-04-30T15:13:33Z</time>
      </trkpt>
      <trkpt lat="46.47678" lon="5.40244">
        <ele>498.2</ele>
        <time>2022-04-30T15:13:35Z</time>
      </trkpt>
      <trkpt lat="46.47687" lon="5.40243">
        <ele>497.8</ele>
        <time>2022-04-30T15:13:36Z</time>
      </trkpt>
      <trkpt lat="46.47719" lon="5.40225">
        <ele>497.2</ele>
        <time>2022-04-30T15:13:39Z</time>
      </trkpt>
      <trkpt lat="46.47748" lon="5.402">
        <ele>495.8</ele>
        <time>2022-04-30T15:13:42Z</time>
      </trkpt>
      <trkpt lat="46.47754" lon="5.40175">
        <ele>494.8</ele>
        <time>2022-04-30T15:13:44Z</time>
      </trkpt>
      <trkpt lat="46.47758" lon="5.40165">
        <ele>494</ele>
        <time>2022-04-30T15:13:45Z</time>
      </trkpt>
      <trkpt lat="46.47763" lon="5.40149">
        <ele>493.6</ele>
        <time>2022-04-30T15:13:46Z</time>
      </trkpt>
      <trkpt lat="46.47769" lon="5.40136">
        <ele>492.8</ele>
        <time>2022-04-30T15:13:47Z</time>
      </trkpt>
      <trkpt lat="46.47772" lon="5.40122">
        <ele>492.6</ele>
        <time>2022-04-30T15:13:48Z</time>
      </trkpt>
      <trkpt lat="46.47775" lon="5.40091">
        <ele>491.6</ele>
        <time>2022-04-30T15:13:50Z</time>
      </trkpt>
      <trkpt lat="46.47773" lon="5.40058">
        <ele>490.6</ele>
        <time>2022-04-30T15:13:52Z</time>
      </trkpt>
      <trkpt lat="46.47773" lon="5.40041">
        <ele>490.2</ele>
        <time>2022-04-30T15:13:53Z</time>
      </trkpt>
      <trkpt lat="46.47775" lon="5.40026">
        <ele>489.4</ele>
        <time>2022-04-30T15:13:54Z</time>
      </trkpt>
      <trkpt lat="46.47779" lon="5.40014">
        <ele>489</ele>
        <time>2022-04-30T15:13:55Z</time>
      </trkpt>
      <trkpt lat="46.47785" lon="5.40006">
        <ele>488.2</ele>
        <time>2022-04-30T15:13:56Z</time>
      </trkpt>
      <trkpt lat="46.47793" lon="5.39999">
        <ele>487.8</ele>
        <time>2022-04-30T15:13:57Z</time>
      </trkpt>
      <trkpt lat="46.47803" lon="5.39993">
        <ele>486.8</ele>
        <time>2022-04-30T15:13:58Z</time>
      </trkpt>
      <trkpt lat="46.47812" lon="5.39988">
        <ele>485.6</ele>
        <time>2022-04-30T15:13:59Z</time>
      </trkpt>
      <trkpt lat="46.47831" lon="5.39976">
        <ele>484</ele>
        <time>2022-04-30T15:14:01Z</time>
      </trkpt>
      <trkpt lat="46.47852" lon="5.39964">
        <ele>482.8</ele>
        <time>2022-04-30T15:14:03Z</time>
      </trkpt>
      <trkpt lat="46.47862" lon="5.39958">
        <ele>482.4</ele>
        <time>2022-04-30T15:14:04Z</time>
      </trkpt>
      <trkpt lat="46.47873" lon="5.39952">
        <ele>481.2</ele>
        <time>2022-04-30T15:14:05Z</time>
      </trkpt>
      <trkpt lat="46.47895" lon="5.39939">
        <ele>480</ele>
        <time>2022-04-30T15:14:07Z</time>
      </trkpt>
      <trkpt lat="46.47927" lon="5.3992">
        <ele>478.8</ele>
        <time>2022-04-30T15:14:10Z</time>
      </trkpt>
      <trkpt lat="46.47949" lon="5.39908">
        <ele>477.6</ele>
        <time>2022-04-30T15:14:12Z</time>
      </trkpt>
      <trkpt lat="46.47969" lon="5.39898">
        <ele>476.6</ele>
        <time>2022-04-30T15:14:14Z</time>
      </trkpt>
      <trkpt lat="46.47978" lon="5.39894">
        <ele>476</ele>
        <time>2022-04-30T15:14:15Z</time>
      </trkpt>
      <trkpt lat="46.47996" lon="5.39886">
        <ele>475.2</ele>
        <time>2022-04-30T15:14:17Z</time>
      </trkpt>
      <trkpt lat="46.48005" lon="5.39883">
        <ele>475</ele>
        <time>2022-04-30T15:14:18Z</time>
      </trkpt>
      <trkpt lat="46.48014" lon="5.39882">
        <ele>474.6</ele>
        <time>2022-04-30T15:14:19Z</time>
      </trkpt>
      <trkpt lat="46.48023" lon="5.39883">
        <ele>474.2</ele>
        <time>2022-04-30T15:14:20Z</time>
      </trkpt>
      <trkpt lat="46.48032" lon="5.39886">
        <ele>473.8</ele>
        <time>2022-04-30T15:14:21Z</time>
      </trkpt>
      <trkpt lat="46.4804" lon="5.39891">
        <ele>473.4</ele>
        <time>2022-04-30T15:14:22Z</time>
      </trkpt>
      <trkpt lat="46.48063" lon="5.39905">
        <ele>473.2</ele>
        <time>2022-04-30T15:14:25Z</time>
      </trkpt>
      <trkpt lat="46.48079" lon="5.39909">
        <ele>473.2</ele>
        <time>2022-04-30T15:14:27Z</time>
      </trkpt>
      <trkpt lat="46.48118" lon="5.39904">
        <ele>473</ele>
        <time>2022-04-30T15:14:32Z</time>
      </trkpt>
      <trkpt lat="46.4816" lon="5.39887">
        <ele>473</ele>
        <time>2022-04-30T15:14:37Z</time>
      </trkpt>
      <trkpt lat="46.48183" lon="5.39871">
        <ele>473</ele>
        <time>2022-04-30T15:14:40Z</time>
      </trkpt>
      <trkpt lat="46.48195" lon="5.39854">
        <ele>473</ele>
        <time>2022-04-30T15:14:42Z</time>
      </trkpt>
      <trkpt lat="46.48197" lon="5.39843">
        <ele>472.8</ele>
        <time>2022-04-30T15:14:43Z</time>
      </trkpt>
      <trkpt lat="46.48196" lon="5.3982">
        <ele>472.8</ele>
        <time>2022-04-30T15:14:45Z</time>
      </trkpt>
      <trkpt lat="46.48187" lon="5.39771">
        <ele>472.4</ele>
        <time>2022-04-30T15:14:49Z</time>
      </trkpt>
      <trkpt lat="46.48178" lon="5.39703">
        <ele>471.8</ele>
        <time>2022-04-30T15:14:55Z</time>
      </trkpt>
      <trkpt lat="46.48177" lon="5.3969">
        <ele>471.4</ele>
        <time>2022-04-30T15:14:56Z</time>
      </trkpt>
      <trkpt lat="46.48181" lon="5.39652">
        <ele>470.4</ele>
        <time>2022-04-30T15:14:59Z</time>
      </trkpt>
      <trkpt lat="46.48185" lon="5.39639">
        <ele>470.2</ele>
        <time>2022-04-30T15:15:00Z</time>
      </trkpt>
      <trkpt lat="46.48199" lon="5.396">
        <ele>469</ele>
        <time>2022-04-30T15:15:03Z</time>
      </trkpt>
      <trkpt lat="46.48205" lon="5.39587">
        <ele>468.8</ele>
        <time>2022-04-30T15:15:04Z</time>
      </trkpt>
      <trkpt lat="46.4821" lon="5.39574">
        <ele>468.2</ele>
        <time>2022-04-30T15:15:05Z</time>
      </trkpt>
      <trkpt lat="46.48213" lon="5.39559">
        <ele>467.8</ele>
        <time>2022-04-30T15:15:06Z</time>
      </trkpt>
      <trkpt lat="46.48219" lon="5.39528">
        <ele>465.8</ele>
        <time>2022-04-30T15:15:08Z</time>
      </trkpt>
      <trkpt lat="46.48223" lon="5.39513">
        <ele>465.4</ele>
        <time>2022-04-30T15:15:09Z</time>
      </trkpt>
      <trkpt lat="46.48228" lon="5.39499">
        <ele>464.8</ele>
        <time>2022-04-30T15:15:10Z</time>
      </trkpt>
      <trkpt lat="46.48233" lon="5.39487">
        <ele>463.8</ele>
        <time>2022-04-30T15:15:11Z</time>
      </trkpt>
      <trkpt lat="46.48241" lon="5.39476">
        <ele>462.8</ele>
        <time>2022-04-30T15:15:12Z</time>
      </trkpt>
      <trkpt lat="46.48247" lon="5.3947">
        <ele>462.4</ele>
        <time>2022-04-30T15:15:13Z</time>
      </trkpt>
      <trkpt lat="46.48256" lon="5.39463">
        <ele>461</ele>
        <time>2022-04-30T15:15:14Z</time>
      </trkpt>
      <trkpt lat="46.48262" lon="5.39462">
        <ele>459.6</ele>
        <time>2022-04-30T15:15:15Z</time>
      </trkpt>
      <trkpt lat="46.48278" lon="5.39462">
        <ele>457.6</ele>
        <time>2022-04-30T15:15:17Z</time>
      </trkpt>
      <trkpt lat="46.48289" lon="5.39457">
        <ele>456.2</ele>
        <time>2022-04-30T15:15:19Z</time>
      </trkpt>
      <trkpt lat="46.48294" lon="5.3945">
        <ele>455.4</ele>
        <time>2022-04-30T15:15:20Z</time>
      </trkpt>
      <trkpt lat="46.48298" lon="5.39439">
        <ele>454.2</ele>
        <time>2022-04-30T15:15:21Z</time>
      </trkpt>
      <trkpt lat="46.48302" lon="5.39418">
        <ele>453</ele>
        <time>2022-04-30T15:15:23Z</time>
      </trkpt>
      <trkpt lat="46.4831" lon="5.3939">
        <ele>452</ele>
        <time>2022-04-30T15:15:25Z</time>
      </trkpt>
      <trkpt lat="46.48316" lon="5.39377">
        <ele>451.6</ele>
        <time>2022-04-30T15:15:26Z</time>
      </trkpt>
      <trkpt lat="46.48324" lon="5.39361">
        <ele>451.6</ele>
        <time>2022-04-30T15:15:27Z</time>
      </trkpt>
      <trkpt lat="46.48331" lon="5.39351">
        <ele>450.6</ele>
        <time>2022-04-30T15:15:28Z</time>
      </trkpt>
      <trkpt lat="46.48339" lon="5.39339">
        <ele>450</ele>
        <time>2022-04-30T15:15:29Z</time>
      </trkpt>
      <trkpt lat="46.48349" lon="5.3933">
        <ele>449.2</ele>
        <time>2022-04-30T15:15:30Z</time>
      </trkpt>
      <trkpt lat="46.48355" lon="5.39325">
        <ele>448</ele>
        <time>2022-04-30T15:15:31Z</time>
      </trkpt>
      <trkpt lat="46.48364" lon="5.39322">
        <ele>447.2</ele>
        <time>2022-04-30T15:15:32Z</time>
      </trkpt>
      <trkpt lat="46.48374" lon="5.39321">
        <ele>445.8</ele>
        <time>2022-04-30T15:15:33Z</time>
      </trkpt>
      <trkpt lat="46.48383" lon="5.39322">
        <ele>445</ele>
        <time>2022-04-30T15:15:34Z</time>
      </trkpt>
      <trkpt lat="46.48394" lon="5.39324">
        <ele>444.2</ele>
        <time>2022-04-30T15:15:35Z</time>
      </trkpt>
      <trkpt lat="46.48406" lon="5.39324">
        <ele>443.4</ele>
        <time>2022-04-30T15:15:36Z</time>
      </trkpt>
      <trkpt lat="46.48418" lon="5.39323">
        <ele>441.8</ele>
        <time>2022-04-30T15:15:37Z</time>
      </trkpt>
      <trkpt lat="46.48431" lon="5.39321">
        <ele>440.6</ele>
        <time>2022-04-30T15:15:38Z</time>
      </trkpt>
      <trkpt lat="46.48456" lon="5.39314">
        <ele>439.2</ele>
        <time>2022-04-30T15:15:40Z</time>
      </trkpt>
      <trkpt lat="46.4848" lon="5.39308">
        <ele>438</ele>
        <time>2022-04-30T15:15:42Z</time>
      </trkpt>
      <trkpt lat="46.48504" lon="5.39302">
        <ele>436.4</ele>
        <time>2022-04-30T15:15:44Z</time>
      </trkpt>
      <trkpt lat="46.48519" lon="5.39298">
        <ele>435.6</ele>
        <time>2022-04-30T15:15:45Z</time>
      </trkpt>
      <trkpt lat="46.48529" lon="5.39297">
        <ele>434.6</ele>
        <time>2022-04-30T15:15:46Z</time>
      </trkpt>
      <trkpt lat="46.48542" lon="5.39295">
        <ele>433</ele>
        <time>2022-04-30T15:15:47Z</time>
      </trkpt>
      <trkpt lat="46.48566" lon="5.3929">
        <ele>430.6</ele>
        <time>2022-04-30T15:15:49Z</time>
      </trkpt>
      <trkpt lat="46.48579" lon="5.39289">
        <ele>429.4</ele>
        <time>2022-04-30T15:15:50Z</time>
      </trkpt>
      <trkpt lat="46.48593" lon="5.39286">
        <ele>428.2</ele>
        <time>2022-04-30T15:15:51Z</time>
      </trkpt>
      <trkpt lat="46.48631" lon="5.3928">
        <ele>426.2</ele>
        <time>2022-04-30T15:15:54Z</time>
      </trkpt>
      <trkpt lat="46.48655" lon="5.39279">
        <ele>424.6</ele>
        <time>2022-04-30T15:15:56Z</time>
      </trkpt>
      <trkpt lat="46.48667" lon="5.39281">
        <ele>424</ele>
        <time>2022-04-30T15:15:57Z</time>
      </trkpt>
      <trkpt lat="46.48679" lon="5.39284">
        <ele>422.8</ele>
        <time>2022-04-30T15:15:58Z</time>
      </trkpt>
      <trkpt lat="46.48689" lon="5.39287">
        <ele>422.4</ele>
        <time>2022-04-30T15:15:59Z</time>
      </trkpt>
      <trkpt lat="46.48698" lon="5.39291">
        <ele>421.2</ele>
        <time>2022-04-30T15:16:00Z</time>
      </trkpt>
      <trkpt lat="46.48707" lon="5.39297">
        <ele>419.8</ele>
        <time>2022-04-30T15:16:01Z</time>
      </trkpt>
      <trkpt lat="46.48715" lon="5.39302">
        <ele>419.2</ele>
        <time>2022-04-30T15:16:02Z</time>
      </trkpt>
      <trkpt lat="46.48723" lon="5.39305">
        <ele>417.8</ele>
        <time>2022-04-30T15:16:03Z</time>
      </trkpt>
      <trkpt lat="46.4873" lon="5.39305">
        <ele>417.4</ele>
        <time>2022-04-30T15:16:04Z</time>
      </trkpt>
      <trkpt lat="46.48736" lon="5.393">
        <ele>415.8</ele>
        <time>2022-04-30T15:16:05Z</time>
      </trkpt>
      <trkpt lat="46.4874" lon="5.39292">
        <ele>415.2</ele>
        <time>2022-04-30T15:16:06Z</time>
      </trkpt>
      <trkpt lat="46.48743" lon="5.39283">
        <ele>414.4</ele>
        <time>2022-04-30T15:16:07Z</time>
      </trkpt>
      <trkpt lat="46.48738" lon="5.39272">
        <ele>413.8</ele>
        <time>2022-04-30T15:16:08Z</time>
      </trkpt>
      <trkpt lat="46.48725" lon="5.39252">
        <ele>412.6</ele>
        <time>2022-04-30T15:16:10Z</time>
      </trkpt>
      <trkpt lat="46.48708" lon="5.3923">
        <ele>410.8</ele>
        <time>2022-04-30T15:16:12Z</time>
      </trkpt>
      <trkpt lat="46.48689" lon="5.39206">
        <ele>408.8</ele>
        <time>2022-04-30T15:16:14Z</time>
      </trkpt>
      <trkpt lat="46.4868" lon="5.39193">
        <ele>407.2</ele>
        <time>2022-04-30T15:16:15Z</time>
      </trkpt>
      <trkpt lat="46.48662" lon="5.39165">
        <ele>405.4</ele>
        <time>2022-04-30T15:16:17Z</time>
      </trkpt>
      <trkpt lat="46.4864" lon="5.39141">
        <ele>404.4</ele>
        <time>2022-04-30T15:16:19Z</time>
      </trkpt>
      <trkpt lat="46.48604" lon="5.39112">
        <ele>401.8</ele>
        <time>2022-04-30T15:16:22Z</time>
      </trkpt>
      <trkpt lat="46.48592" lon="5.39103">
        <ele>401.4</ele>
        <time>2022-04-30T15:16:23Z</time>
      </trkpt>
      <trkpt lat="46.48579" lon="5.39093">
        <ele>399.8</ele>
        <time>2022-04-30T15:16:24Z</time>
      </trkpt>
      <trkpt lat="46.48553" lon="5.39077">
        <ele>397.4</ele>
        <time>2022-04-30T15:16:26Z</time>
      </trkpt>
      <trkpt lat="46.48526" lon="5.3906">
        <ele>395.4</ele>
        <time>2022-04-30T15:16:28Z</time>
      </trkpt>
      <trkpt lat="46.48503" lon="5.39032">
        <ele>392.8</ele>
        <time>2022-04-30T15:16:30Z</time>
      </trkpt>
      <trkpt lat="46.48496" lon="5.39013">
        <ele>390.6</ele>
        <time>2022-04-30T15:16:31Z</time>
      </trkpt>
      <trkpt lat="46.48484" lon="5.38972">
        <ele>388.2</ele>
        <time>2022-04-30T15:16:33Z</time>
      </trkpt>
      <trkpt lat="46.48468" lon="5.38936">
        <ele>386.4</ele>
        <time>2022-04-30T15:16:35Z</time>
      </trkpt>
      <trkpt lat="46.48463" lon="5.38925">
        <ele>385.6</ele>
        <time>2022-04-30T15:16:36Z</time>
      </trkpt>
      <trkpt lat="46.48457" lon="5.38911">
        <ele>384.8</ele>
        <time>2022-04-30T15:16:37Z</time>
      </trkpt>
      <trkpt lat="46.48453" lon="5.38896">
        <ele>383</ele>
        <time>2022-04-30T15:16:38Z</time>
      </trkpt>
      <trkpt lat="46.48451" lon="5.38881">
        <ele>382.4</ele>
        <time>2022-04-30T15:16:39Z</time>
      </trkpt>
      <trkpt lat="46.48453" lon="5.38866">
        <ele>381</ele>
        <time>2022-04-30T15:16:40Z</time>
      </trkpt>
      <trkpt lat="46.48457" lon="5.3885">
        <ele>380.6</ele>
        <time>2022-04-30T15:16:41Z</time>
      </trkpt>
      <trkpt lat="46.48464" lon="5.38843">
        <ele>379.4</ele>
        <time>2022-04-30T15:16:42Z</time>
      </trkpt>
      <trkpt lat="46.48483" lon="5.3883">
        <ele>378.2</ele>
        <time>2022-04-30T15:16:44Z</time>
      </trkpt>
      <trkpt lat="46.48504" lon="5.38818">
        <ele>377.4</ele>
        <time>2022-04-30T15:16:46Z</time>
      </trkpt>
      <trkpt lat="46.48514" lon="5.38812">
        <ele>376.8</ele>
        <time>2022-04-30T15:16:47Z</time>
      </trkpt>
      <trkpt lat="46.48537" lon="5.38798">
        <ele>374.8</ele>
        <time>2022-04-30T15:16:49Z</time>
      </trkpt>
      <trkpt lat="46.48556" lon="5.38785">
        <ele>373.4</ele>
        <time>2022-04-30T15:16:51Z</time>
      </trkpt>
      <trkpt lat="46.48576" lon="5.38774">
        <ele>372.6</ele>
        <time>2022-04-30T15:16:53Z</time>
      </trkpt>
      <trkpt lat="46.48584" lon="5.38773">
        <ele>371.2</ele>
        <time>2022-04-30T15:16:54Z</time>
      </trkpt>
      <trkpt lat="46.48592" lon="5.38774">
        <ele>370.4</ele>
        <time>2022-04-30T15:16:55Z</time>
      </trkpt>
      <trkpt lat="46.48599" lon="5.38777">
        <ele>369.4</ele>
        <time>2022-04-30T15:16:56Z</time>
      </trkpt>
      <trkpt lat="46.48607" lon="5.38777">
        <ele>368.8</ele>
        <time>2022-04-30T15:16:57Z</time>
      </trkpt>
      <trkpt lat="46.48615" lon="5.38771">
        <ele>367.8</ele>
        <time>2022-04-30T15:16:58Z</time>
      </trkpt>
      <trkpt lat="46.48621" lon="5.38762">
        <ele>367.4</ele>
        <time>2022-04-30T15:16:59Z</time>
      </trkpt>
      <trkpt lat="46.48627" lon="5.38751">
        <ele>366.4</ele>
        <time>2022-04-30T15:17:00Z</time>
      </trkpt>
      <trkpt lat="46.48632" lon="5.38738">
        <ele>365</ele>
        <time>2022-04-30T15:17:01Z</time>
      </trkpt>
      <trkpt lat="46.48637" lon="5.38721">
        <ele>364.4</ele>
        <time>2022-04-30T15:17:02Z</time>
      </trkpt>
      <trkpt lat="46.48639" lon="5.38709">
        <ele>363.2</ele>
        <time>2022-04-30T15:17:03Z</time>
      </trkpt>
      <trkpt lat="46.48641" lon="5.38694">
        <ele>362.6</ele>
        <time>2022-04-30T15:17:04Z</time>
      </trkpt>
      <trkpt lat="46.48641" lon="5.38678">
        <ele>361.8</ele>
        <time>2022-04-30T15:17:05Z</time>
      </trkpt>
      <trkpt lat="46.4864" lon="5.38662">
        <ele>361.6</ele>
        <time>2022-04-30T15:17:06Z</time>
      </trkpt>
      <trkpt lat="46.4863" lon="5.38611">
        <ele>360.2</ele>
        <time>2022-04-30T15:17:09Z</time>
      </trkpt>
      <trkpt lat="46.48627" lon="5.38599">
        <ele>359.4</ele>
        <time>2022-04-30T15:17:10Z</time>
      </trkpt>
      <trkpt lat="46.48623" lon="5.38584">
        <ele>359</ele>
        <time>2022-04-30T15:17:11Z</time>
      </trkpt>
      <trkpt lat="46.48619" lon="5.38568">
        <ele>358</ele>
        <time>2022-04-30T15:17:12Z</time>
      </trkpt>
      <trkpt lat="46.48611" lon="5.38537">
        <ele>356.8</ele>
        <time>2022-04-30T15:17:14Z</time>
      </trkpt>
      <trkpt lat="46.48601" lon="5.38503">
        <ele>355.6</ele>
        <time>2022-04-30T15:17:16Z</time>
      </trkpt>
    </trkseg>
  </trk>
</gpx>